<?xml version="1.0" encoding="UTF-8" standalone="no" ?>
<gpx xmlns="http://www.topografix.com/GPX/1/1" xmlns:xsi="http://www.w3.org/2001/XMLSchema-instance" xsi:schemaLocation="http://www.topografix.com/GPX/1/1 http://www.topografix.com/GPX/1/1/gpx.xsd" version="1.1" creator="VisuGPX - https://www.visugpx.com">
  <metadata>
    <name>Edirne-Mostar</name>
  </metadata>
  <trk>
    <name><![CDATA[Tour d'Europe: étape 677]]></name>
    <extensions>
      <line xmlns="http://www.topografix.com/GPX/gpx_style/0/2">
        <color>888800</color>
        <width>4</width>
      </line>
    </extensions>
    <trkseg>
      <trkpt lat="41.31417" lon="19.47179">
        <ele>122.422934</ele>
        <time>2022-05-06T07:58:55.233Z</time>
      </trkpt>
      <trkpt lat="41.31402" lon="19.47172">
        <ele>122.422934</ele>
        <time>2022-05-06T07:58:56.042Z</time>
      </trkpt>
      <trkpt lat="41.31423" lon="19.47181">
        <ele>122.422934</ele>
        <time>2022-05-06T07:59:02.581Z</time>
      </trkpt>
      <trkpt lat="41.31442" lon="19.47185">
        <ele>122.422934</ele>
        <time>2022-05-06T08:00:03.536Z</time>
      </trkpt>
      <trkpt lat="41.31462" lon="19.47171">
        <ele>122.422934</ele>
        <time>2022-05-06T08:25:56.541Z</time>
      </trkpt>
      <trkpt lat="41.31473" lon="19.4717">
        <ele>122.381689</ele>
        <time>2022-05-06T08:26:01.562Z</time>
      </trkpt>
      <trkpt lat="41.31484" lon="19.47151">
        <ele>115.195053</ele>
        <time>2022-05-06T08:26:11.554Z</time>
      </trkpt>
      <trkpt lat="41.31481" lon="19.47138">
        <ele>110.937025</ele>
        <time>2022-05-06T08:26:25.518Z</time>
      </trkpt>
      <trkpt lat="41.3148" lon="19.47125">
        <ele>107.148693</ele>
        <time>2022-05-06T08:26:29.546Z</time>
      </trkpt>
      <trkpt lat="41.31483" lon="19.47111">
        <ele>102.615284</ele>
        <time>2022-05-06T08:26:32.544Z</time>
      </trkpt>
      <trkpt lat="41.31487" lon="19.47098">
        <ele>98.449809</ele>
        <time>2022-05-06T08:26:34.541Z</time>
      </trkpt>
      <trkpt lat="41.31492" lon="19.47086">
        <ele>94.373858</ele>
        <time>2022-05-06T08:26:38.567Z</time>
      </trkpt>
      <trkpt lat="41.3149" lon="19.47074">
        <ele>90.626656</ele>
        <time>2022-05-06T08:26:40.681Z</time>
      </trkpt>
      <trkpt lat="41.31493" lon="19.4706">
        <ele>86.061263</ele>
        <time>2022-05-06T08:26:43.524Z</time>
      </trkpt>
      <trkpt lat="41.31494" lon="19.47045">
        <ele>81.747651</ele>
        <time>2022-05-06T08:26:46.534Z</time>
      </trkpt>
      <trkpt lat="41.31497" lon="19.47029">
        <ele>76.7239</ele>
        <time>2022-05-06T08:26:49.523Z</time>
      </trkpt>
      <trkpt lat="41.31499" lon="19.47015">
        <ele>72.443416</ele>
        <time>2022-05-06T08:26:52.573Z</time>
      </trkpt>
      <trkpt lat="41.31503" lon="19.47004">
        <ele>68.647944</ele>
        <time>2022-05-06T08:26:55.574Z</time>
      </trkpt>
      <trkpt lat="41.31512" lon="19.46999">
        <ele>64.636076</ele>
        <time>2022-05-06T08:27:00.567Z</time>
      </trkpt>
      <trkpt lat="41.31521" lon="19.46994">
        <ele>60.992161</ele>
        <time>2022-05-06T08:27:03.529Z</time>
      </trkpt>
      <trkpt lat="41.31525" lon="19.46982">
        <ele>57.037588</ele>
        <time>2022-05-06T08:27:06.530Z</time>
      </trkpt>
      <trkpt lat="41.31525" lon="19.46969">
        <ele>52.984591</ele>
        <time>2022-05-06T08:27:09.534Z</time>
      </trkpt>
      <trkpt lat="41.31522" lon="19.46955">
        <ele>49.730985</ele>
        <time>2022-05-06T08:27:13.551Z</time>
      </trkpt>
      <trkpt lat="41.31522" lon="19.4694">
        <ele>48.952506</ele>
        <time>2022-05-06T08:27:17.540Z</time>
      </trkpt>
      <trkpt lat="41.31523" lon="19.46925">
        <ele>48.13219</ele>
        <time>2022-05-06T08:27:21.530Z</time>
      </trkpt>
      <trkpt lat="41.31524" lon="19.46911">
        <ele>47.336234</ele>
        <time>2022-05-06T08:27:25.531Z</time>
      </trkpt>
      <trkpt lat="41.31524" lon="19.46896">
        <ele>46.553127</ele>
        <time>2022-05-06T08:27:29.543Z</time>
      </trkpt>
      <trkpt lat="41.31525" lon="19.46881">
        <ele>45.715392</ele>
        <time>2022-05-06T08:27:33.530Z</time>
      </trkpt>
      <trkpt lat="41.31531" lon="19.46868">
        <ele>44.884152</ele>
        <time>2022-05-06T08:27:37.540Z</time>
      </trkpt>
      <trkpt lat="41.31539" lon="19.46859">
        <ele>44.100717</ele>
        <time>2022-05-06T08:27:41.535Z</time>
      </trkpt>
      <trkpt lat="41.31547" lon="19.4685">
        <ele>43.370936</ele>
        <time>2022-05-06T08:27:45.575Z</time>
      </trkpt>
      <trkpt lat="41.31556" lon="19.46844">
        <ele>42.639666</ele>
        <time>2022-05-06T08:27:49.545Z</time>
      </trkpt>
      <trkpt lat="41.31566" lon="19.46837">
        <ele>41.788453</ele>
        <time>2022-05-06T08:27:53.534Z</time>
      </trkpt>
      <trkpt lat="41.31574" lon="19.46831">
        <ele>41.129961</ele>
        <time>2022-05-06T08:27:56.532Z</time>
      </trkpt>
      <trkpt lat="41.31582" lon="19.46824">
        <ele>40.466928</ele>
        <time>2022-05-06T08:27:59.586Z</time>
      </trkpt>
      <trkpt lat="41.31591" lon="19.46815">
        <ele>39.662527</ele>
        <time>2022-05-06T08:28:03.527Z</time>
      </trkpt>
      <trkpt lat="41.31598" lon="19.46804">
        <ele>38.894984</ele>
        <time>2022-05-06T08:28:07.540Z</time>
      </trkpt>
      <trkpt lat="41.31604" lon="19.46795">
        <ele>38.228826</ele>
        <time>2022-05-06T08:28:11.536Z</time>
      </trkpt>
      <trkpt lat="41.31608" lon="19.46784">
        <ele>37.573451</ele>
        <time>2022-05-06T08:28:15.532Z</time>
      </trkpt>
      <trkpt lat="41.31612" lon="19.46773">
        <ele>37.034288</ele>
        <time>2022-05-06T08:28:20.583Z</time>
      </trkpt>
      <trkpt lat="41.31616" lon="19.4676">
        <ele>37.461386</ele>
        <time>2022-05-06T08:28:24.532Z</time>
      </trkpt>
      <trkpt lat="41.31618" lon="19.46747">
        <ele>37.889605</ele>
        <time>2022-05-06T08:28:28.553Z</time>
      </trkpt>
      <trkpt lat="41.31618" lon="19.46733">
        <ele>38.323726</ele>
        <time>2022-05-06T08:28:32.550Z</time>
      </trkpt>
      <trkpt lat="41.31616" lon="19.4672">
        <ele>38.763609</ele>
        <time>2022-05-06T08:28:38.541Z</time>
      </trkpt>
      <trkpt lat="41.31617" lon="19.46706">
        <ele>39.183528</ele>
        <time>2022-05-06T08:28:46.529Z</time>
      </trkpt>
      <trkpt lat="41.31622" lon="19.46696">
        <ele>39.567128</ele>
        <time>2022-05-06T08:28:51.560Z</time>
      </trkpt>
      <trkpt lat="41.31629" lon="19.46687">
        <ele>39.981549</ele>
        <time>2022-05-06T08:28:56.539Z</time>
      </trkpt>
      <trkpt lat="41.31638" lon="19.46682">
        <ele>40.390555</ele>
        <time>2022-05-06T08:29:01.527Z</time>
      </trkpt>
      <trkpt lat="41.31649" lon="19.4668">
        <ele>40.861177</ele>
        <time>2022-05-06T08:29:05.537Z</time>
      </trkpt>
      <trkpt lat="41.31658" lon="19.46679">
        <ele>41.252148</ele>
        <time>2022-05-06T08:29:08.543Z</time>
      </trkpt>
      <trkpt lat="41.31667" lon="19.46671">
        <ele>41.697053</ele>
        <time>2022-05-06T08:29:12.548Z</time>
      </trkpt>
      <trkpt lat="41.3167" lon="19.46659">
        <ele>42.117145</ele>
        <time>2022-05-06T08:29:15.550Z</time>
      </trkpt>
      <trkpt lat="41.31673" lon="19.46645">
        <ele>42.57712</ele>
        <time>2022-05-06T08:29:18.547Z</time>
      </trkpt>
      <trkpt lat="41.31675" lon="19.46633">
        <ele>42.966716</ele>
        <time>2022-05-06T08:29:21.579Z</time>
      </trkpt>
      <trkpt lat="41.31678" lon="19.4662">
        <ele>43.381197</ele>
        <time>2022-05-06T08:29:24.551Z</time>
      </trkpt>
      <trkpt lat="41.31681" lon="19.46608">
        <ele>43.800528</ele>
        <time>2022-05-06T08:29:27.536Z</time>
      </trkpt>
      <trkpt lat="41.31684" lon="19.46594">
        <ele>44.261123</ele>
        <time>2022-05-06T08:29:30.581Z</time>
      </trkpt>
      <trkpt lat="41.31687" lon="19.4658">
        <ele>44.59369</ele>
        <time>2022-05-06T08:29:33.545Z</time>
      </trkpt>
      <trkpt lat="41.3169" lon="19.46566">
        <ele>44.689914</ele>
        <time>2022-05-06T08:29:36.536Z</time>
      </trkpt>
      <trkpt lat="41.31693" lon="19.46553">
        <ele>44.782927</ele>
        <time>2022-05-06T08:29:39.533Z</time>
      </trkpt>
      <trkpt lat="41.31696" lon="19.46539">
        <ele>44.877378</ele>
        <time>2022-05-06T08:29:42.538Z</time>
      </trkpt>
      <trkpt lat="41.31699" lon="19.46526">
        <ele>44.969248</ele>
        <time>2022-05-06T08:29:45.552Z</time>
      </trkpt>
      <trkpt lat="41.31703" lon="19.46513">
        <ele>45.060527</ele>
        <time>2022-05-06T08:29:48.543Z</time>
      </trkpt>
      <trkpt lat="41.31706" lon="19.46497">
        <ele>45.171201</ele>
        <time>2022-05-06T08:29:51.544Z</time>
      </trkpt>
      <trkpt lat="41.31708" lon="19.46481">
        <ele>45.284864</ele>
        <time>2022-05-06T08:29:54.563Z</time>
      </trkpt>
      <trkpt lat="41.31709" lon="19.46464">
        <ele>45.396082</ele>
        <time>2022-05-06T08:29:57.553Z</time>
      </trkpt>
      <trkpt lat="41.31711" lon="19.46448">
        <ele>45.503972</ele>
        <time>2022-05-06T08:30:00.540Z</time>
      </trkpt>
      <trkpt lat="41.31711" lon="19.46433">
        <ele>45.607789</ele>
        <time>2022-05-06T08:30:03.535Z</time>
      </trkpt>
      <trkpt lat="41.31713" lon="19.46418">
        <ele>45.707526</ele>
        <time>2022-05-06T08:30:06.550Z</time>
      </trkpt>
      <trkpt lat="41.31716" lon="19.46405">
        <ele>45.800451</ele>
        <time>2022-05-06T08:30:09.551Z</time>
      </trkpt>
      <trkpt lat="41.31717" lon="19.46393">
        <ele>45.880443</ele>
        <time>2022-05-06T08:30:12.567Z</time>
      </trkpt>
      <trkpt lat="41.31719" lon="19.4638">
        <ele>45.967543</ele>
        <time>2022-05-06T08:30:15.582Z</time>
      </trkpt>
      <trkpt lat="41.31722" lon="19.46366">
        <ele>46.066088</ele>
        <time>2022-05-06T08:30:18.556Z</time>
      </trkpt>
      <trkpt lat="41.31724" lon="19.46351">
        <ele>46.149955</ele>
        <time>2022-05-06T08:30:21.536Z</time>
      </trkpt>
      <trkpt lat="41.31726" lon="19.46335">
        <ele>45.892906</ele>
        <time>2022-05-06T08:30:24.568Z</time>
      </trkpt>
      <trkpt lat="41.31728" lon="19.4632">
        <ele>45.634641</ele>
        <time>2022-05-06T08:30:27.551Z</time>
      </trkpt>
      <trkpt lat="41.31731" lon="19.46305">
        <ele>45.375935</ele>
        <time>2022-05-06T08:30:30.549Z</time>
      </trkpt>
      <trkpt lat="41.31733" lon="19.46289">
        <ele>45.105463</ele>
        <time>2022-05-06T08:30:33.539Z</time>
      </trkpt>
      <trkpt lat="41.31734" lon="19.46271">
        <ele>44.812282</ele>
        <time>2022-05-06T08:30:36.534Z</time>
      </trkpt>
      <trkpt lat="41.31735" lon="19.46258">
        <ele>44.600316</ele>
        <time>2022-05-06T08:30:38.552Z</time>
      </trkpt>
      <trkpt lat="41.31736" lon="19.46244">
        <ele>44.370619</ele>
        <time>2022-05-06T08:30:40.557Z</time>
      </trkpt>
      <trkpt lat="41.31737" lon="19.4623">
        <ele>44.135488</ele>
        <time>2022-05-06T08:30:42.547Z</time>
      </trkpt>
      <trkpt lat="41.31739" lon="19.46216">
        <ele>43.899779</ele>
        <time>2022-05-06T08:30:44.542Z</time>
      </trkpt>
      <trkpt lat="41.3174" lon="19.46203">
        <ele>43.67093</ele>
        <time>2022-05-06T08:30:46.572Z</time>
      </trkpt>
      <trkpt lat="41.31741" lon="19.4619">
        <ele>43.454632</ele>
        <time>2022-05-06T08:30:48.540Z</time>
      </trkpt>
      <trkpt lat="41.31742" lon="19.46176">
        <ele>43.229624</ele>
        <time>2022-05-06T08:30:50.561Z</time>
      </trkpt>
      <trkpt lat="41.31743" lon="19.46163">
        <ele>43.019002</ele>
        <time>2022-05-06T08:30:52.531Z</time>
      </trkpt>
      <trkpt lat="41.31744" lon="19.4615">
        <ele>42.791559</ele>
        <time>2022-05-06T08:30:54.544Z</time>
      </trkpt>
      <trkpt lat="41.31745" lon="19.46136">
        <ele>42.571967</ele>
        <time>2022-05-06T08:30:56.552Z</time>
      </trkpt>
      <trkpt lat="41.31745" lon="19.46123">
        <ele>42.355039</ele>
        <time>2022-05-06T08:30:58.559Z</time>
      </trkpt>
      <trkpt lat="41.31745" lon="19.46111">
        <ele>42.136316</ele>
        <time>2022-05-06T08:31:00.528Z</time>
      </trkpt>
      <trkpt lat="41.31746" lon="19.46098">
        <ele>41.87837</ele>
        <time>2022-05-06T08:31:02.550Z</time>
      </trkpt>
      <trkpt lat="41.31746" lon="19.46085">
        <ele>41.620778</ele>
        <time>2022-05-06T08:31:04.540Z</time>
      </trkpt>
      <trkpt lat="41.31746" lon="19.46073">
        <ele>41.365157</ele>
        <time>2022-05-06T08:31:06.525Z</time>
      </trkpt>
      <trkpt lat="41.31746" lon="19.4606">
        <ele>41.095274</ele>
        <time>2022-05-06T08:31:08.538Z</time>
      </trkpt>
      <trkpt lat="41.31745" lon="19.46047">
        <ele>40.834966</ele>
        <time>2022-05-06T08:31:10.549Z</time>
      </trkpt>
      <trkpt lat="41.31744" lon="19.46035">
        <ele>40.587279</ele>
        <time>2022-05-06T08:31:12.546Z</time>
      </trkpt>
      <trkpt lat="41.31744" lon="19.46018">
        <ele>40.241953</ele>
        <time>2022-05-06T08:31:15.547Z</time>
      </trkpt>
      <trkpt lat="41.31743" lon="19.46001">
        <ele>39.897644</ele>
        <time>2022-05-06T08:31:18.542Z</time>
      </trkpt>
      <trkpt lat="41.31742" lon="19.45983">
        <ele>39.536448</ele>
        <time>2022-05-06T08:31:21.548Z</time>
      </trkpt>
      <trkpt lat="41.31742" lon="19.4597">
        <ele>39.270523</ele>
        <time>2022-05-06T08:31:23.547Z</time>
      </trkpt>
      <trkpt lat="41.31741" lon="19.45956">
        <ele>38.990502</ele>
        <time>2022-05-06T08:31:25.559Z</time>
      </trkpt>
      <trkpt lat="41.31741" lon="19.45942">
        <ele>38.714642</ele>
        <time>2022-05-06T08:31:27.541Z</time>
      </trkpt>
      <trkpt lat="41.31741" lon="19.45929">
        <ele>38.448594</ele>
        <time>2022-05-06T08:31:29.540Z</time>
      </trkpt>
      <trkpt lat="41.3174" lon="19.45916">
        <ele>38.182011</ele>
        <time>2022-05-06T08:31:31.535Z</time>
      </trkpt>
      <trkpt lat="41.3174" lon="19.45902">
        <ele>37.903808</ele>
        <time>2022-05-06T08:31:33.546Z</time>
      </trkpt>
      <trkpt lat="41.31739" lon="19.45889">
        <ele>37.625723</ele>
        <time>2022-05-06T08:31:35.558Z</time>
      </trkpt>
      <trkpt lat="41.31739" lon="19.45875">
        <ele>37.351784</ele>
        <time>2022-05-06T08:31:37.543Z</time>
      </trkpt>
      <trkpt lat="41.31739" lon="19.45862">
        <ele>37.290619</ele>
        <time>2022-05-06T08:31:39.528Z</time>
      </trkpt>
      <trkpt lat="41.31738" lon="19.45844">
        <ele>37.216267</ele>
        <time>2022-05-06T08:31:42.538Z</time>
      </trkpt>
      <trkpt lat="41.31737" lon="19.45832">
        <ele>37.163927</ele>
        <time>2022-05-06T08:31:44.543Z</time>
      </trkpt>
      <trkpt lat="41.31737" lon="19.45819">
        <ele>37.110234</ele>
        <time>2022-05-06T08:31:46.541Z</time>
      </trkpt>
      <trkpt lat="41.31736" lon="19.45806">
        <ele>37.057781</ele>
        <time>2022-05-06T08:31:48.532Z</time>
      </trkpt>
      <trkpt lat="41.31735" lon="19.45794">
        <ele>37.005434</ele>
        <time>2022-05-06T08:31:50.552Z</time>
      </trkpt>
      <trkpt lat="41.31733" lon="19.45781">
        <ele>36.951991</ele>
        <time>2022-05-06T08:31:52.539Z</time>
      </trkpt>
      <trkpt lat="41.31733" lon="19.45768">
        <ele>36.899619</ele>
        <time>2022-05-06T08:31:54.552Z</time>
      </trkpt>
      <trkpt lat="41.31732" lon="19.45756">
        <ele>36.84728</ele>
        <time>2022-05-06T08:31:56.593Z</time>
      </trkpt>
      <trkpt lat="41.31732" lon="19.45743">
        <ele>36.795354</ele>
        <time>2022-05-06T08:31:58.536Z</time>
      </trkpt>
      <trkpt lat="41.31731" lon="19.45731">
        <ele>36.742945</ele>
        <time>2022-05-06T08:32:00.544Z</time>
      </trkpt>
      <trkpt lat="41.31731" lon="19.45718">
        <ele>36.691401</ele>
        <time>2022-05-06T08:32:02.540Z</time>
      </trkpt>
      <trkpt lat="41.3173" lon="19.45706">
        <ele>36.641132</ele>
        <time>2022-05-06T08:32:04.529Z</time>
      </trkpt>
      <trkpt lat="41.31729" lon="19.45694">
        <ele>36.590694</ele>
        <time>2022-05-06T08:32:06.534Z</time>
      </trkpt>
      <trkpt lat="41.31729" lon="19.45682">
        <ele>36.540425</ele>
        <time>2022-05-06T08:32:08.531Z</time>
      </trkpt>
      <trkpt lat="41.31727" lon="19.4567">
        <ele>36.488974</ele>
        <time>2022-05-06T08:32:10.536Z</time>
      </trkpt>
      <trkpt lat="41.31726" lon="19.45657">
        <ele>36.434005</ele>
        <time>2022-05-06T08:32:12.539Z</time>
      </trkpt>
      <trkpt lat="41.31724" lon="19.45643">
        <ele>36.377806</ele>
        <time>2022-05-06T08:32:14.563Z</time>
      </trkpt>
      <trkpt lat="41.31723" lon="19.4563">
        <ele>36.423155</ele>
        <time>2022-05-06T08:32:16.526Z</time>
      </trkpt>
      <trkpt lat="41.31721" lon="19.45617">
        <ele>36.572619</ele>
        <time>2022-05-06T08:32:18.545Z</time>
      </trkpt>
      <trkpt lat="41.31719" lon="19.45605">
        <ele>36.715751</ele>
        <time>2022-05-06T08:32:20.537Z</time>
      </trkpt>
      <trkpt lat="41.31718" lon="19.45592">
        <ele>36.857619</ele>
        <time>2022-05-06T08:32:22.548Z</time>
      </trkpt>
      <trkpt lat="41.31717" lon="19.4558">
        <ele>36.998213</ele>
        <time>2022-05-06T08:32:24.566Z</time>
      </trkpt>
      <trkpt lat="41.31716" lon="19.45567">
        <ele>37.142865</ele>
        <time>2022-05-06T08:32:26.545Z</time>
      </trkpt>
      <trkpt lat="41.31714" lon="19.45554">
        <ele>37.285969</ele>
        <time>2022-05-06T08:32:28.532Z</time>
      </trkpt>
      <trkpt lat="41.3171" lon="19.45538">
        <ele>37.47621</ele>
        <time>2022-05-06T08:32:31.531Z</time>
      </trkpt>
      <trkpt lat="41.31708" lon="19.45524">
        <ele>37.644463</ele>
        <time>2022-05-06T08:32:34.539Z</time>
      </trkpt>
      <trkpt lat="41.31703" lon="19.45507">
        <ele>37.846432</ele>
        <time>2022-05-06T08:32:37.529Z</time>
      </trkpt>
      <trkpt lat="41.317" lon="19.45494">
        <ele>37.995408</ele>
        <time>2022-05-06T08:32:39.544Z</time>
      </trkpt>
      <trkpt lat="41.31697" lon="19.45482">
        <ele>38.138623</ele>
        <time>2022-05-06T08:32:41.543Z</time>
      </trkpt>
      <trkpt lat="41.31693" lon="19.45465">
        <ele>38.34075</ele>
        <time>2022-05-06T08:32:44.583Z</time>
      </trkpt>
      <trkpt lat="41.31688" lon="19.45451">
        <ele>38.512025</ele>
        <time>2022-05-06T08:32:47.555Z</time>
      </trkpt>
      <trkpt lat="41.31682" lon="19.45439">
        <ele>38.684625</ele>
        <time>2022-05-06T08:32:50.528Z</time>
      </trkpt>
      <trkpt lat="41.31676" lon="19.45422">
        <ele>38.891834</ele>
        <time>2022-05-06T08:32:53.559Z</time>
      </trkpt>
      <trkpt lat="41.31673" lon="19.4541">
        <ele>39.036711</ele>
        <time>2022-05-06T08:32:55.543Z</time>
      </trkpt>
      <trkpt lat="41.31671" lon="19.45395">
        <ele>39.190999</ele>
        <time>2022-05-06T08:32:57.534Z</time>
      </trkpt>
      <trkpt lat="41.31667" lon="19.45382">
        <ele>39.33261</ele>
        <time>2022-05-06T08:32:59.538Z</time>
      </trkpt>
      <trkpt lat="41.31662" lon="19.4537">
        <ele>39.46509</ele>
        <time>2022-05-06T08:33:01.533Z</time>
      </trkpt>
      <trkpt lat="41.31656" lon="19.45358">
        <ele>39.605731</ele>
        <time>2022-05-06T08:33:03.564Z</time>
      </trkpt>
      <trkpt lat="41.3165" lon="19.45346">
        <ele>39.752463</ele>
        <time>2022-05-06T08:33:05.553Z</time>
      </trkpt>
      <trkpt lat="41.31642" lon="19.45335">
        <ele>39.89727</ele>
        <time>2022-05-06T08:33:07.552Z</time>
      </trkpt>
      <trkpt lat="41.31633" lon="19.45325">
        <ele>40.063167</ele>
        <time>2022-05-06T08:33:09.559Z</time>
      </trkpt>
      <trkpt lat="41.31623" lon="19.45315">
        <ele>40.218211</ele>
        <time>2022-05-06T08:33:11.546Z</time>
      </trkpt>
      <trkpt lat="41.31615" lon="19.45306">
        <ele>40.364328</ele>
        <time>2022-05-06T08:33:13.550Z</time>
      </trkpt>
      <trkpt lat="41.31607" lon="19.45297">
        <ele>40.497813</ele>
        <time>2022-05-06T08:33:15.553Z</time>
      </trkpt>
      <trkpt lat="41.316" lon="19.45289">
        <ele>40.625803</ele>
        <time>2022-05-06T08:33:17.539Z</time>
      </trkpt>
      <trkpt lat="41.31589" lon="19.45279">
        <ele>40.79499</ele>
        <time>2022-05-06T08:33:20.528Z</time>
      </trkpt>
      <trkpt lat="41.31581" lon="19.45274">
        <ele>40.915967</ele>
        <time>2022-05-06T08:33:24.593Z</time>
      </trkpt>
      <trkpt lat="41.31573" lon="19.45264">
        <ele>41.056685</ele>
        <time>2022-05-06T08:33:28.548Z</time>
      </trkpt>
      <trkpt lat="41.31565" lon="19.45256">
        <ele>41.189106</ele>
        <time>2022-05-06T08:33:31.542Z</time>
      </trkpt>
      <trkpt lat="41.31557" lon="19.45249">
        <ele>41.32031</ele>
        <time>2022-05-06T08:33:34.543Z</time>
      </trkpt>
      <trkpt lat="41.31548" lon="19.45242">
        <ele>41.408075</ele>
        <time>2022-05-06T08:33:37.541Z</time>
      </trkpt>
      <trkpt lat="41.31539" lon="19.45235">
        <ele>41.333618</ele>
        <time>2022-05-06T08:33:40.593Z</time>
      </trkpt>
      <trkpt lat="41.31529" lon="19.45228">
        <ele>41.253076</ele>
        <time>2022-05-06T08:33:43.546Z</time>
      </trkpt>
      <trkpt lat="41.31519" lon="19.45221">
        <ele>41.171778</ele>
        <time>2022-05-06T08:33:46.568Z</time>
      </trkpt>
      <trkpt lat="41.31507" lon="19.45214">
        <ele>41.086081</ele>
        <time>2022-05-06T08:33:49.545Z</time>
      </trkpt>
      <trkpt lat="41.31497" lon="19.45208">
        <ele>41.006137</ele>
        <time>2022-05-06T08:33:52.559Z</time>
      </trkpt>
      <trkpt lat="41.31487" lon="19.45202">
        <ele>40.927135</ele>
        <time>2022-05-06T08:33:55.547Z</time>
      </trkpt>
      <trkpt lat="41.31477" lon="19.45196">
        <ele>40.847252</ele>
        <time>2022-05-06T08:33:58.555Z</time>
      </trkpt>
      <trkpt lat="41.31467" lon="19.4519">
        <ele>40.769323</ele>
        <time>2022-05-06T08:34:01.547Z</time>
      </trkpt>
      <trkpt lat="41.31458" lon="19.45185">
        <ele>40.703005</ele>
        <time>2022-05-06T08:34:04.553Z</time>
      </trkpt>
      <trkpt lat="41.31449" lon="19.4518">
        <ele>40.631335</ele>
        <time>2022-05-06T08:34:08.549Z</time>
      </trkpt>
      <trkpt lat="41.31437" lon="19.45173">
        <ele>40.538518</ele>
        <time>2022-05-06T08:34:12.534Z</time>
      </trkpt>
      <trkpt lat="41.31426" lon="19.45166">
        <ele>40.452549</ele>
        <time>2022-05-06T08:34:15.539Z</time>
      </trkpt>
      <trkpt lat="41.31415" lon="19.45159">
        <ele>40.366812</ele>
        <time>2022-05-06T08:34:18.556Z</time>
      </trkpt>
      <trkpt lat="41.31404" lon="19.45152">
        <ele>40.278742</ele>
        <time>2022-05-06T08:34:21.551Z</time>
      </trkpt>
      <trkpt lat="41.31391" lon="19.45146">
        <ele>40.184051</ele>
        <time>2022-05-06T08:34:24.551Z</time>
      </trkpt>
      <trkpt lat="41.31379" lon="19.45139">
        <ele>40.244384</ele>
        <time>2022-05-06T08:34:27.564Z</time>
      </trkpt>
      <trkpt lat="41.31368" lon="19.45132">
        <ele>40.396627</ele>
        <time>2022-05-06T08:34:30.572Z</time>
      </trkpt>
      <trkpt lat="41.31357" lon="19.45125">
        <ele>40.54011</ele>
        <time>2022-05-06T08:34:33.561Z</time>
      </trkpt>
      <trkpt lat="41.31347" lon="19.45118">
        <ele>40.679732</ele>
        <time>2022-05-06T08:34:36.538Z</time>
      </trkpt>
      <trkpt lat="41.31337" lon="19.45113">
        <ele>40.807616</ele>
        <time>2022-05-06T08:34:39.553Z</time>
      </trkpt>
      <trkpt lat="41.31327" lon="19.45107">
        <ele>40.943177</ele>
        <time>2022-05-06T08:34:42.544Z</time>
      </trkpt>
      <trkpt lat="41.31316" lon="19.451">
        <ele>41.083892</ele>
        <time>2022-05-06T08:34:45.554Z</time>
      </trkpt>
      <trkpt lat="41.31305" lon="19.45095">
        <ele>41.226913</ele>
        <time>2022-05-06T08:34:48.545Z</time>
      </trkpt>
      <trkpt lat="41.31293" lon="19.45089">
        <ele>41.378418</ele>
        <time>2022-05-06T08:34:51.552Z</time>
      </trkpt>
      <trkpt lat="41.31282" lon="19.45082">
        <ele>41.52427</ele>
        <time>2022-05-06T08:34:54.562Z</time>
      </trkpt>
      <trkpt lat="41.31272" lon="19.45076">
        <ele>41.666843</ele>
        <time>2022-05-06T08:34:57.538Z</time>
      </trkpt>
      <trkpt lat="41.31261" lon="19.4507">
        <ele>41.808655</ele>
        <time>2022-05-06T08:35:00.547Z</time>
      </trkpt>
      <trkpt lat="41.3125" lon="19.45063">
        <ele>41.946802</ele>
        <time>2022-05-06T08:35:03.564Z</time>
      </trkpt>
      <trkpt lat="41.3124" lon="19.45054">
        <ele>42.094859</ele>
        <time>2022-05-06T08:35:06.562Z</time>
      </trkpt>
      <trkpt lat="41.31228" lon="19.45045">
        <ele>42.257202</ele>
        <time>2022-05-06T08:35:09.543Z</time>
      </trkpt>
      <trkpt lat="41.3122" lon="19.45038">
        <ele>42.333372</ele>
        <time>2022-05-06T08:35:11.552Z</time>
      </trkpt>
      <trkpt lat="41.31212" lon="19.45033">
        <ele>42.365232</ele>
        <time>2022-05-06T08:35:13.557Z</time>
      </trkpt>
      <trkpt lat="41.31199" lon="19.45027">
        <ele>42.407366</ele>
        <time>2022-05-06T08:35:16.542Z</time>
      </trkpt>
      <trkpt lat="41.31189" lon="19.45022">
        <ele>42.443467</ele>
        <time>2022-05-06T08:35:19.545Z</time>
      </trkpt>
      <trkpt lat="41.31179" lon="19.45016">
        <ele>42.479929</ele>
        <time>2022-05-06T08:35:22.548Z</time>
      </trkpt>
      <trkpt lat="41.31167" lon="19.4501">
        <ele>42.521068</ele>
        <time>2022-05-06T08:35:25.549Z</time>
      </trkpt>
      <trkpt lat="41.31159" lon="19.45004">
        <ele>42.552041</ele>
        <time>2022-05-06T08:35:27.560Z</time>
      </trkpt>
      <trkpt lat="41.3115" lon="19.45">
        <ele>42.582147</ele>
        <time>2022-05-06T08:35:29.553Z</time>
      </trkpt>
      <trkpt lat="41.31139" lon="19.44993">
        <ele>42.622489</ele>
        <time>2022-05-06T08:35:32.565Z</time>
      </trkpt>
      <trkpt lat="41.31128" lon="19.44986">
        <ele>42.66105</ele>
        <time>2022-05-06T08:35:35.545Z</time>
      </trkpt>
      <trkpt lat="41.31117" lon="19.44979">
        <ele>42.703206</ele>
        <time>2022-05-06T08:35:38.576Z</time>
      </trkpt>
      <trkpt lat="41.31107" lon="19.44971">
        <ele>42.741596</ele>
        <time>2022-05-06T08:35:41.559Z</time>
      </trkpt>
      <trkpt lat="41.31097" lon="19.44962">
        <ele>42.780485</ele>
        <time>2022-05-06T08:35:44.541Z</time>
      </trkpt>
      <trkpt lat="41.31087" lon="19.44955">
        <ele>42.816762</ele>
        <time>2022-05-06T08:35:47.548Z</time>
      </trkpt>
      <trkpt lat="41.31076" lon="19.44948">
        <ele>42.857803</ele>
        <time>2022-05-06T08:35:50.591Z</time>
      </trkpt>
      <trkpt lat="41.31064" lon="19.44942">
        <ele>42.899112</ele>
        <time>2022-05-06T08:35:53.536Z</time>
      </trkpt>
      <trkpt lat="41.31053" lon="19.44937">
        <ele>42.874477</ele>
        <time>2022-05-06T08:35:56.550Z</time>
      </trkpt>
      <trkpt lat="41.31041" lon="19.44932">
        <ele>42.828586</ele>
        <time>2022-05-06T08:35:59.565Z</time>
      </trkpt>
      <trkpt lat="41.31031" lon="19.44927">
        <ele>42.788355</ele>
        <time>2022-05-06T08:36:02.543Z</time>
      </trkpt>
      <trkpt lat="41.31021" lon="19.44922">
        <ele>42.749222</ele>
        <time>2022-05-06T08:36:05.549Z</time>
      </trkpt>
      <trkpt lat="41.31011" lon="19.44917">
        <ele>42.707153</ele>
        <time>2022-05-06T08:36:13.537Z</time>
      </trkpt>
      <trkpt lat="41.31001" lon="19.44907">
        <ele>42.662067</ele>
        <time>2022-05-06T08:36:17.532Z</time>
      </trkpt>
      <trkpt lat="41.30995" lon="19.44897">
        <ele>42.626546</ele>
        <time>2022-05-06T08:36:20.530Z</time>
      </trkpt>
      <trkpt lat="41.3099" lon="19.44886">
        <ele>42.590473</ele>
        <time>2022-05-06T08:36:23.568Z</time>
      </trkpt>
      <trkpt lat="41.30986" lon="19.44874">
        <ele>42.554751</ele>
        <time>2022-05-06T08:36:26.528Z</time>
      </trkpt>
      <trkpt lat="41.30982" lon="19.4486">
        <ele>42.512361</ele>
        <time>2022-05-06T08:36:30.572Z</time>
      </trkpt>
      <trkpt lat="41.30976" lon="19.44848">
        <ele>42.472504</ele>
        <time>2022-05-06T08:36:33.555Z</time>
      </trkpt>
      <trkpt lat="41.30973" lon="19.44835">
        <ele>42.434712</ele>
        <time>2022-05-06T08:36:36.606Z</time>
      </trkpt>
      <trkpt lat="41.3097" lon="19.44822">
        <ele>42.396494</ele>
        <time>2022-05-06T08:36:39.550Z</time>
      </trkpt>
      <trkpt lat="41.30966" lon="19.44811">
        <ele>42.362161</ele>
        <time>2022-05-06T08:36:42.540Z</time>
      </trkpt>
      <trkpt lat="41.3096" lon="19.44802">
        <ele>42.328455</ele>
        <time>2022-05-06T08:36:54.545Z</time>
      </trkpt>
      <trkpt lat="41.30949" lon="19.44803">
        <ele>42.290396</ele>
        <time>2022-05-06T08:37:00.575Z</time>
      </trkpt>
      <trkpt lat="41.30939" lon="19.44801">
        <ele>42.252333</ele>
        <time>2022-05-06T08:37:04.608Z</time>
      </trkpt>
      <trkpt lat="41.3093" lon="19.44796">
        <ele>42.326535</ele>
        <time>2022-05-06T08:37:09.548Z</time>
      </trkpt>
      <trkpt lat="41.30921" lon="19.44788">
        <ele>42.477859</ele>
        <time>2022-05-06T08:37:16.552Z</time>
      </trkpt>
      <trkpt lat="41.30926" lon="19.44741">
        <ele>42.975158</ele>
        <time>2022-05-06T08:46:44.567Z</time>
      </trkpt>
      <trkpt lat="41.3093" lon="19.4473">
        <ele>43.110852</ele>
        <time>2022-05-06T08:46:50.518Z</time>
      </trkpt>
      <trkpt lat="41.30929" lon="19.44713">
        <ele>43.288873</ele>
        <time>2022-05-06T08:46:54.526Z</time>
      </trkpt>
      <trkpt lat="41.30927" lon="19.44699">
        <ele>43.444603</ele>
        <time>2022-05-06T08:46:57.531Z</time>
      </trkpt>
      <trkpt lat="41.30925" lon="19.44686">
        <ele>43.584782</ele>
        <time>2022-05-06T08:47:00.544Z</time>
      </trkpt>
      <trkpt lat="41.30924" lon="19.44674">
        <ele>43.711868</ele>
        <time>2022-05-06T08:47:03.539Z</time>
      </trkpt>
      <trkpt lat="41.30923" lon="19.44661">
        <ele>43.853494</ele>
        <time>2022-05-06T08:47:06.540Z</time>
      </trkpt>
      <trkpt lat="41.30921" lon="19.44646">
        <ele>44.008495</ele>
        <time>2022-05-06T08:47:10.537Z</time>
      </trkpt>
      <trkpt lat="41.30921" lon="19.44631">
        <ele>44.165247</ele>
        <time>2022-05-06T08:47:15.528Z</time>
      </trkpt>
      <trkpt lat="41.30927" lon="19.44621">
        <ele>44.304055</ele>
        <time>2022-05-06T08:47:20.533Z</time>
      </trkpt>
      <trkpt lat="41.30933" lon="19.44612">
        <ele>44.434932</ele>
        <time>2022-05-06T08:47:24.547Z</time>
      </trkpt>
      <trkpt lat="41.30943" lon="19.44606">
        <ele>44.582752</ele>
        <time>2022-05-06T08:47:28.544Z</time>
      </trkpt>
      <trkpt lat="41.30951" lon="19.44612">
        <ele>44.714175</ele>
        <time>2022-05-06T08:47:35.533Z</time>
      </trkpt>
      <trkpt lat="41.30953" lon="19.44625">
        <ele>45.290549</ele>
        <time>2022-05-06T08:47:40.530Z</time>
      </trkpt>
      <trkpt lat="41.30957" lon="19.44639">
        <ele>46.290258</ele>
        <time>2022-05-06T08:47:45.529Z</time>
      </trkpt>
      <trkpt lat="41.30966" lon="19.44648">
        <ele>47.312382</ele>
        <time>2022-05-06T08:47:50.529Z</time>
      </trkpt>
      <trkpt lat="41.30965" lon="19.44661">
        <ele>48.243562</ele>
        <time>2022-05-06T08:47:55.534Z</time>
      </trkpt>
      <trkpt lat="41.30957" lon="19.44672">
        <ele>49.255502</ele>
        <time>2022-05-06T08:47:59.543Z</time>
      </trkpt>
      <trkpt lat="41.30953" lon="19.44684">
        <ele>50.179894</ele>
        <time>2022-05-06T08:48:04.523Z</time>
      </trkpt>
      <trkpt lat="41.30954" lon="19.44697">
        <ele>51.113567</ele>
        <time>2022-05-06T08:48:11.532Z</time>
      </trkpt>
      <trkpt lat="41.30962" lon="19.44704">
        <ele>51.974149</ele>
        <time>2022-05-06T08:48:15.546Z</time>
      </trkpt>
      <trkpt lat="41.30972" lon="19.44707">
        <ele>52.838306</ele>
        <time>2022-05-06T08:48:19.543Z</time>
      </trkpt>
      <trkpt lat="41.30982" lon="19.44711">
        <ele>53.804898</ele>
        <time>2022-05-06T08:48:24.538Z</time>
      </trkpt>
      <trkpt lat="41.30988" lon="19.4472">
        <ele>54.682211</ele>
        <time>2022-05-06T08:48:29.544Z</time>
      </trkpt>
      <trkpt lat="41.30996" lon="19.44728">
        <ele>55.513018</ele>
        <time>2022-05-06T08:48:34.531Z</time>
      </trkpt>
      <trkpt lat="41.31004" lon="19.4473">
        <ele>56.337502</ele>
        <time>2022-05-06T08:48:38.521Z</time>
      </trkpt>
      <trkpt lat="41.31015" lon="19.44727">
        <ele>57.30131</ele>
        <time>2022-05-06T08:48:42.542Z</time>
      </trkpt>
      <trkpt lat="41.31022" lon="19.44719">
        <ele>58.175351</ele>
        <time>2022-05-06T08:48:47.531Z</time>
      </trkpt>
      <trkpt lat="41.3103" lon="19.44713">
        <ele>59.032573</ele>
        <time>2022-05-06T08:48:52.543Z</time>
      </trkpt>
      <trkpt lat="41.31039" lon="19.44708">
        <ele>59.862486</ele>
        <time>2022-05-06T08:48:56.531Z</time>
      </trkpt>
      <trkpt lat="41.31049" lon="19.44705">
        <ele>60.790393</ele>
        <time>2022-05-06T08:49:00.528Z</time>
      </trkpt>
      <trkpt lat="41.31059" lon="19.447">
        <ele>61.445727</ele>
        <time>2022-05-06T08:49:05.529Z</time>
      </trkpt>
      <trkpt lat="41.31068" lon="19.44695">
        <ele>61.85851</ele>
        <time>2022-05-06T08:49:10.541Z</time>
      </trkpt>
      <trkpt lat="41.31076" lon="19.44691">
        <ele>62.253435</ele>
        <time>2022-05-06T08:49:15.533Z</time>
      </trkpt>
      <trkpt lat="41.31085" lon="19.44686">
        <ele>62.646194</ele>
        <time>2022-05-06T08:49:19.540Z</time>
      </trkpt>
      <trkpt lat="41.31095" lon="19.44682">
        <ele>63.098261</ele>
        <time>2022-05-06T08:49:23.527Z</time>
      </trkpt>
      <trkpt lat="41.31104" lon="19.44677">
        <ele>63.521456</ele>
        <time>2022-05-06T08:49:26.560Z</time>
      </trkpt>
      <trkpt lat="41.31114" lon="19.44671">
        <ele>64.018316</ele>
        <time>2022-05-06T08:49:30.536Z</time>
      </trkpt>
      <trkpt lat="41.31124" lon="19.44664">
        <ele>64.49399</ele>
        <time>2022-05-06T08:49:34.533Z</time>
      </trkpt>
      <trkpt lat="41.31134" lon="19.44655">
        <ele>65.010966</ele>
        <time>2022-05-06T08:49:38.539Z</time>
      </trkpt>
      <trkpt lat="41.31143" lon="19.44649">
        <ele>65.466815</ele>
        <time>2022-05-06T08:49:41.529Z</time>
      </trkpt>
      <trkpt lat="41.31153" lon="19.44641">
        <ele>65.942422</ele>
        <time>2022-05-06T08:49:44.524Z</time>
      </trkpt>
      <trkpt lat="41.31163" lon="19.44637">
        <ele>66.403686</ele>
        <time>2022-05-06T08:49:47.529Z</time>
      </trkpt>
      <trkpt lat="41.31173" lon="19.44631">
        <ele>66.883343</ele>
        <time>2022-05-06T08:49:50.533Z</time>
      </trkpt>
      <trkpt lat="41.31183" lon="19.44626">
        <ele>67.329959</ele>
        <time>2022-05-06T08:49:53.537Z</time>
      </trkpt>
      <trkpt lat="41.31192" lon="19.4462">
        <ele>67.768806</ele>
        <time>2022-05-06T08:49:56.537Z</time>
      </trkpt>
      <trkpt lat="41.31201" lon="19.44614">
        <ele>68.213356</ele>
        <time>2022-05-06T08:49:59.536Z</time>
      </trkpt>
      <trkpt lat="41.3121" lon="19.44608">
        <ele>68.658896</ele>
        <time>2022-05-06T08:50:02.531Z</time>
      </trkpt>
      <trkpt lat="41.31221" lon="19.44601">
        <ele>68.501552</ele>
        <time>2022-05-06T08:50:06.532Z</time>
      </trkpt>
      <trkpt lat="41.31231" lon="19.44598">
        <ele>67.861372</ele>
        <time>2022-05-06T08:50:09.535Z</time>
      </trkpt>
      <trkpt lat="41.3124" lon="19.44594">
        <ele>67.228851</ele>
        <time>2022-05-06T08:50:12.530Z</time>
      </trkpt>
      <trkpt lat="41.31249" lon="19.4459">
        <ele>66.605679</ele>
        <time>2022-05-06T08:50:19.540Z</time>
      </trkpt>
      <trkpt lat="41.31259" lon="19.44585">
        <ele>65.890592</ele>
        <time>2022-05-06T08:50:23.543Z</time>
      </trkpt>
      <trkpt lat="41.31271" lon="19.44585">
        <ele>65.090705</ele>
        <time>2022-05-06T08:50:27.535Z</time>
      </trkpt>
      <trkpt lat="41.3128" lon="19.44586">
        <ele>64.479615</ele>
        <time>2022-05-06T08:50:30.535Z</time>
      </trkpt>
      <trkpt lat="41.3129" lon="19.44588">
        <ele>63.836485</ele>
        <time>2022-05-06T08:50:33.515Z</time>
      </trkpt>
      <trkpt lat="41.31301" lon="19.44592">
        <ele>63.106911</ele>
        <time>2022-05-06T08:50:36.518Z</time>
      </trkpt>
      <trkpt lat="41.31311" lon="19.44596">
        <ele>62.372116</ele>
        <time>2022-05-06T08:50:39.525Z</time>
      </trkpt>
      <trkpt lat="41.31323" lon="19.44599">
        <ele>61.597594</ele>
        <time>2022-05-06T08:50:42.530Z</time>
      </trkpt>
      <trkpt lat="41.31334" lon="19.44602">
        <ele>60.872935</ele>
        <time>2022-05-06T08:50:45.531Z</time>
      </trkpt>
      <trkpt lat="41.31344" lon="19.44604">
        <ele>60.170276</ele>
        <time>2022-05-06T08:50:48.548Z</time>
      </trkpt>
      <trkpt lat="41.31355" lon="19.44606">
        <ele>59.444195</ele>
        <time>2022-05-06T08:50:51.526Z</time>
      </trkpt>
      <trkpt lat="41.31366" lon="19.44608">
        <ele>58.689249</ele>
        <time>2022-05-06T08:50:54.540Z</time>
      </trkpt>
      <trkpt lat="41.31376" lon="19.44611">
        <ele>58.005724</ele>
        <time>2022-05-06T08:50:57.523Z</time>
      </trkpt>
      <trkpt lat="41.31386" lon="19.44614">
        <ele>57.348525</ele>
        <time>2022-05-06T08:51:00.523Z</time>
      </trkpt>
      <trkpt lat="41.31395" lon="19.44617">
        <ele>57.46689</ele>
        <time>2022-05-06T08:51:03.528Z</time>
      </trkpt>
      <trkpt lat="41.31406" lon="19.44616">
        <ele>58.634393</ele>
        <time>2022-05-06T08:51:07.526Z</time>
      </trkpt>
      <trkpt lat="41.31415" lon="19.44608">
        <ele>59.676056</ele>
        <time>2022-05-06T08:51:10.564Z</time>
      </trkpt>
      <trkpt lat="41.31423" lon="19.44603">
        <ele>60.63342</ele>
        <time>2022-05-06T08:51:13.541Z</time>
      </trkpt>
      <trkpt lat="41.31432" lon="19.44597">
        <ele>61.66086</ele>
        <time>2022-05-06T08:51:17.541Z</time>
      </trkpt>
      <trkpt lat="41.31441" lon="19.44591">
        <ele>62.702717</ele>
        <time>2022-05-06T08:51:21.541Z</time>
      </trkpt>
      <trkpt lat="41.31449" lon="19.44584">
        <ele>63.688947</ele>
        <time>2022-05-06T08:51:24.547Z</time>
      </trkpt>
      <trkpt lat="41.31458" lon="19.44579">
        <ele>64.693482</ele>
        <time>2022-05-06T08:51:27.555Z</time>
      </trkpt>
      <trkpt lat="41.31467" lon="19.44569">
        <ele>65.877216</ele>
        <time>2022-05-06T08:51:31.608Z</time>
      </trkpt>
      <trkpt lat="41.31478" lon="19.44563">
        <ele>67.07942</ele>
        <time>2022-05-06T08:51:34.550Z</time>
      </trkpt>
      <trkpt lat="41.3149" lon="19.44558">
        <ele>68.403927</ele>
        <time>2022-05-06T08:51:37.527Z</time>
      </trkpt>
      <trkpt lat="41.315" lon="19.44551">
        <ele>69.527443</ele>
        <time>2022-05-06T08:51:40.543Z</time>
      </trkpt>
      <trkpt lat="41.31509" lon="19.44542">
        <ele>70.733601</ele>
        <time>2022-05-06T08:51:44.530Z</time>
      </trkpt>
      <trkpt lat="41.3152" lon="19.44536">
        <ele>71.938797</ele>
        <time>2022-05-06T08:51:48.547Z</time>
      </trkpt>
      <trkpt lat="41.31528" lon="19.4453">
        <ele>72.904218</ele>
        <time>2022-05-06T08:51:51.533Z</time>
      </trkpt>
      <trkpt lat="41.31537" lon="19.44524">
        <ele>73.946664</ele>
        <time>2022-05-06T08:51:54.548Z</time>
      </trkpt>
      <trkpt lat="41.31547" lon="19.4452">
        <ele>75.000106</ele>
        <time>2022-05-06T08:51:57.536Z</time>
      </trkpt>
      <trkpt lat="41.31557" lon="19.44517">
        <ele>75.856507</ele>
        <time>2022-05-06T08:52:00.554Z</time>
      </trkpt>
      <trkpt lat="41.31567" lon="19.44513">
        <ele>76.502297</ele>
        <time>2022-05-06T08:52:03.547Z</time>
      </trkpt>
      <trkpt lat="41.31576" lon="19.44511">
        <ele>77.069739</ele>
        <time>2022-05-06T08:52:06.551Z</time>
      </trkpt>
      <trkpt lat="41.31587" lon="19.44509">
        <ele>77.699723</ele>
        <time>2022-05-06T08:52:09.529Z</time>
      </trkpt>
      <trkpt lat="41.31598" lon="19.44506">
        <ele>78.371259</ele>
        <time>2022-05-06T08:52:12.552Z</time>
      </trkpt>
      <trkpt lat="41.31609" lon="19.44502">
        <ele>79.066296</ele>
        <time>2022-05-06T08:52:15.553Z</time>
      </trkpt>
      <trkpt lat="41.31618" lon="19.44499">
        <ele>79.654682</ele>
        <time>2022-05-06T08:52:18.533Z</time>
      </trkpt>
      <trkpt lat="41.3163" lon="19.44501">
        <ele>80.406136</ele>
        <time>2022-05-06T08:52:22.542Z</time>
      </trkpt>
      <trkpt lat="41.31645" lon="19.44503">
        <ele>81.2676</ele>
        <time>2022-05-06T08:52:25.544Z</time>
      </trkpt>
      <trkpt lat="41.31656" lon="19.44503">
        <ele>81.954095</ele>
        <time>2022-05-06T08:52:27.580Z</time>
      </trkpt>
      <trkpt lat="41.31669" lon="19.44503">
        <ele>82.730449</ele>
        <time>2022-05-06T08:52:29.542Z</time>
      </trkpt>
      <trkpt lat="41.31681" lon="19.44505">
        <ele>83.486882</ele>
        <time>2022-05-06T08:52:32.547Z</time>
      </trkpt>
      <trkpt lat="41.31692" lon="19.44505">
        <ele>84.160778</ele>
        <time>2022-05-06T08:52:35.572Z</time>
      </trkpt>
      <trkpt lat="41.31703" lon="19.44505">
        <ele>84.834473</ele>
        <time>2022-05-06T08:52:38.579Z</time>
      </trkpt>
      <trkpt lat="41.31713" lon="19.44504">
        <ele>85.41809</ele>
        <time>2022-05-06T08:52:41.548Z</time>
      </trkpt>
      <trkpt lat="41.31725" lon="19.44505">
        <ele>86.135433</ele>
        <time>2022-05-06T08:52:45.560Z</time>
      </trkpt>
      <trkpt lat="41.31738" lon="19.44505">
        <ele>85.516961</ele>
        <time>2022-05-06T08:52:48.556Z</time>
      </trkpt>
      <trkpt lat="41.31747" lon="19.44506">
        <ele>84.399187</ele>
        <time>2022-05-06T08:52:50.535Z</time>
      </trkpt>
      <trkpt lat="41.31758" lon="19.44507">
        <ele>83.138665</ele>
        <time>2022-05-06T08:52:52.549Z</time>
      </trkpt>
      <trkpt lat="41.3177" lon="19.44506">
        <ele>81.735877</ele>
        <time>2022-05-06T08:52:54.557Z</time>
      </trkpt>
      <trkpt lat="41.3178" lon="19.44508">
        <ele>80.453045</ele>
        <time>2022-05-06T08:52:56.539Z</time>
      </trkpt>
      <trkpt lat="41.31791" lon="19.44509">
        <ele>79.180138</ele>
        <time>2022-05-06T08:52:58.549Z</time>
      </trkpt>
      <trkpt lat="41.31801" lon="19.44507">
        <ele>77.938159</ele>
        <time>2022-05-06T08:53:00.596Z</time>
      </trkpt>
      <trkpt lat="41.31813" lon="19.44503">
        <ele>76.483282</ele>
        <time>2022-05-06T08:53:03.547Z</time>
      </trkpt>
      <trkpt lat="41.31822" lon="19.44503">
        <ele>75.402834</ele>
        <time>2022-05-06T08:53:05.545Z</time>
      </trkpt>
      <trkpt lat="41.31833" lon="19.445">
        <ele>74.076422</ele>
        <time>2022-05-06T08:53:07.547Z</time>
      </trkpt>
      <trkpt lat="41.31844" lon="19.44499">
        <ele>72.754912</ele>
        <time>2022-05-06T08:53:09.563Z</time>
      </trkpt>
      <trkpt lat="41.31856" lon="19.44502">
        <ele>71.396747</ele>
        <time>2022-05-06T08:53:11.572Z</time>
      </trkpt>
      <trkpt lat="41.31867" lon="19.44507">
        <ele>69.999822</ele>
        <time>2022-05-06T08:53:13.539Z</time>
      </trkpt>
      <trkpt lat="41.31878" lon="19.44511">
        <ele>68.642254</ele>
        <time>2022-05-06T08:53:15.569Z</time>
      </trkpt>
      <trkpt lat="41.31887" lon="19.44515">
        <ele>67.515534</ele>
        <time>2022-05-06T08:53:17.547Z</time>
      </trkpt>
      <trkpt lat="41.31897" lon="19.44516">
        <ele>66.3433</ele>
        <time>2022-05-06T08:53:19.543Z</time>
      </trkpt>
      <trkpt lat="41.31909" lon="19.44517">
        <ele>65.071111</ele>
        <time>2022-05-06T08:53:22.548Z</time>
      </trkpt>
      <trkpt lat="41.31921" lon="19.44516">
        <ele>64.909903</ele>
        <time>2022-05-06T08:53:25.547Z</time>
      </trkpt>
      <trkpt lat="41.31933" lon="19.44515">
        <ele>64.74171</ele>
        <time>2022-05-06T08:53:28.538Z</time>
      </trkpt>
      <trkpt lat="41.31942" lon="19.44516">
        <ele>64.613322</ele>
        <time>2022-05-06T08:53:30.565Z</time>
      </trkpt>
      <trkpt lat="41.31952" lon="19.44517">
        <ele>64.483872</ele>
        <time>2022-05-06T08:53:32.532Z</time>
      </trkpt>
      <trkpt lat="41.31961" lon="19.44517">
        <ele>64.355901</ele>
        <time>2022-05-06T08:53:34.555Z</time>
      </trkpt>
      <trkpt lat="41.3197" lon="19.44517">
        <ele>64.225113</ele>
        <time>2022-05-06T08:53:36.535Z</time>
      </trkpt>
      <trkpt lat="41.31981" lon="19.44517">
        <ele>64.077819</ele>
        <time>2022-05-06T08:53:38.562Z</time>
      </trkpt>
      <trkpt lat="41.31992" lon="19.44518">
        <ele>63.924731</ele>
        <time>2022-05-06T08:53:40.588Z</time>
      </trkpt>
      <trkpt lat="41.32002" lon="19.44518">
        <ele>63.79528</ele>
        <time>2022-05-06T08:53:42.547Z</time>
      </trkpt>
      <trkpt lat="41.32015" lon="19.44515">
        <ele>63.606504</ele>
        <time>2022-05-06T08:53:45.544Z</time>
      </trkpt>
      <trkpt lat="41.32027" lon="19.44518">
        <ele>63.443911</ele>
        <time>2022-05-06T08:53:47.526Z</time>
      </trkpt>
      <trkpt lat="41.32037" lon="19.44519">
        <ele>63.308581</ele>
        <time>2022-05-06T08:53:49.546Z</time>
      </trkpt>
      <trkpt lat="41.32046" lon="19.44517">
        <ele>63.176817</ele>
        <time>2022-05-06T08:53:51.574Z</time>
      </trkpt>
      <trkpt lat="41.32056" lon="19.44515">
        <ele>63.047645</ele>
        <time>2022-05-06T08:53:53.535Z</time>
      </trkpt>
      <trkpt lat="41.32067" lon="19.44515">
        <ele>62.896225</ele>
        <time>2022-05-06T08:53:55.541Z</time>
      </trkpt>
      <trkpt lat="41.32078" lon="19.44516">
        <ele>62.73321</ele>
        <time>2022-05-06T08:53:57.537Z</time>
      </trkpt>
      <trkpt lat="41.32092" lon="19.44519">
        <ele>62.643251</ele>
        <time>2022-05-06T08:53:59.535Z</time>
      </trkpt>
      <trkpt lat="41.32104" lon="19.44521">
        <ele>62.685967</ele>
        <time>2022-05-06T08:54:01.560Z</time>
      </trkpt>
      <trkpt lat="41.32113" lon="19.44524">
        <ele>62.7218</ele>
        <time>2022-05-06T08:54:03.547Z</time>
      </trkpt>
      <trkpt lat="41.32123" lon="19.44526">
        <ele>62.757442</ele>
        <time>2022-05-06T08:54:05.541Z</time>
      </trkpt>
      <trkpt lat="41.32134" lon="19.44529">
        <ele>62.79936</ele>
        <time>2022-05-06T08:54:07.546Z</time>
      </trkpt>
      <trkpt lat="41.32147" lon="19.44532">
        <ele>62.844975</ele>
        <time>2022-05-06T08:54:09.543Z</time>
      </trkpt>
      <trkpt lat="41.32159" lon="19.44534">
        <ele>62.891171</ele>
        <time>2022-05-06T08:54:11.522Z</time>
      </trkpt>
      <trkpt lat="41.32169" lon="19.44533">
        <ele>62.927449</ele>
        <time>2022-05-06T08:54:13.593Z</time>
      </trkpt>
      <trkpt lat="41.32179" lon="19.44534">
        <ele>62.960843</ele>
        <time>2022-05-06T08:54:15.551Z</time>
      </trkpt>
      <trkpt lat="41.32188" lon="19.44535">
        <ele>62.995091</ele>
        <time>2022-05-06T08:54:17.532Z</time>
      </trkpt>
      <trkpt lat="41.32197" lon="19.44535">
        <ele>63.028825</ele>
        <time>2022-05-06T08:54:19.567Z</time>
      </trkpt>
      <trkpt lat="41.32207" lon="19.44536">
        <ele>63.062625</ele>
        <time>2022-05-06T08:54:21.550Z</time>
      </trkpt>
      <trkpt lat="41.32216" lon="19.44537">
        <ele>63.097622</ele>
        <time>2022-05-06T08:54:23.537Z</time>
      </trkpt>
      <trkpt lat="41.32226" lon="19.44539">
        <ele>63.132424</ele>
        <time>2022-05-06T08:54:25.541Z</time>
      </trkpt>
      <trkpt lat="41.32235" lon="19.44539">
        <ele>63.167983</ele>
        <time>2022-05-06T08:54:27.550Z</time>
      </trkpt>
      <trkpt lat="41.32246" lon="19.44538">
        <ele>63.20799</ele>
        <time>2022-05-06T08:54:29.583Z</time>
      </trkpt>
      <trkpt lat="41.32256" lon="19.44534">
        <ele>63.244234</ele>
        <time>2022-05-06T08:54:31.543Z</time>
      </trkpt>
      <trkpt lat="41.32265" lon="19.44529">
        <ele>63.287234</ele>
        <time>2022-05-06T08:54:33.528Z</time>
      </trkpt>
      <trkpt lat="41.32275" lon="19.44528">
        <ele>63.403003</ele>
        <time>2022-05-06T08:54:35.543Z</time>
      </trkpt>
      <trkpt lat="41.32287" lon="19.44529">
        <ele>63.536495</ele>
        <time>2022-05-06T08:54:37.552Z</time>
      </trkpt>
      <trkpt lat="41.32297" lon="19.44531">
        <ele>63.646744</ele>
        <time>2022-05-06T08:54:39.546Z</time>
      </trkpt>
      <trkpt lat="41.32309" lon="19.44532">
        <ele>63.786119</ele>
        <time>2022-05-06T08:54:41.563Z</time>
      </trkpt>
      <trkpt lat="41.32322" lon="19.44532">
        <ele>63.936276</ele>
        <time>2022-05-06T08:54:43.531Z</time>
      </trkpt>
      <trkpt lat="41.32334" lon="19.44533">
        <ele>64.065385</ele>
        <time>2022-05-06T08:54:45.551Z</time>
      </trkpt>
      <trkpt lat="41.32343" lon="19.44535">
        <ele>64.168908</ele>
        <time>2022-05-06T08:54:47.526Z</time>
      </trkpt>
      <trkpt lat="41.32353" lon="19.44539">
        <ele>64.294851</ele>
        <time>2022-05-06T08:54:50.558Z</time>
      </trkpt>
      <trkpt lat="41.32365" lon="19.44542">
        <ele>64.431285</ele>
        <time>2022-05-06T08:54:54.539Z</time>
      </trkpt>
      <trkpt lat="41.32378" lon="19.44546">
        <ele>64.576629</ele>
        <time>2022-05-06T08:54:57.557Z</time>
      </trkpt>
      <trkpt lat="41.32388" lon="19.44547">
        <ele>64.686878</ele>
        <time>2022-05-06T08:54:59.543Z</time>
      </trkpt>
      <trkpt lat="41.32398" lon="19.44545">
        <ele>64.807748</ele>
        <time>2022-05-06T08:55:02.539Z</time>
      </trkpt>
      <trkpt lat="41.32408" lon="19.44546">
        <ele>64.919726</ele>
        <time>2022-05-06T08:55:07.553Z</time>
      </trkpt>
      <trkpt lat="41.32419" lon="19.44546">
        <ele>65.047374</ele>
        <time>2022-05-06T08:55:11.535Z</time>
      </trkpt>
      <trkpt lat="41.32428" lon="19.44543">
        <ele>65.151948</ele>
        <time>2022-05-06T08:55:14.584Z</time>
      </trkpt>
      <trkpt lat="41.32439" lon="19.44541">
        <ele>65.27543</ele>
        <time>2022-05-06T08:55:17.549Z</time>
      </trkpt>
      <trkpt lat="41.32451" lon="19.44543">
        <ele>65.208915</ele>
        <time>2022-05-06T08:55:21.533Z</time>
      </trkpt>
      <trkpt lat="41.32464" lon="19.44539">
        <ele>65.058725</ele>
        <time>2022-05-06T08:55:25.547Z</time>
      </trkpt>
      <trkpt lat="41.32475" lon="19.44537">
        <ele>64.937564</ele>
        <time>2022-05-06T08:55:27.550Z</time>
      </trkpt>
      <trkpt lat="41.32485" lon="19.44535">
        <ele>64.829897</ele>
        <time>2022-05-06T08:55:29.532Z</time>
      </trkpt>
      <trkpt lat="41.32495" lon="19.44534">
        <ele>64.727492</ele>
        <time>2022-05-06T08:55:31.544Z</time>
      </trkpt>
      <trkpt lat="41.32507" lon="19.44531">
        <ele>64.59368</ele>
        <time>2022-05-06T08:55:34.548Z</time>
      </trkpt>
      <trkpt lat="41.32516" lon="19.44533">
        <ele>64.4884</ele>
        <time>2022-05-06T08:55:36.541Z</time>
      </trkpt>
      <trkpt lat="41.32525" lon="19.44536">
        <ele>64.388072</ele>
        <time>2022-05-06T08:55:38.531Z</time>
      </trkpt>
      <trkpt lat="41.32535" lon="19.44538">
        <ele>64.276631</ele>
        <time>2022-05-06T08:55:40.551Z</time>
      </trkpt>
      <trkpt lat="41.32546" lon="19.44536">
        <ele>64.157251</ele>
        <time>2022-05-06T08:55:42.553Z</time>
      </trkpt>
      <trkpt lat="41.32556" lon="19.44536">
        <ele>64.049691</ele>
        <time>2022-05-06T08:55:44.533Z</time>
      </trkpt>
      <trkpt lat="41.32566" lon="19.44538">
        <ele>63.938417</ele>
        <time>2022-05-06T08:55:46.564Z</time>
      </trkpt>
      <trkpt lat="41.32578" lon="19.44542">
        <ele>63.810127</ele>
        <time>2022-05-06T08:55:48.560Z</time>
      </trkpt>
      <trkpt lat="41.3259" lon="19.44542">
        <ele>63.679789</ele>
        <time>2022-05-06T08:55:50.538Z</time>
      </trkpt>
      <trkpt lat="41.32603" lon="19.44542">
        <ele>63.538611</ele>
        <time>2022-05-06T08:55:52.548Z</time>
      </trkpt>
      <trkpt lat="41.32615" lon="19.44541">
        <ele>63.408255</ele>
        <time>2022-05-06T08:55:54.575Z</time>
      </trkpt>
      <trkpt lat="41.32625" lon="19.44541">
        <ele>63.274776</ele>
        <time>2022-05-06T08:55:56.537Z</time>
      </trkpt>
      <trkpt lat="41.32636" lon="19.44541">
        <ele>63.12546</ele>
        <time>2022-05-06T08:55:58.548Z</time>
      </trkpt>
      <trkpt lat="41.32645" lon="19.44541">
        <ele>62.987706</ele>
        <time>2022-05-06T08:56:00.546Z</time>
      </trkpt>
      <trkpt lat="41.32657" lon="19.44541">
        <ele>62.810838</ele>
        <time>2022-05-06T08:56:03.531Z</time>
      </trkpt>
      <trkpt lat="41.32669" lon="19.44541">
        <ele>62.645547</ele>
        <time>2022-05-06T08:56:07.550Z</time>
      </trkpt>
      <trkpt lat="41.32682" lon="19.44542">
        <ele>62.453886</ele>
        <time>2022-05-06T08:56:10.548Z</time>
      </trkpt>
      <trkpt lat="41.32692" lon="19.44544">
        <ele>62.308006</ele>
        <time>2022-05-06T08:56:12.528Z</time>
      </trkpt>
      <trkpt lat="41.32702" lon="19.44544">
        <ele>62.1585</ele>
        <time>2022-05-06T08:56:14.533Z</time>
      </trkpt>
      <trkpt lat="41.32712" lon="19.44544">
        <ele>62.014949</ele>
        <time>2022-05-06T08:56:16.577Z</time>
      </trkpt>
      <trkpt lat="41.32722" lon="19.44543">
        <ele>61.86689</ele>
        <time>2022-05-06T08:56:18.563Z</time>
      </trkpt>
      <trkpt lat="41.32732" lon="19.44545">
        <ele>61.730658</ele>
        <time>2022-05-06T08:56:20.547Z</time>
      </trkpt>
      <trkpt lat="41.32742" lon="19.44547">
        <ele>61.577191</ele>
        <time>2022-05-06T08:56:23.551Z</time>
      </trkpt>
      <trkpt lat="41.32752" lon="19.44546">
        <ele>61.430374</ele>
        <time>2022-05-06T08:56:25.528Z</time>
      </trkpt>
      <trkpt lat="41.32764" lon="19.44544">
        <ele>61.263063</ele>
        <time>2022-05-06T08:56:27.538Z</time>
      </trkpt>
      <trkpt lat="41.32774" lon="19.44541">
        <ele>61.109032</ele>
        <time>2022-05-06T08:56:29.555Z</time>
      </trkpt>
      <trkpt lat="41.32785" lon="19.44537">
        <ele>60.942047</ele>
        <time>2022-05-06T08:56:31.549Z</time>
      </trkpt>
      <trkpt lat="41.32797" lon="19.44534">
        <ele>60.768484</ele>
        <time>2022-05-06T08:56:33.573Z</time>
      </trkpt>
      <trkpt lat="41.32809" lon="19.44535">
        <ele>60.209511</ele>
        <time>2022-05-06T08:56:35.538Z</time>
      </trkpt>
      <trkpt lat="41.32823" lon="19.44538">
        <ele>59.510089</ele>
        <time>2022-05-06T08:56:37.548Z</time>
      </trkpt>
      <trkpt lat="41.32835" lon="19.4454">
        <ele>58.861208</ele>
        <time>2022-05-06T08:56:39.553Z</time>
      </trkpt>
      <trkpt lat="41.32848" lon="19.44542">
        <ele>58.226309</ele>
        <time>2022-05-06T08:56:41.562Z</time>
      </trkpt>
      <trkpt lat="41.3286" lon="19.44543">
        <ele>57.614473</ele>
        <time>2022-05-06T08:56:43.542Z</time>
      </trkpt>
      <trkpt lat="41.32869" lon="19.44544">
        <ele>57.119597</ele>
        <time>2022-05-06T08:56:45.568Z</time>
      </trkpt>
      <trkpt lat="41.3288" lon="19.44544">
        <ele>56.60054</ele>
        <time>2022-05-06T08:56:47.582Z</time>
      </trkpt>
      <trkpt lat="41.3289" lon="19.44545">
        <ele>56.079687</ele>
        <time>2022-05-06T08:56:49.559Z</time>
      </trkpt>
      <trkpt lat="41.32901" lon="19.44546">
        <ele>55.523934</ele>
        <time>2022-05-06T08:56:51.566Z</time>
      </trkpt>
      <trkpt lat="41.32912" lon="19.44547">
        <ele>54.96394</ele>
        <time>2022-05-06T08:56:53.578Z</time>
      </trkpt>
      <trkpt lat="41.32923" lon="19.44547">
        <ele>54.409173</ele>
        <time>2022-05-06T08:56:55.567Z</time>
      </trkpt>
      <trkpt lat="41.32933" lon="19.44548">
        <ele>53.900456</ele>
        <time>2022-05-06T08:56:57.555Z</time>
      </trkpt>
      <trkpt lat="41.32943" lon="19.44548">
        <ele>53.376523</ele>
        <time>2022-05-06T08:56:59.564Z</time>
      </trkpt>
      <trkpt lat="41.32953" lon="19.44548">
        <ele>52.86785</ele>
        <time>2022-05-06T08:57:01.554Z</time>
      </trkpt>
      <trkpt lat="41.32962" lon="19.44548">
        <ele>52.40497</ele>
        <time>2022-05-06T08:57:03.551Z</time>
      </trkpt>
      <trkpt lat="41.32972" lon="19.44548">
        <ele>51.916642</ele>
        <time>2022-05-06T08:57:05.559Z</time>
      </trkpt>
      <trkpt lat="41.32981" lon="19.44548">
        <ele>51.596483</ele>
        <time>2022-05-06T08:57:07.555Z</time>
      </trkpt>
      <trkpt lat="41.3299" lon="19.44549">
        <ele>51.598266</ele>
        <time>2022-05-06T08:57:09.582Z</time>
      </trkpt>
      <trkpt lat="41.32999" lon="19.44549">
        <ele>51.600044</ele>
        <time>2022-05-06T08:57:11.546Z</time>
      </trkpt>
      <trkpt lat="41.33012" lon="19.44549">
        <ele>51.602621</ele>
        <time>2022-05-06T08:57:14.563Z</time>
      </trkpt>
      <trkpt lat="41.33024" lon="19.44551">
        <ele>51.605051</ele>
        <time>2022-05-06T08:57:17.569Z</time>
      </trkpt>
      <trkpt lat="41.33034" lon="19.4455">
        <ele>51.606949</ele>
        <time>2022-05-06T08:57:19.543Z</time>
      </trkpt>
      <trkpt lat="41.33044" lon="19.4455">
        <ele>51.608844</ele>
        <time>2022-05-06T08:57:21.559Z</time>
      </trkpt>
      <trkpt lat="41.33054" lon="19.4455">
        <ele>51.610797</ele>
        <time>2022-05-06T08:57:23.554Z</time>
      </trkpt>
      <trkpt lat="41.33064" lon="19.44551">
        <ele>51.612829</ele>
        <time>2022-05-06T08:57:25.562Z</time>
      </trkpt>
      <trkpt lat="41.33074" lon="19.44551">
        <ele>51.614783</ele>
        <time>2022-05-06T08:57:27.572Z</time>
      </trkpt>
      <trkpt lat="41.33084" lon="19.44551">
        <ele>51.616638</ele>
        <time>2022-05-06T08:57:29.576Z</time>
      </trkpt>
      <trkpt lat="41.33097" lon="19.44554">
        <ele>51.619277</ele>
        <time>2022-05-06T08:57:32.605Z</time>
      </trkpt>
      <trkpt lat="41.33111" lon="19.44554">
        <ele>51.621972</ele>
        <time>2022-05-06T08:57:35.571Z</time>
      </trkpt>
      <trkpt lat="41.3312" lon="19.44554">
        <ele>51.62381</ele>
        <time>2022-05-06T08:57:37.554Z</time>
      </trkpt>
      <trkpt lat="41.3313" lon="19.44552">
        <ele>51.625625</ele>
        <time>2022-05-06T08:57:39.554Z</time>
      </trkpt>
      <trkpt lat="41.33139" lon="19.44549">
        <ele>51.627569</ele>
        <time>2022-05-06T08:57:41.560Z</time>
      </trkpt>
      <trkpt lat="41.3315" lon="19.44547">
        <ele>51.629629</ele>
        <time>2022-05-06T08:57:43.556Z</time>
      </trkpt>
      <trkpt lat="41.3316" lon="19.44548">
        <ele>51.64756</ele>
        <time>2022-05-06T08:57:45.569Z</time>
      </trkpt>
      <trkpt lat="41.33171" lon="19.44547">
        <ele>51.700198</ele>
        <time>2022-05-06T08:57:47.579Z</time>
      </trkpt>
      <trkpt lat="41.3318" lon="19.44546">
        <ele>51.750946</ele>
        <time>2022-05-06T08:57:49.579Z</time>
      </trkpt>
      <trkpt lat="41.3319" lon="19.44545">
        <ele>51.801589</ele>
        <time>2022-05-06T08:57:51.579Z</time>
      </trkpt>
      <trkpt lat="41.33201" lon="19.44545">
        <ele>51.856249</ele>
        <time>2022-05-06T08:57:53.553Z</time>
      </trkpt>
      <trkpt lat="41.33212" lon="19.44546">
        <ele>51.911467</ele>
        <time>2022-05-06T08:57:55.587Z</time>
      </trkpt>
      <trkpt lat="41.33222" lon="19.44547">
        <ele>51.962091</ele>
        <time>2022-05-06T08:57:57.544Z</time>
      </trkpt>
      <trkpt lat="41.33231" lon="19.44547">
        <ele>52.011665</ele>
        <time>2022-05-06T08:57:59.557Z</time>
      </trkpt>
      <trkpt lat="41.33241" lon="19.44548">
        <ele>52.062819</ele>
        <time>2022-05-06T08:58:01.610Z</time>
      </trkpt>
      <trkpt lat="41.33252" lon="19.4455">
        <ele>52.11599</ele>
        <time>2022-05-06T08:58:03.582Z</time>
      </trkpt>
      <trkpt lat="41.33262" lon="19.44551">
        <ele>52.167441</ele>
        <time>2022-05-06T08:58:05.567Z</time>
      </trkpt>
      <trkpt lat="41.33272" lon="19.44552">
        <ele>52.217515</ele>
        <time>2022-05-06T08:58:07.551Z</time>
      </trkpt>
      <trkpt lat="41.33282" lon="19.44552">
        <ele>52.269621</ele>
        <time>2022-05-06T08:58:09.547Z</time>
      </trkpt>
      <trkpt lat="41.33292" lon="19.44552">
        <ele>52.32074</ele>
        <time>2022-05-06T08:58:11.570Z</time>
      </trkpt>
      <trkpt lat="41.33301" lon="19.44552">
        <ele>52.37029</ele>
        <time>2022-05-06T08:58:13.559Z</time>
      </trkpt>
      <trkpt lat="41.33311" lon="19.44552">
        <ele>52.417797</ele>
        <time>2022-05-06T08:58:15.551Z</time>
      </trkpt>
      <trkpt lat="41.3332" lon="19.44552">
        <ele>52.467349</ele>
        <time>2022-05-06T08:58:17.555Z</time>
      </trkpt>
      <trkpt lat="41.33331" lon="19.44551">
        <ele>52.522652</ele>
        <time>2022-05-06T08:58:19.599Z</time>
      </trkpt>
      <trkpt lat="41.33341" lon="19.4455">
        <ele>52.596134</ele>
        <time>2022-05-06T08:58:21.577Z</time>
      </trkpt>
      <trkpt lat="41.33351" lon="19.44549">
        <ele>52.69581</ele>
        <time>2022-05-06T08:58:23.570Z</time>
      </trkpt>
      <trkpt lat="41.33361" lon="19.44548">
        <ele>52.799857</ele>
        <time>2022-05-06T08:58:25.551Z</time>
      </trkpt>
      <trkpt lat="41.33372" lon="19.44548">
        <ele>52.911743</ele>
        <time>2022-05-06T08:58:27.593Z</time>
      </trkpt>
      <trkpt lat="41.33383" lon="19.44547">
        <ele>53.023652</ele>
        <time>2022-05-06T08:58:29.560Z</time>
      </trkpt>
      <trkpt lat="41.33393" lon="19.44547">
        <ele>53.128358</ele>
        <time>2022-05-06T08:58:31.594Z</time>
      </trkpt>
      <trkpt lat="41.33403" lon="19.44547">
        <ele>53.234048</ele>
        <time>2022-05-06T08:58:33.566Z</time>
      </trkpt>
      <trkpt lat="41.33413" lon="19.44548">
        <ele>53.333876</ele>
        <time>2022-05-06T08:58:35.560Z</time>
      </trkpt>
      <trkpt lat="41.33426" lon="19.44548">
        <ele>53.472417</ele>
        <time>2022-05-06T08:58:38.570Z</time>
      </trkpt>
      <trkpt lat="41.33436" lon="19.4455">
        <ele>53.575513</ele>
        <time>2022-05-06T08:58:40.562Z</time>
      </trkpt>
      <trkpt lat="41.33449" lon="19.44548">
        <ele>53.702568</ele>
        <time>2022-05-06T08:58:43.558Z</time>
      </trkpt>
      <trkpt lat="41.33459" lon="19.44548">
        <ele>53.804197</ele>
        <time>2022-05-06T08:58:45.571Z</time>
      </trkpt>
      <trkpt lat="41.33469" lon="19.4455">
        <ele>53.911534</ele>
        <time>2022-05-06T08:58:47.553Z</time>
      </trkpt>
      <trkpt lat="41.33478" lon="19.44551">
        <ele>54.009994</ele>
        <time>2022-05-06T08:58:49.538Z</time>
      </trkpt>
      <trkpt lat="41.33488" lon="19.4455">
        <ele>54.110974</ele>
        <time>2022-05-06T08:58:51.558Z</time>
      </trkpt>
      <trkpt lat="41.33499" lon="19.4455">
        <ele>54.224912</ele>
        <time>2022-05-06T08:58:53.555Z</time>
      </trkpt>
      <trkpt lat="41.33513" lon="19.4455">
        <ele>54.360375</ele>
        <time>2022-05-06T08:58:55.583Z</time>
      </trkpt>
      <trkpt lat="41.33524" lon="19.44548">
        <ele>53.992805</ele>
        <time>2022-05-06T08:58:57.567Z</time>
      </trkpt>
      <trkpt lat="41.33534" lon="19.44545">
        <ele>53.49386</ele>
        <time>2022-05-06T08:58:59.547Z</time>
      </trkpt>
      <trkpt lat="41.33546" lon="19.4454">
        <ele>52.93174</ele>
        <time>2022-05-06T08:59:01.559Z</time>
      </trkpt>
      <trkpt lat="41.33556" lon="19.44536">
        <ele>52.382396</ele>
        <time>2022-05-06T08:59:03.565Z</time>
      </trkpt>
      <trkpt lat="41.33566" lon="19.44532">
        <ele>51.890026</ele>
        <time>2022-05-06T08:59:05.556Z</time>
      </trkpt>
      <trkpt lat="41.33576" lon="19.44528">
        <ele>51.402459</ele>
        <time>2022-05-06T08:59:07.568Z</time>
      </trkpt>
      <trkpt lat="41.33585" lon="19.44523">
        <ele>50.923621</ele>
        <time>2022-05-06T08:59:09.610Z</time>
      </trkpt>
      <trkpt lat="41.33595" lon="19.44518">
        <ele>50.406843</ele>
        <time>2022-05-06T08:59:11.539Z</time>
      </trkpt>
      <trkpt lat="41.33605" lon="19.44513">
        <ele>49.899865</ele>
        <time>2022-05-06T08:59:13.558Z</time>
      </trkpt>
      <trkpt lat="41.33615" lon="19.4451">
        <ele>49.418772</ele>
        <time>2022-05-06T08:59:15.552Z</time>
      </trkpt>
      <trkpt lat="41.33624" lon="19.44506">
        <ele>48.947928</ele>
        <time>2022-05-06T08:59:17.538Z</time>
      </trkpt>
      <trkpt lat="41.33635" lon="19.44503">
        <ele>48.434381</ele>
        <time>2022-05-06T08:59:19.544Z</time>
      </trkpt>
      <trkpt lat="41.33644" lon="19.445">
        <ele>47.964384</ele>
        <time>2022-05-06T08:59:21.566Z</time>
      </trkpt>
      <trkpt lat="41.33653" lon="19.44496">
        <ele>47.504774</ele>
        <time>2022-05-06T08:59:23.555Z</time>
      </trkpt>
      <trkpt lat="41.33662" lon="19.44493">
        <ele>47.050764</ele>
        <time>2022-05-06T08:59:25.569Z</time>
      </trkpt>
      <trkpt lat="41.33671" lon="19.4449">
        <ele>46.610672</ele>
        <time>2022-05-06T08:59:27.561Z</time>
      </trkpt>
      <trkpt lat="41.3368" lon="19.44486">
        <ele>46.154709</ele>
        <time>2022-05-06T08:59:29.552Z</time>
      </trkpt>
      <trkpt lat="41.3369" lon="19.44483">
        <ele>45.76138</ele>
        <time>2022-05-06T08:59:31.582Z</time>
      </trkpt>
      <trkpt lat="41.33698" lon="19.44479">
        <ele>45.987169</ele>
        <time>2022-05-06T08:59:33.548Z</time>
      </trkpt>
      <trkpt lat="41.33707" lon="19.44475">
        <ele>46.234631</ele>
        <time>2022-05-06T08:59:35.553Z</time>
      </trkpt>
      <trkpt lat="41.33716" lon="19.44471">
        <ele>46.47241</ele>
        <time>2022-05-06T08:59:37.547Z</time>
      </trkpt>
      <trkpt lat="41.33725" lon="19.44467">
        <ele>46.704798</ele>
        <time>2022-05-06T08:59:39.551Z</time>
      </trkpt>
      <trkpt lat="41.33734" lon="19.44463">
        <ele>46.935392</ele>
        <time>2022-05-06T08:59:41.558Z</time>
      </trkpt>
      <trkpt lat="41.33745" lon="19.44458">
        <ele>47.249888</ele>
        <time>2022-05-06T08:59:44.551Z</time>
      </trkpt>
      <trkpt lat="41.33757" lon="19.44454">
        <ele>47.555973</ele>
        <time>2022-05-06T08:59:47.591Z</time>
      </trkpt>
      <trkpt lat="41.3377" lon="19.44451">
        <ele>47.879287</ele>
        <time>2022-05-06T08:59:50.562Z</time>
      </trkpt>
      <trkpt lat="41.33783" lon="19.44445">
        <ele>48.218301</ele>
        <time>2022-05-06T08:59:53.569Z</time>
      </trkpt>
      <trkpt lat="41.33795" lon="19.4444">
        <ele>48.55309</ele>
        <time>2022-05-06T08:59:56.535Z</time>
      </trkpt>
      <trkpt lat="41.33808" lon="19.44435">
        <ele>48.881041</ele>
        <time>2022-05-06T08:59:59.559Z</time>
      </trkpt>
      <trkpt lat="41.33817" lon="19.44432">
        <ele>49.111872</ele>
        <time>2022-05-06T09:00:01.552Z</time>
      </trkpt>
      <trkpt lat="41.33826" lon="19.44429">
        <ele>49.358314</ele>
        <time>2022-05-06T09:00:03.563Z</time>
      </trkpt>
      <trkpt lat="41.33835" lon="19.44425">
        <ele>49.588316</ele>
        <time>2022-05-06T09:00:05.603Z</time>
      </trkpt>
      <trkpt lat="41.33844" lon="19.44421">
        <ele>49.829685</ele>
        <time>2022-05-06T09:00:07.554Z</time>
      </trkpt>
      <trkpt lat="41.33853" lon="19.44417">
        <ele>50.077174</ele>
        <time>2022-05-06T09:00:09.590Z</time>
      </trkpt>
      <trkpt lat="41.33862" lon="19.44413">
        <ele>50.282291</ele>
        <time>2022-05-06T09:00:11.555Z</time>
      </trkpt>
      <trkpt lat="41.33872" lon="19.4441">
        <ele>50.304279</ele>
        <time>2022-05-06T09:00:13.588Z</time>
      </trkpt>
      <trkpt lat="41.33881" lon="19.44407">
        <ele>50.324785</ele>
        <time>2022-05-06T09:00:15.559Z</time>
      </trkpt>
      <trkpt lat="41.33892" lon="19.44402">
        <ele>50.352193</ele>
        <time>2022-05-06T09:00:18.554Z</time>
      </trkpt>
      <trkpt lat="41.33903" lon="19.44398">
        <ele>50.376266</ele>
        <time>2022-05-06T09:00:21.563Z</time>
      </trkpt>
      <trkpt lat="41.33914" lon="19.44392">
        <ele>50.40445</ele>
        <time>2022-05-06T09:00:24.570Z</time>
      </trkpt>
      <trkpt lat="41.33926" lon="19.44387">
        <ele>50.431593</ele>
        <time>2022-05-06T09:00:27.567Z</time>
      </trkpt>
      <trkpt lat="41.33937" lon="19.44381">
        <ele>50.458006</ele>
        <time>2022-05-06T09:00:30.545Z</time>
      </trkpt>
      <trkpt lat="41.33949" lon="19.44378">
        <ele>50.485515</ele>
        <time>2022-05-06T09:00:33.548Z</time>
      </trkpt>
      <trkpt lat="41.33961" lon="19.44374">
        <ele>50.514852</ele>
        <time>2022-05-06T09:00:36.619Z</time>
      </trkpt>
      <trkpt lat="41.33974" lon="19.44368">
        <ele>50.544505</ele>
        <time>2022-05-06T09:00:39.543Z</time>
      </trkpt>
      <trkpt lat="41.33986" lon="19.44364">
        <ele>50.573569</ele>
        <time>2022-05-06T09:00:42.559Z</time>
      </trkpt>
      <trkpt lat="41.33996" lon="19.44361">
        <ele>50.595422</ele>
        <time>2022-05-06T09:00:44.561Z</time>
      </trkpt>
      <trkpt lat="41.34005" lon="19.44357">
        <ele>50.616406</ele>
        <time>2022-05-06T09:00:46.570Z</time>
      </trkpt>
      <trkpt lat="41.34014" lon="19.44353">
        <ele>50.637537</ele>
        <time>2022-05-06T09:00:48.552Z</time>
      </trkpt>
      <trkpt lat="41.34022" lon="19.44349">
        <ele>50.65807</ele>
        <time>2022-05-06T09:00:50.608Z</time>
      </trkpt>
      <trkpt lat="41.34031" lon="19.44345">
        <ele>50.678439</ele>
        <time>2022-05-06T09:00:52.571Z</time>
      </trkpt>
      <trkpt lat="41.34043" lon="19.44341">
        <ele>50.265053</ele>
        <time>2022-05-06T09:00:55.571Z</time>
      </trkpt>
      <trkpt lat="41.34056" lon="19.44337">
        <ele>49.787244</ele>
        <time>2022-05-06T09:00:58.541Z</time>
      </trkpt>
      <trkpt lat="41.34067" lon="19.44338">
        <ele>49.350331</ele>
        <time>2022-05-06T09:01:02.563Z</time>
      </trkpt>
      <trkpt lat="41.34071" lon="19.4435">
        <ele>48.981978</ele>
        <time>2022-05-06T09:01:05.550Z</time>
      </trkpt>
      <trkpt lat="41.34073" lon="19.44366">
        <ele>48.526384</ele>
        <time>2022-05-06T09:01:08.681Z</time>
      </trkpt>
      <trkpt lat="41.34077" lon="19.44382">
        <ele>48.060144</ele>
        <time>2022-05-06T09:01:11.573Z</time>
      </trkpt>
      <trkpt lat="41.3408" lon="19.44398">
        <ele>47.577868</ele>
        <time>2022-05-06T09:01:14.566Z</time>
      </trkpt>
      <trkpt lat="41.34083" lon="19.4441">
        <ele>47.223582</ele>
        <time>2022-05-06T09:01:16.562Z</time>
      </trkpt>
      <trkpt lat="41.34085" lon="19.44423">
        <ele>46.871675</ele>
        <time>2022-05-06T09:01:18.563Z</time>
      </trkpt>
      <trkpt lat="41.34087" lon="19.44435">
        <ele>46.518788</ele>
        <time>2022-05-06T09:01:20.566Z</time>
      </trkpt>
      <trkpt lat="41.34088" lon="19.44447">
        <ele>46.15911</ele>
        <time>2022-05-06T09:01:22.559Z</time>
      </trkpt>
      <trkpt lat="41.34092" lon="19.4446">
        <ele>45.789433</ele>
        <time>2022-05-06T09:01:24.608Z</time>
      </trkpt>
      <trkpt lat="41.34095" lon="19.44472">
        <ele>45.406605</ele>
        <time>2022-05-06T09:01:26.567Z</time>
      </trkpt>
      <trkpt lat="41.341" lon="19.44484">
        <ele>45.032622</ele>
        <time>2022-05-06T09:01:28.547Z</time>
      </trkpt>
      <trkpt lat="41.34103" lon="19.44497">
        <ele>44.660422</ele>
        <time>2022-05-06T09:01:30.543Z</time>
      </trkpt>
      <trkpt lat="41.34106" lon="19.4451">
        <ele>44.271139</ele>
        <time>2022-05-06T09:01:32.562Z</time>
      </trkpt>
      <trkpt lat="41.34108" lon="19.44522">
        <ele>43.926491</ele>
        <time>2022-05-06T09:01:34.563Z</time>
      </trkpt>
      <trkpt lat="41.34111" lon="19.44538">
        <ele>43.693218</ele>
        <time>2022-05-06T09:01:37.541Z</time>
      </trkpt>
      <trkpt lat="41.34115" lon="19.44554">
        <ele>43.443144</ele>
        <time>2022-05-06T09:01:40.558Z</time>
      </trkpt>
      <trkpt lat="41.34118" lon="19.44572">
        <ele>43.181577</ele>
        <time>2022-05-06T09:01:43.557Z</time>
      </trkpt>
      <trkpt lat="41.34121" lon="19.44584">
        <ele>42.995391</ele>
        <time>2022-05-06T09:01:45.541Z</time>
      </trkpt>
      <trkpt lat="41.34123" lon="19.44597">
        <ele>42.803589</ele>
        <time>2022-05-06T09:01:47.560Z</time>
      </trkpt>
      <trkpt lat="41.34125" lon="19.44612">
        <ele>42.594507</ele>
        <time>2022-05-06T09:01:49.555Z</time>
      </trkpt>
      <trkpt lat="41.34127" lon="19.44626">
        <ele>42.382317</ele>
        <time>2022-05-06T09:01:51.554Z</time>
      </trkpt>
      <trkpt lat="41.34129" lon="19.44641">
        <ele>42.165879</ele>
        <time>2022-05-06T09:01:53.551Z</time>
      </trkpt>
      <trkpt lat="41.34131" lon="19.44655">
        <ele>41.961172</ele>
        <time>2022-05-06T09:01:55.528Z</time>
      </trkpt>
      <trkpt lat="41.34133" lon="19.44669">
        <ele>41.751677</ele>
        <time>2022-05-06T09:01:57.580Z</time>
      </trkpt>
      <trkpt lat="41.34136" lon="19.44683">
        <ele>41.550152</ele>
        <time>2022-05-06T09:01:59.545Z</time>
      </trkpt>
      <trkpt lat="41.34138" lon="19.44697">
        <ele>41.34163</ele>
        <time>2022-05-06T09:02:01.545Z</time>
      </trkpt>
      <trkpt lat="41.34142" lon="19.44711">
        <ele>41.132719</ele>
        <time>2022-05-06T09:02:03.591Z</time>
      </trkpt>
      <trkpt lat="41.34145" lon="19.44723">
        <ele>40.933271</ele>
        <time>2022-05-06T09:02:05.537Z</time>
      </trkpt>
      <trkpt lat="41.3415" lon="19.44735">
        <ele>40.743191</ele>
        <time>2022-05-06T09:02:07.550Z</time>
      </trkpt>
      <trkpt lat="41.34154" lon="19.44747">
        <ele>40.553934</ele>
        <time>2022-05-06T09:02:09.573Z</time>
      </trkpt>
      <trkpt lat="41.34158" lon="19.44759">
        <ele>40.565888</ele>
        <time>2022-05-06T09:02:11.567Z</time>
      </trkpt>
      <trkpt lat="41.34162" lon="19.4477">
        <ele>40.697188</ele>
        <time>2022-05-06T09:02:13.539Z</time>
      </trkpt>
      <trkpt lat="41.34169" lon="19.44785">
        <ele>40.887092</ele>
        <time>2022-05-06T09:02:16.549Z</time>
      </trkpt>
      <trkpt lat="41.34174" lon="19.44797">
        <ele>41.03093</ele>
        <time>2022-05-06T09:02:18.549Z</time>
      </trkpt>
      <trkpt lat="41.34178" lon="19.44809">
        <ele>41.17638</ele>
        <time>2022-05-06T09:02:20.614Z</time>
      </trkpt>
      <trkpt lat="41.34184" lon="19.4482">
        <ele>41.322048</ele>
        <time>2022-05-06T09:02:22.556Z</time>
      </trkpt>
      <trkpt lat="41.34189" lon="19.44831">
        <ele>41.462918</ele>
        <time>2022-05-06T09:02:24.535Z</time>
      </trkpt>
      <trkpt lat="41.34193" lon="19.44843">
        <ele>41.606114</ele>
        <time>2022-05-06T09:02:26.579Z</time>
      </trkpt>
      <trkpt lat="41.34198" lon="19.44855">
        <ele>41.751445</ele>
        <time>2022-05-06T09:02:28.544Z</time>
      </trkpt>
      <trkpt lat="41.34203" lon="19.44867">
        <ele>41.900134</ele>
        <time>2022-05-06T09:02:30.548Z</time>
      </trkpt>
      <trkpt lat="41.34208" lon="19.44879">
        <ele>42.048991</ele>
        <time>2022-05-06T09:02:32.545Z</time>
      </trkpt>
      <trkpt lat="41.34213" lon="19.44892">
        <ele>42.1983</ele>
        <time>2022-05-06T09:02:34.545Z</time>
      </trkpt>
      <trkpt lat="41.34218" lon="19.44903">
        <ele>42.341555</ele>
        <time>2022-05-06T09:02:36.554Z</time>
      </trkpt>
      <trkpt lat="41.34223" lon="19.44914">
        <ele>42.480734</ele>
        <time>2022-05-06T09:02:38.551Z</time>
      </trkpt>
      <trkpt lat="41.34228" lon="19.44924">
        <ele>42.619115</ele>
        <time>2022-05-06T09:02:40.571Z</time>
      </trkpt>
      <trkpt lat="41.34233" lon="19.44936">
        <ele>42.757395</ele>
        <time>2022-05-06T09:02:42.571Z</time>
      </trkpt>
      <trkpt lat="41.34237" lon="19.44947">
        <ele>42.896994</ele>
        <time>2022-05-06T09:02:44.536Z</time>
      </trkpt>
      <trkpt lat="41.34241" lon="19.44959">
        <ele>43.035775</ele>
        <time>2022-05-06T09:02:46.540Z</time>
      </trkpt>
      <trkpt lat="41.34246" lon="19.4497">
        <ele>43.054305</ele>
        <time>2022-05-06T09:02:48.584Z</time>
      </trkpt>
      <trkpt lat="41.34253" lon="19.44985">
        <ele>43.030813</ele>
        <time>2022-05-06T09:02:51.558Z</time>
      </trkpt>
      <trkpt lat="41.34258" lon="19.44997">
        <ele>43.01323</ele>
        <time>2022-05-06T09:02:53.543Z</time>
      </trkpt>
      <trkpt lat="41.34263" lon="19.45008">
        <ele>42.996161</ele>
        <time>2022-05-06T09:02:55.539Z</time>
      </trkpt>
      <trkpt lat="41.34267" lon="19.45021">
        <ele>42.978883</ele>
        <time>2022-05-06T09:02:57.552Z</time>
      </trkpt>
      <trkpt lat="41.34271" lon="19.45033">
        <ele>42.961504</ele>
        <time>2022-05-06T09:02:59.544Z</time>
      </trkpt>
      <trkpt lat="41.34276" lon="19.45045">
        <ele>42.943959</ele>
        <time>2022-05-06T09:03:01.557Z</time>
      </trkpt>
      <trkpt lat="41.34282" lon="19.45056">
        <ele>42.926553</ele>
        <time>2022-05-06T09:03:03.554Z</time>
      </trkpt>
      <trkpt lat="41.34288" lon="19.45067">
        <ele>42.90914</ele>
        <time>2022-05-06T09:03:05.541Z</time>
      </trkpt>
      <trkpt lat="41.34292" lon="19.45078">
        <ele>42.892155</ele>
        <time>2022-05-06T09:03:07.552Z</time>
      </trkpt>
      <trkpt lat="41.34296" lon="19.4509">
        <ele>42.874938</ele>
        <time>2022-05-06T09:03:09.566Z</time>
      </trkpt>
      <trkpt lat="41.34301" lon="19.45103">
        <ele>42.857104</ele>
        <time>2022-05-06T09:03:11.545Z</time>
      </trkpt>
      <trkpt lat="41.34306" lon="19.45115">
        <ele>42.838959</ele>
        <time>2022-05-06T09:03:13.548Z</time>
      </trkpt>
      <trkpt lat="41.3431" lon="19.45127">
        <ele>42.821724</ele>
        <time>2022-05-06T09:03:15.544Z</time>
      </trkpt>
      <trkpt lat="41.34315" lon="19.45138">
        <ele>42.804884</ele>
        <time>2022-05-06T09:03:17.559Z</time>
      </trkpt>
      <trkpt lat="41.3432" lon="19.45149">
        <ele>42.788122</ele>
        <time>2022-05-06T09:03:19.558Z</time>
      </trkpt>
      <trkpt lat="41.34325" lon="19.4516">
        <ele>42.772131</ele>
        <time>2022-05-06T09:03:21.567Z</time>
      </trkpt>
      <trkpt lat="41.3433" lon="19.45172">
        <ele>42.741183</ele>
        <time>2022-05-06T09:03:24.547Z</time>
      </trkpt>
      <trkpt lat="41.34337" lon="19.45184">
        <ele>42.636085</ele>
        <time>2022-05-06T09:03:27.564Z</time>
      </trkpt>
      <trkpt lat="41.34342" lon="19.45195">
        <ele>42.545855</ele>
        <time>2022-05-06T09:03:29.545Z</time>
      </trkpt>
      <trkpt lat="41.34347" lon="19.45207">
        <ele>42.451631</ele>
        <time>2022-05-06T09:03:31.532Z</time>
      </trkpt>
      <trkpt lat="41.34351" lon="19.45218">
        <ele>42.358771</ele>
        <time>2022-05-06T09:03:33.554Z</time>
      </trkpt>
      <trkpt lat="41.34357" lon="19.45229">
        <ele>42.263277</ele>
        <time>2022-05-06T09:03:35.526Z</time>
      </trkpt>
      <trkpt lat="41.34363" lon="19.4524">
        <ele>42.171093</ele>
        <time>2022-05-06T09:03:37.569Z</time>
      </trkpt>
      <trkpt lat="41.34367" lon="19.45251">
        <ele>42.083675</ele>
        <time>2022-05-06T09:03:39.547Z</time>
      </trkpt>
      <trkpt lat="41.34372" lon="19.45262">
        <ele>41.992423</ele>
        <time>2022-05-06T09:03:41.533Z</time>
      </trkpt>
      <trkpt lat="41.34376" lon="19.45274">
        <ele>41.901612</ele>
        <time>2022-05-06T09:03:43.537Z</time>
      </trkpt>
      <trkpt lat="41.3438" lon="19.45286">
        <ele>41.810157</ele>
        <time>2022-05-06T09:03:45.545Z</time>
      </trkpt>
      <trkpt lat="41.34384" lon="19.45298">
        <ele>41.718311</ele>
        <time>2022-05-06T09:03:47.574Z</time>
      </trkpt>
      <trkpt lat="41.34388" lon="19.45309">
        <ele>41.6275</ele>
        <time>2022-05-06T09:03:49.555Z</time>
      </trkpt>
      <trkpt lat="41.34392" lon="19.45321">
        <ele>41.538434</ele>
        <time>2022-05-06T09:03:51.551Z</time>
      </trkpt>
      <trkpt lat="41.34397" lon="19.45332">
        <ele>41.446564</ele>
        <time>2022-05-06T09:03:53.554Z</time>
      </trkpt>
      <trkpt lat="41.34403" lon="19.45344">
        <ele>41.346259</ele>
        <time>2022-05-06T09:03:55.560Z</time>
      </trkpt>
      <trkpt lat="41.34408" lon="19.45354">
        <ele>41.257006</ele>
        <time>2022-05-06T09:03:57.555Z</time>
      </trkpt>
      <trkpt lat="41.34416" lon="19.45367">
        <ele>41.142894</ele>
        <time>2022-05-06T09:04:00.544Z</time>
      </trkpt>
      <trkpt lat="41.3442" lon="19.45381">
        <ele>41.078278</ele>
        <time>2022-05-06T09:04:04.591Z</time>
      </trkpt>
      <trkpt lat="41.34424" lon="19.45394">
        <ele>41.123702</ele>
        <time>2022-05-06T09:04:07.554Z</time>
      </trkpt>
      <trkpt lat="41.34427" lon="19.45407">
        <ele>41.170422</ele>
        <time>2022-05-06T09:04:10.566Z</time>
      </trkpt>
      <trkpt lat="41.34432" lon="19.45419">
        <ele>41.219797</ele>
        <time>2022-05-06T09:04:13.547Z</time>
      </trkpt>
      <trkpt lat="41.34437" lon="19.45433">
        <ele>41.272327</ele>
        <time>2022-05-06T09:04:16.556Z</time>
      </trkpt>
      <trkpt lat="41.34444" lon="19.45447">
        <ele>41.329167</ele>
        <time>2022-05-06T09:04:19.568Z</time>
      </trkpt>
      <trkpt lat="41.3445" lon="19.4546">
        <ele>41.383571</ele>
        <time>2022-05-06T09:04:22.546Z</time>
      </trkpt>
      <trkpt lat="41.34457" lon="19.45473">
        <ele>41.437592</ele>
        <time>2022-05-06T09:04:25.553Z</time>
      </trkpt>
      <trkpt lat="41.34463" lon="19.45488">
        <ele>41.495038</ele>
        <time>2022-05-06T09:04:28.542Z</time>
      </trkpt>
      <trkpt lat="41.34468" lon="19.45503">
        <ele>41.550633</ele>
        <time>2022-05-06T09:04:31.569Z</time>
      </trkpt>
      <trkpt lat="41.34475" lon="19.45516">
        <ele>41.603965</ele>
        <time>2022-05-06T09:04:34.562Z</time>
      </trkpt>
      <trkpt lat="41.34479" lon="19.45527">
        <ele>41.64576</ele>
        <time>2022-05-06T09:04:37.543Z</time>
      </trkpt>
      <trkpt lat="41.34483" lon="19.4554">
        <ele>41.694958</ele>
        <time>2022-05-06T09:04:41.539Z</time>
      </trkpt>
      <trkpt lat="41.34488" lon="19.45554">
        <ele>41.74772</ele>
        <time>2022-05-06T09:04:45.556Z</time>
      </trkpt>
      <trkpt lat="41.34494" lon="19.45567">
        <ele>41.800857</ele>
        <time>2022-05-06T09:04:49.537Z</time>
      </trkpt>
      <trkpt lat="41.34499" lon="19.45579">
        <ele>41.849847</ele>
        <time>2022-05-06T09:04:53.560Z</time>
      </trkpt>
      <trkpt lat="41.34505" lon="19.45591">
        <ele>41.890893</ele>
        <time>2022-05-06T09:04:57.567Z</time>
      </trkpt>
      <trkpt lat="41.3451" lon="19.45605">
        <ele>41.918798</ele>
        <time>2022-05-06T09:05:01.566Z</time>
      </trkpt>
      <trkpt lat="41.34514" lon="19.45617">
        <ele>41.942665</ele>
        <time>2022-05-06T09:05:04.536Z</time>
      </trkpt>
      <trkpt lat="41.34519" lon="19.45629">
        <ele>41.966269</ele>
        <time>2022-05-06T09:05:07.540Z</time>
      </trkpt>
      <trkpt lat="41.34524" lon="19.4564">
        <ele>41.989583</ele>
        <time>2022-05-06T09:05:10.534Z</time>
      </trkpt>
      <trkpt lat="41.3453" lon="19.45651">
        <ele>42.013591</ele>
        <time>2022-05-06T09:05:13.544Z</time>
      </trkpt>
      <trkpt lat="41.34535" lon="19.45662">
        <ele>42.037647</ele>
        <time>2022-05-06T09:05:16.529Z</time>
      </trkpt>
      <trkpt lat="41.34541" lon="19.45674">
        <ele>42.062389</ele>
        <time>2022-05-06T09:05:19.575Z</time>
      </trkpt>
      <trkpt lat="41.34547" lon="19.45687">
        <ele>42.088145</ele>
        <time>2022-05-06T09:05:22.591Z</time>
      </trkpt>
      <trkpt lat="41.34551" lon="19.45699">
        <ele>42.113704</ele>
        <time>2022-05-06T09:05:25.547Z</time>
      </trkpt>
      <trkpt lat="41.34556" lon="19.45711">
        <ele>42.13715</ele>
        <time>2022-05-06T09:05:28.548Z</time>
      </trkpt>
      <trkpt lat="41.34561" lon="19.45724">
        <ele>42.162233</ele>
        <time>2022-05-06T09:05:31.533Z</time>
      </trkpt>
      <trkpt lat="41.34566" lon="19.45739">
        <ele>42.191141</ele>
        <time>2022-05-06T09:05:34.573Z</time>
      </trkpt>
      <trkpt lat="41.3457" lon="19.45752">
        <ele>42.217411</ele>
        <time>2022-05-06T09:05:37.538Z</time>
      </trkpt>
      <trkpt lat="41.34574" lon="19.45766">
        <ele>42.243846</ele>
        <time>2022-05-06T09:05:40.541Z</time>
      </trkpt>
      <trkpt lat="41.34579" lon="19.45779">
        <ele>42.268354</ele>
        <time>2022-05-06T09:05:43.553Z</time>
      </trkpt>
      <trkpt lat="41.34582" lon="19.4579">
        <ele>42.291148</ele>
        <time>2022-05-06T09:05:47.556Z</time>
      </trkpt>
      <trkpt lat="41.34587" lon="19.45803">
        <ele>42.241948</ele>
        <time>2022-05-06T09:05:51.538Z</time>
      </trkpt>
      <trkpt lat="41.34592" lon="19.45816">
        <ele>41.920838</ele>
        <time>2022-05-06T09:05:54.546Z</time>
      </trkpt>
      <trkpt lat="41.34598" lon="19.45828">
        <ele>41.58536</ele>
        <time>2022-05-06T09:05:57.551Z</time>
      </trkpt>
      <trkpt lat="41.34603" lon="19.45841">
        <ele>41.252502</ele>
        <time>2022-05-06T09:06:00.548Z</time>
      </trkpt>
      <trkpt lat="41.34609" lon="19.45854">
        <ele>40.897999</ele>
        <time>2022-05-06T09:06:03.555Z</time>
      </trkpt>
      <trkpt lat="41.34614" lon="19.45867">
        <ele>40.547249</ele>
        <time>2022-05-06T09:06:06.552Z</time>
      </trkpt>
      <trkpt lat="41.3462" lon="19.45881">
        <ele>40.193951</ele>
        <time>2022-05-06T09:06:09.552Z</time>
      </trkpt>
      <trkpt lat="41.34625" lon="19.45895">
        <ele>39.840064</ele>
        <time>2022-05-06T09:06:12.583Z</time>
      </trkpt>
      <trkpt lat="41.34631" lon="19.45908">
        <ele>39.481837</ele>
        <time>2022-05-06T09:06:15.557Z</time>
      </trkpt>
      <trkpt lat="41.34637" lon="19.45921">
        <ele>39.144986</ele>
        <time>2022-05-06T09:06:18.587Z</time>
      </trkpt>
      <trkpt lat="41.34642" lon="19.45934">
        <ele>38.814667</ele>
        <time>2022-05-06T09:06:21.559Z</time>
      </trkpt>
      <trkpt lat="41.34647" lon="19.45947">
        <ele>38.46137</ele>
        <time>2022-05-06T09:06:24.550Z</time>
      </trkpt>
      <trkpt lat="41.34653" lon="19.45962">
        <ele>38.080145</ele>
        <time>2022-05-06T09:06:27.547Z</time>
      </trkpt>
      <trkpt lat="41.34659" lon="19.45977">
        <ele>37.703487</ele>
        <time>2022-05-06T09:06:30.550Z</time>
      </trkpt>
      <trkpt lat="41.34665" lon="19.45992">
        <ele>37.316197</ele>
        <time>2022-05-06T09:06:33.551Z</time>
      </trkpt>
      <trkpt lat="41.34671" lon="19.46007">
        <ele>36.919996</ele>
        <time>2022-05-06T09:06:36.540Z</time>
      </trkpt>
      <trkpt lat="41.34677" lon="19.46022">
        <ele>36.904191</ele>
        <time>2022-05-06T09:06:39.552Z</time>
      </trkpt>
      <trkpt lat="41.34683" lon="19.46036">
        <ele>36.992801</ele>
        <time>2022-05-06T09:06:42.550Z</time>
      </trkpt>
      <trkpt lat="41.34689" lon="19.46047">
        <ele>37.063513</ele>
        <time>2022-05-06T09:06:44.544Z</time>
      </trkpt>
      <trkpt lat="41.34694" lon="19.46063">
        <ele>37.160225</ele>
        <time>2022-05-06T09:06:47.549Z</time>
      </trkpt>
      <trkpt lat="41.347" lon="19.46079">
        <ele>37.260265</ele>
        <time>2022-05-06T09:06:50.544Z</time>
      </trkpt>
      <trkpt lat="41.34706" lon="19.46093">
        <ele>37.347202</ele>
        <time>2022-05-06T09:06:53.541Z</time>
      </trkpt>
      <trkpt lat="41.34711" lon="19.46107">
        <ele>37.435594</ele>
        <time>2022-05-06T09:06:56.541Z</time>
      </trkpt>
      <trkpt lat="41.34717" lon="19.46121">
        <ele>37.524306</ele>
        <time>2022-05-06T09:06:59.560Z</time>
      </trkpt>
      <trkpt lat="41.34724" lon="19.46136">
        <ele>37.613493</ele>
        <time>2022-05-06T09:07:02.573Z</time>
      </trkpt>
      <trkpt lat="41.34729" lon="19.4615">
        <ele>37.701607</ele>
        <time>2022-05-06T09:07:05.538Z</time>
      </trkpt>
      <trkpt lat="41.34736" lon="19.46164">
        <ele>37.793422</ele>
        <time>2022-05-06T09:07:08.569Z</time>
      </trkpt>
      <trkpt lat="41.34742" lon="19.46178">
        <ele>37.88156</ele>
        <time>2022-05-06T09:07:11.563Z</time>
      </trkpt>
      <trkpt lat="41.34748" lon="19.46192">
        <ele>37.971587</ele>
        <time>2022-05-06T09:07:14.585Z</time>
      </trkpt>
      <trkpt lat="41.34755" lon="19.46207">
        <ele>38.067714</ele>
        <time>2022-05-06T09:07:17.554Z</time>
      </trkpt>
      <trkpt lat="41.34761" lon="19.46222">
        <ele>38.142572</ele>
        <time>2022-05-06T09:07:20.578Z</time>
      </trkpt>
      <trkpt lat="41.34767" lon="19.46237">
        <ele>38.132605</ele>
        <time>2022-05-06T09:07:23.556Z</time>
      </trkpt>
      <trkpt lat="41.34773" lon="19.46252">
        <ele>38.122683</ele>
        <time>2022-05-06T09:07:26.591Z</time>
      </trkpt>
      <trkpt lat="41.34779" lon="19.46267">
        <ele>38.112398</ele>
        <time>2022-05-06T09:07:29.558Z</time>
      </trkpt>
      <trkpt lat="41.34786" lon="19.46282">
        <ele>38.101985</ele>
        <time>2022-05-06T09:07:32.547Z</time>
      </trkpt>
      <trkpt lat="41.34792" lon="19.46298">
        <ele>38.091459</ele>
        <time>2022-05-06T09:07:35.552Z</time>
      </trkpt>
      <trkpt lat="41.34797" lon="19.46308">
        <ele>38.084342</ele>
        <time>2022-05-06T09:07:37.543Z</time>
      </trkpt>
      <trkpt lat="41.34803" lon="19.46324">
        <ele>38.073918</ele>
        <time>2022-05-06T09:07:40.543Z</time>
      </trkpt>
      <trkpt lat="41.34808" lon="19.4634">
        <ele>38.063456</ele>
        <time>2022-05-06T09:07:43.543Z</time>
      </trkpt>
      <trkpt lat="41.34813" lon="19.46355">
        <ele>38.053576</ele>
        <time>2022-05-06T09:07:46.552Z</time>
      </trkpt>
      <trkpt lat="41.34819" lon="19.4637">
        <ele>38.04368</ele>
        <time>2022-05-06T09:07:49.550Z</time>
      </trkpt>
      <trkpt lat="41.34825" lon="19.46386">
        <ele>38.033643</ele>
        <time>2022-05-06T09:07:52.547Z</time>
      </trkpt>
      <trkpt lat="41.3483" lon="19.464">
        <ele>38.024217</ele>
        <time>2022-05-06T09:07:55.547Z</time>
      </trkpt>
      <trkpt lat="41.34834" lon="19.46414">
        <ele>38.015158</ele>
        <time>2022-05-06T09:07:58.538Z</time>
      </trkpt>
      <trkpt lat="41.34837" lon="19.46426">
        <ele>38.007606</ele>
        <time>2022-05-06T09:08:01.552Z</time>
      </trkpt>
      <trkpt lat="41.34839" lon="19.46439">
        <ele>38.026198</ele>
        <time>2022-05-06T09:08:04.551Z</time>
      </trkpt>
      <trkpt lat="41.34842" lon="19.46454">
        <ele>38.094314</ele>
        <time>2022-05-06T09:08:07.546Z</time>
      </trkpt>
      <trkpt lat="41.34848" lon="19.46464">
        <ele>38.150578</ele>
        <time>2022-05-06T09:08:10.572Z</time>
      </trkpt>
      <trkpt lat="41.34858" lon="19.46471">
        <ele>38.220707</ele>
        <time>2022-05-06T09:08:13.529Z</time>
      </trkpt>
      <trkpt lat="41.34868" lon="19.46481">
        <ele>38.292525</ele>
        <time>2022-05-06T09:08:16.590Z</time>
      </trkpt>
      <trkpt lat="41.34874" lon="19.46495">
        <ele>38.367206</ele>
        <time>2022-05-06T09:08:19.554Z</time>
      </trkpt>
      <trkpt lat="41.34879" lon="19.46506">
        <ele>38.42153</ele>
        <time>2022-05-06T09:08:21.561Z</time>
      </trkpt>
      <trkpt lat="41.34884" lon="19.46518">
        <ele>38.483533</ele>
        <time>2022-05-06T09:08:23.538Z</time>
      </trkpt>
      <trkpt lat="41.34889" lon="19.46531">
        <ele>38.547897</ele>
        <time>2022-05-06T09:08:25.552Z</time>
      </trkpt>
      <trkpt lat="41.34895" lon="19.46543">
        <ele>38.611128</ele>
        <time>2022-05-06T09:08:27.550Z</time>
      </trkpt>
      <trkpt lat="41.34901" lon="19.46554">
        <ele>38.674258</ele>
        <time>2022-05-06T09:08:29.552Z</time>
      </trkpt>
      <trkpt lat="41.34906" lon="19.46566">
        <ele>38.733627</ele>
        <time>2022-05-06T09:08:31.556Z</time>
      </trkpt>
      <trkpt lat="41.34911" lon="19.46577">
        <ele>38.791509</ele>
        <time>2022-05-06T09:08:33.626Z</time>
      </trkpt>
      <trkpt lat="41.34915" lon="19.46588">
        <ele>38.846594</ele>
        <time>2022-05-06T09:08:35.574Z</time>
      </trkpt>
      <trkpt lat="41.34919" lon="19.46599">
        <ele>38.901165</ele>
        <time>2022-05-06T09:08:37.567Z</time>
      </trkpt>
      <trkpt lat="41.34924" lon="19.4661">
        <ele>38.957522</ele>
        <time>2022-05-06T09:08:39.570Z</time>
      </trkpt>
      <trkpt lat="41.34928" lon="19.46621">
        <ele>39.011456</ele>
        <time>2022-05-06T09:08:41.534Z</time>
      </trkpt>
      <trkpt lat="41.34934" lon="19.46637">
        <ele>39.055022</ele>
        <time>2022-05-06T09:08:44.547Z</time>
      </trkpt>
      <trkpt lat="41.34939" lon="19.46648">
        <ele>39.016572</ele>
        <time>2022-05-06T09:08:46.554Z</time>
      </trkpt>
      <trkpt lat="41.34943" lon="19.46659">
        <ele>38.979136</ele>
        <time>2022-05-06T09:08:48.594Z</time>
      </trkpt>
      <trkpt lat="41.34947" lon="19.4667">
        <ele>38.942687</ele>
        <time>2022-05-06T09:08:50.595Z</time>
      </trkpt>
      <trkpt lat="41.34951" lon="19.46681">
        <ele>38.905787</ele>
        <time>2022-05-06T09:08:52.553Z</time>
      </trkpt>
      <trkpt lat="41.34955" lon="19.46692">
        <ele>38.869155</ele>
        <time>2022-05-06T09:08:54.551Z</time>
      </trkpt>
      <trkpt lat="41.3496" lon="19.46702">
        <ele>38.832939</ele>
        <time>2022-05-06T09:08:56.594Z</time>
      </trkpt>
      <trkpt lat="41.34964" lon="19.46713">
        <ele>38.796196</ele>
        <time>2022-05-06T09:08:58.552Z</time>
      </trkpt>
      <trkpt lat="41.34971" lon="19.46729">
        <ele>38.742266</ele>
        <time>2022-05-06T09:09:01.578Z</time>
      </trkpt>
      <trkpt lat="41.34978" lon="19.46744">
        <ele>38.688975</ele>
        <time>2022-05-06T09:09:04.557Z</time>
      </trkpt>
      <trkpt lat="41.34984" lon="19.46759">
        <ele>38.634907</ele>
        <time>2022-05-06T09:09:07.563Z</time>
      </trkpt>
      <trkpt lat="41.3499" lon="19.46775">
        <ele>38.58113</ele>
        <time>2022-05-06T09:09:10.536Z</time>
      </trkpt>
      <trkpt lat="41.34994" lon="19.46786">
        <ele>38.54513</ele>
        <time>2022-05-06T09:09:12.587Z</time>
      </trkpt>
      <trkpt lat="41.35001" lon="19.46801">
        <ele>38.492184</ele>
        <time>2022-05-06T09:09:15.561Z</time>
      </trkpt>
      <trkpt lat="41.35007" lon="19.46817">
        <ele>38.440294</ele>
        <time>2022-05-06T09:09:18.547Z</time>
      </trkpt>
      <trkpt lat="41.35013" lon="19.46831">
        <ele>38.389637</ele>
        <time>2022-05-06T09:09:21.551Z</time>
      </trkpt>
      <trkpt lat="41.35018" lon="19.46846">
        <ele>38.345307</ele>
        <time>2022-05-06T09:09:24.567Z</time>
      </trkpt>
      <trkpt lat="41.35022" lon="19.46858">
        <ele>38.328604</ele>
        <time>2022-05-06T09:09:27.558Z</time>
      </trkpt>
      <trkpt lat="41.35027" lon="19.46872">
        <ele>38.308857</ele>
        <time>2022-05-06T09:09:31.553Z</time>
      </trkpt>
      <trkpt lat="41.3503" lon="19.46884">
        <ele>38.292647</ele>
        <time>2022-05-06T09:09:34.585Z</time>
      </trkpt>
      <trkpt lat="41.35034" lon="19.46896">
        <ele>38.276132</ele>
        <time>2022-05-06T09:09:37.552Z</time>
      </trkpt>
      <trkpt lat="41.35039" lon="19.46908">
        <ele>38.259279</ele>
        <time>2022-05-06T09:09:40.549Z</time>
      </trkpt>
      <trkpt lat="41.35044" lon="19.4692">
        <ele>38.24259</ele>
        <time>2022-05-06T09:09:43.540Z</time>
      </trkpt>
      <trkpt lat="41.35049" lon="19.46931">
        <ele>38.225802</ele>
        <time>2022-05-06T09:09:46.570Z</time>
      </trkpt>
      <trkpt lat="41.35053" lon="19.46943">
        <ele>38.209886</ele>
        <time>2022-05-06T09:09:49.547Z</time>
      </trkpt>
      <trkpt lat="41.35058" lon="19.46954">
        <ele>38.19362</ele>
        <time>2022-05-06T09:09:52.555Z</time>
      </trkpt>
      <trkpt lat="41.35062" lon="19.46965">
        <ele>38.177875</ele>
        <time>2022-05-06T09:09:55.543Z</time>
      </trkpt>
      <trkpt lat="41.35066" lon="19.46975">
        <ele>38.162784</ele>
        <time>2022-05-06T09:09:58.557Z</time>
      </trkpt>
      <trkpt lat="41.35071" lon="19.46987">
        <ele>38.146598</ele>
        <time>2022-05-06T09:10:01.559Z</time>
      </trkpt>
      <trkpt lat="41.35076" lon="19.46998">
        <ele>38.129779</ele>
        <time>2022-05-06T09:10:04.555Z</time>
      </trkpt>
      <trkpt lat="41.3508" lon="19.4701">
        <ele>38.113149</ele>
        <time>2022-05-06T09:10:07.578Z</time>
      </trkpt>
      <trkpt lat="41.35085" lon="19.47022">
        <ele>38.096251</ele>
        <time>2022-05-06T09:10:10.542Z</time>
      </trkpt>
      <trkpt lat="41.3509" lon="19.47033">
        <ele>38.079601</ele>
        <time>2022-05-06T09:10:13.545Z</time>
      </trkpt>
      <trkpt lat="41.35094" lon="19.47045">
        <ele>38.062899</ele>
        <time>2022-05-06T09:10:16.540Z</time>
      </trkpt>
      <trkpt lat="41.35099" lon="19.47057">
        <ele>38.046252</ele>
        <time>2022-05-06T09:10:19.568Z</time>
      </trkpt>
      <trkpt lat="41.35105" lon="19.47069">
        <ele>38.041786</ele>
        <time>2022-05-06T09:10:22.559Z</time>
      </trkpt>
      <trkpt lat="41.3511" lon="19.4708">
        <ele>38.037843</ele>
        <time>2022-05-06T09:10:25.534Z</time>
      </trkpt>
      <trkpt lat="41.35114" lon="19.47091">
        <ele>38.033855</ele>
        <time>2022-05-06T09:10:28.564Z</time>
      </trkpt>
      <trkpt lat="41.35119" lon="19.47102">
        <ele>38.029815</ele>
        <time>2022-05-06T09:10:31.555Z</time>
      </trkpt>
      <trkpt lat="41.35123" lon="19.47113">
        <ele>38.025815</ele>
        <time>2022-05-06T09:10:34.548Z</time>
      </trkpt>
      <trkpt lat="41.35128" lon="19.47124">
        <ele>38.021967</ele>
        <time>2022-05-06T09:10:37.548Z</time>
      </trkpt>
      <trkpt lat="41.35132" lon="19.47134">
        <ele>38.018127</ele>
        <time>2022-05-06T09:10:40.562Z</time>
      </trkpt>
      <trkpt lat="41.35136" lon="19.47145">
        <ele>38.014271</ele>
        <time>2022-05-06T09:10:43.551Z</time>
      </trkpt>
      <trkpt lat="41.35141" lon="19.47156">
        <ele>38.010406</ele>
        <time>2022-05-06T09:10:46.592Z</time>
      </trkpt>
      <trkpt lat="41.35145" lon="19.47167">
        <ele>38.006511</ele>
        <time>2022-05-06T09:10:49.549Z</time>
      </trkpt>
      <trkpt lat="41.3515" lon="19.47178">
        <ele>38.002547</ele>
        <time>2022-05-06T09:10:52.552Z</time>
      </trkpt>
      <trkpt lat="41.35155" lon="19.47188">
        <ele>37.998528</ele>
        <time>2022-05-06T09:10:55.553Z</time>
      </trkpt>
      <trkpt lat="41.3516" lon="19.472">
        <ele>37.994282</ele>
        <time>2022-05-06T09:10:58.541Z</time>
      </trkpt>
      <trkpt lat="41.35165" lon="19.47211">
        <ele>37.989971</ele>
        <time>2022-05-06T09:11:01.550Z</time>
      </trkpt>
      <trkpt lat="41.3517" lon="19.47223">
        <ele>37.985848</ele>
        <time>2022-05-06T09:11:04.544Z</time>
      </trkpt>
      <trkpt lat="41.35175" lon="19.47234">
        <ele>37.981723</ele>
        <time>2022-05-06T09:11:07.570Z</time>
      </trkpt>
      <trkpt lat="41.3518" lon="19.47245">
        <ele>37.977599</ele>
        <time>2022-05-06T09:11:10.560Z</time>
      </trkpt>
      <trkpt lat="41.35184" lon="19.47257">
        <ele>37.973476</ele>
        <time>2022-05-06T09:11:13.551Z</time>
      </trkpt>
      <trkpt lat="41.35189" lon="19.47267">
        <ele>37.978029</ele>
        <time>2022-05-06T09:11:16.545Z</time>
      </trkpt>
      <trkpt lat="41.35193" lon="19.47279">
        <ele>38.015363</ele>
        <time>2022-05-06T09:11:19.579Z</time>
      </trkpt>
      <trkpt lat="41.35198" lon="19.4729">
        <ele>38.053763</ele>
        <time>2022-05-06T09:11:22.551Z</time>
      </trkpt>
      <trkpt lat="41.35202" lon="19.47302">
        <ele>38.092504</ele>
        <time>2022-05-06T09:11:25.559Z</time>
      </trkpt>
      <trkpt lat="41.35208" lon="19.47314">
        <ele>38.132629</ele>
        <time>2022-05-06T09:11:28.544Z</time>
      </trkpt>
      <trkpt lat="41.35213" lon="19.47325">
        <ele>38.172646</ele>
        <time>2022-05-06T09:11:31.565Z</time>
      </trkpt>
      <trkpt lat="41.35218" lon="19.47337">
        <ele>38.212162</ele>
        <time>2022-05-06T09:11:34.550Z</time>
      </trkpt>
      <trkpt lat="41.35224" lon="19.47348">
        <ele>38.252385</ele>
        <time>2022-05-06T09:11:37.566Z</time>
      </trkpt>
      <trkpt lat="41.35231" lon="19.47359">
        <ele>38.295106</ele>
        <time>2022-05-06T09:11:40.535Z</time>
      </trkpt>
      <trkpt lat="41.35238" lon="19.47369">
        <ele>38.336908</ele>
        <time>2022-05-06T09:11:43.536Z</time>
      </trkpt>
      <trkpt lat="41.35245" lon="19.4738">
        <ele>38.378599</ele>
        <time>2022-05-06T09:11:46.625Z</time>
      </trkpt>
      <trkpt lat="41.35251" lon="19.47393">
        <ele>38.423219</ele>
        <time>2022-05-06T09:11:49.543Z</time>
      </trkpt>
      <trkpt lat="41.35255" lon="19.47408">
        <ele>38.469314</ele>
        <time>2022-05-06T09:11:52.541Z</time>
      </trkpt>
      <trkpt lat="41.35257" lon="19.47423">
        <ele>38.514858</ele>
        <time>2022-05-06T09:11:55.555Z</time>
      </trkpt>
      <trkpt lat="41.35257" lon="19.47439">
        <ele>38.56172</ele>
        <time>2022-05-06T09:11:58.547Z</time>
      </trkpt>
      <trkpt lat="41.35257" lon="19.47455">
        <ele>38.610054</ele>
        <time>2022-05-06T09:12:01.568Z</time>
      </trkpt>
      <trkpt lat="41.35256" lon="19.47472">
        <ele>38.658166</ele>
        <time>2022-05-06T09:12:04.555Z</time>
      </trkpt>
      <trkpt lat="41.35256" lon="19.47488">
        <ele>38.568915</ele>
        <time>2022-05-06T09:12:07.546Z</time>
      </trkpt>
      <trkpt lat="41.35256" lon="19.47504">
        <ele>38.392399</ele>
        <time>2022-05-06T09:12:10.543Z</time>
      </trkpt>
      <trkpt lat="41.35258" lon="19.47519">
        <ele>38.226262</ele>
        <time>2022-05-06T09:12:13.578Z</time>
      </trkpt>
      <trkpt lat="41.35263" lon="19.47532">
        <ele>38.068328</ele>
        <time>2022-05-06T09:12:16.531Z</time>
      </trkpt>
      <trkpt lat="41.35272" lon="19.47542">
        <ele>37.888969</ele>
        <time>2022-05-06T09:12:19.553Z</time>
      </trkpt>
      <trkpt lat="41.35282" lon="19.47551">
        <ele>37.723898</ele>
        <time>2022-05-06T09:12:22.559Z</time>
      </trkpt>
      <trkpt lat="41.35292" lon="19.4756">
        <ele>37.549723</ele>
        <time>2022-05-06T09:12:25.549Z</time>
      </trkpt>
      <trkpt lat="41.35302" lon="19.4757">
        <ele>37.363419</ele>
        <time>2022-05-06T09:12:28.572Z</time>
      </trkpt>
      <trkpt lat="41.35314" lon="19.4758">
        <ele>37.169238</ele>
        <time>2022-05-06T09:12:31.544Z</time>
      </trkpt>
      <trkpt lat="41.35321" lon="19.47586">
        <ele>37.039122</ele>
        <time>2022-05-06T09:12:33.554Z</time>
      </trkpt>
      <trkpt lat="41.35329" lon="19.47593">
        <ele>36.901173</ele>
        <time>2022-05-06T09:12:35.595Z</time>
      </trkpt>
      <trkpt lat="41.35337" lon="19.476">
        <ele>36.762614</ele>
        <time>2022-05-06T09:12:37.559Z</time>
      </trkpt>
      <trkpt lat="41.35345" lon="19.47607">
        <ele>36.626401</ele>
        <time>2022-05-06T09:12:39.525Z</time>
      </trkpt>
      <trkpt lat="41.35356" lon="19.47616">
        <ele>36.43942</ele>
        <time>2022-05-06T09:12:42.545Z</time>
      </trkpt>
      <trkpt lat="41.35365" lon="19.47623">
        <ele>36.292156</ele>
        <time>2022-05-06T09:12:44.548Z</time>
      </trkpt>
      <trkpt lat="41.35373" lon="19.4763">
        <ele>36.152392</ele>
        <time>2022-05-06T09:12:46.595Z</time>
      </trkpt>
      <trkpt lat="41.35381" lon="19.47637">
        <ele>36.129115</ele>
        <time>2022-05-06T09:12:48.561Z</time>
      </trkpt>
      <trkpt lat="41.35388" lon="19.47644">
        <ele>36.261714</ele>
        <time>2022-05-06T09:12:50.557Z</time>
      </trkpt>
      <trkpt lat="41.35396" lon="19.47651">
        <ele>36.396661</ele>
        <time>2022-05-06T09:12:52.551Z</time>
      </trkpt>
      <trkpt lat="41.35404" lon="19.47658">
        <ele>36.529848</ele>
        <time>2022-05-06T09:12:54.546Z</time>
      </trkpt>
      <trkpt lat="41.35412" lon="19.47664">
        <ele>36.660129</ele>
        <time>2022-05-06T09:12:56.546Z</time>
      </trkpt>
      <trkpt lat="41.3542" lon="19.47671">
        <ele>36.788089</ele>
        <time>2022-05-06T09:12:58.551Z</time>
      </trkpt>
      <trkpt lat="41.35431" lon="19.4768">
        <ele>36.979995</ele>
        <time>2022-05-06T09:13:01.566Z</time>
      </trkpt>
      <trkpt lat="41.35442" lon="19.4769">
        <ele>37.166582</ele>
        <time>2022-05-06T09:13:04.555Z</time>
      </trkpt>
      <trkpt lat="41.35453" lon="19.477">
        <ele>37.347297</ele>
        <time>2022-05-06T09:13:07.556Z</time>
      </trkpt>
      <trkpt lat="41.35464" lon="19.47708">
        <ele>37.523486</ele>
        <time>2022-05-06T09:13:10.565Z</time>
      </trkpt>
      <trkpt lat="41.35474" lon="19.47718">
        <ele>37.703037</ele>
        <time>2022-05-06T09:13:13.540Z</time>
      </trkpt>
      <trkpt lat="41.35482" lon="19.47725">
        <ele>37.832149</ele>
        <time>2022-05-06T09:13:15.551Z</time>
      </trkpt>
      <trkpt lat="41.3549" lon="19.47732">
        <ele>37.963</ele>
        <time>2022-05-06T09:13:17.541Z</time>
      </trkpt>
      <trkpt lat="41.35497" lon="19.47738">
        <ele>38.092077</ele>
        <time>2022-05-06T09:13:19.578Z</time>
      </trkpt>
      <trkpt lat="41.35505" lon="19.47746">
        <ele>38.222415</ele>
        <time>2022-05-06T09:13:21.554Z</time>
      </trkpt>
      <trkpt lat="41.35512" lon="19.47753">
        <ele>38.352683</ele>
        <time>2022-05-06T09:13:23.548Z</time>
      </trkpt>
      <trkpt lat="41.3552" lon="19.47759">
        <ele>38.481173</ele>
        <time>2022-05-06T09:13:25.565Z</time>
      </trkpt>
      <trkpt lat="41.35531" lon="19.47769">
        <ele>38.681219</ele>
        <time>2022-05-06T09:13:28.554Z</time>
      </trkpt>
      <trkpt lat="41.35542" lon="19.47778">
        <ele>38.903128</ele>
        <time>2022-05-06T09:13:31.548Z</time>
      </trkpt>
      <trkpt lat="41.35552" lon="19.47788">
        <ele>39.117267</ele>
        <time>2022-05-06T09:13:34.549Z</time>
      </trkpt>
      <trkpt lat="41.35562" lon="19.47797">
        <ele>39.33276</ele>
        <time>2022-05-06T09:13:37.560Z</time>
      </trkpt>
      <trkpt lat="41.35573" lon="19.47807">
        <ele>39.551185</ele>
        <time>2022-05-06T09:13:40.553Z</time>
      </trkpt>
      <trkpt lat="41.35584" lon="19.47816">
        <ele>39.772436</ele>
        <time>2022-05-06T09:13:43.535Z</time>
      </trkpt>
      <trkpt lat="41.35594" lon="19.47826">
        <ele>39.994353</ele>
        <time>2022-05-06T09:13:46.559Z</time>
      </trkpt>
      <trkpt lat="41.35605" lon="19.47835">
        <ele>40.214158</ele>
        <time>2022-05-06T09:13:49.558Z</time>
      </trkpt>
      <trkpt lat="41.35615" lon="19.47844">
        <ele>40.421808</ele>
        <time>2022-05-06T09:13:52.583Z</time>
      </trkpt>
      <trkpt lat="41.35625" lon="19.47853">
        <ele>40.622319</ele>
        <time>2022-05-06T09:13:55.554Z</time>
      </trkpt>
      <trkpt lat="41.35635" lon="19.47861">
        <ele>40.818061</ele>
        <time>2022-05-06T09:13:58.556Z</time>
      </trkpt>
      <trkpt lat="41.35644" lon="19.47869">
        <ele>41.007859</ele>
        <time>2022-05-06T09:14:01.546Z</time>
      </trkpt>
      <trkpt lat="41.35653" lon="19.47876">
        <ele>41.183403</ele>
        <time>2022-05-06T09:14:04.536Z</time>
      </trkpt>
      <trkpt lat="41.35661" lon="19.47884">
        <ele>41.354023</ele>
        <time>2022-05-06T09:14:07.553Z</time>
      </trkpt>
      <trkpt lat="41.35669" lon="19.47892">
        <ele>41.531732</ele>
        <time>2022-05-06T09:14:10.545Z</time>
      </trkpt>
      <trkpt lat="41.35679" lon="19.479">
        <ele>41.713481</ele>
        <time>2022-05-06T09:14:13.552Z</time>
      </trkpt>
      <trkpt lat="41.35688" lon="19.47909">
        <ele>41.840823</ele>
        <time>2022-05-06T09:14:16.548Z</time>
      </trkpt>
      <trkpt lat="41.35698" lon="19.47917">
        <ele>41.966309</ele>
        <time>2022-05-06T09:14:19.544Z</time>
      </trkpt>
      <trkpt lat="41.35708" lon="19.47927">
        <ele>42.098237</ele>
        <time>2022-05-06T09:14:22.561Z</time>
      </trkpt>
      <trkpt lat="41.35717" lon="19.47936">
        <ele>42.226533</ele>
        <time>2022-05-06T09:14:25.633Z</time>
      </trkpt>
      <trkpt lat="41.35727" lon="19.47946">
        <ele>42.360316</ele>
        <time>2022-05-06T09:14:28.554Z</time>
      </trkpt>
      <trkpt lat="41.35736" lon="19.47957">
        <ele>42.501357</ele>
        <time>2022-05-06T09:14:31.546Z</time>
      </trkpt>
      <trkpt lat="41.35743" lon="19.47965">
        <ele>42.602261</ele>
        <time>2022-05-06T09:14:33.551Z</time>
      </trkpt>
      <trkpt lat="41.3575" lon="19.47973">
        <ele>42.70314</ele>
        <time>2022-05-06T09:14:35.544Z</time>
      </trkpt>
      <trkpt lat="41.35757" lon="19.47981">
        <ele>42.804044</ele>
        <time>2022-05-06T09:14:37.559Z</time>
      </trkpt>
      <trkpt lat="41.35765" lon="19.47988">
        <ele>42.905498</ele>
        <time>2022-05-06T09:14:39.542Z</time>
      </trkpt>
      <trkpt lat="41.35772" lon="19.47996">
        <ele>43.005207</ele>
        <time>2022-05-06T09:14:41.583Z</time>
      </trkpt>
      <trkpt lat="41.35783" lon="19.48006">
        <ele>43.150762</ele>
        <time>2022-05-06T09:14:44.547Z</time>
      </trkpt>
      <trkpt lat="41.35793" lon="19.48016">
        <ele>43.29247</ele>
        <time>2022-05-06T09:14:47.569Z</time>
      </trkpt>
      <trkpt lat="41.358" lon="19.48024">
        <ele>43.391692</ele>
        <time>2022-05-06T09:14:49.553Z</time>
      </trkpt>
      <trkpt lat="41.3581" lon="19.48035">
        <ele>43.536539</ele>
        <time>2022-05-06T09:14:52.542Z</time>
      </trkpt>
      <trkpt lat="41.3582" lon="19.48044">
        <ele>43.668342</ele>
        <time>2022-05-06T09:14:55.573Z</time>
      </trkpt>
      <trkpt lat="41.35827" lon="19.48056">
        <ele>43.815015</ele>
        <time>2022-05-06T09:14:58.585Z</time>
      </trkpt>
      <trkpt lat="41.35833" lon="19.48071">
        <ele>43.967954</ele>
        <time>2022-05-06T09:15:01.526Z</time>
      </trkpt>
      <trkpt lat="41.35838" lon="19.48087">
        <ele>44.131263</ele>
        <time>2022-05-06T09:15:04.589Z</time>
      </trkpt>
      <trkpt lat="41.35841" lon="19.48099">
        <ele>44.247517</ele>
        <time>2022-05-06T09:15:06.559Z</time>
      </trkpt>
      <trkpt lat="41.35845" lon="19.48111">
        <ele>44.362843</ele>
        <time>2022-05-06T09:15:08.531Z</time>
      </trkpt>
      <trkpt lat="41.35848" lon="19.48123">
        <ele>44.47822</ele>
        <time>2022-05-06T09:15:10.557Z</time>
      </trkpt>
      <trkpt lat="41.35851" lon="19.48135">
        <ele>44.598138</ele>
        <time>2022-05-06T09:15:12.537Z</time>
      </trkpt>
      <trkpt lat="41.35855" lon="19.48148">
        <ele>44.724469</ele>
        <time>2022-05-06T09:15:14.542Z</time>
      </trkpt>
      <trkpt lat="41.35859" lon="19.4816">
        <ele>44.845569</ele>
        <time>2022-05-06T09:15:16.559Z</time>
      </trkpt>
      <trkpt lat="41.35864" lon="19.48176">
        <ele>45.011678</ele>
        <time>2022-05-06T09:15:19.542Z</time>
      </trkpt>
      <trkpt lat="41.35868" lon="19.48192">
        <ele>45.169912</ele>
        <time>2022-05-06T09:15:22.541Z</time>
      </trkpt>
      <trkpt lat="41.35873" lon="19.48208">
        <ele>45.325547</ele>
        <time>2022-05-06T09:15:25.554Z</time>
      </trkpt>
      <trkpt lat="41.35878" lon="19.48223">
        <ele>45.481247</ele>
        <time>2022-05-06T09:15:28.537Z</time>
      </trkpt>
      <trkpt lat="41.35882" lon="19.48237">
        <ele>45.618397</ele>
        <time>2022-05-06T09:15:31.616Z</time>
      </trkpt>
      <trkpt lat="41.35886" lon="19.48251">
        <ele>45.758881</ele>
        <time>2022-05-06T09:15:34.555Z</time>
      </trkpt>
      <trkpt lat="41.35891" lon="19.48267">
        <ele>46.068907</ele>
        <time>2022-05-06T09:15:37.537Z</time>
      </trkpt>
      <trkpt lat="41.35894" lon="19.48284">
        <ele>46.913378</ele>
        <time>2022-05-06T09:15:40.556Z</time>
      </trkpt>
      <trkpt lat="41.35896" lon="19.48298">
        <ele>47.648014</ele>
        <time>2022-05-06T09:15:43.583Z</time>
      </trkpt>
      <trkpt lat="41.35901" lon="19.48312">
        <ele>48.426303</ele>
        <time>2022-05-06T09:15:46.551Z</time>
      </trkpt>
      <trkpt lat="41.35905" lon="19.48326">
        <ele>49.195759</ele>
        <time>2022-05-06T09:15:49.563Z</time>
      </trkpt>
      <trkpt lat="41.3591" lon="19.48338">
        <ele>49.84187</ele>
        <time>2022-05-06T09:15:52.555Z</time>
      </trkpt>
      <trkpt lat="41.35914" lon="19.48349">
        <ele>50.461762</ele>
        <time>2022-05-06T09:15:56.528Z</time>
      </trkpt>
      <trkpt lat="41.35918" lon="19.48362">
        <ele>51.158517</ele>
        <time>2022-05-06T09:16:00.552Z</time>
      </trkpt>
      <trkpt lat="41.35924" lon="19.48375">
        <ele>51.913364</ele>
        <time>2022-05-06T09:16:04.576Z</time>
      </trkpt>
      <trkpt lat="41.35929" lon="19.48385">
        <ele>52.556642</ele>
        <time>2022-05-06T09:16:08.562Z</time>
      </trkpt>
      <trkpt lat="41.35934" lon="19.48397">
        <ele>53.18909</ele>
        <time>2022-05-06T09:16:12.554Z</time>
      </trkpt>
      <trkpt lat="41.35939" lon="19.4841">
        <ele>53.923217</ele>
        <time>2022-05-06T09:16:18.561Z</time>
      </trkpt>
      <trkpt lat="41.35943" lon="19.48422">
        <ele>54.568789</ele>
        <time>2022-05-06T09:16:24.566Z</time>
      </trkpt>
      <trkpt lat="41.35946" lon="19.48433">
        <ele>55.197595</ele>
        <time>2022-05-06T09:16:30.542Z</time>
      </trkpt>
      <trkpt lat="41.35949" lon="19.48447">
        <ele>55.885304</ele>
        <time>2022-05-06T09:16:36.561Z</time>
      </trkpt>
      <trkpt lat="41.35953" lon="19.48458">
        <ele>56.5099</ele>
        <time>2022-05-06T09:16:41.554Z</time>
      </trkpt>
      <trkpt lat="41.35957" lon="19.48469">
        <ele>57.121712</ele>
        <time>2022-05-06T09:16:47.538Z</time>
      </trkpt>
      <trkpt lat="41.3596" lon="19.48482">
        <ele>57.825268</ele>
        <time>2022-05-06T09:16:53.555Z</time>
      </trkpt>
      <trkpt lat="41.35964" lon="19.48495">
        <ele>58.040183</ele>
        <time>2022-05-06T09:16:59.553Z</time>
      </trkpt>
      <trkpt lat="41.35967" lon="19.48508">
        <ele>58.236866</ele>
        <time>2022-05-06T09:17:06.564Z</time>
      </trkpt>
      <trkpt lat="41.35969" lon="19.4852">
        <ele>58.415002</ele>
        <time>2022-05-06T09:17:12.559Z</time>
      </trkpt>
      <trkpt lat="41.35972" lon="19.48532">
        <ele>58.608083</ele>
        <time>2022-05-06T09:17:18.552Z</time>
      </trkpt>
      <trkpt lat="41.35975" lon="19.48545">
        <ele>58.794643</ele>
        <time>2022-05-06T09:17:24.553Z</time>
      </trkpt>
      <trkpt lat="41.35977" lon="19.48558">
        <ele>58.99769</ele>
        <time>2022-05-06T09:17:31.562Z</time>
      </trkpt>
      <trkpt lat="41.35979" lon="19.48571">
        <ele>59.191685</ele>
        <time>2022-05-06T09:17:38.558Z</time>
      </trkpt>
      <trkpt lat="41.35981" lon="19.48584">
        <ele>59.391016</ele>
        <time>2022-05-06T09:17:45.551Z</time>
      </trkpt>
      <trkpt lat="41.35984" lon="19.48597">
        <ele>59.581684</ele>
        <time>2022-05-06T09:17:51.552Z</time>
      </trkpt>
      <trkpt lat="41.35989" lon="19.4861">
        <ele>59.792945</ele>
        <time>2022-05-06T09:17:57.543Z</time>
      </trkpt>
      <trkpt lat="41.35996" lon="19.48618">
        <ele>59.979534</ele>
        <time>2022-05-06T09:18:01.563Z</time>
      </trkpt>
      <trkpt lat="41.36004" lon="19.48628">
        <ele>60.197232</ele>
        <time>2022-05-06T09:18:05.546Z</time>
      </trkpt>
      <trkpt lat="41.36012" lon="19.48636">
        <ele>60.399963</ele>
        <time>2022-05-06T09:18:08.547Z</time>
      </trkpt>
      <trkpt lat="41.36021" lon="19.48647">
        <ele>60.625461</ele>
        <time>2022-05-06T09:18:11.558Z</time>
      </trkpt>
      <trkpt lat="41.36031" lon="19.48657">
        <ele>60.873993</ele>
        <time>2022-05-06T09:18:14.550Z</time>
      </trkpt>
      <trkpt lat="41.36038" lon="19.48666">
        <ele>61.055203</ele>
        <time>2022-05-06T09:18:16.545Z</time>
      </trkpt>
      <trkpt lat="41.36045" lon="19.48675">
        <ele>61.259751</ele>
        <time>2022-05-06T09:18:18.551Z</time>
      </trkpt>
      <trkpt lat="41.36054" lon="19.48686">
        <ele>60.944204</ele>
        <time>2022-05-06T09:18:20.556Z</time>
      </trkpt>
      <trkpt lat="41.36064" lon="19.48697">
        <ele>60.100557</ele>
        <time>2022-05-06T09:18:22.550Z</time>
      </trkpt>
      <trkpt lat="41.36075" lon="19.48709">
        <ele>59.216291</ele>
        <time>2022-05-06T09:18:24.622Z</time>
      </trkpt>
      <trkpt lat="41.36085" lon="19.4872">
        <ele>58.359764</ele>
        <time>2022-05-06T09:18:26.551Z</time>
      </trkpt>
      <trkpt lat="41.36096" lon="19.48732">
        <ele>57.46749</ele>
        <time>2022-05-06T09:18:28.542Z</time>
      </trkpt>
      <trkpt lat="41.36107" lon="19.48744">
        <ele>56.55119</ele>
        <time>2022-05-06T09:18:30.559Z</time>
      </trkpt>
      <trkpt lat="41.36117" lon="19.48755">
        <ele>55.708012</ele>
        <time>2022-05-06T09:18:32.553Z</time>
      </trkpt>
      <trkpt lat="41.36126" lon="19.48764">
        <ele>54.969903</ele>
        <time>2022-05-06T09:18:34.543Z</time>
      </trkpt>
      <trkpt lat="41.36134" lon="19.48774">
        <ele>54.29988</ele>
        <time>2022-05-06T09:18:37.565Z</time>
      </trkpt>
      <trkpt lat="41.36141" lon="19.48784">
        <ele>53.629857</ele>
        <time>2022-05-06T09:18:42.564Z</time>
      </trkpt>
      <trkpt lat="41.36149" lon="19.48792">
        <ele>52.989241</ele>
        <time>2022-05-06T09:18:44.557Z</time>
      </trkpt>
      <trkpt lat="41.36157" lon="19.48803">
        <ele>52.273946</ele>
        <time>2022-05-06T09:18:46.585Z</time>
      </trkpt>
      <trkpt lat="41.36165" lon="19.48814">
        <ele>51.513077</ele>
        <time>2022-05-06T09:18:48.547Z</time>
      </trkpt>
      <trkpt lat="41.36175" lon="19.48826">
        <ele>50.6568</ele>
        <time>2022-05-06T09:18:50.555Z</time>
      </trkpt>
      <trkpt lat="41.36185" lon="19.48838">
        <ele>49.819148</ele>
        <time>2022-05-06T09:18:52.550Z</time>
      </trkpt>
      <trkpt lat="41.36194" lon="19.48849">
        <ele>49.276188</ele>
        <time>2022-05-06T09:18:54.564Z</time>
      </trkpt>
      <trkpt lat="41.36202" lon="19.48861">
        <ele>48.753797</ele>
        <time>2022-05-06T09:18:56.531Z</time>
      </trkpt>
      <trkpt lat="41.3621" lon="19.48872">
        <ele>48.236736</ele>
        <time>2022-05-06T09:18:58.547Z</time>
      </trkpt>
      <trkpt lat="41.36219" lon="19.48884">
        <ele>47.713185</ele>
        <time>2022-05-06T09:19:00.551Z</time>
      </trkpt>
      <trkpt lat="41.36227" lon="19.48896">
        <ele>47.202073</ele>
        <time>2022-05-06T09:19:02.548Z</time>
      </trkpt>
      <trkpt lat="41.36235" lon="19.48907">
        <ele>46.711</ele>
        <time>2022-05-06T09:19:04.550Z</time>
      </trkpt>
      <trkpt lat="41.36242" lon="19.48917">
        <ele>46.244428</ele>
        <time>2022-05-06T09:19:06.545Z</time>
      </trkpt>
      <trkpt lat="41.3625" lon="19.48926">
        <ele>45.81054</ele>
        <time>2022-05-06T09:19:08.577Z</time>
      </trkpt>
      <trkpt lat="41.36257" lon="19.48935">
        <ele>45.389606</ele>
        <time>2022-05-06T09:19:10.553Z</time>
      </trkpt>
      <trkpt lat="41.36264" lon="19.48943">
        <ele>44.977448</ele>
        <time>2022-05-06T09:19:12.546Z</time>
      </trkpt>
      <trkpt lat="41.36271" lon="19.48951">
        <ele>44.577108</ele>
        <time>2022-05-06T09:19:14.541Z</time>
      </trkpt>
      <trkpt lat="41.36278" lon="19.48959">
        <ele>44.178886</ele>
        <time>2022-05-06T09:19:16.550Z</time>
      </trkpt>
      <trkpt lat="41.36285" lon="19.48967">
        <ele>43.780665</ele>
        <time>2022-05-06T09:19:18.547Z</time>
      </trkpt>
      <trkpt lat="41.36292" lon="19.48975">
        <ele>43.390759</ele>
        <time>2022-05-06T09:19:20.563Z</time>
      </trkpt>
      <trkpt lat="41.36299" lon="19.48983">
        <ele>42.999052</ele>
        <time>2022-05-06T09:19:22.559Z</time>
      </trkpt>
      <trkpt lat="41.36308" lon="19.48995">
        <ele>42.419921</ele>
        <time>2022-05-06T09:19:25.552Z</time>
      </trkpt>
      <trkpt lat="41.36315" lon="19.49004">
        <ele>42.052588</ele>
        <time>2022-05-06T09:19:27.551Z</time>
      </trkpt>
      <trkpt lat="41.36325" lon="19.49015">
        <ele>41.889929</ele>
        <time>2022-05-06T09:19:30.538Z</time>
      </trkpt>
      <trkpt lat="41.36335" lon="19.49027">
        <ele>41.721981</ele>
        <time>2022-05-06T09:19:33.548Z</time>
      </trkpt>
      <trkpt lat="41.36344" lon="19.4904">
        <ele>41.555123</ele>
        <time>2022-05-06T09:19:36.554Z</time>
      </trkpt>
      <trkpt lat="41.36351" lon="19.49049">
        <ele>41.438601</ele>
        <time>2022-05-06T09:19:38.541Z</time>
      </trkpt>
      <trkpt lat="41.36358" lon="19.49057">
        <ele>41.324049</ele>
        <time>2022-05-06T09:19:40.562Z</time>
      </trkpt>
      <trkpt lat="41.36365" lon="19.49065">
        <ele>41.208347</ele>
        <time>2022-05-06T09:19:42.560Z</time>
      </trkpt>
      <trkpt lat="41.36371" lon="19.49074">
        <ele>41.094444</ele>
        <time>2022-05-06T09:19:44.555Z</time>
      </trkpt>
      <trkpt lat="41.36378" lon="19.49082">
        <ele>40.979892</ele>
        <time>2022-05-06T09:19:46.595Z</time>
      </trkpt>
      <trkpt lat="41.36384" lon="19.4909">
        <ele>40.866634</ele>
        <time>2022-05-06T09:19:48.564Z</time>
      </trkpt>
      <trkpt lat="41.36391" lon="19.49099">
        <ele>40.750275</ele>
        <time>2022-05-06T09:19:50.556Z</time>
      </trkpt>
      <trkpt lat="41.36398" lon="19.49107">
        <ele>40.637017</ele>
        <time>2022-05-06T09:19:52.531Z</time>
      </trkpt>
      <trkpt lat="41.36408" lon="19.49119">
        <ele>40.469363</ele>
        <time>2022-05-06T09:19:55.553Z</time>
      </trkpt>
      <trkpt lat="41.36415" lon="19.49127">
        <ele>40.354274</ele>
        <time>2022-05-06T09:19:57.589Z</time>
      </trkpt>
      <trkpt lat="41.36421" lon="19.49136">
        <ele>40.240741</ele>
        <time>2022-05-06T09:19:59.558Z</time>
      </trkpt>
      <trkpt lat="41.36428" lon="19.49144">
        <ele>40.125652</ele>
        <time>2022-05-06T09:20:01.555Z</time>
      </trkpt>
      <trkpt lat="41.36435" lon="19.49152">
        <ele>40.01212</ele>
        <time>2022-05-06T09:20:03.547Z</time>
      </trkpt>
      <trkpt lat="41.36445" lon="19.49164">
        <ele>39.845098</ele>
        <time>2022-05-06T09:20:06.548Z</time>
      </trkpt>
      <trkpt lat="41.36455" lon="19.49176">
        <ele>39.931807</ele>
        <time>2022-05-06T09:20:09.546Z</time>
      </trkpt>
      <trkpt lat="41.36462" lon="19.49185">
        <ele>40.023671</ele>
        <time>2022-05-06T09:20:11.559Z</time>
      </trkpt>
      <trkpt lat="41.36468" lon="19.49193">
        <ele>40.110149</ele>
        <time>2022-05-06T09:20:13.551Z</time>
      </trkpt>
      <trkpt lat="41.36478" lon="19.49204">
        <ele>40.236728</ele>
        <time>2022-05-06T09:20:16.560Z</time>
      </trkpt>
      <trkpt lat="41.36488" lon="19.49216">
        <ele>40.362342</ele>
        <time>2022-05-06T09:20:19.551Z</time>
      </trkpt>
      <trkpt lat="41.36497" lon="19.49227">
        <ele>40.478832</ele>
        <time>2022-05-06T09:20:22.550Z</time>
      </trkpt>
      <trkpt lat="41.36506" lon="19.49236">
        <ele>40.586781</ele>
        <time>2022-05-06T09:20:25.561Z</time>
      </trkpt>
      <trkpt lat="41.36514" lon="19.49245">
        <ele>40.689316</ele>
        <time>2022-05-06T09:20:28.564Z</time>
      </trkpt>
      <trkpt lat="41.36522" lon="19.49254">
        <ele>40.792164</ele>
        <time>2022-05-06T09:20:31.567Z</time>
      </trkpt>
      <trkpt lat="41.36531" lon="19.49264">
        <ele>40.905049</ele>
        <time>2022-05-06T09:20:34.535Z</time>
      </trkpt>
      <trkpt lat="41.3654" lon="19.49275">
        <ele>41.025638</ele>
        <time>2022-05-06T09:20:37.561Z</time>
      </trkpt>
      <trkpt lat="41.3655" lon="19.49288">
        <ele>41.1556</ele>
        <time>2022-05-06T09:20:40.567Z</time>
      </trkpt>
      <trkpt lat="41.36558" lon="19.49297">
        <ele>41.253359</ele>
        <time>2022-05-06T09:20:42.568Z</time>
      </trkpt>
      <trkpt lat="41.36566" lon="19.49306">
        <ele>41.358318</ele>
        <time>2022-05-06T09:20:44.559Z</time>
      </trkpt>
      <trkpt lat="41.36574" lon="19.49316">
        <ele>41.463041</ele>
        <time>2022-05-06T09:20:46.559Z</time>
      </trkpt>
      <trkpt lat="41.36582" lon="19.49326">
        <ele>41.575548</ele>
        <time>2022-05-06T09:20:48.550Z</time>
      </trkpt>
      <trkpt lat="41.3659" lon="19.49335">
        <ele>41.754132</ele>
        <time>2022-05-06T09:20:50.546Z</time>
      </trkpt>
      <trkpt lat="41.36597" lon="19.49345">
        <ele>41.925782</ele>
        <time>2022-05-06T09:20:52.584Z</time>
      </trkpt>
      <trkpt lat="41.36605" lon="19.49355">
        <ele>42.102411</ele>
        <time>2022-05-06T09:20:54.566Z</time>
      </trkpt>
      <trkpt lat="41.36613" lon="19.49363">
        <ele>42.272751</ele>
        <time>2022-05-06T09:20:56.560Z</time>
      </trkpt>
      <trkpt lat="41.36621" lon="19.49372">
        <ele>42.442284</ele>
        <time>2022-05-06T09:20:58.559Z</time>
      </trkpt>
      <trkpt lat="41.36627" lon="19.49381">
        <ele>42.598659</ele>
        <time>2022-05-06T09:21:00.552Z</time>
      </trkpt>
      <trkpt lat="41.36634" lon="19.4939">
        <ele>42.757443</ele>
        <time>2022-05-06T09:21:02.548Z</time>
      </trkpt>
      <trkpt lat="41.36642" lon="19.49399">
        <ele>42.921572</ele>
        <time>2022-05-06T09:21:04.547Z</time>
      </trkpt>
      <trkpt lat="41.36649" lon="19.49407">
        <ele>43.085271</ele>
        <time>2022-05-06T09:21:06.566Z</time>
      </trkpt>
      <trkpt lat="41.36657" lon="19.49416">
        <ele>43.250627</ele>
        <time>2022-05-06T09:21:08.560Z</time>
      </trkpt>
      <trkpt lat="41.36664" lon="19.49425">
        <ele>43.416099</ele>
        <time>2022-05-06T09:21:10.549Z</time>
      </trkpt>
      <trkpt lat="41.36671" lon="19.49434">
        <ele>43.583521</ele>
        <time>2022-05-06T09:21:12.551Z</time>
      </trkpt>
      <trkpt lat="41.36679" lon="19.49443">
        <ele>43.750555</ele>
        <time>2022-05-06T09:21:14.586Z</time>
      </trkpt>
      <trkpt lat="41.36686" lon="19.49452">
        <ele>43.913464</ele>
        <time>2022-05-06T09:21:16.546Z</time>
      </trkpt>
      <trkpt lat="41.36693" lon="19.49461">
        <ele>44.07276</ele>
        <time>2022-05-06T09:21:18.553Z</time>
      </trkpt>
      <trkpt lat="41.367" lon="19.4947">
        <ele>44.232924</ele>
        <time>2022-05-06T09:21:20.554Z</time>
      </trkpt>
      <trkpt lat="41.36707" lon="19.49479">
        <ele>44.395145</ele>
        <time>2022-05-06T09:21:22.549Z</time>
      </trkpt>
      <trkpt lat="41.36714" lon="19.49488">
        <ele>44.543945</ele>
        <time>2022-05-06T09:21:24.563Z</time>
      </trkpt>
      <trkpt lat="41.36724" lon="19.495">
        <ele>44.664675</ele>
        <time>2022-05-06T09:21:27.550Z</time>
      </trkpt>
      <trkpt lat="41.36733" lon="19.49512">
        <ele>44.778807</ele>
        <time>2022-05-06T09:21:30.581Z</time>
      </trkpt>
      <trkpt lat="41.3674" lon="19.49524">
        <ele>44.88128</ele>
        <time>2022-05-06T09:21:33.556Z</time>
      </trkpt>
      <trkpt lat="41.36747" lon="19.49537">
        <ele>44.991267</ele>
        <time>2022-05-06T09:21:36.540Z</time>
      </trkpt>
      <trkpt lat="41.36753" lon="19.4955">
        <ele>45.091953</ele>
        <time>2022-05-06T09:21:39.547Z</time>
      </trkpt>
      <trkpt lat="41.36756" lon="19.49563">
        <ele>45.184006</ele>
        <time>2022-05-06T09:21:42.595Z</time>
      </trkpt>
      <trkpt lat="41.36759" lon="19.4958">
        <ele>45.300072</ele>
        <time>2022-05-06T09:21:45.556Z</time>
      </trkpt>
      <trkpt lat="41.36763" lon="19.49596">
        <ele>45.417767</ele>
        <time>2022-05-06T09:21:48.535Z</time>
      </trkpt>
      <trkpt lat="41.36766" lon="19.49608">
        <ele>45.498076</ele>
        <time>2022-05-06T09:21:50.547Z</time>
      </trkpt>
      <trkpt lat="41.36768" lon="19.4962">
        <ele>45.580965</ele>
        <time>2022-05-06T09:21:52.562Z</time>
      </trkpt>
      <trkpt lat="41.36771" lon="19.49632">
        <ele>45.668465</ele>
        <time>2022-05-06T09:21:54.559Z</time>
      </trkpt>
      <trkpt lat="41.36774" lon="19.49644">
        <ele>45.753561</ele>
        <time>2022-05-06T09:21:56.546Z</time>
      </trkpt>
      <trkpt lat="41.36779" lon="19.49661">
        <ele>45.87258</ele>
        <time>2022-05-06T09:21:59.532Z</time>
      </trkpt>
      <trkpt lat="41.36782" lon="19.49678">
        <ele>45.990792</ele>
        <time>2022-05-06T09:22:02.556Z</time>
      </trkpt>
      <trkpt lat="41.36785" lon="19.49695">
        <ele>46.10866</ele>
        <time>2022-05-06T09:22:05.566Z</time>
      </trkpt>
      <trkpt lat="41.36788" lon="19.49713">
        <ele>46.087629</ele>
        <time>2022-05-06T09:22:08.540Z</time>
      </trkpt>
      <trkpt lat="41.36791" lon="19.49725">
        <ele>46.03052</ele>
        <time>2022-05-06T09:22:10.542Z</time>
      </trkpt>
      <trkpt lat="41.36793" lon="19.49737">
        <ele>45.974635</ele>
        <time>2022-05-06T09:22:12.545Z</time>
      </trkpt>
      <trkpt lat="41.36797" lon="19.49754">
        <ele>45.893852</ele>
        <time>2022-05-06T09:22:15.595Z</time>
      </trkpt>
      <trkpt lat="41.36801" lon="19.49771">
        <ele>45.811834</ele>
        <time>2022-05-06T09:22:18.528Z</time>
      </trkpt>
      <trkpt lat="41.36804" lon="19.49783">
        <ele>45.756327</ele>
        <time>2022-05-06T09:22:20.545Z</time>
      </trkpt>
      <trkpt lat="41.36807" lon="19.49795">
        <ele>45.700391</ele>
        <time>2022-05-06T09:22:22.558Z</time>
      </trkpt>
      <trkpt lat="41.3681" lon="19.49806">
        <ele>45.644904</ele>
        <time>2022-05-06T09:22:24.556Z</time>
      </trkpt>
      <trkpt lat="41.36815" lon="19.49823">
        <ele>45.564601</ele>
        <time>2022-05-06T09:22:27.552Z</time>
      </trkpt>
      <trkpt lat="41.36818" lon="19.4984">
        <ele>45.484851</ele>
        <time>2022-05-06T09:22:30.553Z</time>
      </trkpt>
      <trkpt lat="41.36821" lon="19.49852">
        <ele>45.42589</ele>
        <time>2022-05-06T09:22:32.563Z</time>
      </trkpt>
      <trkpt lat="41.36823" lon="19.49865">
        <ele>45.368239</ele>
        <time>2022-05-06T09:22:34.556Z</time>
      </trkpt>
      <trkpt lat="41.36826" lon="19.49876">
        <ele>45.313295</ele>
        <time>2022-05-06T09:22:36.548Z</time>
      </trkpt>
      <trkpt lat="41.36829" lon="19.49893">
        <ele>45.233265</ele>
        <time>2022-05-06T09:22:39.553Z</time>
      </trkpt>
      <trkpt lat="41.36832" lon="19.49905">
        <ele>45.179184</ele>
        <time>2022-05-06T09:22:41.563Z</time>
      </trkpt>
      <trkpt lat="41.36835" lon="19.49916">
        <ele>45.123676</ele>
        <time>2022-05-06T09:22:43.558Z</time>
      </trkpt>
      <trkpt lat="41.36838" lon="19.49928">
        <ele>45.067313</ele>
        <time>2022-05-06T09:22:45.567Z</time>
      </trkpt>
      <trkpt lat="41.36841" lon="19.4994">
        <ele>45.061896</ele>
        <time>2022-05-06T09:22:47.574Z</time>
      </trkpt>
      <trkpt lat="41.36845" lon="19.49957">
        <ele>45.063416</ele>
        <time>2022-05-06T09:22:50.541Z</time>
      </trkpt>
      <trkpt lat="41.36848" lon="19.49968">
        <ele>45.064452</ele>
        <time>2022-05-06T09:22:52.550Z</time>
      </trkpt>
      <trkpt lat="41.36852" lon="19.49985">
        <ele>45.065971</ele>
        <time>2022-05-06T09:22:55.532Z</time>
      </trkpt>
      <trkpt lat="41.36856" lon="19.49996">
        <ele>45.067022</ele>
        <time>2022-05-06T09:22:57.550Z</time>
      </trkpt>
      <trkpt lat="41.36859" lon="19.50008">
        <ele>45.06809</ele>
        <time>2022-05-06T09:22:59.554Z</time>
      </trkpt>
      <trkpt lat="41.36862" lon="19.5002">
        <ele>45.069162</ele>
        <time>2022-05-06T09:23:01.549Z</time>
      </trkpt>
      <trkpt lat="41.36865" lon="19.50031">
        <ele>45.070227</ele>
        <time>2022-05-06T09:23:03.546Z</time>
      </trkpt>
      <trkpt lat="41.36868" lon="19.50043">
        <ele>45.071298</ele>
        <time>2022-05-06T09:23:05.589Z</time>
      </trkpt>
      <trkpt lat="41.3687" lon="19.50056">
        <ele>45.072406</ele>
        <time>2022-05-06T09:23:07.545Z</time>
      </trkpt>
      <trkpt lat="41.36873" lon="19.50067">
        <ele>45.073451</ele>
        <time>2022-05-06T09:23:09.552Z</time>
      </trkpt>
      <trkpt lat="41.36876" lon="19.50079">
        <ele>45.074499</ele>
        <time>2022-05-06T09:23:11.529Z</time>
      </trkpt>
      <trkpt lat="41.3688" lon="19.50095">
        <ele>45.075952</ele>
        <time>2022-05-06T09:23:14.554Z</time>
      </trkpt>
      <trkpt lat="41.36883" lon="19.50111">
        <ele>45.077389</ele>
        <time>2022-05-06T09:23:17.559Z</time>
      </trkpt>
      <trkpt lat="41.36885" lon="19.50126">
        <ele>45.078671</ele>
        <time>2022-05-06T09:23:20.552Z</time>
      </trkpt>
      <trkpt lat="41.36888" lon="19.50141">
        <ele>45.080016</ele>
        <time>2022-05-06T09:23:23.559Z</time>
      </trkpt>
      <trkpt lat="41.36893" lon="19.50157">
        <ele>45.081447</ele>
        <time>2022-05-06T09:23:26.558Z</time>
      </trkpt>
      <trkpt lat="41.36898" lon="19.50171">
        <ele>45.325607</ele>
        <time>2022-05-06T09:23:29.545Z</time>
      </trkpt>
      <trkpt lat="41.36902" lon="19.50188">
        <ele>45.609862</ele>
        <time>2022-05-06T09:23:32.539Z</time>
      </trkpt>
      <trkpt lat="41.36904" lon="19.50203">
        <ele>45.869868</ele>
        <time>2022-05-06T09:23:35.543Z</time>
      </trkpt>
      <trkpt lat="41.36906" lon="19.50221">
        <ele>46.163642</ele>
        <time>2022-05-06T09:23:38.546Z</time>
      </trkpt>
      <trkpt lat="41.36908" lon="19.50233">
        <ele>46.36399</ele>
        <time>2022-05-06T09:23:40.545Z</time>
      </trkpt>
      <trkpt lat="41.36911" lon="19.50245">
        <ele>46.561106</ele>
        <time>2022-05-06T09:23:42.555Z</time>
      </trkpt>
      <trkpt lat="41.36914" lon="19.50257">
        <ele>46.767548</ele>
        <time>2022-05-06T09:23:44.568Z</time>
      </trkpt>
      <trkpt lat="41.36917" lon="19.50268">
        <ele>46.963847</ele>
        <time>2022-05-06T09:23:46.546Z</time>
      </trkpt>
      <trkpt lat="41.36922" lon="19.50279">
        <ele>47.168959</ele>
        <time>2022-05-06T09:23:48.553Z</time>
      </trkpt>
      <trkpt lat="41.36925" lon="19.5029">
        <ele>47.364365</ele>
        <time>2022-05-06T09:23:50.552Z</time>
      </trkpt>
      <trkpt lat="41.36929" lon="19.50305">
        <ele>47.633994</ele>
        <time>2022-05-06T09:23:53.547Z</time>
      </trkpt>
      <trkpt lat="41.36933" lon="19.50321">
        <ele>47.899847</ele>
        <time>2022-05-06T09:23:56.545Z</time>
      </trkpt>
      <trkpt lat="41.36937" lon="19.50338">
        <ele>48.190316</ele>
        <time>2022-05-06T09:23:59.551Z</time>
      </trkpt>
      <trkpt lat="41.36939" lon="19.5035">
        <ele>48.38855</ele>
        <time>2022-05-06T09:24:01.526Z</time>
      </trkpt>
      <trkpt lat="41.36941" lon="19.50367">
        <ele>48.679765</ele>
        <time>2022-05-06T09:24:04.577Z</time>
      </trkpt>
      <trkpt lat="41.36943" lon="19.5038">
        <ele>48.882749</ele>
        <time>2022-05-06T09:24:06.557Z</time>
      </trkpt>
      <trkpt lat="41.36946" lon="19.50391">
        <ele>48.921649</ele>
        <time>2022-05-06T09:24:08.553Z</time>
      </trkpt>
      <trkpt lat="41.3695" lon="19.50408">
        <ele>48.713353</ele>
        <time>2022-05-06T09:24:11.559Z</time>
      </trkpt>
      <trkpt lat="41.36953" lon="19.50424">
        <ele>48.519255</ele>
        <time>2022-05-06T09:24:14.558Z</time>
      </trkpt>
      <trkpt lat="41.36957" lon="19.50439">
        <ele>48.31861</ele>
        <time>2022-05-06T09:24:17.556Z</time>
      </trkpt>
      <trkpt lat="41.36961" lon="19.50456">
        <ele>48.112192</ele>
        <time>2022-05-06T09:24:20.543Z</time>
      </trkpt>
      <trkpt lat="41.36963" lon="19.50468">
        <ele>47.969659</ele>
        <time>2022-05-06T09:24:22.559Z</time>
      </trkpt>
      <trkpt lat="41.36966" lon="19.5048">
        <ele>47.820056</ele>
        <time>2022-05-06T09:24:24.562Z</time>
      </trkpt>
      <trkpt lat="41.36969" lon="19.50492">
        <ele>47.667202</ele>
        <time>2022-05-06T09:24:26.567Z</time>
      </trkpt>
      <trkpt lat="41.36971" lon="19.50504">
        <ele>47.523525</ele>
        <time>2022-05-06T09:24:28.558Z</time>
      </trkpt>
      <trkpt lat="41.36973" lon="19.50515">
        <ele>47.380311</ele>
        <time>2022-05-06T09:24:30.543Z</time>
      </trkpt>
      <trkpt lat="41.36977" lon="19.50532">
        <ele>47.172421</ele>
        <time>2022-05-06T09:24:33.599Z</time>
      </trkpt>
      <trkpt lat="41.36979" lon="19.50544">
        <ele>47.029174</ele>
        <time>2022-05-06T09:24:35.549Z</time>
      </trkpt>
      <trkpt lat="41.36983" lon="19.50561">
        <ele>46.817079</ele>
        <time>2022-05-06T09:24:38.563Z</time>
      </trkpt>
      <trkpt lat="41.36986" lon="19.50572">
        <ele>46.674281</ele>
        <time>2022-05-06T09:24:40.555Z</time>
      </trkpt>
      <trkpt lat="41.36989" lon="19.50589">
        <ele>46.464086</ele>
        <time>2022-05-06T09:24:43.547Z</time>
      </trkpt>
      <trkpt lat="41.36992" lon="19.50605">
        <ele>46.268134</ele>
        <time>2022-05-06T09:24:46.569Z</time>
      </trkpt>
      <trkpt lat="41.36994" lon="19.50621">
        <ele>46.124403</ele>
        <time>2022-05-06T09:24:49.560Z</time>
      </trkpt>
      <trkpt lat="41.36997" lon="19.50638">
        <ele>46.084252</ele>
        <time>2022-05-06T09:24:52.558Z</time>
      </trkpt>
      <trkpt lat="41.36999" lon="19.50654">
        <ele>46.044739</ele>
        <time>2022-05-06T09:24:55.561Z</time>
      </trkpt>
      <trkpt lat="41.37002" lon="19.50672">
        <ele>46.004075</ele>
        <time>2022-05-06T09:24:58.557Z</time>
      </trkpt>
      <trkpt lat="41.37004" lon="19.50688">
        <ele>45.964044</ele>
        <time>2022-05-06T09:25:01.547Z</time>
      </trkpt>
      <trkpt lat="41.37007" lon="19.50705">
        <ele>45.924351</ele>
        <time>2022-05-06T09:25:04.559Z</time>
      </trkpt>
      <trkpt lat="41.37009" lon="19.5072">
        <ele>45.888056</ele>
        <time>2022-05-06T09:25:07.555Z</time>
      </trkpt>
      <trkpt lat="41.37011" lon="19.50735">
        <ele>45.852021</ele>
        <time>2022-05-06T09:25:10.568Z</time>
      </trkpt>
      <trkpt lat="41.37014" lon="19.50752">
        <ele>45.811012</ele>
        <time>2022-05-06T09:25:13.568Z</time>
      </trkpt>
      <trkpt lat="41.37016" lon="19.50769">
        <ele>45.772679</ele>
        <time>2022-05-06T09:25:16.599Z</time>
      </trkpt>
      <trkpt lat="41.37018" lon="19.50785">
        <ele>45.732992</ele>
        <time>2022-05-06T09:25:19.524Z</time>
      </trkpt>
      <trkpt lat="41.3702" lon="19.50802">
        <ele>45.693304</ele>
        <time>2022-05-06T09:25:22.551Z</time>
      </trkpt>
      <trkpt lat="41.37022" lon="19.50818">
        <ele>45.65608</ele>
        <time>2022-05-06T09:25:25.541Z</time>
      </trkpt>
      <trkpt lat="41.37025" lon="19.50834">
        <ele>45.617596</ele>
        <time>2022-05-06T09:25:28.535Z</time>
      </trkpt>
      <trkpt lat="41.37027" lon="19.50851">
        <ele>45.577445</ele>
        <time>2022-05-06T09:25:31.569Z</time>
      </trkpt>
      <trkpt lat="41.37029" lon="19.50867">
        <ele>45.697644</ele>
        <time>2022-05-06T09:25:34.532Z</time>
      </trkpt>
      <trkpt lat="41.3703" lon="19.50879">
        <ele>45.790765</ele>
        <time>2022-05-06T09:25:36.553Z</time>
      </trkpt>
      <trkpt lat="41.37033" lon="19.50897">
        <ele>45.931412</ele>
        <time>2022-05-06T09:25:39.539Z</time>
      </trkpt>
      <trkpt lat="41.37036" lon="19.50914">
        <ele>46.067803</ele>
        <time>2022-05-06T09:25:42.556Z</time>
      </trkpt>
      <trkpt lat="41.37038" lon="19.50926">
        <ele>46.160987</ele>
        <time>2022-05-06T09:25:44.581Z</time>
      </trkpt>
      <trkpt lat="41.3704" lon="19.50937">
        <ele>46.253772</ele>
        <time>2022-05-06T09:25:46.547Z</time>
      </trkpt>
      <trkpt lat="41.37041" lon="19.50949">
        <ele>46.347938</ele>
        <time>2022-05-06T09:25:48.542Z</time>
      </trkpt>
      <trkpt lat="41.37042" lon="19.50962">
        <ele>46.446254</ele>
        <time>2022-05-06T09:25:50.580Z</time>
      </trkpt>
      <trkpt lat="41.37044" lon="19.50974">
        <ele>46.542109</ele>
        <time>2022-05-06T09:25:52.586Z</time>
      </trkpt>
      <trkpt lat="41.37046" lon="19.50986">
        <ele>46.63812</ele>
        <time>2022-05-06T09:25:54.563Z</time>
      </trkpt>
      <trkpt lat="41.37048" lon="19.51003">
        <ele>46.768277</ele>
        <time>2022-05-06T09:25:57.542Z</time>
      </trkpt>
      <trkpt lat="41.3705" lon="19.5102">
        <ele>46.90568</ele>
        <time>2022-05-06T09:26:00.552Z</time>
      </trkpt>
      <trkpt lat="41.37053" lon="19.51037">
        <ele>47.040324</ele>
        <time>2022-05-06T09:26:03.558Z</time>
      </trkpt>
      <trkpt lat="41.37056" lon="19.51053">
        <ele>47.169748</ele>
        <time>2022-05-06T09:26:06.537Z</time>
      </trkpt>
      <trkpt lat="41.37058" lon="19.5107">
        <ele>47.302212</ele>
        <time>2022-05-06T09:26:09.556Z</time>
      </trkpt>
      <trkpt lat="41.37061" lon="19.51088">
        <ele>47.434345</ele>
        <time>2022-05-06T09:26:12.552Z</time>
      </trkpt>
      <trkpt lat="41.37062" lon="19.51099">
        <ele>47.392024</ele>
        <time>2022-05-06T09:26:14.560Z</time>
      </trkpt>
      <trkpt lat="41.37065" lon="19.51116">
        <ele>47.330941</ele>
        <time>2022-05-06T09:26:17.553Z</time>
      </trkpt>
      <trkpt lat="41.37066" lon="19.51134">
        <ele>47.268708</ele>
        <time>2022-05-06T09:26:20.530Z</time>
      </trkpt>
      <trkpt lat="41.37067" lon="19.51146">
        <ele>47.226463</ele>
        <time>2022-05-06T09:26:22.567Z</time>
      </trkpt>
      <trkpt lat="41.3707" lon="19.51162">
        <ele>47.167633</ele>
        <time>2022-05-06T09:26:25.543Z</time>
      </trkpt>
      <trkpt lat="41.37072" lon="19.51178">
        <ele>47.11046</ele>
        <time>2022-05-06T09:26:28.562Z</time>
      </trkpt>
      <trkpt lat="41.37074" lon="19.51195">
        <ele>47.047901</ele>
        <time>2022-05-06T09:26:31.572Z</time>
      </trkpt>
      <trkpt lat="41.37075" lon="19.51208">
        <ele>47.004392</ele>
        <time>2022-05-06T09:26:33.537Z</time>
      </trkpt>
      <trkpt lat="41.37078" lon="19.51225">
        <ele>46.942501</ele>
        <time>2022-05-06T09:26:36.561Z</time>
      </trkpt>
      <trkpt lat="41.37081" lon="19.51241">
        <ele>46.881325</ele>
        <time>2022-05-06T09:26:39.554Z</time>
      </trkpt>
      <trkpt lat="41.37083" lon="19.51253">
        <ele>46.838923</ele>
        <time>2022-05-06T09:26:41.539Z</time>
      </trkpt>
      <trkpt lat="41.37085" lon="19.51266">
        <ele>46.794697</ele>
        <time>2022-05-06T09:26:43.548Z</time>
      </trkpt>
      <trkpt lat="41.37086" lon="19.51278">
        <ele>46.749934</ele>
        <time>2022-05-06T09:26:45.567Z</time>
      </trkpt>
      <trkpt lat="41.37088" lon="19.51291">
        <ele>46.704665</ele>
        <time>2022-05-06T09:26:47.567Z</time>
      </trkpt>
      <trkpt lat="41.3709" lon="19.51303">
        <ele>46.661392</ele>
        <time>2022-05-06T09:26:49.551Z</time>
      </trkpt>
      <trkpt lat="41.37091" lon="19.51315">
        <ele>46.6181</ele>
        <time>2022-05-06T09:26:51.552Z</time>
      </trkpt>
      <trkpt lat="41.37093" lon="19.51327">
        <ele>46.601035</ele>
        <time>2022-05-06T09:26:53.555Z</time>
      </trkpt>
      <trkpt lat="41.37095" lon="19.51344">
        <ele>46.65646</ele>
        <time>2022-05-06T09:26:56.544Z</time>
      </trkpt>
      <trkpt lat="41.37097" lon="19.51359">
        <ele>46.704102</ele>
        <time>2022-05-06T09:26:59.546Z</time>
      </trkpt>
      <trkpt lat="41.37098" lon="19.51371">
        <ele>46.742141</ele>
        <time>2022-05-06T09:27:02.541Z</time>
      </trkpt>
      <trkpt lat="41.37098" lon="19.51383">
        <ele>46.780801</ele>
        <time>2022-05-06T09:27:05.587Z</time>
      </trkpt>
      <trkpt lat="41.371" lon="19.514">
        <ele>46.836198</ele>
        <time>2022-05-06T09:27:09.565Z</time>
      </trkpt>
      <trkpt lat="41.37101" lon="19.51413">
        <ele>46.877747</ele>
        <time>2022-05-06T09:27:11.551Z</time>
      </trkpt>
      <trkpt lat="41.37102" lon="19.51425">
        <ele>46.91716</ele>
        <time>2022-05-06T09:27:13.551Z</time>
      </trkpt>
      <trkpt lat="41.37104" lon="19.51439">
        <ele>46.959902</ele>
        <time>2022-05-06T09:27:15.547Z</time>
      </trkpt>
      <trkpt lat="41.37107" lon="19.51452">
        <ele>47.00375</ele>
        <time>2022-05-06T09:27:17.547Z</time>
      </trkpt>
      <trkpt lat="41.37109" lon="19.51466">
        <ele>47.050267</ele>
        <time>2022-05-06T09:27:19.543Z</time>
      </trkpt>
      <trkpt lat="41.37111" lon="19.51482">
        <ele>47.098772</ele>
        <time>2022-05-06T09:27:21.584Z</time>
      </trkpt>
      <trkpt lat="41.37114" lon="19.51496">
        <ele>47.145395</ele>
        <time>2022-05-06T09:27:23.547Z</time>
      </trkpt>
      <trkpt lat="41.37116" lon="19.51508">
        <ele>47.186506</ele>
        <time>2022-05-06T09:27:25.561Z</time>
      </trkpt>
      <trkpt lat="41.37118" lon="19.51522">
        <ele>47.229009</ele>
        <time>2022-05-06T09:27:27.555Z</time>
      </trkpt>
      <trkpt lat="41.3712" lon="19.51534">
        <ele>47.268972</ele>
        <time>2022-05-06T09:27:29.567Z</time>
      </trkpt>
      <trkpt lat="41.37121" lon="19.51546">
        <ele>47.307132</ele>
        <time>2022-05-06T09:27:31.531Z</time>
      </trkpt>
      <trkpt lat="41.37123" lon="19.51558">
        <ele>47.345361</ele>
        <time>2022-05-06T09:27:33.550Z</time>
      </trkpt>
      <trkpt lat="41.37125" lon="19.51575">
        <ele>47.328546</ele>
        <time>2022-05-06T09:27:36.551Z</time>
      </trkpt>
      <trkpt lat="41.37128" lon="19.51587">
        <ele>47.314689</ele>
        <time>2022-05-06T09:27:38.590Z</time>
      </trkpt>
      <trkpt lat="41.37131" lon="19.51604">
        <ele>47.294291</ele>
        <time>2022-05-06T09:27:41.559Z</time>
      </trkpt>
      <trkpt lat="41.37133" lon="19.51621">
        <ele>47.274164</ele>
        <time>2022-05-06T09:27:44.549Z</time>
      </trkpt>
      <trkpt lat="41.37135" lon="19.51638">
        <ele>47.25432</ele>
        <time>2022-05-06T09:27:47.559Z</time>
      </trkpt>
      <trkpt lat="41.37137" lon="19.51653">
        <ele>47.237202</ele>
        <time>2022-05-06T09:27:50.554Z</time>
      </trkpt>
      <trkpt lat="41.37139" lon="19.51669">
        <ele>47.218515</ele>
        <time>2022-05-06T09:27:53.549Z</time>
      </trkpt>
      <trkpt lat="41.37141" lon="19.51685">
        <ele>47.199815</ele>
        <time>2022-05-06T09:27:56.553Z</time>
      </trkpt>
      <trkpt lat="41.37143" lon="19.51701">
        <ele>47.181659</ele>
        <time>2022-05-06T09:27:59.564Z</time>
      </trkpt>
      <trkpt lat="41.37145" lon="19.51718">
        <ele>47.161891</ele>
        <time>2022-05-06T09:28:02.551Z</time>
      </trkpt>
      <trkpt lat="41.37146" lon="19.5173">
        <ele>47.147607</ele>
        <time>2022-05-06T09:28:04.552Z</time>
      </trkpt>
      <trkpt lat="41.37149" lon="19.51747">
        <ele>47.127622</ele>
        <time>2022-05-06T09:28:07.538Z</time>
      </trkpt>
      <trkpt lat="41.37151" lon="19.51765">
        <ele>47.107036</ele>
        <time>2022-05-06T09:28:10.552Z</time>
      </trkpt>
      <trkpt lat="41.37152" lon="19.51777">
        <ele>47.092468</ele>
        <time>2022-05-06T09:28:12.531Z</time>
      </trkpt>
      <trkpt lat="41.37154" lon="19.5179">
        <ele>47.07824</ele>
        <time>2022-05-06T09:28:14.548Z</time>
      </trkpt>
      <trkpt lat="41.37156" lon="19.51802">
        <ele>46.996817</ele>
        <time>2022-05-06T09:28:16.551Z</time>
      </trkpt>
      <trkpt lat="41.37158" lon="19.51814">
        <ele>46.868779</ele>
        <time>2022-05-06T09:28:18.554Z</time>
      </trkpt>
      <trkpt lat="41.3716" lon="19.51827">
        <ele>46.738942</ele>
        <time>2022-05-06T09:28:20.542Z</time>
      </trkpt>
      <trkpt lat="41.37162" lon="19.51839">
        <ele>46.610645</ele>
        <time>2022-05-06T09:28:22.560Z</time>
      </trkpt>
      <trkpt lat="41.37164" lon="19.51852">
        <ele>46.484042</ele>
        <time>2022-05-06T09:28:24.537Z</time>
      </trkpt>
      <trkpt lat="41.37166" lon="19.51864">
        <ele>46.359778</ele>
        <time>2022-05-06T09:28:26.546Z</time>
      </trkpt>
      <trkpt lat="41.37168" lon="19.51876">
        <ele>46.23353</ele>
        <time>2022-05-06T09:28:28.604Z</time>
      </trkpt>
      <trkpt lat="41.3717" lon="19.51888">
        <ele>46.10791</ele>
        <time>2022-05-06T09:28:30.531Z</time>
      </trkpt>
      <trkpt lat="41.37172" lon="19.519">
        <ele>45.988029</ele>
        <time>2022-05-06T09:28:32.545Z</time>
      </trkpt>
      <trkpt lat="41.37174" lon="19.51917">
        <ele>45.812281</ele>
        <time>2022-05-06T09:28:35.543Z</time>
      </trkpt>
      <trkpt lat="41.37177" lon="19.51934">
        <ele>45.635783</ele>
        <time>2022-05-06T09:28:38.567Z</time>
      </trkpt>
      <trkpt lat="41.37179" lon="19.51951">
        <ele>45.460784</ele>
        <time>2022-05-06T09:28:41.567Z</time>
      </trkpt>
      <trkpt lat="41.37181" lon="19.51963">
        <ele>45.34016</ele>
        <time>2022-05-06T09:28:43.557Z</time>
      </trkpt>
      <trkpt lat="41.37182" lon="19.51975">
        <ele>45.218776</ele>
        <time>2022-05-06T09:28:45.595Z</time>
      </trkpt>
      <trkpt lat="41.37185" lon="19.51991">
        <ele>45.049433</ele>
        <time>2022-05-06T09:28:48.552Z</time>
      </trkpt>
      <trkpt lat="41.37186" lon="19.52003">
        <ele>44.92881</ele>
        <time>2022-05-06T09:28:50.586Z</time>
      </trkpt>
      <trkpt lat="41.37189" lon="19.52021">
        <ele>44.751326</ele>
        <time>2022-05-06T09:28:53.554Z</time>
      </trkpt>
      <trkpt lat="41.37191" lon="19.52038">
        <ele>44.718097</ele>
        <time>2022-05-06T09:28:56.547Z</time>
      </trkpt>
      <trkpt lat="41.37194" lon="19.52055">
        <ele>44.832572</ele>
        <time>2022-05-06T09:28:59.554Z</time>
      </trkpt>
      <trkpt lat="41.37197" lon="19.52073">
        <ele>44.94561</ele>
        <time>2022-05-06T09:29:02.555Z</time>
      </trkpt>
      <trkpt lat="41.372" lon="19.52089">
        <ele>45.054451</ele>
        <time>2022-05-06T09:29:05.571Z</time>
      </trkpt>
      <trkpt lat="41.37202" lon="19.52105">
        <ele>45.161765</ele>
        <time>2022-05-06T09:29:08.563Z</time>
      </trkpt>
      <trkpt lat="41.37204" lon="19.52122">
        <ele>45.270248</ele>
        <time>2022-05-06T09:29:11.558Z</time>
      </trkpt>
      <trkpt lat="41.37206" lon="19.52139">
        <ele>45.379633</ele>
        <time>2022-05-06T09:29:14.553Z</time>
      </trkpt>
      <trkpt lat="41.37209" lon="19.52156">
        <ele>45.493482</ele>
        <time>2022-05-06T09:29:17.549Z</time>
      </trkpt>
      <trkpt lat="41.37211" lon="19.52173">
        <ele>45.600482</ele>
        <time>2022-05-06T09:29:20.535Z</time>
      </trkpt>
      <trkpt lat="41.37214" lon="19.52188">
        <ele>45.698358</ele>
        <time>2022-05-06T09:29:23.565Z</time>
      </trkpt>
      <trkpt lat="41.37216" lon="19.52204">
        <ele>45.808358</ele>
        <time>2022-05-06T09:29:26.550Z</time>
      </trkpt>
      <trkpt lat="41.37219" lon="19.52221">
        <ele>45.917448</ele>
        <time>2022-05-06T09:29:29.600Z</time>
      </trkpt>
      <trkpt lat="41.37222" lon="19.52238">
        <ele>46.029417</ele>
        <time>2022-05-06T09:29:32.539Z</time>
      </trkpt>
      <trkpt lat="41.37224" lon="19.5225">
        <ele>46.106753</ele>
        <time>2022-05-06T09:29:34.553Z</time>
      </trkpt>
      <trkpt lat="41.37225" lon="19.52262">
        <ele>46.184264</ele>
        <time>2022-05-06T09:29:36.540Z</time>
      </trkpt>
      <trkpt lat="41.37228" lon="19.52279">
        <ele>46.204611</ele>
        <time>2022-05-06T09:29:39.553Z</time>
      </trkpt>
      <trkpt lat="41.3723" lon="19.52297">
        <ele>46.208704</ele>
        <time>2022-05-06T09:29:42.565Z</time>
      </trkpt>
      <trkpt lat="41.37231" lon="19.52314">
        <ele>46.212628</ele>
        <time>2022-05-06T09:29:45.551Z</time>
      </trkpt>
      <trkpt lat="41.37233" lon="19.52331">
        <ele>46.216602</ele>
        <time>2022-05-06T09:29:48.565Z</time>
      </trkpt>
      <trkpt lat="41.37234" lon="19.52348">
        <ele>46.220636</ele>
        <time>2022-05-06T09:29:51.575Z</time>
      </trkpt>
      <trkpt lat="41.37237" lon="19.52364">
        <ele>46.22447</ele>
        <time>2022-05-06T09:29:54.565Z</time>
      </trkpt>
      <trkpt lat="41.37239" lon="19.52382">
        <ele>46.22855</ele>
        <time>2022-05-06T09:29:57.555Z</time>
      </trkpt>
      <trkpt lat="41.37241" lon="19.52399">
        <ele>46.232533</ele>
        <time>2022-05-06T09:30:00.556Z</time>
      </trkpt>
      <trkpt lat="41.37243" lon="19.52415">
        <ele>46.236425</ele>
        <time>2022-05-06T09:30:03.550Z</time>
      </trkpt>
      <trkpt lat="41.37246" lon="19.52432">
        <ele>46.240384</ele>
        <time>2022-05-06T09:30:06.531Z</time>
      </trkpt>
      <trkpt lat="41.37247" lon="19.52444">
        <ele>46.243197</ele>
        <time>2022-05-06T09:30:08.555Z</time>
      </trkpt>
      <trkpt lat="41.37249" lon="19.52457">
        <ele>46.24623</ele>
        <time>2022-05-06T09:30:10.552Z</time>
      </trkpt>
      <trkpt lat="41.37251" lon="19.52469">
        <ele>46.24915</ele>
        <time>2022-05-06T09:30:12.566Z</time>
      </trkpt>
      <trkpt lat="41.37252" lon="19.52481">
        <ele>46.251945</ele>
        <time>2022-05-06T09:30:14.551Z</time>
      </trkpt>
      <trkpt lat="41.37255" lon="19.52498">
        <ele>46.255911</ele>
        <time>2022-05-06T09:30:17.552Z</time>
      </trkpt>
      <trkpt lat="41.37258" lon="19.52515">
        <ele>46.244796</ele>
        <time>2022-05-06T09:30:20.610Z</time>
      </trkpt>
      <trkpt lat="41.37261" lon="19.52533">
        <ele>46.231414</ele>
        <time>2022-05-06T09:30:23.572Z</time>
      </trkpt>
      <trkpt lat="41.37263" lon="19.5255">
        <ele>46.218119</ele>
        <time>2022-05-06T09:30:26.554Z</time>
      </trkpt>
      <trkpt lat="41.37266" lon="19.52567">
        <ele>46.204729</ele>
        <time>2022-05-06T09:30:29.556Z</time>
      </trkpt>
      <trkpt lat="41.37269" lon="19.52584">
        <ele>46.19119</ele>
        <time>2022-05-06T09:30:32.547Z</time>
      </trkpt>
      <trkpt lat="41.37271" lon="19.52601">
        <ele>46.178027</ele>
        <time>2022-05-06T09:30:35.532Z</time>
      </trkpt>
      <trkpt lat="41.37273" lon="19.52618">
        <ele>46.164915</ele>
        <time>2022-05-06T09:30:38.563Z</time>
      </trkpt>
      <trkpt lat="41.37275" lon="19.52635">
        <ele>46.151659</ele>
        <time>2022-05-06T09:30:41.553Z</time>
      </trkpt>
      <trkpt lat="41.37277" lon="19.52653">
        <ele>46.138095</ele>
        <time>2022-05-06T09:30:44.574Z</time>
      </trkpt>
      <trkpt lat="41.37279" lon="19.5267">
        <ele>46.124696</ele>
        <time>2022-05-06T09:30:47.548Z</time>
      </trkpt>
      <trkpt lat="41.37282" lon="19.52687">
        <ele>46.111625</ele>
        <time>2022-05-06T09:30:50.567Z</time>
      </trkpt>
      <trkpt lat="41.37284" lon="19.52704">
        <ele>46.098608</ele>
        <time>2022-05-06T09:30:53.581Z</time>
      </trkpt>
      <trkpt lat="41.37287" lon="19.52721">
        <ele>46.085122</ele>
        <time>2022-05-06T09:30:56.582Z</time>
      </trkpt>
      <trkpt lat="41.37289" lon="19.52738">
        <ele>46.106303</ele>
        <time>2022-05-06T09:30:59.564Z</time>
      </trkpt>
      <trkpt lat="41.37292" lon="19.52755">
        <ele>46.328888</ele>
        <time>2022-05-06T09:31:02.542Z</time>
      </trkpt>
      <trkpt lat="41.37294" lon="19.52772">
        <ele>46.562878</ele>
        <time>2022-05-06T09:31:05.552Z</time>
      </trkpt>
      <trkpt lat="41.37296" lon="19.52789">
        <ele>46.794585</ele>
        <time>2022-05-06T09:31:08.536Z</time>
      </trkpt>
      <trkpt lat="41.37299" lon="19.52806">
        <ele>47.024652</ele>
        <time>2022-05-06T09:31:11.548Z</time>
      </trkpt>
      <trkpt lat="41.37301" lon="19.52824">
        <ele>47.260647</ele>
        <time>2022-05-06T09:31:14.559Z</time>
      </trkpt>
      <trkpt lat="41.37302" lon="19.52835">
        <ele>47.42085</ele>
        <time>2022-05-06T09:31:16.555Z</time>
      </trkpt>
      <trkpt lat="41.37304" lon="19.52848">
        <ele>47.587523</ele>
        <time>2022-05-06T09:31:18.583Z</time>
      </trkpt>
      <trkpt lat="41.37307" lon="19.52865">
        <ele>47.818632</ele>
        <time>2022-05-06T09:31:21.558Z</time>
      </trkpt>
      <trkpt lat="41.37309" lon="19.52881">
        <ele>48.038901</ele>
        <time>2022-05-06T09:31:24.545Z</time>
      </trkpt>
      <trkpt lat="41.37312" lon="19.52897">
        <ele>48.26113</ele>
        <time>2022-05-06T09:31:27.542Z</time>
      </trkpt>
      <trkpt lat="41.37314" lon="19.52909">
        <ele>48.420261</ele>
        <time>2022-05-06T09:31:29.548Z</time>
      </trkpt>
      <trkpt lat="41.37317" lon="19.52926">
        <ele>48.652516</ele>
        <time>2022-05-06T09:31:32.549Z</time>
      </trkpt>
      <trkpt lat="41.3732" lon="19.52943">
        <ele>48.887897</ele>
        <time>2022-05-06T09:31:35.543Z</time>
      </trkpt>
      <trkpt lat="41.37322" lon="19.52956">
        <ele>49.054917</ele>
        <time>2022-05-06T09:31:37.605Z</time>
      </trkpt>
      <trkpt lat="41.37324" lon="19.52968">
        <ele>49.220635</ele>
        <time>2022-05-06T09:31:39.556Z</time>
      </trkpt>
      <trkpt lat="41.37325" lon="19.5298">
        <ele>49.365736</ele>
        <time>2022-05-06T09:31:41.533Z</time>
      </trkpt>
      <trkpt lat="41.37326" lon="19.52992">
        <ele>49.503157</ele>
        <time>2022-05-06T09:31:43.545Z</time>
      </trkpt>
      <trkpt lat="41.3733" lon="19.53009">
        <ele>49.703695</ele>
        <time>2022-05-06T09:31:46.571Z</time>
      </trkpt>
      <trkpt lat="41.3733" lon="19.53025">
        <ele>49.896633</ele>
        <time>2022-05-06T09:31:49.542Z</time>
      </trkpt>
      <trkpt lat="41.3733" lon="19.53043">
        <ele>50.093917</ele>
        <time>2022-05-06T09:31:52.543Z</time>
      </trkpt>
      <trkpt lat="41.37332" lon="19.5306">
        <ele>50.291383</ele>
        <time>2022-05-06T09:31:55.550Z</time>
      </trkpt>
      <trkpt lat="41.37334" lon="19.53072">
        <ele>50.432764</ele>
        <time>2022-05-06T09:31:57.569Z</time>
      </trkpt>
      <trkpt lat="41.37335" lon="19.53085">
        <ele>50.585558</ele>
        <time>2022-05-06T09:31:59.568Z</time>
      </trkpt>
      <trkpt lat="41.37336" lon="19.53098">
        <ele>50.738612</ele>
        <time>2022-05-06T09:32:01.559Z</time>
      </trkpt>
      <trkpt lat="41.37337" lon="19.53111">
        <ele>50.886111</ele>
        <time>2022-05-06T09:32:03.539Z</time>
      </trkpt>
      <trkpt lat="41.37338" lon="19.53124">
        <ele>51.031329</ele>
        <time>2022-05-06T09:32:05.596Z</time>
      </trkpt>
      <trkpt lat="41.37339" lon="19.53136">
        <ele>51.169407</ele>
        <time>2022-05-06T09:32:07.548Z</time>
      </trkpt>
      <trkpt lat="41.3734" lon="19.53148">
        <ele>51.307966</ele>
        <time>2022-05-06T09:32:09.545Z</time>
      </trkpt>
      <trkpt lat="41.37341" lon="19.53166">
        <ele>51.514412</ele>
        <time>2022-05-06T09:32:12.554Z</time>
      </trkpt>
      <trkpt lat="41.37341" lon="19.53178">
        <ele>51.654773</ele>
        <time>2022-05-06T09:32:14.547Z</time>
      </trkpt>
      <trkpt lat="41.37343" lon="19.53195">
        <ele>51.858358</ele>
        <time>2022-05-06T09:32:17.552Z</time>
      </trkpt>
      <trkpt lat="41.37344" lon="19.53207">
        <ele>51.996436</ele>
        <time>2022-05-06T09:32:19.530Z</time>
      </trkpt>
      <trkpt lat="41.37345" lon="19.5322">
        <ele>52.068136</ele>
        <time>2022-05-06T09:32:21.539Z</time>
      </trkpt>
      <trkpt lat="41.37345" lon="19.53232">
        <ele>52.132227</ele>
        <time>2022-05-06T09:32:23.547Z</time>
      </trkpt>
      <trkpt lat="41.37347" lon="19.53249">
        <ele>52.224591</ele>
        <time>2022-05-06T09:32:26.541Z</time>
      </trkpt>
      <trkpt lat="41.37348" lon="19.53265">
        <ele>52.313012</ele>
        <time>2022-05-06T09:32:29.550Z</time>
      </trkpt>
      <trkpt lat="41.3735" lon="19.53282">
        <ele>52.403017</ele>
        <time>2022-05-06T09:32:32.553Z</time>
      </trkpt>
      <trkpt lat="41.3735" lon="19.53299">
        <ele>52.494056</ele>
        <time>2022-05-06T09:32:35.556Z</time>
      </trkpt>
      <trkpt lat="41.3735" lon="19.53311">
        <ele>52.558994</ele>
        <time>2022-05-06T09:32:37.555Z</time>
      </trkpt>
      <trkpt lat="41.37351" lon="19.53324">
        <ele>52.623427</ele>
        <time>2022-05-06T09:32:39.537Z</time>
      </trkpt>
      <trkpt lat="41.37351" lon="19.53341">
        <ele>52.718656</ele>
        <time>2022-05-06T09:32:42.552Z</time>
      </trkpt>
      <trkpt lat="41.37351" lon="19.53359">
        <ele>52.813949</ele>
        <time>2022-05-06T09:32:45.544Z</time>
      </trkpt>
      <trkpt lat="41.37352" lon="19.53377">
        <ele>52.908242</ele>
        <time>2022-05-06T09:32:48.524Z</time>
      </trkpt>
      <trkpt lat="41.37352" lon="19.53395">
        <ele>53.001896</ele>
        <time>2022-05-06T09:32:51.617Z</time>
      </trkpt>
      <trkpt lat="41.37353" lon="19.53412">
        <ele>53.096721</ele>
        <time>2022-05-06T09:32:54.547Z</time>
      </trkpt>
      <trkpt lat="41.37354" lon="19.53429">
        <ele>53.186196</ele>
        <time>2022-05-06T09:32:57.551Z</time>
      </trkpt>
      <trkpt lat="41.37354" lon="19.53443">
        <ele>53.260147</ele>
        <time>2022-05-06T09:33:00.591Z</time>
      </trkpt>
      <trkpt lat="41.37347" lon="19.53456">
        <ele>53.204471</ele>
        <time>2022-05-06T09:33:04.566Z</time>
      </trkpt>
      <trkpt lat="41.37337" lon="19.53459">
        <ele>53.10327</ele>
        <time>2022-05-06T09:33:07.588Z</time>
      </trkpt>
      <trkpt lat="41.37325" lon="19.53462">
        <ele>52.985109</ele>
        <time>2022-05-06T09:33:10.548Z</time>
      </trkpt>
      <trkpt lat="41.37313" lon="19.53466">
        <ele>52.862132</ele>
        <time>2022-05-06T09:33:13.585Z</time>
      </trkpt>
      <trkpt lat="41.37302" lon="19.5347">
        <ele>52.746473</ele>
        <time>2022-05-06T09:33:16.565Z</time>
      </trkpt>
      <trkpt lat="41.37289" lon="19.53474">
        <ele>52.624058</ele>
        <time>2022-05-06T09:33:19.548Z</time>
      </trkpt>
      <trkpt lat="41.37276" lon="19.53477">
        <ele>52.488877</ele>
        <time>2022-05-06T09:33:22.576Z</time>
      </trkpt>
      <trkpt lat="41.37266" lon="19.5348">
        <ele>52.395964</ele>
        <time>2022-05-06T09:33:24.566Z</time>
      </trkpt>
      <trkpt lat="41.37257" lon="19.53482">
        <ele>52.299398</ele>
        <time>2022-05-06T09:33:26.549Z</time>
      </trkpt>
      <trkpt lat="41.37247" lon="19.53485">
        <ele>52.207085</ele>
        <time>2022-05-06T09:33:28.553Z</time>
      </trkpt>
      <trkpt lat="41.37234" lon="19.53488">
        <ele>52.079475</ele>
        <time>2022-05-06T09:33:31.536Z</time>
      </trkpt>
      <trkpt lat="41.37221" lon="19.5349">
        <ele>51.951146</ele>
        <time>2022-05-06T09:33:34.545Z</time>
      </trkpt>
      <trkpt lat="41.37209" lon="19.53493">
        <ele>51.82558</ele>
        <time>2022-05-06T09:33:37.552Z</time>
      </trkpt>
      <trkpt lat="41.37196" lon="19.53497">
        <ele>51.697574</ele>
        <time>2022-05-06T09:33:40.547Z</time>
      </trkpt>
      <trkpt lat="41.37183" lon="19.53499">
        <ele>51.572361</ele>
        <time>2022-05-06T09:33:43.544Z</time>
      </trkpt>
      <trkpt lat="41.37171" lon="19.53502">
        <ele>51.446009</ele>
        <time>2022-05-06T09:33:46.549Z</time>
      </trkpt>
      <trkpt lat="41.37157" lon="19.53505">
        <ele>51.314041</ele>
        <time>2022-05-06T09:33:49.583Z</time>
      </trkpt>
      <trkpt lat="41.37148" lon="19.53508">
        <ele>51.220097</ele>
        <time>2022-05-06T09:33:51.592Z</time>
      </trkpt>
      <trkpt lat="41.37139" lon="19.53511">
        <ele>51.128755</ele>
        <time>2022-05-06T09:33:53.551Z</time>
      </trkpt>
      <trkpt lat="41.37126" lon="19.53514">
        <ele>50.993857</ele>
        <time>2022-05-06T09:33:56.547Z</time>
      </trkpt>
      <trkpt lat="41.37113" lon="19.53518">
        <ele>50.86088</ele>
        <time>2022-05-06T09:33:59.555Z</time>
      </trkpt>
      <trkpt lat="41.371" lon="19.53522">
        <ele>50.730808</ele>
        <time>2022-05-06T09:34:02.532Z</time>
      </trkpt>
      <trkpt lat="41.37087" lon="19.53524">
        <ele>50.603363</ele>
        <time>2022-05-06T09:34:05.578Z</time>
      </trkpt>
      <trkpt lat="41.37078" lon="19.53526">
        <ele>50.513203</ele>
        <time>2022-05-06T09:34:07.544Z</time>
      </trkpt>
      <trkpt lat="41.37065" lon="19.53529">
        <ele>50.378175</ele>
        <time>2022-05-06T09:34:10.547Z</time>
      </trkpt>
      <trkpt lat="41.37052" lon="19.53532">
        <ele>50.247184</ele>
        <time>2022-05-06T09:34:13.551Z</time>
      </trkpt>
      <trkpt lat="41.37039" lon="19.53535">
        <ele>50.114367</ele>
        <time>2022-05-06T09:34:16.536Z</time>
      </trkpt>
      <trkpt lat="41.37029" lon="19.53537">
        <ele>50.021786</ele>
        <time>2022-05-06T09:34:18.557Z</time>
      </trkpt>
      <trkpt lat="41.3702" lon="19.5354">
        <ele>49.929475</ele>
        <time>2022-05-06T09:34:20.536Z</time>
      </trkpt>
      <trkpt lat="41.37011" lon="19.53543">
        <ele>49.838288</ele>
        <time>2022-05-06T09:34:22.587Z</time>
      </trkpt>
      <trkpt lat="41.37002" lon="19.53545">
        <ele>49.748212</ele>
        <time>2022-05-06T09:34:24.548Z</time>
      </trkpt>
      <trkpt lat="41.36989" lon="19.53548">
        <ele>49.808645</ele>
        <time>2022-05-06T09:34:27.569Z</time>
      </trkpt>
      <trkpt lat="41.3698" lon="19.5355">
        <ele>49.851085</ele>
        <time>2022-05-06T09:34:29.548Z</time>
      </trkpt>
      <trkpt lat="41.36971" lon="19.53552">
        <ele>49.893429</ele>
        <time>2022-05-06T09:34:31.545Z</time>
      </trkpt>
      <trkpt lat="41.36963" lon="19.53554">
        <ele>49.935641</ele>
        <time>2022-05-06T09:34:33.541Z</time>
      </trkpt>
      <trkpt lat="41.36949" lon="19.53557">
        <ele>49.997917</ele>
        <time>2022-05-06T09:34:36.549Z</time>
      </trkpt>
      <trkpt lat="41.36936" lon="19.5356">
        <ele>50.058757</ele>
        <time>2022-05-06T09:34:39.551Z</time>
      </trkpt>
      <trkpt lat="41.36927" lon="19.53562">
        <ele>50.104182</ele>
        <time>2022-05-06T09:34:41.547Z</time>
      </trkpt>
      <trkpt lat="41.36917" lon="19.53565">
        <ele>50.150779</ele>
        <time>2022-05-06T09:34:43.550Z</time>
      </trkpt>
      <trkpt lat="41.36908" lon="19.53567">
        <ele>50.194108</ele>
        <time>2022-05-06T09:34:45.603Z</time>
      </trkpt>
      <trkpt lat="41.36899" lon="19.53569">
        <ele>50.238554</ele>
        <time>2022-05-06T09:34:47.555Z</time>
      </trkpt>
      <trkpt lat="41.3689" lon="19.53572">
        <ele>50.28112</ele>
        <time>2022-05-06T09:34:49.556Z</time>
      </trkpt>
      <trkpt lat="41.36881" lon="19.53574">
        <ele>50.323991</ele>
        <time>2022-05-06T09:34:51.588Z</time>
      </trkpt>
      <trkpt lat="41.36871" lon="19.53577">
        <ele>50.369082</ele>
        <time>2022-05-06T09:34:53.544Z</time>
      </trkpt>
      <trkpt lat="41.36862" lon="19.53579">
        <ele>50.412496</ele>
        <time>2022-05-06T09:34:55.553Z</time>
      </trkpt>
      <trkpt lat="41.36852" lon="19.53581">
        <ele>50.4589</ele>
        <time>2022-05-06T09:34:57.548Z</time>
      </trkpt>
      <trkpt lat="41.36843" lon="19.53583">
        <ele>50.503926</ele>
        <time>2022-05-06T09:34:59.559Z</time>
      </trkpt>
      <trkpt lat="41.36833" lon="19.53586">
        <ele>50.547711</ele>
        <time>2022-05-06T09:35:01.559Z</time>
      </trkpt>
      <trkpt lat="41.36824" lon="19.53589">
        <ele>50.582564</ele>
        <time>2022-05-06T09:35:03.559Z</time>
      </trkpt>
      <trkpt lat="41.36815" lon="19.53592">
        <ele>50.560905</ele>
        <time>2022-05-06T09:35:05.599Z</time>
      </trkpt>
      <trkpt lat="41.36805" lon="19.53596">
        <ele>50.54005</ele>
        <time>2022-05-06T09:35:07.561Z</time>
      </trkpt>
      <trkpt lat="41.36797" lon="19.53599">
        <ele>50.519781</ele>
        <time>2022-05-06T09:35:09.549Z</time>
      </trkpt>
      <trkpt lat="41.36788" lon="19.53603">
        <ele>50.499673</ele>
        <time>2022-05-06T09:35:11.552Z</time>
      </trkpt>
      <trkpt lat="41.36779" lon="19.53607">
        <ele>50.479615</ele>
        <time>2022-05-06T09:35:13.551Z</time>
      </trkpt>
      <trkpt lat="41.3677" lon="19.53611">
        <ele>50.459088</ele>
        <time>2022-05-06T09:35:15.544Z</time>
      </trkpt>
      <trkpt lat="41.36758" lon="19.53617">
        <ele>50.429364</ele>
        <time>2022-05-06T09:35:18.566Z</time>
      </trkpt>
      <trkpt lat="41.36749" lon="19.53621">
        <ele>50.408367</ele>
        <time>2022-05-06T09:35:20.582Z</time>
      </trkpt>
      <trkpt lat="41.3674" lon="19.53626">
        <ele>50.387963</ele>
        <time>2022-05-06T09:35:22.618Z</time>
      </trkpt>
      <trkpt lat="41.36731" lon="19.53631">
        <ele>50.36683</ele>
        <time>2022-05-06T09:35:24.552Z</time>
      </trkpt>
      <trkpt lat="41.36719" lon="19.53639">
        <ele>50.337015</ele>
        <time>2022-05-06T09:35:27.542Z</time>
      </trkpt>
      <trkpt lat="41.36711" lon="19.53645">
        <ele>50.316107</ele>
        <time>2022-05-06T09:35:29.552Z</time>
      </trkpt>
      <trkpt lat="41.367" lon="19.53654">
        <ele>50.287372</ele>
        <time>2022-05-06T09:35:32.550Z</time>
      </trkpt>
      <trkpt lat="41.36692" lon="19.5366">
        <ele>50.266911</ele>
        <time>2022-05-06T09:35:34.553Z</time>
      </trkpt>
      <trkpt lat="41.36684" lon="19.53666">
        <ele>50.246723</ele>
        <time>2022-05-06T09:35:36.543Z</time>
      </trkpt>
      <trkpt lat="41.36672" lon="19.53675">
        <ele>50.217631</ele>
        <time>2022-05-06T09:35:39.559Z</time>
      </trkpt>
      <trkpt lat="41.36663" lon="19.53682">
        <ele>50.194158</ele>
        <time>2022-05-06T09:35:43.566Z</time>
      </trkpt>
      <trkpt lat="41.36654" lon="19.53691">
        <ele>50.342811</ele>
        <time>2022-05-06T09:35:47.556Z</time>
      </trkpt>
      <trkpt lat="41.36644" lon="19.53698">
        <ele>50.532766</ele>
        <time>2022-05-06T09:35:50.555Z</time>
      </trkpt>
      <trkpt lat="41.36634" lon="19.53706">
        <ele>50.732709</ele>
        <time>2022-05-06T09:35:53.530Z</time>
      </trkpt>
      <trkpt lat="41.36624" lon="19.53714">
        <ele>50.929593</ele>
        <time>2022-05-06T09:35:56.541Z</time>
      </trkpt>
      <trkpt lat="41.36614" lon="19.53722">
        <ele>51.131623</ele>
        <time>2022-05-06T09:35:59.552Z</time>
      </trkpt>
      <trkpt lat="41.36603" lon="19.53731">
        <ele>51.339641</ele>
        <time>2022-05-06T09:36:02.573Z</time>
      </trkpt>
      <trkpt lat="41.36594" lon="19.53739">
        <ele>51.522365</ele>
        <time>2022-05-06T09:36:05.559Z</time>
      </trkpt>
      <trkpt lat="41.36583" lon="19.53748">
        <ele>51.742761</ele>
        <time>2022-05-06T09:36:08.552Z</time>
      </trkpt>
      <trkpt lat="41.36573" lon="19.53756">
        <ele>51.93598</ele>
        <time>2022-05-06T09:36:11.538Z</time>
      </trkpt>
      <trkpt lat="41.36564" lon="19.53763">
        <ele>52.114568</ele>
        <time>2022-05-06T09:36:14.556Z</time>
      </trkpt>
      <trkpt lat="41.36554" lon="19.5377">
        <ele>52.299558</ele>
        <time>2022-05-06T09:36:17.545Z</time>
      </trkpt>
      <trkpt lat="41.36543" lon="19.5378">
        <ele>52.51873</ele>
        <time>2022-05-06T09:36:20.559Z</time>
      </trkpt>
      <trkpt lat="41.36536" lon="19.53786">
        <ele>52.673448</ele>
        <time>2022-05-06T09:36:22.560Z</time>
      </trkpt>
      <trkpt lat="41.36528" lon="19.53793">
        <ele>52.830606</ele>
        <time>2022-05-06T09:36:24.556Z</time>
      </trkpt>
      <trkpt lat="41.36519" lon="19.53798">
        <ele>52.989773</ele>
        <time>2022-05-06T09:36:26.542Z</time>
      </trkpt>
      <trkpt lat="41.36511" lon="19.53805">
        <ele>53.151743</ele>
        <time>2022-05-06T09:36:28.547Z</time>
      </trkpt>
      <trkpt lat="41.36503" lon="19.53811">
        <ele>53.213623</ele>
        <time>2022-05-06T09:36:30.553Z</time>
      </trkpt>
      <trkpt lat="41.36495" lon="19.53818">
        <ele>53.209952</ele>
        <time>2022-05-06T09:36:32.559Z</time>
      </trkpt>
      <trkpt lat="41.36484" lon="19.53827">
        <ele>53.204665</ele>
        <time>2022-05-06T09:36:35.556Z</time>
      </trkpt>
      <trkpt lat="41.36474" lon="19.53835">
        <ele>53.199861</ele>
        <time>2022-05-06T09:36:38.555Z</time>
      </trkpt>
      <trkpt lat="41.36464" lon="19.53843">
        <ele>53.195526</ele>
        <time>2022-05-06T09:36:41.554Z</time>
      </trkpt>
      <trkpt lat="41.36457" lon="19.53849">
        <ele>53.191894</ele>
        <time>2022-05-06T09:36:44.555Z</time>
      </trkpt>
      <trkpt lat="41.36447" lon="19.53856">
        <ele>53.187272</ele>
        <time>2022-05-06T09:36:48.553Z</time>
      </trkpt>
      <trkpt lat="41.36437" lon="19.53863">
        <ele>53.18283</ele>
        <time>2022-05-06T09:36:51.546Z</time>
      </trkpt>
      <trkpt lat="41.36428" lon="19.53869">
        <ele>53.17896</ele>
        <time>2022-05-06T09:36:53.555Z</time>
      </trkpt>
      <trkpt lat="41.36419" lon="19.53877">
        <ele>53.174626</ele>
        <time>2022-05-06T09:36:55.549Z</time>
      </trkpt>
      <trkpt lat="41.3641" lon="19.53885">
        <ele>53.170242</ele>
        <time>2022-05-06T09:36:57.566Z</time>
      </trkpt>
      <trkpt lat="41.36402" lon="19.53891">
        <ele>53.166492</ele>
        <time>2022-05-06T09:36:59.557Z</time>
      </trkpt>
      <trkpt lat="41.36392" lon="19.53897">
        <ele>53.162076</ele>
        <time>2022-05-06T09:37:02.547Z</time>
      </trkpt>
      <trkpt lat="41.36382" lon="19.53906">
        <ele>53.157309</ele>
        <time>2022-05-06T09:37:06.565Z</time>
      </trkpt>
      <trkpt lat="41.36374" lon="19.53914">
        <ele>53.153193</ele>
        <time>2022-05-06T09:37:09.556Z</time>
      </trkpt>
      <trkpt lat="41.36363" lon="19.53923">
        <ele>53.148093</ele>
        <time>2022-05-06T09:37:12.552Z</time>
      </trkpt>
      <trkpt lat="41.36355" lon="19.5393">
        <ele>53.144427</ele>
        <time>2022-05-06T09:37:14.556Z</time>
      </trkpt>
      <trkpt lat="41.36347" lon="19.53936">
        <ele>53.159715</ele>
        <time>2022-05-06T09:37:16.555Z</time>
      </trkpt>
      <trkpt lat="41.36336" lon="19.53944">
        <ele>53.186664</ele>
        <time>2022-05-06T09:37:19.544Z</time>
      </trkpt>
      <trkpt lat="41.36324" lon="19.53951">
        <ele>53.213706</ele>
        <time>2022-05-06T09:37:22.548Z</time>
      </trkpt>
      <trkpt lat="41.36316" lon="19.53957">
        <ele>53.233079</ele>
        <time>2022-05-06T09:37:24.576Z</time>
      </trkpt>
      <trkpt lat="41.36305" lon="19.53966">
        <ele>53.261063</ele>
        <time>2022-05-06T09:37:27.533Z</time>
      </trkpt>
      <trkpt lat="41.36294" lon="19.53975">
        <ele>53.287758</ele>
        <time>2022-05-06T09:37:30.555Z</time>
      </trkpt>
      <trkpt lat="41.36283" lon="19.53984">
        <ele>53.315219</ele>
        <time>2022-05-06T09:37:33.559Z</time>
      </trkpt>
      <trkpt lat="41.36271" lon="19.53992">
        <ele>53.343004</ele>
        <time>2022-05-06T09:37:36.544Z</time>
      </trkpt>
      <trkpt lat="41.3626" lon="19.54001">
        <ele>53.370755</ele>
        <time>2022-05-06T09:37:39.540Z</time>
      </trkpt>
      <trkpt lat="41.36249" lon="19.5401">
        <ele>53.398455</ele>
        <time>2022-05-06T09:37:42.554Z</time>
      </trkpt>
      <trkpt lat="41.3624" lon="19.54015">
        <ele>53.417899</ele>
        <time>2022-05-06T09:37:44.546Z</time>
      </trkpt>
      <trkpt lat="41.36229" lon="19.54023">
        <ele>53.445766</ele>
        <time>2022-05-06T09:37:47.549Z</time>
      </trkpt>
      <trkpt lat="41.36217" lon="19.54031">
        <ele>53.473736</ele>
        <time>2022-05-06T09:37:50.566Z</time>
      </trkpt>
      <trkpt lat="41.36208" lon="19.54035">
        <ele>53.49388</ele>
        <time>2022-05-06T09:37:52.551Z</time>
      </trkpt>
      <trkpt lat="41.36199" lon="19.5404">
        <ele>53.514846</ele>
        <time>2022-05-06T09:37:54.583Z</time>
      </trkpt>
      <trkpt lat="41.3619" lon="19.54045">
        <ele>53.470733</ele>
        <time>2022-05-06T09:37:56.536Z</time>
      </trkpt>
      <trkpt lat="41.36178" lon="19.54054">
        <ele>53.343083</ele>
        <time>2022-05-06T09:37:59.558Z</time>
      </trkpt>
      <trkpt lat="41.36166" lon="19.54062">
        <ele>53.216338</ele>
        <time>2022-05-06T09:38:02.566Z</time>
      </trkpt>
      <trkpt lat="41.36154" lon="19.5407">
        <ele>53.091599</ele>
        <time>2022-05-06T09:38:05.548Z</time>
      </trkpt>
      <trkpt lat="41.36142" lon="19.54077">
        <ele>52.967167</ele>
        <time>2022-05-06T09:38:08.587Z</time>
      </trkpt>
      <trkpt lat="41.3613" lon="19.54084">
        <ele>52.845083</ele>
        <time>2022-05-06T09:38:11.553Z</time>
      </trkpt>
      <trkpt lat="41.36118" lon="19.54092">
        <ele>52.718559</ele>
        <time>2022-05-06T09:38:14.531Z</time>
      </trkpt>
      <trkpt lat="41.3611" lon="19.54097">
        <ele>52.632377</ele>
        <time>2022-05-06T09:38:16.548Z</time>
      </trkpt>
      <trkpt lat="41.36098" lon="19.54103">
        <ele>52.516274</ele>
        <time>2022-05-06T09:38:19.617Z</time>
      </trkpt>
      <trkpt lat="41.3609" lon="19.54111">
        <ele>52.421958</ele>
        <time>2022-05-06T09:38:25.535Z</time>
      </trkpt>
      <trkpt lat="41.36079" lon="19.54117">
        <ele>52.308909</ele>
        <time>2022-05-06T09:38:27.536Z</time>
      </trkpt>
      <trkpt lat="41.36067" lon="19.54125">
        <ele>52.184388</ele>
        <time>2022-05-06T09:38:29.554Z</time>
      </trkpt>
      <trkpt lat="41.36055" lon="19.54132">
        <ele>52.058572</ele>
        <time>2022-05-06T09:38:31.652Z</time>
      </trkpt>
      <trkpt lat="41.36044" lon="19.54139">
        <ele>51.941659</ele>
        <time>2022-05-06T09:38:33.561Z</time>
      </trkpt>
      <trkpt lat="41.36034" lon="19.54145">
        <ele>51.837955</ele>
        <time>2022-05-06T09:38:35.537Z</time>
      </trkpt>
      <trkpt lat="41.36024" lon="19.5415">
        <ele>51.874899</ele>
        <time>2022-05-06T09:38:37.556Z</time>
      </trkpt>
      <trkpt lat="41.36016" lon="19.54155">
        <ele>51.922735</ele>
        <time>2022-05-06T09:38:39.539Z</time>
      </trkpt>
      <trkpt lat="41.36004" lon="19.54162">
        <ele>51.990979</ele>
        <time>2022-05-06T09:38:42.550Z</time>
      </trkpt>
      <trkpt lat="41.35993" lon="19.54169">
        <ele>52.057287</ele>
        <time>2022-05-06T09:38:45.554Z</time>
      </trkpt>
      <trkpt lat="41.35981" lon="19.54176">
        <ele>52.12375</ele>
        <time>2022-05-06T09:38:48.547Z</time>
      </trkpt>
      <trkpt lat="41.35969" lon="19.54183">
        <ele>52.192776</ele>
        <time>2022-05-06T09:38:51.537Z</time>
      </trkpt>
      <trkpt lat="41.35957" lon="19.5419">
        <ele>52.262123</ele>
        <time>2022-05-06T09:38:54.539Z</time>
      </trkpt>
      <trkpt lat="41.35946" lon="19.54198">
        <ele>52.329246</ele>
        <time>2022-05-06T09:38:57.560Z</time>
      </trkpt>
      <trkpt lat="41.35935" lon="19.54204">
        <ele>52.39331</ele>
        <time>2022-05-06T09:39:00.531Z</time>
      </trkpt>
      <trkpt lat="41.35924" lon="19.54211">
        <ele>52.458645</ele>
        <time>2022-05-06T09:39:03.536Z</time>
      </trkpt>
      <trkpt lat="41.35913" lon="19.54218">
        <ele>52.521733</ele>
        <time>2022-05-06T09:39:06.538Z</time>
      </trkpt>
      <trkpt lat="41.35903" lon="19.54224">
        <ele>52.580003</ele>
        <time>2022-05-06T09:39:09.535Z</time>
      </trkpt>
      <trkpt lat="41.35893" lon="19.54229">
        <ele>52.633825</ele>
        <time>2022-05-06T09:39:12.547Z</time>
      </trkpt>
      <trkpt lat="41.35884" lon="19.54234">
        <ele>52.68552</ele>
        <time>2022-05-06T09:39:15.544Z</time>
      </trkpt>
      <trkpt lat="41.35876" lon="19.5424">
        <ele>52.732956</ele>
        <time>2022-05-06T09:39:18.537Z</time>
      </trkpt>
      <trkpt lat="41.35866" lon="19.54245">
        <ele>52.74307</ele>
        <time>2022-05-06T09:39:22.532Z</time>
      </trkpt>
      <trkpt lat="41.35856" lon="19.54253">
        <ele>52.62792</ele>
        <time>2022-05-06T09:39:26.566Z</time>
      </trkpt>
      <trkpt lat="41.35848" lon="19.54258">
        <ele>52.527014</ele>
        <time>2022-05-06T09:39:29.564Z</time>
      </trkpt>
      <trkpt lat="41.35838" lon="19.54263">
        <ele>52.423664</ele>
        <time>2022-05-06T09:39:32.560Z</time>
      </trkpt>
      <trkpt lat="41.35831" lon="19.54273">
        <ele>52.316793</ele>
        <time>2022-05-06T09:39:36.526Z</time>
      </trkpt>
      <trkpt lat="41.35842" lon="19.54269">
        <ele>52.196406</ele>
        <time>2022-05-06T09:39:42.527Z</time>
      </trkpt>
      <trkpt lat="41.35851" lon="19.54264">
        <ele>52.096465</ele>
        <time>2022-05-06T09:39:45.527Z</time>
      </trkpt>
      <trkpt lat="41.35861" lon="19.54258">
        <ele>51.978871</ele>
        <time>2022-05-06T09:39:48.543Z</time>
      </trkpt>
      <trkpt lat="41.35872" lon="19.54251">
        <ele>51.855871</ele>
        <time>2022-05-06T09:39:51.535Z</time>
      </trkpt>
      <trkpt lat="41.35883" lon="19.54243">
        <ele>51.728216</ele>
        <time>2022-05-06T09:39:54.515Z</time>
      </trkpt>
      <trkpt lat="41.35895" lon="19.54236">
        <ele>51.589517</ele>
        <time>2022-05-06T09:39:57.527Z</time>
      </trkpt>
      <trkpt lat="41.35907" lon="19.5423">
        <ele>51.457023</ele>
        <time>2022-05-06T09:40:00.523Z</time>
      </trkpt>
      <trkpt lat="41.35919" lon="19.54223">
        <ele>51.322079</ele>
        <time>2022-05-06T09:40:03.538Z</time>
      </trkpt>
      <trkpt lat="41.35931" lon="19.54216">
        <ele>51.183687</ele>
        <time>2022-05-06T09:40:06.522Z</time>
      </trkpt>
      <trkpt lat="41.35939" lon="19.5421">
        <ele>51.089043</ele>
        <time>2022-05-06T09:40:08.543Z</time>
      </trkpt>
      <trkpt lat="41.35948" lon="19.54205">
        <ele>50.995077</ele>
        <time>2022-05-06T09:40:10.546Z</time>
      </trkpt>
      <trkpt lat="41.35956" lon="19.542">
        <ele>50.929602</ele>
        <time>2022-05-06T09:40:12.525Z</time>
      </trkpt>
      <trkpt lat="41.35964" lon="19.54195">
        <ele>51.045755</ele>
        <time>2022-05-06T09:40:14.533Z</time>
      </trkpt>
      <trkpt lat="41.35976" lon="19.54187">
        <ele>51.217362</ele>
        <time>2022-05-06T09:40:17.542Z</time>
      </trkpt>
      <trkpt lat="41.35985" lon="19.54183">
        <ele>51.334649</ele>
        <time>2022-05-06T09:40:19.614Z</time>
      </trkpt>
      <trkpt lat="41.35997" lon="19.54175">
        <ele>51.502771</ele>
        <time>2022-05-06T09:40:22.544Z</time>
      </trkpt>
      <trkpt lat="41.36008" lon="19.54168">
        <ele>51.657721</ele>
        <time>2022-05-06T09:40:25.550Z</time>
      </trkpt>
      <trkpt lat="41.36017" lon="19.54165">
        <ele>51.780376</ele>
        <time>2022-05-06T09:40:28.548Z</time>
      </trkpt>
      <trkpt lat="41.36023" lon="19.54177">
        <ele>51.914501</ele>
        <time>2022-05-06T09:40:31.525Z</time>
      </trkpt>
      <trkpt lat="41.36024" lon="19.54193">
        <ele>52.073339</ele>
        <time>2022-05-06T09:40:34.546Z</time>
      </trkpt>
      <trkpt lat="41.36028" lon="19.54209">
        <ele>52.226191</ele>
        <time>2022-05-06T09:40:37.543Z</time>
      </trkpt>
      <trkpt lat="41.36032" lon="19.54225">
        <ele>52.385693</ele>
        <time>2022-05-06T09:40:40.549Z</time>
      </trkpt>
      <trkpt lat="41.36035" lon="19.54239">
        <ele>52.533595</ele>
        <time>2022-05-06T09:40:43.546Z</time>
      </trkpt>
      <trkpt lat="41.36037" lon="19.54256">
        <ele>52.694201</ele>
        <time>2022-05-06T09:40:46.529Z</time>
      </trkpt>
      <trkpt lat="41.36041" lon="19.54273">
        <ele>52.863093</ele>
        <time>2022-05-06T09:40:49.556Z</time>
      </trkpt>
      <trkpt lat="41.36044" lon="19.5429">
        <ele>53.030793</ele>
        <time>2022-05-06T09:40:52.539Z</time>
      </trkpt>
      <trkpt lat="41.36048" lon="19.54306">
        <ele>53.193322</ele>
        <time>2022-05-06T09:40:55.552Z</time>
      </trkpt>
      <trkpt lat="41.36051" lon="19.54321">
        <ele>53.235776</ele>
        <time>2022-05-06T09:40:58.544Z</time>
      </trkpt>
      <trkpt lat="41.36053" lon="19.54335">
        <ele>53.266459</ele>
        <time>2022-05-06T09:41:01.543Z</time>
      </trkpt>
      <trkpt lat="41.36056" lon="19.5435">
        <ele>53.298814</ele>
        <time>2022-05-06T09:41:04.575Z</time>
      </trkpt>
      <trkpt lat="41.36059" lon="19.54365">
        <ele>53.331303</ele>
        <time>2022-05-06T09:41:07.546Z</time>
      </trkpt>
      <trkpt lat="41.36061" lon="19.54379">
        <ele>53.362298</ele>
        <time>2022-05-06T09:41:10.535Z</time>
      </trkpt>
      <trkpt lat="41.36065" lon="19.54394">
        <ele>53.395164</ele>
        <time>2022-05-06T09:41:13.567Z</time>
      </trkpt>
      <trkpt lat="41.36069" lon="19.54409">
        <ele>53.428031</ele>
        <time>2022-05-06T09:41:16.532Z</time>
      </trkpt>
      <trkpt lat="41.36072" lon="19.54424">
        <ele>53.4612</ele>
        <time>2022-05-06T09:41:19.535Z</time>
      </trkpt>
      <trkpt lat="41.36075" lon="19.54439">
        <ele>53.493027</ele>
        <time>2022-05-06T09:41:22.555Z</time>
      </trkpt>
      <trkpt lat="41.36078" lon="19.54455">
        <ele>53.527624</ele>
        <time>2022-05-06T09:41:25.546Z</time>
      </trkpt>
      <trkpt lat="41.36079" lon="19.5447">
        <ele>53.560407</ele>
        <time>2022-05-06T09:41:28.536Z</time>
      </trkpt>
      <trkpt lat="41.36079" lon="19.54486">
        <ele>53.592148</ele>
        <time>2022-05-06T09:41:31.551Z</time>
      </trkpt>
      <trkpt lat="41.3608" lon="19.54502">
        <ele>53.625836</ele>
        <time>2022-05-06T09:41:34.558Z</time>
      </trkpt>
      <trkpt lat="41.36082" lon="19.54518">
        <ele>53.661268</ele>
        <time>2022-05-06T09:41:37.528Z</time>
      </trkpt>
      <trkpt lat="41.36083" lon="19.5453">
        <ele>53.686714</ele>
        <time>2022-05-06T09:41:39.544Z</time>
      </trkpt>
      <trkpt lat="41.36085" lon="19.54548">
        <ele>53.704722</ele>
        <time>2022-05-06T09:41:42.524Z</time>
      </trkpt>
      <trkpt lat="41.36087" lon="19.54565">
        <ele>53.691246</ele>
        <time>2022-05-06T09:41:45.526Z</time>
      </trkpt>
      <trkpt lat="41.36089" lon="19.54581">
        <ele>53.677849</ele>
        <time>2022-05-06T09:41:48.547Z</time>
      </trkpt>
      <trkpt lat="41.3609" lon="19.54598">
        <ele>53.664269</ele>
        <time>2022-05-06T09:41:51.528Z</time>
      </trkpt>
      <trkpt lat="41.36091" lon="19.54615">
        <ele>53.651261</ele>
        <time>2022-05-06T09:41:54.597Z</time>
      </trkpt>
      <trkpt lat="41.36091" lon="19.54631">
        <ele>53.638347</ele>
        <time>2022-05-06T09:41:57.525Z</time>
      </trkpt>
      <trkpt lat="41.3609" lon="19.54648">
        <ele>53.624715</ele>
        <time>2022-05-06T09:42:00.592Z</time>
      </trkpt>
      <trkpt lat="41.36091" lon="19.54665">
        <ele>53.611157</ele>
        <time>2022-05-06T09:42:03.536Z</time>
      </trkpt>
      <trkpt lat="41.36091" lon="19.54681">
        <ele>53.598399</ele>
        <time>2022-05-06T09:42:06.533Z</time>
      </trkpt>
      <trkpt lat="41.36088" lon="19.54697">
        <ele>53.586037</ele>
        <time>2022-05-06T09:42:09.547Z</time>
      </trkpt>
      <trkpt lat="41.36086" lon="19.54713">
        <ele>53.57279</ele>
        <time>2022-05-06T09:42:12.546Z</time>
      </trkpt>
      <trkpt lat="41.36084" lon="19.54725">
        <ele>53.562882</ele>
        <time>2022-05-06T09:42:14.543Z</time>
      </trkpt>
      <trkpt lat="41.36082" lon="19.54738">
        <ele>53.552711</ele>
        <time>2022-05-06T09:42:16.552Z</time>
      </trkpt>
      <trkpt lat="41.36079" lon="19.54749">
        <ele>53.542991</ele>
        <time>2022-05-06T09:42:18.545Z</time>
      </trkpt>
      <trkpt lat="41.36075" lon="19.54767">
        <ele>53.528664</ele>
        <time>2022-05-06T09:42:21.538Z</time>
      </trkpt>
      <trkpt lat="41.36071" lon="19.54783">
        <ele>53.567277</ele>
        <time>2022-05-06T09:42:24.553Z</time>
      </trkpt>
      <trkpt lat="41.36068" lon="19.54799">
        <ele>53.677275</ele>
        <time>2022-05-06T09:42:27.547Z</time>
      </trkpt>
      <trkpt lat="41.36064" lon="19.54813">
        <ele>53.783512</ele>
        <time>2022-05-06T09:42:30.535Z</time>
      </trkpt>
      <trkpt lat="41.36059" lon="19.54829">
        <ele>53.901531</ele>
        <time>2022-05-06T09:42:33.533Z</time>
      </trkpt>
      <trkpt lat="41.36057" lon="19.54841">
        <ele>53.9853</ele>
        <time>2022-05-06T09:42:35.547Z</time>
      </trkpt>
      <trkpt lat="41.36055" lon="19.54857">
        <ele>54.09815</ele>
        <time>2022-05-06T09:42:38.615Z</time>
      </trkpt>
      <trkpt lat="41.36052" lon="19.54873">
        <ele>54.216883</ele>
        <time>2022-05-06T09:42:41.523Z</time>
      </trkpt>
      <trkpt lat="41.36049" lon="19.5489">
        <ele>54.336332</ele>
        <time>2022-05-06T09:42:44.536Z</time>
      </trkpt>
      <trkpt lat="41.36048" lon="19.54903">
        <ele>54.428455</ele>
        <time>2022-05-06T09:42:47.534Z</time>
      </trkpt>
      <trkpt lat="41.36045" lon="19.54916">
        <ele>54.521161</ele>
        <time>2022-05-06T09:42:58.535Z</time>
      </trkpt>
      <trkpt lat="41.36054" lon="19.54922">
        <ele>54.605749</ele>
        <time>2022-05-06T09:43:02.545Z</time>
      </trkpt>
      <trkpt lat="41.36064" lon="19.54921">
        <ele>54.705684</ele>
        <time>2022-05-06T09:43:06.583Z</time>
      </trkpt>
      <trkpt lat="41.36075" lon="19.54921">
        <ele>54.802824</ele>
        <time>2022-05-06T09:43:10.607Z</time>
      </trkpt>
      <trkpt lat="41.36086" lon="19.5492">
        <ele>54.909398</ele>
        <time>2022-05-06T09:43:14.543Z</time>
      </trkpt>
      <trkpt lat="41.36096" lon="19.54919">
        <ele>54.995502</ele>
        <time>2022-05-06T09:43:17.536Z</time>
      </trkpt>
      <trkpt lat="41.36106" lon="19.54919">
        <ele>55.089869</ele>
        <time>2022-05-06T09:43:20.556Z</time>
      </trkpt>
      <trkpt lat="41.36117" lon="19.54919">
        <ele>55.190643</ele>
        <time>2022-05-06T09:43:23.584Z</time>
      </trkpt>
      <trkpt lat="41.36129" lon="19.54919">
        <ele>55.276972</ele>
        <time>2022-05-06T09:43:26.541Z</time>
      </trkpt>
      <trkpt lat="41.36141" lon="19.54921">
        <ele>55.364198</ele>
        <time>2022-05-06T09:43:29.546Z</time>
      </trkpt>
      <trkpt lat="41.3615" lon="19.54921">
        <ele>55.431652</ele>
        <time>2022-05-06T09:43:31.544Z</time>
      </trkpt>
      <trkpt lat="41.36159" lon="19.54922">
        <ele>55.501197</ele>
        <time>2022-05-06T09:43:33.544Z</time>
      </trkpt>
      <trkpt lat="41.36169" lon="19.54923">
        <ele>55.573641</ele>
        <time>2022-05-06T09:43:35.546Z</time>
      </trkpt>
      <trkpt lat="41.36179" lon="19.54923">
        <ele>55.642456</ele>
        <time>2022-05-06T09:43:37.539Z</time>
      </trkpt>
      <trkpt lat="41.36189" lon="19.54924">
        <ele>55.714881</ele>
        <time>2022-05-06T09:43:39.588Z</time>
      </trkpt>
      <trkpt lat="41.36198" lon="19.54925">
        <ele>55.783881</ele>
        <time>2022-05-06T09:43:41.540Z</time>
      </trkpt>
      <trkpt lat="41.36207" lon="19.54925">
        <ele>55.852637</ele>
        <time>2022-05-06T09:43:43.564Z</time>
      </trkpt>
      <trkpt lat="41.36217" lon="19.54925">
        <ele>55.922106</ele>
        <time>2022-05-06T09:43:45.552Z</time>
      </trkpt>
      <trkpt lat="41.36227" lon="19.54926">
        <ele>55.998251</ele>
        <time>2022-05-06T09:43:47.548Z</time>
      </trkpt>
      <trkpt lat="41.36238" lon="19.54928">
        <ele>56.075811</ele>
        <time>2022-05-06T09:43:49.527Z</time>
      </trkpt>
      <trkpt lat="41.36249" lon="19.5493">
        <ele>56.156509</ele>
        <time>2022-05-06T09:43:51.537Z</time>
      </trkpt>
      <trkpt lat="41.3626" lon="19.54934">
        <ele>56.237784</ele>
        <time>2022-05-06T09:43:53.533Z</time>
      </trkpt>
      <trkpt lat="41.3627" lon="19.54938">
        <ele>56.320909</ele>
        <time>2022-05-06T09:43:55.536Z</time>
      </trkpt>
      <trkpt lat="41.36281" lon="19.54942">
        <ele>56.398658</ele>
        <time>2022-05-06T09:43:57.531Z</time>
      </trkpt>
      <trkpt lat="41.3629" lon="19.54947">
        <ele>56.474436</ele>
        <time>2022-05-06T09:43:59.543Z</time>
      </trkpt>
      <trkpt lat="41.363" lon="19.54953">
        <ele>56.365239</ele>
        <time>2022-05-06T09:44:01.532Z</time>
      </trkpt>
      <trkpt lat="41.3631" lon="19.54959">
        <ele>56.181571</ele>
        <time>2022-05-06T09:44:03.546Z</time>
      </trkpt>
      <trkpt lat="41.36319" lon="19.54966">
        <ele>56.001553</ele>
        <time>2022-05-06T09:44:05.533Z</time>
      </trkpt>
      <trkpt lat="41.36327" lon="19.54974">
        <ele>55.831356</ele>
        <time>2022-05-06T09:44:07.582Z</time>
      </trkpt>
      <trkpt lat="41.36335" lon="19.54981">
        <ele>55.658276</ele>
        <time>2022-05-06T09:44:09.548Z</time>
      </trkpt>
      <trkpt lat="41.36343" lon="19.54989">
        <ele>55.482213</ele>
        <time>2022-05-06T09:44:11.526Z</time>
      </trkpt>
      <trkpt lat="41.36351" lon="19.54997">
        <ele>55.309565</ele>
        <time>2022-05-06T09:44:13.523Z</time>
      </trkpt>
      <trkpt lat="41.36359" lon="19.55005">
        <ele>55.137757</ele>
        <time>2022-05-06T09:44:15.579Z</time>
      </trkpt>
      <trkpt lat="41.36366" lon="19.55013">
        <ele>54.969457</ele>
        <time>2022-05-06T09:44:17.540Z</time>
      </trkpt>
      <trkpt lat="41.36375" lon="19.55024">
        <ele>54.75696</ele>
        <time>2022-05-06T09:44:20.546Z</time>
      </trkpt>
      <trkpt lat="41.36385" lon="19.55035">
        <ele>54.541849</ele>
        <time>2022-05-06T09:44:23.535Z</time>
      </trkpt>
      <trkpt lat="41.36392" lon="19.55043">
        <ele>54.378732</ele>
        <time>2022-05-06T09:44:25.535Z</time>
      </trkpt>
      <trkpt lat="41.364" lon="19.55051">
        <ele>54.206406</ele>
        <time>2022-05-06T09:44:27.544Z</time>
      </trkpt>
      <trkpt lat="41.36408" lon="19.5506">
        <ele>54.023733</ele>
        <time>2022-05-06T09:44:29.529Z</time>
      </trkpt>
      <trkpt lat="41.36415" lon="19.55068">
        <ele>53.851407</ele>
        <time>2022-05-06T09:44:31.533Z</time>
      </trkpt>
      <trkpt lat="41.36423" lon="19.55077">
        <ele>53.680712</ele>
        <time>2022-05-06T09:44:33.542Z</time>
      </trkpt>
      <trkpt lat="41.3643" lon="19.55085">
        <ele>53.518093</ele>
        <time>2022-05-06T09:44:35.525Z</time>
      </trkpt>
      <trkpt lat="41.36437" lon="19.55093">
        <ele>53.37645</ele>
        <time>2022-05-06T09:44:37.534Z</time>
      </trkpt>
      <trkpt lat="41.36443" lon="19.55102">
        <ele>53.478751</ele>
        <time>2022-05-06T09:44:39.548Z</time>
      </trkpt>
      <trkpt lat="41.3645" lon="19.5511">
        <ele>53.579915</ele>
        <time>2022-05-06T09:44:41.550Z</time>
      </trkpt>
      <trkpt lat="41.36457" lon="19.55117">
        <ele>53.678936</ele>
        <time>2022-05-06T09:44:43.535Z</time>
      </trkpt>
      <trkpt lat="41.36467" lon="19.55129">
        <ele>53.827834</ele>
        <time>2022-05-06T09:44:46.550Z</time>
      </trkpt>
      <trkpt lat="41.36475" lon="19.55137">
        <ele>53.932318</ele>
        <time>2022-05-06T09:44:48.540Z</time>
      </trkpt>
      <trkpt lat="41.36482" lon="19.55145">
        <ele>54.036801</ele>
        <time>2022-05-06T09:44:50.532Z</time>
      </trkpt>
      <trkpt lat="41.36489" lon="19.55153">
        <ele>54.139898</ele>
        <time>2022-05-06T09:44:52.543Z</time>
      </trkpt>
      <trkpt lat="41.36498" lon="19.55165">
        <ele>54.288802</ele>
        <time>2022-05-06T09:44:55.549Z</time>
      </trkpt>
      <trkpt lat="41.36507" lon="19.55178">
        <ele>54.432167</ele>
        <time>2022-05-06T09:44:58.534Z</time>
      </trkpt>
      <trkpt lat="41.36516" lon="19.55191">
        <ele>54.577238</ele>
        <time>2022-05-06T09:45:01.543Z</time>
      </trkpt>
      <trkpt lat="41.36524" lon="19.55204">
        <ele>54.719602</ele>
        <time>2022-05-06T09:45:04.552Z</time>
      </trkpt>
      <trkpt lat="41.36531" lon="19.55215">
        <ele>54.838443</ele>
        <time>2022-05-06T09:45:07.537Z</time>
      </trkpt>
      <trkpt lat="41.36537" lon="19.55227">
        <ele>54.965269</ele>
        <time>2022-05-06T09:45:10.539Z</time>
      </trkpt>
      <trkpt lat="41.36542" lon="19.55238">
        <ele>55.067044</ele>
        <time>2022-05-06T09:45:12.534Z</time>
      </trkpt>
      <trkpt lat="41.36547" lon="19.55248">
        <ele>55.169332</ele>
        <time>2022-05-06T09:45:14.568Z</time>
      </trkpt>
      <trkpt lat="41.36552" lon="19.55259">
        <ele>55.274244</ele>
        <time>2022-05-06T09:45:16.549Z</time>
      </trkpt>
      <trkpt lat="41.36557" lon="19.55269">
        <ele>55.388712</ele>
        <time>2022-05-06T09:45:18.545Z</time>
      </trkpt>
      <trkpt lat="41.36563" lon="19.55279">
        <ele>55.593333</ele>
        <time>2022-05-06T09:45:20.533Z</time>
      </trkpt>
      <trkpt lat="41.3657" lon="19.55294">
        <ele>55.885447</ele>
        <time>2022-05-06T09:45:23.549Z</time>
      </trkpt>
      <trkpt lat="41.36576" lon="19.55308">
        <ele>56.154523</ele>
        <time>2022-05-06T09:45:26.535Z</time>
      </trkpt>
      <trkpt lat="41.36582" lon="19.55321">
        <ele>56.393696</ele>
        <time>2022-05-06T09:45:29.524Z</time>
      </trkpt>
      <trkpt lat="41.36586" lon="19.55333">
        <ele>56.614818</ele>
        <time>2022-05-06T09:45:32.552Z</time>
      </trkpt>
      <trkpt lat="41.3659" lon="19.55344">
        <ele>56.82219</ele>
        <time>2022-05-06T09:45:35.555Z</time>
      </trkpt>
      <trkpt lat="41.36595" lon="19.55355">
        <ele>57.030571</ele>
        <time>2022-05-06T09:45:38.520Z</time>
      </trkpt>
      <trkpt lat="41.36599" lon="19.55366">
        <ele>57.232095</ele>
        <time>2022-05-06T09:45:41.546Z</time>
      </trkpt>
      <trkpt lat="41.36604" lon="19.55379">
        <ele>57.468069</ele>
        <time>2022-05-06T09:45:45.534Z</time>
      </trkpt>
      <trkpt lat="41.3661" lon="19.55391">
        <ele>57.70575</ele>
        <time>2022-05-06T09:45:49.535Z</time>
      </trkpt>
      <trkpt lat="41.36616" lon="19.55404">
        <ele>57.953357</ele>
        <time>2022-05-06T09:45:53.539Z</time>
      </trkpt>
      <trkpt lat="41.36621" lon="19.55416">
        <ele>58.18211</ele>
        <time>2022-05-06T09:45:57.526Z</time>
      </trkpt>
      <trkpt lat="41.36627" lon="19.55428">
        <ele>58.42066</ele>
        <time>2022-05-06T09:46:01.542Z</time>
      </trkpt>
      <trkpt lat="41.36633" lon="19.5544">
        <ele>58.663675</ele>
        <time>2022-05-06T09:46:05.533Z</time>
      </trkpt>
      <trkpt lat="41.36637" lon="19.55451">
        <ele>58.860129</ele>
        <time>2022-05-06T09:46:08.535Z</time>
      </trkpt>
      <trkpt lat="41.36644" lon="19.55464">
        <ele>59.116593</ele>
        <time>2022-05-06T09:46:12.548Z</time>
      </trkpt>
      <trkpt lat="41.36648" lon="19.55475">
        <ele>59.320469</ele>
        <time>2022-05-06T09:46:15.539Z</time>
      </trkpt>
      <trkpt lat="41.36654" lon="19.55487">
        <ele>59.339074</ele>
        <time>2022-05-06T09:46:18.550Z</time>
      </trkpt>
      <trkpt lat="41.3666" lon="19.555">
        <ele>59.358787</ele>
        <time>2022-05-06T09:46:21.543Z</time>
      </trkpt>
      <trkpt lat="41.36665" lon="19.55514">
        <ele>59.379293</ele>
        <time>2022-05-06T09:46:24.539Z</time>
      </trkpt>
      <trkpt lat="41.36671" lon="19.55528">
        <ele>59.400897</ele>
        <time>2022-05-06T09:46:27.583Z</time>
      </trkpt>
      <trkpt lat="41.36676" lon="19.55542">
        <ele>59.42187</ele>
        <time>2022-05-06T09:46:30.551Z</time>
      </trkpt>
      <trkpt lat="41.36681" lon="19.55555">
        <ele>59.44115</ele>
        <time>2022-05-06T09:46:33.578Z</time>
      </trkpt>
      <trkpt lat="41.36687" lon="19.55568">
        <ele>59.460992</ele>
        <time>2022-05-06T09:46:36.537Z</time>
      </trkpt>
      <trkpt lat="41.36693" lon="19.55581">
        <ele>59.480944</ele>
        <time>2022-05-06T09:46:39.536Z</time>
      </trkpt>
      <trkpt lat="41.36699" lon="19.55592">
        <ele>59.498736</ele>
        <time>2022-05-06T09:46:42.540Z</time>
      </trkpt>
      <trkpt lat="41.36703" lon="19.55605">
        <ele>59.517871</ele>
        <time>2022-05-06T09:46:45.550Z</time>
      </trkpt>
      <trkpt lat="41.36709" lon="19.5562">
        <ele>59.540072</ele>
        <time>2022-05-06T09:46:48.538Z</time>
      </trkpt>
      <trkpt lat="41.36716" lon="19.55635">
        <ele>59.563105</ele>
        <time>2022-05-06T09:46:51.549Z</time>
      </trkpt>
      <trkpt lat="41.3672" lon="19.55646">
        <ele>59.579079</ele>
        <time>2022-05-06T09:46:53.522Z</time>
      </trkpt>
      <trkpt lat="41.36724" lon="19.55657">
        <ele>59.595881</ele>
        <time>2022-05-06T09:46:55.605Z</time>
      </trkpt>
      <trkpt lat="41.36728" lon="19.55669">
        <ele>59.612405</ele>
        <time>2022-05-06T09:46:57.540Z</time>
      </trkpt>
      <trkpt lat="41.36732" lon="19.5568">
        <ele>59.629352</ele>
        <time>2022-05-06T09:46:59.555Z</time>
      </trkpt>
      <trkpt lat="41.36736" lon="19.55692">
        <ele>59.658997</ele>
        <time>2022-05-06T09:47:01.549Z</time>
      </trkpt>
      <trkpt lat="41.36739" lon="19.55705">
        <ele>59.695505</ele>
        <time>2022-05-06T09:47:03.537Z</time>
      </trkpt>
      <trkpt lat="41.36743" lon="19.55717">
        <ele>59.732148</ele>
        <time>2022-05-06T09:47:05.549Z</time>
      </trkpt>
      <trkpt lat="41.36746" lon="19.55729">
        <ele>59.768424</ele>
        <time>2022-05-06T09:47:07.543Z</time>
      </trkpt>
      <trkpt lat="41.36751" lon="19.55745">
        <ele>59.817919</ele>
        <time>2022-05-06T09:47:10.535Z</time>
      </trkpt>
      <trkpt lat="41.36755" lon="19.55761">
        <ele>59.866081</ele>
        <time>2022-05-06T09:47:13.535Z</time>
      </trkpt>
      <trkpt lat="41.36759" lon="19.55777">
        <ele>59.912542</ele>
        <time>2022-05-06T09:47:16.532Z</time>
      </trkpt>
      <trkpt lat="41.36762" lon="19.55792">
        <ele>59.956584</ele>
        <time>2022-05-06T09:47:19.538Z</time>
      </trkpt>
      <trkpt lat="41.36764" lon="19.55806">
        <ele>59.996925</ele>
        <time>2022-05-06T09:47:22.533Z</time>
      </trkpt>
      <trkpt lat="41.36765" lon="19.55819">
        <ele>60.034148</ele>
        <time>2022-05-06T09:47:25.536Z</time>
      </trkpt>
      <trkpt lat="41.36768" lon="19.55833">
        <ele>60.073459</ele>
        <time>2022-05-06T09:47:28.539Z</time>
      </trkpt>
      <trkpt lat="41.3677" lon="19.55845">
        <ele>60.108666</ele>
        <time>2022-05-06T09:47:30.544Z</time>
      </trkpt>
      <trkpt lat="41.36771" lon="19.55858">
        <ele>60.147131</ele>
        <time>2022-05-06T09:47:32.527Z</time>
      </trkpt>
      <trkpt lat="41.36774" lon="19.55872">
        <ele>60.186442</ele>
        <time>2022-05-06T09:47:34.540Z</time>
      </trkpt>
      <trkpt lat="41.36775" lon="19.55885">
        <ele>60.223587</ele>
        <time>2022-05-06T09:47:36.548Z</time>
      </trkpt>
      <trkpt lat="41.36777" lon="19.55898">
        <ele>60.263024</ele>
        <time>2022-05-06T09:47:38.541Z</time>
      </trkpt>
      <trkpt lat="41.3678" lon="19.55913">
        <ele>60.304196</ele>
        <time>2022-05-06T09:47:40.539Z</time>
      </trkpt>
      <trkpt lat="41.36782" lon="19.55928">
        <ele>59.970699</ele>
        <time>2022-05-06T09:47:42.551Z</time>
      </trkpt>
      <trkpt lat="41.36784" lon="19.55945">
        <ele>59.502611</ele>
        <time>2022-05-06T09:47:44.552Z</time>
      </trkpt>
      <trkpt lat="41.36786" lon="19.55961">
        <ele>59.048684</ele>
        <time>2022-05-06T09:47:46.547Z</time>
      </trkpt>
      <trkpt lat="41.36788" lon="19.55979">
        <ele>58.55629</ele>
        <time>2022-05-06T09:47:48.552Z</time>
      </trkpt>
      <trkpt lat="41.36791" lon="19.55997">
        <ele>58.040365</ele>
        <time>2022-05-06T09:47:50.571Z</time>
      </trkpt>
      <trkpt lat="41.36794" lon="19.56016">
        <ele>57.512877</ele>
        <time>2022-05-06T09:47:52.527Z</time>
      </trkpt>
      <trkpt lat="41.36795" lon="19.56035">
        <ele>56.993665</ele>
        <time>2022-05-06T09:47:54.547Z</time>
      </trkpt>
      <trkpt lat="41.36794" lon="19.56052">
        <ele>56.527682</ele>
        <time>2022-05-06T09:47:56.535Z</time>
      </trkpt>
      <trkpt lat="41.36791" lon="19.56068">
        <ele>56.072953</ele>
        <time>2022-05-06T09:47:58.546Z</time>
      </trkpt>
      <trkpt lat="41.36788" lon="19.56084">
        <ele>55.617293</ele>
        <time>2022-05-06T09:48:00.537Z</time>
      </trkpt>
      <trkpt lat="41.36785" lon="19.561">
        <ele>55.149387</ele>
        <time>2022-05-06T09:48:02.538Z</time>
      </trkpt>
      <trkpt lat="41.36783" lon="19.56116">
        <ele>54.700386</ele>
        <time>2022-05-06T09:48:04.546Z</time>
      </trkpt>
      <trkpt lat="41.3678" lon="19.56132">
        <ele>54.266012</ele>
        <time>2022-05-06T09:48:06.554Z</time>
      </trkpt>
      <trkpt lat="41.36777" lon="19.56147">
        <ele>53.832186</ele>
        <time>2022-05-06T09:48:08.535Z</time>
      </trkpt>
      <trkpt lat="41.36773" lon="19.56162">
        <ele>53.657824</ele>
        <time>2022-05-06T09:48:10.529Z</time>
      </trkpt>
      <trkpt lat="41.36769" lon="19.56176">
        <ele>53.577306</ele>
        <time>2022-05-06T09:48:12.534Z</time>
      </trkpt>
      <trkpt lat="41.36765" lon="19.56189">
        <ele>53.500764</ele>
        <time>2022-05-06T09:48:14.540Z</time>
      </trkpt>
      <trkpt lat="41.36762" lon="19.56201">
        <ele>53.431923</ele>
        <time>2022-05-06T09:48:16.531Z</time>
      </trkpt>
      <trkpt lat="41.36758" lon="19.56213">
        <ele>53.366265</ele>
        <time>2022-05-06T09:48:18.538Z</time>
      </trkpt>
      <trkpt lat="41.36754" lon="19.56229">
        <ele>53.276055</ele>
        <time>2022-05-06T09:48:21.538Z</time>
      </trkpt>
      <trkpt lat="41.36749" lon="19.56244">
        <ele>53.189118</ele>
        <time>2022-05-06T09:48:24.543Z</time>
      </trkpt>
      <trkpt lat="41.36743" lon="19.56258">
        <ele>53.101584</ele>
        <time>2022-05-06T09:48:27.537Z</time>
      </trkpt>
      <trkpt lat="41.36739" lon="19.56274">
        <ele>53.01355</ele>
        <time>2022-05-06T09:48:30.525Z</time>
      </trkpt>
      <trkpt lat="41.36734" lon="19.5629">
        <ele>52.923061</ele>
        <time>2022-05-06T09:48:33.538Z</time>
      </trkpt>
      <trkpt lat="41.36729" lon="19.56305">
        <ele>52.834537</ele>
        <time>2022-05-06T09:48:36.560Z</time>
      </trkpt>
      <trkpt lat="41.36725" lon="19.5632">
        <ele>52.749545</ele>
        <time>2022-05-06T09:48:39.526Z</time>
      </trkpt>
      <trkpt lat="41.36721" lon="19.56333">
        <ele>52.673722</ele>
        <time>2022-05-06T09:48:42.542Z</time>
      </trkpt>
      <trkpt lat="41.36716" lon="19.5635">
        <ele>52.577955</ele>
        <time>2022-05-06T09:48:45.539Z</time>
      </trkpt>
      <trkpt lat="41.36712" lon="19.56361">
        <ele>52.513761</ele>
        <time>2022-05-06T09:48:47.546Z</time>
      </trkpt>
      <trkpt lat="41.36709" lon="19.56373">
        <ele>52.447825</ele>
        <time>2022-05-06T09:48:49.536Z</time>
      </trkpt>
      <trkpt lat="41.36705" lon="19.56384">
        <ele>52.566438</ele>
        <time>2022-05-06T09:48:51.531Z</time>
      </trkpt>
      <trkpt lat="41.36701" lon="19.56396">
        <ele>52.691744</ele>
        <time>2022-05-06T09:48:53.538Z</time>
      </trkpt>
      <trkpt lat="41.36698" lon="19.56407">
        <ele>52.811793</ele>
        <time>2022-05-06T09:48:55.535Z</time>
      </trkpt>
      <trkpt lat="41.36695" lon="19.56419">
        <ele>52.931842</ele>
        <time>2022-05-06T09:48:57.538Z</time>
      </trkpt>
      <trkpt lat="41.36691" lon="19.5643">
        <ele>53.051098</ele>
        <time>2022-05-06T09:48:59.522Z</time>
      </trkpt>
      <trkpt lat="41.36688" lon="19.56441">
        <ele>53.168944</ele>
        <time>2022-05-06T09:49:01.590Z</time>
      </trkpt>
      <trkpt lat="41.36684" lon="19.56453">
        <ele>53.288539</ele>
        <time>2022-05-06T09:49:03.545Z</time>
      </trkpt>
      <trkpt lat="41.3668" lon="19.56464">
        <ele>53.410278</ele>
        <time>2022-05-06T09:49:05.535Z</time>
      </trkpt>
      <trkpt lat="41.36676" lon="19.56475">
        <ele>53.53458</ele>
        <time>2022-05-06T09:49:07.548Z</time>
      </trkpt>
      <trkpt lat="41.36673" lon="19.56487">
        <ele>53.657445</ele>
        <time>2022-05-06T09:49:09.545Z</time>
      </trkpt>
      <trkpt lat="41.36669" lon="19.56498">
        <ele>53.77891</ele>
        <time>2022-05-06T09:49:11.547Z</time>
      </trkpt>
      <trkpt lat="41.36666" lon="19.5651">
        <ele>53.904012</ele>
        <time>2022-05-06T09:49:13.532Z</time>
      </trkpt>
      <trkpt lat="41.36662" lon="19.56522">
        <ele>54.03009</ele>
        <time>2022-05-06T09:49:15.566Z</time>
      </trkpt>
      <trkpt lat="41.36658" lon="19.56534">
        <ele>54.153459</ele>
        <time>2022-05-06T09:49:17.537Z</time>
      </trkpt>
      <trkpt lat="41.36654" lon="19.56545">
        <ele>54.276829</ele>
        <time>2022-05-06T09:49:19.531Z</time>
      </trkpt>
      <trkpt lat="41.36651" lon="19.56557">
        <ele>54.399458</ele>
        <time>2022-05-06T09:49:21.540Z</time>
      </trkpt>
      <trkpt lat="41.36647" lon="19.56568">
        <ele>54.519765</ele>
        <time>2022-05-06T09:49:23.531Z</time>
      </trkpt>
      <trkpt lat="41.36643" lon="19.5658">
        <ele>54.647249</ele>
        <time>2022-05-06T09:49:25.546Z</time>
      </trkpt>
      <trkpt lat="41.3664" lon="19.56591">
        <ele>54.765021</ele>
        <time>2022-05-06T09:49:27.549Z</time>
      </trkpt>
      <trkpt lat="41.36636" lon="19.56603">
        <ele>54.823226</ele>
        <time>2022-05-06T09:49:29.546Z</time>
      </trkpt>
      <trkpt lat="41.36633" lon="19.56614">
        <ele>54.86394</ele>
        <time>2022-05-06T09:49:31.522Z</time>
      </trkpt>
      <trkpt lat="41.36629" lon="19.56625">
        <ele>54.904041</ele>
        <time>2022-05-06T09:49:33.555Z</time>
      </trkpt>
      <trkpt lat="41.36626" lon="19.56636">
        <ele>54.9444</ele>
        <time>2022-05-06T09:49:35.549Z</time>
      </trkpt>
      <trkpt lat="41.36622" lon="19.56648">
        <ele>54.986179</ele>
        <time>2022-05-06T09:49:37.536Z</time>
      </trkpt>
      <trkpt lat="41.36618" lon="19.56659">
        <ele>55.028349</ele>
        <time>2022-05-06T09:49:39.531Z</time>
      </trkpt>
      <trkpt lat="41.36615" lon="19.56671">
        <ele>55.070899</ele>
        <time>2022-05-06T09:49:41.528Z</time>
      </trkpt>
      <trkpt lat="41.36612" lon="19.56683">
        <ele>55.112046</ele>
        <time>2022-05-06T09:49:43.539Z</time>
      </trkpt>
      <trkpt lat="41.36608" lon="19.567">
        <ele>55.17217</ele>
        <time>2022-05-06T09:49:46.534Z</time>
      </trkpt>
      <trkpt lat="41.36604" lon="19.56711">
        <ele>55.212378</ele>
        <time>2022-05-06T09:49:48.532Z</time>
      </trkpt>
      <trkpt lat="41.36601" lon="19.56722">
        <ele>55.253228</ele>
        <time>2022-05-06T09:49:50.537Z</time>
      </trkpt>
      <trkpt lat="41.36597" lon="19.56734">
        <ele>55.297034</ele>
        <time>2022-05-06T09:49:52.541Z</time>
      </trkpt>
      <trkpt lat="41.36593" lon="19.56746">
        <ele>55.340426</ele>
        <time>2022-05-06T09:49:54.538Z</time>
      </trkpt>
      <trkpt lat="41.36589" lon="19.56758">
        <ele>55.383163</ele>
        <time>2022-05-06T09:49:56.534Z</time>
      </trkpt>
      <trkpt lat="41.36585" lon="19.56769">
        <ele>55.425638</ele>
        <time>2022-05-06T09:49:58.538Z</time>
      </trkpt>
      <trkpt lat="41.36582" lon="19.56782">
        <ele>55.469134</ele>
        <time>2022-05-06T09:50:00.541Z</time>
      </trkpt>
      <trkpt lat="41.36578" lon="19.56794">
        <ele>55.512486</ele>
        <time>2022-05-06T09:50:02.606Z</time>
      </trkpt>
      <trkpt lat="41.36575" lon="19.56805">
        <ele>55.553316</ele>
        <time>2022-05-06T09:50:04.545Z</time>
      </trkpt>
      <trkpt lat="41.3657" lon="19.56822">
        <ele>55.593554</ele>
        <time>2022-05-06T09:50:07.533Z</time>
      </trkpt>
      <trkpt lat="41.36566" lon="19.56833">
        <ele>55.595624</ele>
        <time>2022-05-06T09:50:09.537Z</time>
      </trkpt>
      <trkpt lat="41.36563" lon="19.56845">
        <ele>55.597718</ele>
        <time>2022-05-06T09:50:11.551Z</time>
      </trkpt>
      <trkpt lat="41.36559" lon="19.56861">
        <ele>55.600645</ele>
        <time>2022-05-06T09:50:14.547Z</time>
      </trkpt>
      <trkpt lat="41.36554" lon="19.56878">
        <ele>55.603601</ele>
        <time>2022-05-06T09:50:17.538Z</time>
      </trkpt>
      <trkpt lat="41.36549" lon="19.56894">
        <ele>55.606408</ele>
        <time>2022-05-06T09:50:20.545Z</time>
      </trkpt>
      <trkpt lat="41.36545" lon="19.56905">
        <ele>55.608461</ele>
        <time>2022-05-06T09:50:22.564Z</time>
      </trkpt>
      <trkpt lat="41.36542" lon="19.56916">
        <ele>55.610587</ele>
        <time>2022-05-06T09:50:24.587Z</time>
      </trkpt>
      <trkpt lat="41.36539" lon="19.56928">
        <ele>55.612618</ele>
        <time>2022-05-06T09:50:26.529Z</time>
      </trkpt>
      <trkpt lat="41.36534" lon="19.56945">
        <ele>55.615613</ele>
        <time>2022-05-06T09:50:29.539Z</time>
      </trkpt>
      <trkpt lat="41.3653" lon="19.56956">
        <ele>55.617733</ele>
        <time>2022-05-06T09:50:31.537Z</time>
      </trkpt>
      <trkpt lat="41.36527" lon="19.56968">
        <ele>55.619851</ele>
        <time>2022-05-06T09:50:33.551Z</time>
      </trkpt>
      <trkpt lat="41.36523" lon="19.5698">
        <ele>55.622007</ele>
        <time>2022-05-06T09:50:35.518Z</time>
      </trkpt>
      <trkpt lat="41.36521" lon="19.56992">
        <ele>55.624073</ele>
        <time>2022-05-06T09:50:37.534Z</time>
      </trkpt>
      <trkpt lat="41.36517" lon="19.57003">
        <ele>55.62608</ele>
        <time>2022-05-06T09:50:39.542Z</time>
      </trkpt>
      <trkpt lat="41.36515" lon="19.57014">
        <ele>55.628105</ele>
        <time>2022-05-06T09:50:41.543Z</time>
      </trkpt>
      <trkpt lat="41.36512" lon="19.57026">
        <ele>55.630183</ele>
        <time>2022-05-06T09:50:43.547Z</time>
      </trkpt>
      <trkpt lat="41.36509" lon="19.57038">
        <ele>55.63235</ele>
        <time>2022-05-06T09:50:45.536Z</time>
      </trkpt>
      <trkpt lat="41.36506" lon="19.5705">
        <ele>55.557197</ele>
        <time>2022-05-06T09:50:47.552Z</time>
      </trkpt>
      <trkpt lat="41.36503" lon="19.57067">
        <ele>55.439045</ele>
        <time>2022-05-06T09:50:50.533Z</time>
      </trkpt>
      <trkpt lat="41.365" lon="19.57084">
        <ele>55.315192</ele>
        <time>2022-05-06T09:50:53.533Z</time>
      </trkpt>
      <trkpt lat="41.36498" lon="19.57096">
        <ele>55.230081</ele>
        <time>2022-05-06T09:50:55.539Z</time>
      </trkpt>
      <trkpt lat="41.36495" lon="19.57112">
        <ele>55.111437</ele>
        <time>2022-05-06T09:50:58.566Z</time>
      </trkpt>
      <trkpt lat="41.36492" lon="19.57129">
        <ele>54.987188</ele>
        <time>2022-05-06T09:51:01.545Z</time>
      </trkpt>
      <trkpt lat="41.3649" lon="19.57141">
        <ele>54.902259</ele>
        <time>2022-05-06T09:51:03.537Z</time>
      </trkpt>
      <trkpt lat="41.36487" lon="19.57153">
        <ele>54.816014</ele>
        <time>2022-05-06T09:51:05.548Z</time>
      </trkpt>
      <trkpt lat="41.36484" lon="19.5717">
        <ele>54.688354</ele>
        <time>2022-05-06T09:51:08.570Z</time>
      </trkpt>
      <trkpt lat="41.36482" lon="19.57182">
        <ele>54.600962</ele>
        <time>2022-05-06T09:51:10.536Z</time>
      </trkpt>
      <trkpt lat="41.3648" lon="19.57194">
        <ele>54.516722</ele>
        <time>2022-05-06T09:51:12.526Z</time>
      </trkpt>
      <trkpt lat="41.36478" lon="19.57206">
        <ele>54.431106</ele>
        <time>2022-05-06T09:51:14.539Z</time>
      </trkpt>
      <trkpt lat="41.36476" lon="19.57218">
        <ele>54.344802</ele>
        <time>2022-05-06T09:51:16.553Z</time>
      </trkpt>
      <trkpt lat="41.36474" lon="19.5723">
        <ele>54.256098</ele>
        <time>2022-05-06T09:51:18.543Z</time>
      </trkpt>
      <trkpt lat="41.36473" lon="19.57242">
        <ele>54.170777</ele>
        <time>2022-05-06T09:51:20.560Z</time>
      </trkpt>
      <trkpt lat="41.36472" lon="19.57254">
        <ele>54.086013</ele>
        <time>2022-05-06T09:51:22.532Z</time>
      </trkpt>
      <trkpt lat="41.3647" lon="19.57266">
        <ele>54.000553</ele>
        <time>2022-05-06T09:51:24.520Z</time>
      </trkpt>
      <trkpt lat="41.36469" lon="19.57284">
        <ele>54.043474</ele>
        <time>2022-05-06T09:51:27.538Z</time>
      </trkpt>
      <trkpt lat="41.36467" lon="19.57296">
        <ele>54.160752</ele>
        <time>2022-05-06T09:51:29.536Z</time>
      </trkpt>
      <trkpt lat="41.36466" lon="19.57308">
        <ele>54.275729</ele>
        <time>2022-05-06T09:51:31.531Z</time>
      </trkpt>
      <trkpt lat="41.36464" lon="19.5732">
        <ele>54.392068</ele>
        <time>2022-05-06T09:51:33.534Z</time>
      </trkpt>
      <trkpt lat="41.36463" lon="19.57332">
        <ele>54.509359</ele>
        <time>2022-05-06T09:51:35.577Z</time>
      </trkpt>
      <trkpt lat="41.36462" lon="19.57344">
        <ele>54.626374</ele>
        <time>2022-05-06T09:51:37.551Z</time>
      </trkpt>
      <trkpt lat="41.36461" lon="19.57357">
        <ele>54.745174</ele>
        <time>2022-05-06T09:51:39.539Z</time>
      </trkpt>
      <trkpt lat="41.3646" lon="19.57369">
        <ele>54.864517</ele>
        <time>2022-05-06T09:51:41.536Z</time>
      </trkpt>
      <trkpt lat="41.36459" lon="19.57381">
        <ele>54.98102</ele>
        <time>2022-05-06T09:51:43.536Z</time>
      </trkpt>
      <trkpt lat="41.36458" lon="19.57394">
        <ele>55.099116</ele>
        <time>2022-05-06T09:51:45.546Z</time>
      </trkpt>
      <trkpt lat="41.36458" lon="19.57406">
        <ele>55.213689</ele>
        <time>2022-05-06T09:51:47.535Z</time>
      </trkpt>
      <trkpt lat="41.36457" lon="19.57423">
        <ele>55.38383</ele>
        <time>2022-05-06T09:51:50.554Z</time>
      </trkpt>
      <trkpt lat="41.36456" lon="19.57441">
        <ele>55.551821</ele>
        <time>2022-05-06T09:51:53.532Z</time>
      </trkpt>
      <trkpt lat="41.36455" lon="19.57458">
        <ele>55.71935</ele>
        <time>2022-05-06T09:51:56.534Z</time>
      </trkpt>
      <trkpt lat="41.36454" lon="19.5747">
        <ele>55.833054</ele>
        <time>2022-05-06T09:51:58.554Z</time>
      </trkpt>
      <trkpt lat="41.36454" lon="19.57485">
        <ele>55.971673</ele>
        <time>2022-05-06T09:52:01.550Z</time>
      </trkpt>
      <trkpt lat="41.36454" lon="19.575">
        <ele>56.118678</ele>
        <time>2022-05-06T09:52:04.555Z</time>
      </trkpt>
      <trkpt lat="41.36453" lon="19.57512">
        <ele>56.233286</ele>
        <time>2022-05-06T09:52:06.577Z</time>
      </trkpt>
      <trkpt lat="41.36453" lon="19.57525">
        <ele>56.330605</ele>
        <time>2022-05-06T09:52:08.535Z</time>
      </trkpt>
      <trkpt lat="41.36453" lon="19.57538">
        <ele>56.430924</ele>
        <time>2022-05-06T09:52:10.548Z</time>
      </trkpt>
      <trkpt lat="41.36453" lon="19.57551">
        <ele>56.536644</ele>
        <time>2022-05-06T09:52:12.532Z</time>
      </trkpt>
      <trkpt lat="41.36453" lon="19.57565">
        <ele>56.637751</ele>
        <time>2022-05-06T09:52:14.540Z</time>
      </trkpt>
      <trkpt lat="41.36453" lon="19.57578">
        <ele>56.743546</ele>
        <time>2022-05-06T09:52:16.538Z</time>
      </trkpt>
      <trkpt lat="41.36454" lon="19.57591">
        <ele>56.84545</ele>
        <time>2022-05-06T09:52:18.544Z</time>
      </trkpt>
      <trkpt lat="41.36454" lon="19.57604">
        <ele>56.942726</ele>
        <time>2022-05-06T09:52:20.531Z</time>
      </trkpt>
      <trkpt lat="41.36454" lon="19.57616">
        <ele>57.03841</ele>
        <time>2022-05-06T09:52:22.537Z</time>
      </trkpt>
      <trkpt lat="41.36454" lon="19.57628">
        <ele>57.131013</ele>
        <time>2022-05-06T09:52:24.535Z</time>
      </trkpt>
      <trkpt lat="41.36454" lon="19.57645">
        <ele>57.258351</ele>
        <time>2022-05-06T09:52:27.551Z</time>
      </trkpt>
      <trkpt lat="41.36454" lon="19.57657">
        <ele>57.351228</ele>
        <time>2022-05-06T09:52:29.546Z</time>
      </trkpt>
      <trkpt lat="41.36455" lon="19.5767">
        <ele>57.452647</ele>
        <time>2022-05-06T09:52:31.532Z</time>
      </trkpt>
      <trkpt lat="41.36456" lon="19.57683">
        <ele>57.555322</ele>
        <time>2022-05-06T09:52:33.537Z</time>
      </trkpt>
      <trkpt lat="41.36456" lon="19.57697">
        <ele>57.65828</ele>
        <time>2022-05-06T09:52:35.522Z</time>
      </trkpt>
      <trkpt lat="41.36457" lon="19.57709">
        <ele>57.752695</ele>
        <time>2022-05-06T09:52:37.543Z</time>
      </trkpt>
      <trkpt lat="41.36458" lon="19.57721">
        <ele>57.849348</ele>
        <time>2022-05-06T09:52:39.548Z</time>
      </trkpt>
      <trkpt lat="41.36458" lon="19.57734">
        <ele>57.946922</ele>
        <time>2022-05-06T09:52:41.538Z</time>
      </trkpt>
      <trkpt lat="41.3646" lon="19.57747">
        <ele>58.044805</ele>
        <time>2022-05-06T09:52:43.541Z</time>
      </trkpt>
      <trkpt lat="41.3646" lon="19.57764">
        <ele>58.128851</ele>
        <time>2022-05-06T09:52:46.539Z</time>
      </trkpt>
      <trkpt lat="41.36461" lon="19.57776">
        <ele>58.172338</ele>
        <time>2022-05-06T09:52:48.553Z</time>
      </trkpt>
      <trkpt lat="41.36463" lon="19.57789">
        <ele>58.216114</ele>
        <time>2022-05-06T09:52:50.532Z</time>
      </trkpt>
      <trkpt lat="41.36465" lon="19.57801">
        <ele>58.261814</ele>
        <time>2022-05-06T09:52:52.547Z</time>
      </trkpt>
      <trkpt lat="41.36467" lon="19.57814">
        <ele>58.307256</ele>
        <time>2022-05-06T09:52:54.549Z</time>
      </trkpt>
      <trkpt lat="41.36468" lon="19.57827">
        <ele>58.354402</ele>
        <time>2022-05-06T09:52:56.586Z</time>
      </trkpt>
      <trkpt lat="41.36469" lon="19.57839">
        <ele>58.400071</ele>
        <time>2022-05-06T09:52:58.557Z</time>
      </trkpt>
      <trkpt lat="41.36471" lon="19.57852">
        <ele>58.444328</ele>
        <time>2022-05-06T09:53:00.544Z</time>
      </trkpt>
      <trkpt lat="41.36472" lon="19.57864">
        <ele>58.488463</ele>
        <time>2022-05-06T09:53:02.572Z</time>
      </trkpt>
      <trkpt lat="41.36473" lon="19.57876">
        <ele>58.533293</ele>
        <time>2022-05-06T09:53:04.545Z</time>
      </trkpt>
      <trkpt lat="41.36476" lon="19.57893">
        <ele>58.595015</ele>
        <time>2022-05-06T09:53:07.536Z</time>
      </trkpt>
      <trkpt lat="41.36478" lon="19.5791">
        <ele>58.656298</ele>
        <time>2022-05-06T09:53:10.519Z</time>
      </trkpt>
      <trkpt lat="41.3648" lon="19.57923">
        <ele>58.70051</ele>
        <time>2022-05-06T09:53:12.536Z</time>
      </trkpt>
      <trkpt lat="41.36482" lon="19.57935">
        <ele>58.744307</ele>
        <time>2022-05-06T09:53:14.539Z</time>
      </trkpt>
      <trkpt lat="41.36484" lon="19.57947">
        <ele>58.789599</ele>
        <time>2022-05-06T09:53:16.535Z</time>
      </trkpt>
      <trkpt lat="41.36486" lon="19.5796">
        <ele>58.836148</ele>
        <time>2022-05-06T09:53:18.533Z</time>
      </trkpt>
      <trkpt lat="41.36488" lon="19.57972">
        <ele>58.879945</ele>
        <time>2022-05-06T09:53:20.532Z</time>
      </trkpt>
      <trkpt lat="41.3649" lon="19.57983">
        <ele>58.922597</ele>
        <time>2022-05-06T09:53:22.533Z</time>
      </trkpt>
      <trkpt lat="41.36493" lon="19.58001">
        <ele>58.949424</ele>
        <time>2022-05-06T09:53:25.533Z</time>
      </trkpt>
      <trkpt lat="41.36495" lon="19.58013">
        <ele>58.960889</ele>
        <time>2022-05-06T09:53:27.539Z</time>
      </trkpt>
      <trkpt lat="41.36497" lon="19.58025">
        <ele>58.972463</ele>
        <time>2022-05-06T09:53:29.545Z</time>
      </trkpt>
      <trkpt lat="41.365" lon="19.58037">
        <ele>58.983833</ele>
        <time>2022-05-06T09:53:31.544Z</time>
      </trkpt>
      <trkpt lat="41.36501" lon="19.58049">
        <ele>58.994871</ele>
        <time>2022-05-06T09:53:33.542Z</time>
      </trkpt>
      <trkpt lat="41.36504" lon="19.58062">
        <ele>59.006626</ele>
        <time>2022-05-06T09:53:35.532Z</time>
      </trkpt>
      <trkpt lat="41.36507" lon="19.58074">
        <ele>59.018521</ele>
        <time>2022-05-06T09:53:37.552Z</time>
      </trkpt>
      <trkpt lat="41.36509" lon="19.58087">
        <ele>59.030397</ele>
        <time>2022-05-06T09:53:39.535Z</time>
      </trkpt>
      <trkpt lat="41.36512" lon="19.58099">
        <ele>59.042119</ele>
        <time>2022-05-06T09:53:41.538Z</time>
      </trkpt>
      <trkpt lat="41.36515" lon="19.58111">
        <ele>59.053611</ele>
        <time>2022-05-06T09:53:43.548Z</time>
      </trkpt>
      <trkpt lat="41.36517" lon="19.58123">
        <ele>59.064918</ele>
        <time>2022-05-06T09:53:45.530Z</time>
      </trkpt>
      <trkpt lat="41.36519" lon="19.58135">
        <ele>59.07632</ele>
        <time>2022-05-06T09:53:47.541Z</time>
      </trkpt>
      <trkpt lat="41.36521" lon="19.58147">
        <ele>59.087659</ele>
        <time>2022-05-06T09:53:49.539Z</time>
      </trkpt>
      <trkpt lat="41.36523" lon="19.58159">
        <ele>59.098645</ele>
        <time>2022-05-06T09:53:51.553Z</time>
      </trkpt>
      <trkpt lat="41.36525" lon="19.58171">
        <ele>59.109895</ele>
        <time>2022-05-06T09:53:53.575Z</time>
      </trkpt>
      <trkpt lat="41.36527" lon="19.58183">
        <ele>59.121296</ele>
        <time>2022-05-06T09:53:55.543Z</time>
      </trkpt>
      <trkpt lat="41.3653" lon="19.58196">
        <ele>59.132958</ele>
        <time>2022-05-06T09:53:57.532Z</time>
      </trkpt>
      <trkpt lat="41.36532" lon="19.58208">
        <ele>59.144296</ele>
        <time>2022-05-06T09:53:59.532Z</time>
      </trkpt>
      <trkpt lat="41.36534" lon="19.58219">
        <ele>59.155309</ele>
        <time>2022-05-06T09:54:01.539Z</time>
      </trkpt>
      <trkpt lat="41.36538" lon="19.58237">
        <ele>59.130389</ele>
        <time>2022-05-06T09:54:04.568Z</time>
      </trkpt>
      <trkpt lat="41.3654" lon="19.58249">
        <ele>59.112745</ele>
        <time>2022-05-06T09:54:06.530Z</time>
      </trkpt>
      <trkpt lat="41.36541" lon="19.58261">
        <ele>59.094719</ele>
        <time>2022-05-06T09:54:08.531Z</time>
      </trkpt>
      <trkpt lat="41.36543" lon="19.58273">
        <ele>59.076624</ele>
        <time>2022-05-06T09:54:10.556Z</time>
      </trkpt>
      <trkpt lat="41.36545" lon="19.58285">
        <ele>59.059163</ele>
        <time>2022-05-06T09:54:12.538Z</time>
      </trkpt>
      <trkpt lat="41.36548" lon="19.58301">
        <ele>59.034689</ele>
        <time>2022-05-06T09:54:15.545Z</time>
      </trkpt>
      <trkpt lat="41.36551" lon="19.58318">
        <ele>59.009331</ele>
        <time>2022-05-06T09:54:18.551Z</time>
      </trkpt>
      <trkpt lat="41.36553" lon="19.58331">
        <ele>58.991123</ele>
        <time>2022-05-06T09:54:20.544Z</time>
      </trkpt>
      <trkpt lat="41.36556" lon="19.58343">
        <ele>58.972687</ele>
        <time>2022-05-06T09:54:22.550Z</time>
      </trkpt>
      <trkpt lat="41.36558" lon="19.58355">
        <ele>58.954066</ele>
        <time>2022-05-06T09:54:24.560Z</time>
      </trkpt>
      <trkpt lat="41.3656" lon="19.58367">
        <ele>58.936239</ele>
        <time>2022-05-06T09:54:26.531Z</time>
      </trkpt>
      <trkpt lat="41.36563" lon="19.58379">
        <ele>58.918639</ele>
        <time>2022-05-06T09:54:28.540Z</time>
      </trkpt>
      <trkpt lat="41.36565" lon="19.58391">
        <ele>58.900907</ele>
        <time>2022-05-06T09:54:30.532Z</time>
      </trkpt>
      <trkpt lat="41.36568" lon="19.58408">
        <ele>58.874936</ele>
        <time>2022-05-06T09:54:33.536Z</time>
      </trkpt>
      <trkpt lat="41.3657" lon="19.58421">
        <ele>58.856984</ele>
        <time>2022-05-06T09:54:35.557Z</time>
      </trkpt>
      <trkpt lat="41.36571" lon="19.58433">
        <ele>58.839137</ele>
        <time>2022-05-06T09:54:37.533Z</time>
      </trkpt>
      <trkpt lat="41.36574" lon="19.58445">
        <ele>58.82131</ele>
        <time>2022-05-06T09:54:39.545Z</time>
      </trkpt>
      <trkpt lat="41.36575" lon="19.58457">
        <ele>58.767284</ele>
        <time>2022-05-06T09:54:41.547Z</time>
      </trkpt>
      <trkpt lat="41.36578" lon="19.58469">
        <ele>58.627518</ele>
        <time>2022-05-06T09:54:43.580Z</time>
      </trkpt>
      <trkpt lat="41.3658" lon="19.58481">
        <ele>58.481578</ele>
        <time>2022-05-06T09:54:45.543Z</time>
      </trkpt>
      <trkpt lat="41.36582" lon="19.58494">
        <ele>58.340008</ele>
        <time>2022-05-06T09:54:47.533Z</time>
      </trkpt>
      <trkpt lat="41.36585" lon="19.58506">
        <ele>58.197678</ele>
        <time>2022-05-06T09:54:49.536Z</time>
      </trkpt>
      <trkpt lat="41.36588" lon="19.58517">
        <ele>58.059642</ele>
        <time>2022-05-06T09:54:51.539Z</time>
      </trkpt>
      <trkpt lat="41.36591" lon="19.58529">
        <ele>57.922733</ele>
        <time>2022-05-06T09:54:53.547Z</time>
      </trkpt>
      <trkpt lat="41.36593" lon="19.58541">
        <ele>57.781521</ele>
        <time>2022-05-06T09:54:55.526Z</time>
      </trkpt>
      <trkpt lat="41.36595" lon="19.58554">
        <ele>57.637767</ele>
        <time>2022-05-06T09:54:57.537Z</time>
      </trkpt>
      <trkpt lat="41.36597" lon="19.58566">
        <ele>57.493606</ele>
        <time>2022-05-06T09:54:59.532Z</time>
      </trkpt>
      <trkpt lat="41.36599" lon="19.58579">
        <ele>57.347042</ele>
        <time>2022-05-06T09:55:01.553Z</time>
      </trkpt>
      <trkpt lat="41.36601" lon="19.58591">
        <ele>57.200365</ele>
        <time>2022-05-06T09:55:03.537Z</time>
      </trkpt>
      <trkpt lat="41.36604" lon="19.58604">
        <ele>57.051394</ele>
        <time>2022-05-06T09:55:05.572Z</time>
      </trkpt>
      <trkpt lat="41.36606" lon="19.58617">
        <ele>56.902618</ele>
        <time>2022-05-06T09:55:07.531Z</time>
      </trkpt>
      <trkpt lat="41.36608" lon="19.5863">
        <ele>56.757687</ele>
        <time>2022-05-06T09:55:09.537Z</time>
      </trkpt>
      <trkpt lat="41.3661" lon="19.58643">
        <ele>56.606422</ele>
        <time>2022-05-06T09:55:11.536Z</time>
      </trkpt>
      <trkpt lat="41.36611" lon="19.58657">
        <ele>56.452108</ele>
        <time>2022-05-06T09:55:13.538Z</time>
      </trkpt>
      <trkpt lat="41.36614" lon="19.5867">
        <ele>56.297065</ele>
        <time>2022-05-06T09:55:15.527Z</time>
      </trkpt>
      <trkpt lat="41.36616" lon="19.58684">
        <ele>56.138735</ele>
        <time>2022-05-06T09:55:17.527Z</time>
      </trkpt>
      <trkpt lat="41.36619" lon="19.58697">
        <ele>56.127205</ele>
        <time>2022-05-06T09:55:19.545Z</time>
      </trkpt>
      <trkpt lat="41.36622" lon="19.58711">
        <ele>56.145858</ele>
        <time>2022-05-06T09:55:21.544Z</time>
      </trkpt>
      <trkpt lat="41.36624" lon="19.58724">
        <ele>56.164511</ele>
        <time>2022-05-06T09:55:23.546Z</time>
      </trkpt>
      <trkpt lat="41.36627" lon="19.58738">
        <ele>56.183119</ele>
        <time>2022-05-06T09:55:25.538Z</time>
      </trkpt>
      <trkpt lat="41.3663" lon="19.58751">
        <ele>56.20169</ele>
        <time>2022-05-06T09:55:27.526Z</time>
      </trkpt>
      <trkpt lat="41.36632" lon="19.58764">
        <ele>56.219736</ele>
        <time>2022-05-06T09:55:29.540Z</time>
      </trkpt>
      <trkpt lat="41.36634" lon="19.58777">
        <ele>56.237681</ele>
        <time>2022-05-06T09:55:31.549Z</time>
      </trkpt>
      <trkpt lat="41.36636" lon="19.5879">
        <ele>56.255435</ele>
        <time>2022-05-06T09:55:33.533Z</time>
      </trkpt>
      <trkpt lat="41.36638" lon="19.58804">
        <ele>56.273879</ele>
        <time>2022-05-06T09:55:35.550Z</time>
      </trkpt>
      <trkpt lat="41.36641" lon="19.58817">
        <ele>56.291971</ele>
        <time>2022-05-06T09:55:37.543Z</time>
      </trkpt>
      <trkpt lat="41.36643" lon="19.58831">
        <ele>56.310966</ele>
        <time>2022-05-06T09:55:39.539Z</time>
      </trkpt>
      <trkpt lat="41.36645" lon="19.58845">
        <ele>56.329833</ele>
        <time>2022-05-06T09:55:41.542Z</time>
      </trkpt>
      <trkpt lat="41.36648" lon="19.58858">
        <ele>56.347577</ele>
        <time>2022-05-06T09:55:43.544Z</time>
      </trkpt>
      <trkpt lat="41.3665" lon="19.58871">
        <ele>56.365592</ele>
        <time>2022-05-06T09:55:45.547Z</time>
      </trkpt>
      <trkpt lat="41.36653" lon="19.58884">
        <ele>56.383478</ele>
        <time>2022-05-06T09:55:47.537Z</time>
      </trkpt>
      <trkpt lat="41.36656" lon="19.58897">
        <ele>56.401663</ele>
        <time>2022-05-06T09:55:49.575Z</time>
      </trkpt>
      <trkpt lat="41.36657" lon="19.5891">
        <ele>56.419939</ele>
        <time>2022-05-06T09:55:51.554Z</time>
      </trkpt>
      <trkpt lat="41.3666" lon="19.58923">
        <ele>56.456918</ele>
        <time>2022-05-06T09:55:53.520Z</time>
      </trkpt>
      <trkpt lat="41.36662" lon="19.58936">
        <ele>56.530657</ele>
        <time>2022-05-06T09:55:55.544Z</time>
      </trkpt>
      <trkpt lat="41.36664" lon="19.58949">
        <ele>56.601198</ele>
        <time>2022-05-06T09:55:57.531Z</time>
      </trkpt>
      <trkpt lat="41.36667" lon="19.58961">
        <ele>56.672631</ele>
        <time>2022-05-06T09:55:59.533Z</time>
      </trkpt>
      <trkpt lat="41.36669" lon="19.58974">
        <ele>56.745137</ele>
        <time>2022-05-06T09:56:01.537Z</time>
      </trkpt>
      <trkpt lat="41.36671" lon="19.58987">
        <ele>56.81711</ele>
        <time>2022-05-06T09:56:03.537Z</time>
      </trkpt>
      <trkpt lat="41.36674" lon="19.59">
        <ele>56.888012</ele>
        <time>2022-05-06T09:56:05.553Z</time>
      </trkpt>
      <trkpt lat="41.36676" lon="19.59012">
        <ele>56.959975</ele>
        <time>2022-05-06T09:56:07.537Z</time>
      </trkpt>
      <trkpt lat="41.36678" lon="19.59025">
        <ele>57.033714</ele>
        <time>2022-05-06T09:56:09.539Z</time>
      </trkpt>
      <trkpt lat="41.36681" lon="19.59038">
        <ele>57.105686</ele>
        <time>2022-05-06T09:56:11.527Z</time>
      </trkpt>
      <trkpt lat="41.36683" lon="19.59051">
        <ele>57.177648</ele>
        <time>2022-05-06T09:56:13.527Z</time>
      </trkpt>
      <trkpt lat="41.36686" lon="19.59063">
        <ele>57.247362</ele>
        <time>2022-05-06T09:56:15.544Z</time>
      </trkpt>
      <trkpt lat="41.36688" lon="19.59075">
        <ele>57.316677</ele>
        <time>2022-05-06T09:56:17.564Z</time>
      </trkpt>
      <trkpt lat="41.36691" lon="19.59087">
        <ele>57.384608</ele>
        <time>2022-05-06T09:56:19.552Z</time>
      </trkpt>
      <trkpt lat="41.36693" lon="19.591">
        <ele>57.454084</ele>
        <time>2022-05-06T09:56:21.521Z</time>
      </trkpt>
      <trkpt lat="41.36696" lon="19.59112">
        <ele>57.524987</ele>
        <time>2022-05-06T09:56:23.553Z</time>
      </trkpt>
      <trkpt lat="41.36698" lon="19.59124">
        <ele>57.5934</ele>
        <time>2022-05-06T09:56:25.527Z</time>
      </trkpt>
      <trkpt lat="41.367" lon="19.59136">
        <ele>57.661844</ele>
        <time>2022-05-06T09:56:27.578Z</time>
      </trkpt>
      <trkpt lat="41.36703" lon="19.59149">
        <ele>57.734078</ele>
        <time>2022-05-06T09:56:29.545Z</time>
      </trkpt>
      <trkpt lat="41.36705" lon="19.59162">
        <ele>57.801326</ele>
        <time>2022-05-06T09:56:31.540Z</time>
      </trkpt>
      <trkpt lat="41.36707" lon="19.59174">
        <ele>57.866656</ele>
        <time>2022-05-06T09:56:33.539Z</time>
      </trkpt>
      <trkpt lat="41.3671" lon="19.59186">
        <ele>57.931648</ele>
        <time>2022-05-06T09:56:35.532Z</time>
      </trkpt>
      <trkpt lat="41.36713" lon="19.59199">
        <ele>57.998179</ele>
        <time>2022-05-06T09:56:37.545Z</time>
      </trkpt>
      <trkpt lat="41.36716" lon="19.59212">
        <ele>58.067348</ele>
        <time>2022-05-06T09:56:39.546Z</time>
      </trkpt>
      <trkpt lat="41.36718" lon="19.59225">
        <ele>58.135346</ele>
        <time>2022-05-06T09:56:41.535Z</time>
      </trkpt>
      <trkpt lat="41.36721" lon="19.59238">
        <ele>58.205688</ele>
        <time>2022-05-06T09:56:43.552Z</time>
      </trkpt>
      <trkpt lat="41.36724" lon="19.5925">
        <ele>58.270369</ele>
        <time>2022-05-06T09:56:45.538Z</time>
      </trkpt>
      <trkpt lat="41.36726" lon="19.59263">
        <ele>58.335851</ele>
        <time>2022-05-06T09:56:47.554Z</time>
      </trkpt>
      <trkpt lat="41.36729" lon="19.59275">
        <ele>58.400842</ele>
        <time>2022-05-06T09:56:49.575Z</time>
      </trkpt>
      <trkpt lat="41.36732" lon="19.59287">
        <ele>58.468201</ele>
        <time>2022-05-06T09:56:51.531Z</time>
      </trkpt>
      <trkpt lat="41.36735" lon="19.593">
        <ele>58.53556</ele>
        <time>2022-05-06T09:56:53.527Z</time>
      </trkpt>
      <trkpt lat="41.36738" lon="19.59313">
        <ele>58.603751</ele>
        <time>2022-05-06T09:56:55.548Z</time>
      </trkpt>
      <trkpt lat="41.3674" lon="19.59325">
        <ele>58.670878</ele>
        <time>2022-05-06T09:56:57.536Z</time>
      </trkpt>
      <trkpt lat="41.36743" lon="19.59338">
        <ele>58.738198</ele>
        <time>2022-05-06T09:56:59.554Z</time>
      </trkpt>
      <trkpt lat="41.36746" lon="19.59351">
        <ele>58.807564</ele>
        <time>2022-05-06T09:57:01.550Z</time>
      </trkpt>
      <trkpt lat="41.36749" lon="19.59364">
        <ele>58.877825</ele>
        <time>2022-05-06T09:57:03.551Z</time>
      </trkpt>
      <trkpt lat="41.36753" lon="19.59377">
        <ele>58.948264</ele>
        <time>2022-05-06T09:57:05.535Z</time>
      </trkpt>
      <trkpt lat="41.36756" lon="19.5939">
        <ele>58.979038</ele>
        <time>2022-05-06T09:57:07.547Z</time>
      </trkpt>
      <trkpt lat="41.3676" lon="19.59402">
        <ele>58.995279</ele>
        <time>2022-05-06T09:57:09.532Z</time>
      </trkpt>
      <trkpt lat="41.36763" lon="19.59415">
        <ele>59.011123</ele>
        <time>2022-05-06T09:57:11.533Z</time>
      </trkpt>
      <trkpt lat="41.36767" lon="19.59427">
        <ele>59.026694</ele>
        <time>2022-05-06T09:57:13.542Z</time>
      </trkpt>
      <trkpt lat="41.3677" lon="19.59439">
        <ele>59.042652</ele>
        <time>2022-05-06T09:57:15.534Z</time>
      </trkpt>
      <trkpt lat="41.36773" lon="19.59451">
        <ele>59.058389</ele>
        <time>2022-05-06T09:57:17.583Z</time>
      </trkpt>
      <trkpt lat="41.36776" lon="19.59464">
        <ele>59.074068</ele>
        <time>2022-05-06T09:57:19.535Z</time>
      </trkpt>
      <trkpt lat="41.36779" lon="19.59476">
        <ele>59.090326</ele>
        <time>2022-05-06T09:57:21.539Z</time>
      </trkpt>
      <trkpt lat="41.36783" lon="19.59489">
        <ele>59.106623</ele>
        <time>2022-05-06T09:57:23.544Z</time>
      </trkpt>
      <trkpt lat="41.36786" lon="19.59501">
        <ele>59.122411</ele>
        <time>2022-05-06T09:57:25.563Z</time>
      </trkpt>
      <trkpt lat="41.3679" lon="19.59513">
        <ele>59.138199</ele>
        <time>2022-05-06T09:57:27.554Z</time>
      </trkpt>
      <trkpt lat="41.36793" lon="19.59526">
        <ele>59.154609</ele>
        <time>2022-05-06T09:57:29.531Z</time>
      </trkpt>
      <trkpt lat="41.36798" lon="19.59538">
        <ele>59.170248</ele>
        <time>2022-05-06T09:57:31.540Z</time>
      </trkpt>
      <trkpt lat="41.36801" lon="19.5955">
        <ele>59.186094</ele>
        <time>2022-05-06T09:57:33.538Z</time>
      </trkpt>
      <trkpt lat="41.36805" lon="19.59562">
        <ele>59.202053</ele>
        <time>2022-05-06T09:57:35.533Z</time>
      </trkpt>
      <trkpt lat="41.36808" lon="19.59574">
        <ele>59.217219</ele>
        <time>2022-05-06T09:57:37.551Z</time>
      </trkpt>
      <trkpt lat="41.36811" lon="19.59586">
        <ele>59.23199</ele>
        <time>2022-05-06T09:57:39.535Z</time>
      </trkpt>
      <trkpt lat="41.36814" lon="19.59597">
        <ele>59.247098</ele>
        <time>2022-05-06T09:57:41.562Z</time>
      </trkpt>
      <trkpt lat="41.36818" lon="19.59609">
        <ele>59.314224</ele>
        <time>2022-05-06T09:57:43.536Z</time>
      </trkpt>
      <trkpt lat="41.36821" lon="19.5962">
        <ele>59.473332</ele>
        <time>2022-05-06T09:57:45.545Z</time>
      </trkpt>
      <trkpt lat="41.36824" lon="19.59632">
        <ele>59.632377</ele>
        <time>2022-05-06T09:57:47.536Z</time>
      </trkpt>
      <trkpt lat="41.36827" lon="19.59643">
        <ele>59.797043</ele>
        <time>2022-05-06T09:57:49.531Z</time>
      </trkpt>
      <trkpt lat="41.36831" lon="19.59655">
        <ele>59.963632</ele>
        <time>2022-05-06T09:57:51.531Z</time>
      </trkpt>
      <trkpt lat="41.36835" lon="19.59666">
        <ele>60.126033</ele>
        <time>2022-05-06T09:57:53.535Z</time>
      </trkpt>
      <trkpt lat="41.36839" lon="19.59677">
        <ele>60.28825</ele>
        <time>2022-05-06T09:57:55.553Z</time>
      </trkpt>
      <trkpt lat="41.36844" lon="19.59693">
        <ele>60.522511</ele>
        <time>2022-05-06T09:57:58.538Z</time>
      </trkpt>
      <trkpt lat="41.36848" lon="19.5971">
        <ele>60.750514</ele>
        <time>2022-05-06T09:58:01.535Z</time>
      </trkpt>
      <trkpt lat="41.36853" lon="19.59725">
        <ele>60.971717</ele>
        <time>2022-05-06T09:58:04.554Z</time>
      </trkpt>
      <trkpt lat="41.36857" lon="19.59741">
        <ele>61.201604</ele>
        <time>2022-05-06T09:58:07.536Z</time>
      </trkpt>
      <trkpt lat="41.36862" lon="19.59758">
        <ele>61.434068</ele>
        <time>2022-05-06T09:58:10.568Z</time>
      </trkpt>
      <trkpt lat="41.36867" lon="19.59774">
        <ele>61.667899</ele>
        <time>2022-05-06T09:58:13.535Z</time>
      </trkpt>
      <trkpt lat="41.36872" lon="19.5979">
        <ele>61.901731</ele>
        <time>2022-05-06T09:58:16.556Z</time>
      </trkpt>
      <trkpt lat="41.36877" lon="19.59805">
        <ele>62.122288</ele>
        <time>2022-05-06T09:58:19.528Z</time>
      </trkpt>
      <trkpt lat="41.36881" lon="19.59819">
        <ele>62.321814</ele>
        <time>2022-05-06T09:58:22.542Z</time>
      </trkpt>
      <trkpt lat="41.36886" lon="19.59834">
        <ele>62.436386</ele>
        <time>2022-05-06T09:58:25.527Z</time>
      </trkpt>
      <trkpt lat="41.3689" lon="19.59848">
        <ele>62.432653</ele>
        <time>2022-05-06T09:58:28.523Z</time>
      </trkpt>
      <trkpt lat="41.36894" lon="19.59863">
        <ele>62.42878</ele>
        <time>2022-05-06T09:58:31.526Z</time>
      </trkpt>
      <trkpt lat="41.369" lon="19.59878">
        <ele>62.42475</ele>
        <time>2022-05-06T09:58:34.535Z</time>
      </trkpt>
      <trkpt lat="41.36905" lon="19.59893">
        <ele>62.420798</ele>
        <time>2022-05-06T09:58:37.535Z</time>
      </trkpt>
      <trkpt lat="41.3691" lon="19.59908">
        <ele>62.41679</ele>
        <time>2022-05-06T09:58:40.543Z</time>
      </trkpt>
      <trkpt lat="41.36914" lon="19.59923">
        <ele>62.412943</ele>
        <time>2022-05-06T09:58:43.550Z</time>
      </trkpt>
      <trkpt lat="41.36919" lon="19.59938">
        <ele>62.409118</ele>
        <time>2022-05-06T09:58:46.566Z</time>
      </trkpt>
      <trkpt lat="41.36923" lon="19.59951">
        <ele>62.405541</ele>
        <time>2022-05-06T09:58:49.538Z</time>
      </trkpt>
      <trkpt lat="41.36927" lon="19.59966">
        <ele>62.401784</ele>
        <time>2022-05-06T09:58:52.536Z</time>
      </trkpt>
      <trkpt lat="41.36931" lon="19.59981">
        <ele>62.398006</ele>
        <time>2022-05-06T09:58:55.547Z</time>
      </trkpt>
      <trkpt lat="41.36936" lon="19.59995">
        <ele>62.394305</ele>
        <time>2022-05-06T09:58:58.539Z</time>
      </trkpt>
      <trkpt lat="41.36941" lon="19.60008">
        <ele>62.390768</ele>
        <time>2022-05-06T09:59:01.568Z</time>
      </trkpt>
      <trkpt lat="41.36945" lon="19.60022">
        <ele>62.387145</ele>
        <time>2022-05-06T09:59:04.553Z</time>
      </trkpt>
      <trkpt lat="41.36949" lon="19.60036">
        <ele>62.383603</ele>
        <time>2022-05-06T09:59:07.543Z</time>
      </trkpt>
      <trkpt lat="41.36953" lon="19.60049">
        <ele>62.38799</ele>
        <time>2022-05-06T09:59:10.535Z</time>
      </trkpt>
      <trkpt lat="41.36957" lon="19.60063">
        <ele>62.668465</ele>
        <time>2022-05-06T09:59:13.536Z</time>
      </trkpt>
      <trkpt lat="41.36961" lon="19.60076">
        <ele>62.943469</ele>
        <time>2022-05-06T09:59:16.526Z</time>
      </trkpt>
      <trkpt lat="41.36965" lon="19.6009">
        <ele>63.22816</ele>
        <time>2022-05-06T09:59:19.534Z</time>
      </trkpt>
      <trkpt lat="41.36969" lon="19.60105">
        <ele>63.526815</ele>
        <time>2022-05-06T09:59:22.558Z</time>
      </trkpt>
      <trkpt lat="41.36974" lon="19.60119">
        <ele>63.813255</ele>
        <time>2022-05-06T09:59:25.545Z</time>
      </trkpt>
      <trkpt lat="41.36978" lon="19.60134">
        <ele>64.129683</ele>
        <time>2022-05-06T09:59:29.535Z</time>
      </trkpt>
      <trkpt lat="41.36982" lon="19.60149">
        <ele>64.41427</ele>
        <time>2022-05-06T09:59:32.538Z</time>
      </trkpt>
      <trkpt lat="41.36986" lon="19.60163">
        <ele>64.705192</ele>
        <time>2022-05-06T09:59:35.525Z</time>
      </trkpt>
      <trkpt lat="41.3699" lon="19.60177">
        <ele>64.9914</ele>
        <time>2022-05-06T09:59:38.552Z</time>
      </trkpt>
      <trkpt lat="41.36994" lon="19.60191">
        <ele>65.278601</ele>
        <time>2022-05-06T09:59:41.579Z</time>
      </trkpt>
      <trkpt lat="41.36999" lon="19.60206">
        <ele>65.581987</ele>
        <time>2022-05-06T09:59:44.540Z</time>
      </trkpt>
      <trkpt lat="41.37002" lon="19.6022">
        <ele>65.867309</ele>
        <time>2022-05-06T09:59:47.536Z</time>
      </trkpt>
      <trkpt lat="41.37007" lon="19.60234">
        <ele>66.165235</ele>
        <time>2022-05-06T09:59:50.535Z</time>
      </trkpt>
      <trkpt lat="41.37012" lon="19.60249">
        <ele>66.471363</ele>
        <time>2022-05-06T09:59:53.541Z</time>
      </trkpt>
      <trkpt lat="41.37016" lon="19.60264">
        <ele>66.772696</ele>
        <time>2022-05-06T09:59:56.542Z</time>
      </trkpt>
      <trkpt lat="41.3702" lon="19.60277">
        <ele>67.039552</ele>
        <time>2022-05-06T09:59:59.547Z</time>
      </trkpt>
      <trkpt lat="41.37025" lon="19.60292">
        <ele>67.330934</ele>
        <time>2022-05-06T10:00:02.527Z</time>
      </trkpt>
      <trkpt lat="41.3703" lon="19.60307">
        <ele>67.626547</ele>
        <time>2022-05-06T10:00:05.537Z</time>
      </trkpt>
      <trkpt lat="41.37034" lon="19.60322">
        <ele>67.913278</ele>
        <time>2022-05-06T10:00:08.544Z</time>
      </trkpt>
      <trkpt lat="41.37039" lon="19.60337">
        <ele>68.190342</ele>
        <time>2022-05-06T10:00:11.577Z</time>
      </trkpt>
      <trkpt lat="41.37044" lon="19.6035">
        <ele>68.462513</ele>
        <time>2022-05-06T10:00:14.586Z</time>
      </trkpt>
      <trkpt lat="41.37048" lon="19.60363">
        <ele>68.701627</ele>
        <time>2022-05-06T10:00:19.543Z</time>
      </trkpt>
      <trkpt lat="41.37052" lon="19.60377">
        <ele>68.976608</ele>
        <time>2022-05-06T10:00:23.536Z</time>
      </trkpt>
      <trkpt lat="41.37056" lon="19.60391">
        <ele>69.23514</ele>
        <time>2022-05-06T10:00:26.532Z</time>
      </trkpt>
      <trkpt lat="41.3706" lon="19.60404">
        <ele>69.496788</ele>
        <time>2022-05-06T10:00:29.540Z</time>
      </trkpt>
      <trkpt lat="41.37064" lon="19.60417">
        <ele>69.737555</ele>
        <time>2022-05-06T10:00:32.546Z</time>
      </trkpt>
      <trkpt lat="41.37068" lon="19.6043">
        <ele>69.996627</ele>
        <time>2022-05-06T10:00:35.531Z</time>
      </trkpt>
      <trkpt lat="41.37072" lon="19.60443">
        <ele>70.245804</ele>
        <time>2022-05-06T10:00:38.533Z</time>
      </trkpt>
      <trkpt lat="41.37075" lon="19.60457">
        <ele>70.504056</ele>
        <time>2022-05-06T10:00:41.591Z</time>
      </trkpt>
      <trkpt lat="41.3708" lon="19.60472">
        <ele>70.790786</ele>
        <time>2022-05-06T10:00:44.551Z</time>
      </trkpt>
      <trkpt lat="41.37084" lon="19.60486">
        <ele>71.070178</ele>
        <time>2022-05-06T10:00:47.551Z</time>
      </trkpt>
      <trkpt lat="41.37089" lon="19.60499">
        <ele>71.220218</ele>
        <time>2022-05-06T10:00:50.542Z</time>
      </trkpt>
      <trkpt lat="41.37092" lon="19.60515">
        <ele>71.246029</ele>
        <time>2022-05-06T10:00:53.550Z</time>
      </trkpt>
      <trkpt lat="41.37094" lon="19.60527">
        <ele>71.266227</ele>
        <time>2022-05-06T10:00:55.533Z</time>
      </trkpt>
      <trkpt lat="41.37096" lon="19.60544">
        <ele>71.292187</ele>
        <time>2022-05-06T10:00:58.577Z</time>
      </trkpt>
      <trkpt lat="41.37097" lon="19.60557">
        <ele>71.313745</ele>
        <time>2022-05-06T10:01:01.535Z</time>
      </trkpt>
      <trkpt lat="41.37098" lon="19.60573">
        <ele>71.339749</ele>
        <time>2022-05-06T10:01:05.535Z</time>
      </trkpt>
      <trkpt lat="41.37097" lon="19.60588">
        <ele>71.363222</ele>
        <time>2022-05-06T10:01:08.548Z</time>
      </trkpt>
      <trkpt lat="41.37096" lon="19.60603">
        <ele>71.386755</ele>
        <time>2022-05-06T10:01:11.532Z</time>
      </trkpt>
      <trkpt lat="41.37097" lon="19.60618">
        <ele>71.411177</ele>
        <time>2022-05-06T10:01:14.534Z</time>
      </trkpt>
      <trkpt lat="41.37097" lon="19.60634">
        <ele>71.435739</ele>
        <time>2022-05-06T10:01:17.544Z</time>
      </trkpt>
      <trkpt lat="41.371" lon="19.60647">
        <ele>71.457108</ele>
        <time>2022-05-06T10:01:20.517Z</time>
      </trkpt>
      <trkpt lat="41.371" lon="19.60659">
        <ele>71.476142</ele>
        <time>2022-05-06T10:01:23.536Z</time>
      </trkpt>
      <trkpt lat="41.371" lon="19.60677">
        <ele>71.504016</ele>
        <time>2022-05-06T10:01:26.533Z</time>
      </trkpt>
      <trkpt lat="41.37102" lon="19.60689">
        <ele>71.524188</ele>
        <time>2022-05-06T10:01:28.549Z</time>
      </trkpt>
      <trkpt lat="41.37104" lon="19.60701">
        <ele>71.543209</ele>
        <time>2022-05-06T10:01:30.549Z</time>
      </trkpt>
      <trkpt lat="41.37107" lon="19.60713">
        <ele>71.562873</ele>
        <time>2022-05-06T10:01:32.534Z</time>
      </trkpt>
      <trkpt lat="41.37111" lon="19.6073">
        <ele>71.554392</ele>
        <time>2022-05-06T10:01:35.540Z</time>
      </trkpt>
      <trkpt lat="41.37113" lon="19.60742">
        <ele>71.182968</ele>
        <time>2022-05-06T10:01:37.547Z</time>
      </trkpt>
      <trkpt lat="41.37116" lon="19.60759">
        <ele>70.677218</ele>
        <time>2022-05-06T10:01:40.546Z</time>
      </trkpt>
      <trkpt lat="41.37119" lon="19.60776">
        <ele>70.171468</ele>
        <time>2022-05-06T10:01:43.564Z</time>
      </trkpt>
      <trkpt lat="41.37122" lon="19.60787">
        <ele>69.8113</ele>
        <time>2022-05-06T10:01:45.574Z</time>
      </trkpt>
      <trkpt lat="41.37124" lon="19.608">
        <ele>69.44558</ele>
        <time>2022-05-06T10:01:47.535Z</time>
      </trkpt>
      <trkpt lat="41.37126" lon="19.60811">
        <ele>69.087565</ele>
        <time>2022-05-06T10:01:49.543Z</time>
      </trkpt>
      <trkpt lat="41.37128" lon="19.60824">
        <ele>68.719169</ele>
        <time>2022-05-06T10:01:51.536Z</time>
      </trkpt>
      <trkpt lat="41.3713" lon="19.60835">
        <ele>68.362123</ele>
        <time>2022-05-06T10:01:53.571Z</time>
      </trkpt>
      <trkpt lat="41.37134" lon="19.60853">
        <ele>67.84692</ele>
        <time>2022-05-06T10:01:56.558Z</time>
      </trkpt>
      <trkpt lat="41.37137" lon="19.6087">
        <ele>67.327945</ele>
        <time>2022-05-06T10:01:59.550Z</time>
      </trkpt>
      <trkpt lat="41.3714" lon="19.60887">
        <ele>66.816496</ele>
        <time>2022-05-06T10:02:02.543Z</time>
      </trkpt>
      <trkpt lat="41.37143" lon="19.60903">
        <ele>66.321198</ele>
        <time>2022-05-06T10:02:05.549Z</time>
      </trkpt>
      <trkpt lat="41.37146" lon="19.60919">
        <ele>65.851416</ele>
        <time>2022-05-06T10:02:08.544Z</time>
      </trkpt>
      <trkpt lat="41.37148" lon="19.60935">
        <ele>65.361311</ele>
        <time>2022-05-06T10:02:11.529Z</time>
      </trkpt>
      <trkpt lat="41.37152" lon="19.60953">
        <ele>64.834715</ele>
        <time>2022-05-06T10:02:14.565Z</time>
      </trkpt>
      <trkpt lat="41.37155" lon="19.6097">
        <ele>64.668045</ele>
        <time>2022-05-06T10:02:17.534Z</time>
      </trkpt>
      <trkpt lat="41.37158" lon="19.60987">
        <ele>64.865527</ele>
        <time>2022-05-06T10:02:20.529Z</time>
      </trkpt>
      <trkpt lat="41.37161" lon="19.61004">
        <ele>65.060483</ele>
        <time>2022-05-06T10:02:23.559Z</time>
      </trkpt>
      <trkpt lat="41.37163" lon="19.6102">
        <ele>65.249185</ele>
        <time>2022-05-06T10:02:26.570Z</time>
      </trkpt>
      <trkpt lat="41.37167" lon="19.61036">
        <ele>65.436419</ele>
        <time>2022-05-06T10:02:29.533Z</time>
      </trkpt>
      <trkpt lat="41.3717" lon="19.61052">
        <ele>65.615643</ele>
        <time>2022-05-06T10:02:32.542Z</time>
      </trkpt>
      <trkpt lat="41.37173" lon="19.61068">
        <ele>65.811789</ele>
        <time>2022-05-06T10:02:35.547Z</time>
      </trkpt>
      <trkpt lat="41.37176" lon="19.61084">
        <ele>65.998656</ele>
        <time>2022-05-06T10:02:38.534Z</time>
      </trkpt>
      <trkpt lat="41.37178" lon="19.61098">
        <ele>66.154271</ele>
        <time>2022-05-06T10:02:41.548Z</time>
      </trkpt>
      <trkpt lat="41.37181" lon="19.61113">
        <ele>66.328648</ele>
        <time>2022-05-06T10:02:44.543Z</time>
      </trkpt>
      <trkpt lat="41.37183" lon="19.61129">
        <ele>66.50803</ele>
        <time>2022-05-06T10:02:47.535Z</time>
      </trkpt>
      <trkpt lat="41.37185" lon="19.61143">
        <ele>66.667748</ele>
        <time>2022-05-06T10:02:50.552Z</time>
      </trkpt>
      <trkpt lat="41.37187" lon="19.61157">
        <ele>66.83084</ele>
        <time>2022-05-06T10:02:53.534Z</time>
      </trkpt>
      <trkpt lat="41.3719" lon="19.61173">
        <ele>67.017006</ele>
        <time>2022-05-06T10:02:56.528Z</time>
      </trkpt>
      <trkpt lat="41.37192" lon="19.61189">
        <ele>67.205821</ele>
        <time>2022-05-06T10:02:59.533Z</time>
      </trkpt>
      <trkpt lat="41.37195" lon="19.61205">
        <ele>67.399106</ele>
        <time>2022-05-06T10:03:02.579Z</time>
      </trkpt>
      <trkpt lat="41.37197" lon="19.6122">
        <ele>67.595043</ele>
        <time>2022-05-06T10:03:05.528Z</time>
      </trkpt>
      <trkpt lat="41.372" lon="19.61235">
        <ele>67.786867</ele>
        <time>2022-05-06T10:03:08.534Z</time>
      </trkpt>
      <trkpt lat="41.37202" lon="19.6125">
        <ele>67.967517</ele>
        <time>2022-05-06T10:03:11.548Z</time>
      </trkpt>
      <trkpt lat="41.37205" lon="19.61264">
        <ele>68.150107</ele>
        <time>2022-05-06T10:03:14.566Z</time>
      </trkpt>
      <trkpt lat="41.37208" lon="19.61279">
        <ele>68.338305</ele>
        <time>2022-05-06T10:03:17.551Z</time>
      </trkpt>
      <trkpt lat="41.37211" lon="19.61294">
        <ele>68.539121</ele>
        <time>2022-05-06T10:03:20.532Z</time>
      </trkpt>
      <trkpt lat="41.37213" lon="19.61309">
        <ele>68.724984</ele>
        <time>2022-05-06T10:03:23.548Z</time>
      </trkpt>
      <trkpt lat="41.37216" lon="19.61323">
        <ele>68.907956</ele>
        <time>2022-05-06T10:03:26.551Z</time>
      </trkpt>
      <trkpt lat="41.37219" lon="19.61337">
        <ele>69.09012</ele>
        <time>2022-05-06T10:03:29.529Z</time>
      </trkpt>
      <trkpt lat="41.37221" lon="19.61352">
        <ele>69.273921</ele>
        <time>2022-05-06T10:03:32.563Z</time>
      </trkpt>
      <trkpt lat="41.37223" lon="19.61366">
        <ele>69.451794</ele>
        <time>2022-05-06T10:03:35.592Z</time>
      </trkpt>
      <trkpt lat="41.37229" lon="19.6138">
        <ele>69.655721</ele>
        <time>2022-05-06T10:03:38.541Z</time>
      </trkpt>
      <trkpt lat="41.37236" lon="19.61393">
        <ele>69.850697</ele>
        <time>2022-05-06T10:03:41.547Z</time>
      </trkpt>
      <trkpt lat="41.37242" lon="19.61406">
        <ele>70.042415</ele>
        <time>2022-05-06T10:03:44.543Z</time>
      </trkpt>
      <trkpt lat="41.37248" lon="19.61422">
        <ele>70.243253</ele>
        <time>2022-05-06T10:03:47.526Z</time>
      </trkpt>
      <trkpt lat="41.37255" lon="19.61437">
        <ele>70.092004</ele>
        <time>2022-05-06T10:03:50.528Z</time>
      </trkpt>
      <trkpt lat="41.37261" lon="19.6145">
        <ele>69.956057</ele>
        <time>2022-05-06T10:03:53.517Z</time>
      </trkpt>
      <trkpt lat="41.37268" lon="19.61465">
        <ele>69.806041</ele>
        <time>2022-05-06T10:03:56.526Z</time>
      </trkpt>
      <trkpt lat="41.37274" lon="19.61478">
        <ele>69.664981</ele>
        <time>2022-05-06T10:03:59.532Z</time>
      </trkpt>
      <trkpt lat="41.37281" lon="19.61492">
        <ele>69.523295</ele>
        <time>2022-05-06T10:04:02.530Z</time>
      </trkpt>
      <trkpt lat="41.37287" lon="19.61505">
        <ele>69.392399</ele>
        <time>2022-05-06T10:04:05.546Z</time>
      </trkpt>
      <trkpt lat="41.37293" lon="19.61519">
        <ele>69.2511</ele>
        <time>2022-05-06T10:04:08.543Z</time>
      </trkpt>
      <trkpt lat="41.373" lon="19.61533">
        <ele>69.102533</ele>
        <time>2022-05-06T10:04:11.551Z</time>
      </trkpt>
      <trkpt lat="41.37307" lon="19.61547">
        <ele>68.955955</ele>
        <time>2022-05-06T10:04:14.531Z</time>
      </trkpt>
      <trkpt lat="41.37315" lon="19.61562">
        <ele>68.802752</ele>
        <time>2022-05-06T10:04:17.542Z</time>
      </trkpt>
      <trkpt lat="41.3732" lon="19.61572">
        <ele>68.696962</ele>
        <time>2022-05-06T10:04:19.527Z</time>
      </trkpt>
      <trkpt lat="41.37327" lon="19.61587">
        <ele>68.545995</ele>
        <time>2022-05-06T10:04:22.534Z</time>
      </trkpt>
      <trkpt lat="41.37334" lon="19.61602">
        <ele>68.391331</ele>
        <time>2022-05-06T10:04:25.539Z</time>
      </trkpt>
      <trkpt lat="41.37338" lon="19.61613">
        <ele>68.286978</ele>
        <time>2022-05-06T10:04:27.539Z</time>
      </trkpt>
      <trkpt lat="41.37342" lon="19.61624">
        <ele>68.183653</ele>
        <time>2022-05-06T10:04:29.547Z</time>
      </trkpt>
      <trkpt lat="41.37346" lon="19.61634">
        <ele>68.256333</ele>
        <time>2022-05-06T10:04:31.555Z</time>
      </trkpt>
      <trkpt lat="41.37353" lon="19.6165">
        <ele>68.384884</ele>
        <time>2022-05-06T10:04:34.553Z</time>
      </trkpt>
      <trkpt lat="41.3736" lon="19.61663">
        <ele>68.506192</ele>
        <time>2022-05-06T10:04:37.538Z</time>
      </trkpt>
      <trkpt lat="41.37366" lon="19.61676">
        <ele>68.620366</ele>
        <time>2022-05-06T10:04:40.531Z</time>
      </trkpt>
      <trkpt lat="41.37373" lon="19.61691">
        <ele>68.743099</ele>
        <time>2022-05-06T10:04:43.528Z</time>
      </trkpt>
      <trkpt lat="41.37379" lon="19.61706">
        <ele>68.872451</ele>
        <time>2022-05-06T10:04:46.540Z</time>
      </trkpt>
      <trkpt lat="41.37386" lon="19.61721">
        <ele>69.002868</ele>
        <time>2022-05-06T10:04:49.534Z</time>
      </trkpt>
      <trkpt lat="41.37391" lon="19.61731">
        <ele>69.094636</ele>
        <time>2022-05-06T10:04:51.529Z</time>
      </trkpt>
      <trkpt lat="41.37396" lon="19.61742">
        <ele>69.183626</ele>
        <time>2022-05-06T10:04:53.534Z</time>
      </trkpt>
      <trkpt lat="41.37402" lon="19.61752">
        <ele>69.277074</ele>
        <time>2022-05-06T10:04:55.527Z</time>
      </trkpt>
      <trkpt lat="41.37408" lon="19.61762">
        <ele>69.369939</ele>
        <time>2022-05-06T10:04:57.546Z</time>
      </trkpt>
      <trkpt lat="41.37415" lon="19.61777">
        <ele>69.498925</ele>
        <time>2022-05-06T10:05:00.544Z</time>
      </trkpt>
      <trkpt lat="41.37422" lon="19.61792">
        <ele>69.627577</ele>
        <time>2022-05-06T10:05:03.551Z</time>
      </trkpt>
      <trkpt lat="41.37429" lon="19.61805">
        <ele>69.745831</ele>
        <time>2022-05-06T10:05:06.537Z</time>
      </trkpt>
      <trkpt lat="41.37435" lon="19.6182">
        <ele>69.875229</ele>
        <time>2022-05-06T10:05:09.538Z</time>
      </trkpt>
      <trkpt lat="41.3744" lon="19.6183">
        <ele>69.915687</ele>
        <time>2022-05-06T10:05:11.530Z</time>
      </trkpt>
      <trkpt lat="41.37447" lon="19.61844">
        <ele>69.831862</ele>
        <time>2022-05-06T10:05:14.549Z</time>
      </trkpt>
      <trkpt lat="41.37452" lon="19.61858">
        <ele>69.756333</ele>
        <time>2022-05-06T10:05:17.536Z</time>
      </trkpt>
      <trkpt lat="41.37459" lon="19.61872">
        <ele>69.67362</ele>
        <time>2022-05-06T10:05:20.528Z</time>
      </trkpt>
      <trkpt lat="41.37466" lon="19.61886">
        <ele>69.59124</ele>
        <time>2022-05-06T10:05:23.532Z</time>
      </trkpt>
      <trkpt lat="41.37473" lon="19.619">
        <ele>69.504161</ele>
        <time>2022-05-06T10:05:26.552Z</time>
      </trkpt>
      <trkpt lat="41.37479" lon="19.61911">
        <ele>69.43754</ele>
        <time>2022-05-06T10:05:28.539Z</time>
      </trkpt>
      <trkpt lat="41.37484" lon="19.61922">
        <ele>69.373563</ele>
        <time>2022-05-06T10:05:30.570Z</time>
      </trkpt>
      <trkpt lat="41.3749" lon="19.61937">
        <ele>69.289565</ele>
        <time>2022-05-06T10:05:33.531Z</time>
      </trkpt>
      <trkpt lat="41.37495" lon="19.6195">
        <ele>69.213689</ele>
        <time>2022-05-06T10:05:36.534Z</time>
      </trkpt>
      <trkpt lat="41.37501" lon="19.61963">
        <ele>69.138215</ele>
        <time>2022-05-06T10:05:39.532Z</time>
      </trkpt>
      <trkpt lat="41.37507" lon="19.61976">
        <ele>69.066658</ele>
        <time>2022-05-06T10:05:42.535Z</time>
      </trkpt>
      <trkpt lat="41.37512" lon="19.61988">
        <ele>68.998421</ele>
        <time>2022-05-06T10:05:45.549Z</time>
      </trkpt>
      <trkpt lat="41.37518" lon="19.62001">
        <ele>68.920166</ele>
        <time>2022-05-06T10:05:48.545Z</time>
      </trkpt>
      <trkpt lat="41.37524" lon="19.62015">
        <ele>68.839743</ele>
        <time>2022-05-06T10:05:51.556Z</time>
      </trkpt>
      <trkpt lat="41.37531" lon="19.62029">
        <ele>68.757729</ele>
        <time>2022-05-06T10:05:54.599Z</time>
      </trkpt>
      <trkpt lat="41.37538" lon="19.62043">
        <ele>68.925306</ele>
        <time>2022-05-06T10:05:57.538Z</time>
      </trkpt>
      <trkpt lat="41.37544" lon="19.62056">
        <ele>69.124918</ele>
        <time>2022-05-06T10:06:00.549Z</time>
      </trkpt>
      <trkpt lat="41.37551" lon="19.62069">
        <ele>69.321134</ele>
        <time>2022-05-06T10:06:03.524Z</time>
      </trkpt>
      <trkpt lat="41.37556" lon="19.62081">
        <ele>69.49994</ele>
        <time>2022-05-06T10:06:06.554Z</time>
      </trkpt>
      <trkpt lat="41.37561" lon="19.62092">
        <ele>69.66876</ele>
        <time>2022-05-06T10:06:09.541Z</time>
      </trkpt>
      <trkpt lat="41.37566" lon="19.62103">
        <ele>69.838016</ele>
        <time>2022-05-06T10:06:12.524Z</time>
      </trkpt>
      <trkpt lat="41.37572" lon="19.62114">
        <ele>70.001287</ele>
        <time>2022-05-06T10:06:15.539Z</time>
      </trkpt>
      <trkpt lat="41.37577" lon="19.62124">
        <ele>70.160317</ele>
        <time>2022-05-06T10:06:18.547Z</time>
      </trkpt>
      <trkpt lat="41.37583" lon="19.62134">
        <ele>70.327504</ele>
        <time>2022-05-06T10:06:21.533Z</time>
      </trkpt>
      <trkpt lat="41.37589" lon="19.62147">
        <ele>70.516318</ele>
        <time>2022-05-06T10:06:25.553Z</time>
      </trkpt>
      <trkpt lat="41.37592" lon="19.62158">
        <ele>70.671744</ele>
        <time>2022-05-06T10:06:28.583Z</time>
      </trkpt>
      <trkpt lat="41.37597" lon="19.6217">
        <ele>70.851332</ele>
        <time>2022-05-06T10:06:31.549Z</time>
      </trkpt>
      <trkpt lat="41.37603" lon="19.62182">
        <ele>71.028954</ele>
        <time>2022-05-06T10:06:34.534Z</time>
      </trkpt>
      <trkpt lat="41.37608" lon="19.62192">
        <ele>71.186876</ele>
        <time>2022-05-06T10:06:37.532Z</time>
      </trkpt>
      <trkpt lat="41.37613" lon="19.62206">
        <ele>71.390561</ele>
        <time>2022-05-06T10:06:41.543Z</time>
      </trkpt>
      <trkpt lat="41.37618" lon="19.62217">
        <ele>71.543078</ele>
        <time>2022-05-06T10:06:44.535Z</time>
      </trkpt>
      <trkpt lat="41.37624" lon="19.62229">
        <ele>71.728044</ele>
        <time>2022-05-06T10:06:48.530Z</time>
      </trkpt>
      <trkpt lat="41.3763" lon="19.62241">
        <ele>71.902636</ele>
        <time>2022-05-06T10:06:52.542Z</time>
      </trkpt>
      <trkpt lat="41.37635" lon="19.62252">
        <ele>72.069235</ele>
        <time>2022-05-06T10:06:56.531Z</time>
      </trkpt>
      <trkpt lat="41.3764" lon="19.62263">
        <ele>72.212789</ele>
        <time>2022-05-06T10:06:59.546Z</time>
      </trkpt>
      <trkpt lat="41.37645" lon="19.62273">
        <ele>72.360548</ele>
        <time>2022-05-06T10:07:02.560Z</time>
      </trkpt>
      <trkpt lat="41.37654" lon="19.62279">
        <ele>72.521749</ele>
        <time>2022-05-06T10:07:06.526Z</time>
      </trkpt>
      <trkpt lat="41.37664" lon="19.62281">
        <ele>72.69053</ele>
        <time>2022-05-06T10:07:10.535Z</time>
      </trkpt>
      <trkpt lat="41.37674" lon="19.62275">
        <ele>72.861958</ele>
        <time>2022-05-06T10:07:15.542Z</time>
      </trkpt>
      <trkpt lat="41.37679" lon="19.62264">
        <ele>73.010843</ele>
        <time>2022-05-06T10:10:22.538Z</time>
      </trkpt>
      <trkpt lat="41.37664" lon="19.62271">
        <ele>73.263734</ele>
        <time>2022-05-06T10:32:04.556Z</time>
      </trkpt>
      <trkpt lat="41.37658" lon="19.62279">
        <ele>73.408997</ele>
        <time>2022-05-06T10:32:10.543Z</time>
      </trkpt>
      <trkpt lat="41.37659" lon="19.62293">
        <ele>73.574821</ele>
        <time>2022-05-06T10:32:17.536Z</time>
      </trkpt>
      <trkpt lat="41.37665" lon="19.62314">
        <ele>73.840385</ele>
        <time>2022-05-06T10:32:21.543Z</time>
      </trkpt>
      <trkpt lat="41.37671" lon="19.62328">
        <ele>74.03087</ele>
        <time>2022-05-06T10:32:25.544Z</time>
      </trkpt>
      <trkpt lat="41.37676" lon="19.6234">
        <ele>74.20698</ele>
        <time>2022-05-06T10:32:29.548Z</time>
      </trkpt>
      <trkpt lat="41.37684" lon="19.62352">
        <ele>74.390255</ele>
        <time>2022-05-06T10:32:33.594Z</time>
      </trkpt>
      <trkpt lat="41.37689" lon="19.62365">
        <ele>74.562259</ele>
        <time>2022-05-06T10:32:37.559Z</time>
      </trkpt>
      <trkpt lat="41.37694" lon="19.62378">
        <ele>74.651783</ele>
        <time>2022-05-06T10:32:41.557Z</time>
      </trkpt>
      <trkpt lat="41.377" lon="19.62388">
        <ele>74.549448</ele>
        <time>2022-05-06T10:32:44.556Z</time>
      </trkpt>
      <trkpt lat="41.37707" lon="19.62398">
        <ele>74.437753</ele>
        <time>2022-05-06T10:32:47.547Z</time>
      </trkpt>
      <trkpt lat="41.37715" lon="19.62407">
        <ele>74.321432</ele>
        <time>2022-05-06T10:32:50.556Z</time>
      </trkpt>
      <trkpt lat="41.37723" lon="19.62416">
        <ele>74.205346</ele>
        <time>2022-05-06T10:32:53.557Z</time>
      </trkpt>
      <trkpt lat="41.37732" lon="19.62425">
        <ele>74.077316</ele>
        <time>2022-05-06T10:32:56.538Z</time>
      </trkpt>
      <trkpt lat="41.37742" lon="19.62435">
        <ele>73.941421</ele>
        <time>2022-05-06T10:32:59.529Z</time>
      </trkpt>
      <trkpt lat="41.37753" lon="19.62445">
        <ele>73.791512</ele>
        <time>2022-05-06T10:33:02.550Z</time>
      </trkpt>
      <trkpt lat="41.3776" lon="19.62453">
        <ele>73.685271</ele>
        <time>2022-05-06T10:33:04.562Z</time>
      </trkpt>
      <trkpt lat="41.37768" lon="19.6246">
        <ele>73.577637</ele>
        <time>2022-05-06T10:33:06.549Z</time>
      </trkpt>
      <trkpt lat="41.37776" lon="19.62468">
        <ele>73.468611</ele>
        <time>2022-05-06T10:33:08.556Z</time>
      </trkpt>
      <trkpt lat="41.37784" lon="19.62476">
        <ele>73.357349</ele>
        <time>2022-05-06T10:33:10.539Z</time>
      </trkpt>
      <trkpt lat="41.37792" lon="19.62484">
        <ele>73.245432</ele>
        <time>2022-05-06T10:33:12.563Z</time>
      </trkpt>
      <trkpt lat="41.37801" lon="19.62492">
        <ele>73.120252</ele>
        <time>2022-05-06T10:33:14.549Z</time>
      </trkpt>
      <trkpt lat="41.3781" lon="19.62501">
        <ele>72.996803</ele>
        <time>2022-05-06T10:33:16.586Z</time>
      </trkpt>
      <trkpt lat="41.37818" lon="19.62509">
        <ele>72.886279</ele>
        <time>2022-05-06T10:33:18.542Z</time>
      </trkpt>
      <trkpt lat="41.37826" lon="19.62516">
        <ele>72.782907</ele>
        <time>2022-05-06T10:33:20.558Z</time>
      </trkpt>
      <trkpt lat="41.37834" lon="19.62523">
        <ele>72.684378</ele>
        <time>2022-05-06T10:33:22.549Z</time>
      </trkpt>
      <trkpt lat="41.37842" lon="19.62532">
        <ele>72.656273</ele>
        <time>2022-05-06T10:33:24.563Z</time>
      </trkpt>
      <trkpt lat="41.3785" lon="19.6254">
        <ele>72.628942</ele>
        <time>2022-05-06T10:33:26.559Z</time>
      </trkpt>
      <trkpt lat="41.37861" lon="19.62551">
        <ele>72.592273</ele>
        <time>2022-05-06T10:33:29.568Z</time>
      </trkpt>
      <trkpt lat="41.37871" lon="19.62562">
        <ele>72.555565</ele>
        <time>2022-05-06T10:33:32.553Z</time>
      </trkpt>
      <trkpt lat="41.37879" lon="19.6257">
        <ele>72.527853</ele>
        <time>2022-05-06T10:33:34.554Z</time>
      </trkpt>
      <trkpt lat="41.37888" lon="19.62577">
        <ele>72.501049</ele>
        <time>2022-05-06T10:33:36.561Z</time>
      </trkpt>
      <trkpt lat="41.37895" lon="19.62585">
        <ele>72.476106</ele>
        <time>2022-05-06T10:33:38.559Z</time>
      </trkpt>
      <trkpt lat="41.37905" lon="19.62595">
        <ele>72.441785</ele>
        <time>2022-05-06T10:33:41.539Z</time>
      </trkpt>
      <trkpt lat="41.37914" lon="19.62606">
        <ele>72.408591</ele>
        <time>2022-05-06T10:33:44.542Z</time>
      </trkpt>
      <trkpt lat="41.37923" lon="19.62616">
        <ele>72.375334</ele>
        <time>2022-05-06T10:33:47.565Z</time>
      </trkpt>
      <trkpt lat="41.37933" lon="19.62625">
        <ele>72.34394</ele>
        <time>2022-05-06T10:33:50.585Z</time>
      </trkpt>
      <trkpt lat="41.37942" lon="19.62634">
        <ele>72.312174</ele>
        <time>2022-05-06T10:33:53.547Z</time>
      </trkpt>
      <trkpt lat="41.37951" lon="19.62644">
        <ele>72.280342</ele>
        <time>2022-05-06T10:33:56.539Z</time>
      </trkpt>
      <trkpt lat="41.3796" lon="19.62652">
        <ele>72.251479</ele>
        <time>2022-05-06T10:33:59.545Z</time>
      </trkpt>
      <trkpt lat="41.37968" lon="19.6266">
        <ele>72.223427</ele>
        <time>2022-05-06T10:34:02.529Z</time>
      </trkpt>
      <trkpt lat="41.37977" lon="19.62668">
        <ele>72.21915</ele>
        <time>2022-05-06T10:34:05.543Z</time>
      </trkpt>
      <trkpt lat="41.37985" lon="19.62676">
        <ele>72.539789</ele>
        <time>2022-05-06T10:34:08.534Z</time>
      </trkpt>
      <trkpt lat="41.37994" lon="19.62684">
        <ele>72.851507</ele>
        <time>2022-05-06T10:34:11.537Z</time>
      </trkpt>
      <trkpt lat="41.38002" lon="19.62691">
        <ele>73.149316</ele>
        <time>2022-05-06T10:34:14.543Z</time>
      </trkpt>
      <trkpt lat="41.3801" lon="19.62699">
        <ele>73.454652</ele>
        <time>2022-05-06T10:34:17.545Z</time>
      </trkpt>
      <trkpt lat="41.38019" lon="19.62708">
        <ele>73.809538</ele>
        <time>2022-05-06T10:34:20.551Z</time>
      </trkpt>
      <trkpt lat="41.38029" lon="19.62718">
        <ele>74.163283</ele>
        <time>2022-05-06T10:34:23.582Z</time>
      </trkpt>
      <trkpt lat="41.38037" lon="19.62726">
        <ele>74.494806</ele>
        <time>2022-05-06T10:34:26.543Z</time>
      </trkpt>
      <trkpt lat="41.38046" lon="19.62735">
        <ele>74.830552</ele>
        <time>2022-05-06T10:34:29.528Z</time>
      </trkpt>
      <trkpt lat="41.38055" lon="19.62742">
        <ele>75.140969</ele>
        <time>2022-05-06T10:34:32.569Z</time>
      </trkpt>
      <trkpt lat="41.38063" lon="19.62751">
        <ele>75.465902</ele>
        <time>2022-05-06T10:34:35.576Z</time>
      </trkpt>
      <trkpt lat="41.38072" lon="19.62759">
        <ele>75.792882</ele>
        <time>2022-05-06T10:34:38.581Z</time>
      </trkpt>
      <trkpt lat="41.38081" lon="19.62768">
        <ele>76.140362</ele>
        <time>2022-05-06T10:34:41.552Z</time>
      </trkpt>
      <trkpt lat="41.38092" lon="19.62778">
        <ele>76.53978</ele>
        <time>2022-05-06T10:34:44.544Z</time>
      </trkpt>
      <trkpt lat="41.38102" lon="19.62788">
        <ele>76.926439</ele>
        <time>2022-05-06T10:34:47.551Z</time>
      </trkpt>
      <trkpt lat="41.38112" lon="19.62797">
        <ele>77.291418</ele>
        <time>2022-05-06T10:34:50.552Z</time>
      </trkpt>
      <trkpt lat="41.38121" lon="19.62807">
        <ele>77.658135</ele>
        <time>2022-05-06T10:34:53.533Z</time>
      </trkpt>
      <trkpt lat="41.38131" lon="19.62816">
        <ele>77.794979</ele>
        <time>2022-05-06T10:34:56.553Z</time>
      </trkpt>
      <trkpt lat="41.3814" lon="19.62825">
        <ele>77.914259</ele>
        <time>2022-05-06T10:34:59.553Z</time>
      </trkpt>
      <trkpt lat="41.38148" lon="19.62834">
        <ele>78.025835</ele>
        <time>2022-05-06T10:35:02.575Z</time>
      </trkpt>
      <trkpt lat="41.38156" lon="19.62842">
        <ele>78.126428</ele>
        <time>2022-05-06T10:35:05.544Z</time>
      </trkpt>
      <trkpt lat="41.38163" lon="19.62849">
        <ele>78.227394</ele>
        <time>2022-05-06T10:35:08.551Z</time>
      </trkpt>
      <trkpt lat="41.38171" lon="19.62858">
        <ele>78.329843</ele>
        <time>2022-05-06T10:35:11.577Z</time>
      </trkpt>
      <trkpt lat="41.38178" lon="19.62866">
        <ele>78.427777</ele>
        <time>2022-05-06T10:35:14.571Z</time>
      </trkpt>
      <trkpt lat="41.38187" lon="19.62874">
        <ele>78.549057</ele>
        <time>2022-05-06T10:35:18.562Z</time>
      </trkpt>
      <trkpt lat="41.38194" lon="19.62881">
        <ele>78.645482</ele>
        <time>2022-05-06T10:35:21.550Z</time>
      </trkpt>
      <trkpt lat="41.38202" lon="19.62887">
        <ele>78.743228</ele>
        <time>2022-05-06T10:35:24.554Z</time>
      </trkpt>
      <trkpt lat="41.3821" lon="19.62895">
        <ele>78.845918</ele>
        <time>2022-05-06T10:35:27.553Z</time>
      </trkpt>
      <trkpt lat="41.38217" lon="19.62902">
        <ele>78.94374</ele>
        <time>2022-05-06T10:35:30.556Z</time>
      </trkpt>
      <trkpt lat="41.38226" lon="19.6291">
        <ele>79.05169</ele>
        <time>2022-05-06T10:35:33.529Z</time>
      </trkpt>
      <trkpt lat="41.38234" lon="19.62917">
        <ele>79.15566</ele>
        <time>2022-05-06T10:35:36.601Z</time>
      </trkpt>
      <trkpt lat="41.38241" lon="19.62925">
        <ele>79.25906</ele>
        <time>2022-05-06T10:35:39.551Z</time>
      </trkpt>
      <trkpt lat="41.38248" lon="19.62934">
        <ele>79.361252</ele>
        <time>2022-05-06T10:35:42.541Z</time>
      </trkpt>
      <trkpt lat="41.38255" lon="19.62942">
        <ele>79.461559</ele>
        <time>2022-05-06T10:35:45.562Z</time>
      </trkpt>
      <trkpt lat="41.38263" lon="19.62949">
        <ele>79.562151</ele>
        <time>2022-05-06T10:35:48.547Z</time>
      </trkpt>
      <trkpt lat="41.38271" lon="19.62957">
        <ele>79.605858</ele>
        <time>2022-05-06T10:35:51.541Z</time>
      </trkpt>
      <trkpt lat="41.38278" lon="19.62964">
        <ele>79.623516</ele>
        <time>2022-05-06T10:35:54.559Z</time>
      </trkpt>
      <trkpt lat="41.38286" lon="19.62972">
        <ele>79.642447</ele>
        <time>2022-05-06T10:35:57.578Z</time>
      </trkpt>
      <trkpt lat="41.38295" lon="19.6298">
        <ele>79.662206</ele>
        <time>2022-05-06T10:36:00.554Z</time>
      </trkpt>
      <trkpt lat="41.38303" lon="19.62988">
        <ele>79.681202</ele>
        <time>2022-05-06T10:36:03.579Z</time>
      </trkpt>
      <trkpt lat="41.38312" lon="19.62997">
        <ele>79.70302</ele>
        <time>2022-05-06T10:36:06.551Z</time>
      </trkpt>
      <trkpt lat="41.38321" lon="19.63005">
        <ele>79.722859</ele>
        <time>2022-05-06T10:36:09.601Z</time>
      </trkpt>
      <trkpt lat="41.3833" lon="19.63013">
        <ele>79.744364</ele>
        <time>2022-05-06T10:36:12.541Z</time>
      </trkpt>
      <trkpt lat="41.3834" lon="19.63021">
        <ele>79.765782</ele>
        <time>2022-05-06T10:36:15.549Z</time>
      </trkpt>
      <trkpt lat="41.38349" lon="19.6303">
        <ele>79.787528</ele>
        <time>2022-05-06T10:36:18.550Z</time>
      </trkpt>
      <trkpt lat="41.3836" lon="19.63039">
        <ele>79.811987</ele>
        <time>2022-05-06T10:36:21.552Z</time>
      </trkpt>
      <trkpt lat="41.38368" lon="19.63045">
        <ele>79.830059</ele>
        <time>2022-05-06T10:36:23.559Z</time>
      </trkpt>
      <trkpt lat="41.38377" lon="19.63051">
        <ele>79.847993</ele>
        <time>2022-05-06T10:36:25.551Z</time>
      </trkpt>
      <trkpt lat="41.38384" lon="19.63058">
        <ele>79.865802</ele>
        <time>2022-05-06T10:36:27.574Z</time>
      </trkpt>
      <trkpt lat="41.38392" lon="19.63066">
        <ele>79.884308</ele>
        <time>2022-05-06T10:36:29.579Z</time>
      </trkpt>
      <trkpt lat="41.384" lon="19.63073">
        <ele>79.902665</ele>
        <time>2022-05-06T10:36:31.533Z</time>
      </trkpt>
      <trkpt lat="41.38408" lon="19.6308">
        <ele>79.920687</ele>
        <time>2022-05-06T10:36:33.562Z</time>
      </trkpt>
      <trkpt lat="41.38419" lon="19.6309">
        <ele>79.987107</ele>
        <time>2022-05-06T10:36:36.538Z</time>
      </trkpt>
      <trkpt lat="41.3843" lon="19.631">
        <ele>80.108591</ele>
        <time>2022-05-06T10:36:39.541Z</time>
      </trkpt>
      <trkpt lat="41.38438" lon="19.63106">
        <ele>80.191465</ele>
        <time>2022-05-06T10:36:41.565Z</time>
      </trkpt>
      <trkpt lat="41.38449" lon="19.63116">
        <ele>80.306233</ele>
        <time>2022-05-06T10:36:44.548Z</time>
      </trkpt>
      <trkpt lat="41.38459" lon="19.63124">
        <ele>80.411545</ele>
        <time>2022-05-06T10:36:47.560Z</time>
      </trkpt>
      <trkpt lat="41.38469" lon="19.63133">
        <ele>80.521092</ele>
        <time>2022-05-06T10:36:50.537Z</time>
      </trkpt>
      <trkpt lat="41.3848" lon="19.63141">
        <ele>80.630656</ele>
        <time>2022-05-06T10:36:53.558Z</time>
      </trkpt>
      <trkpt lat="41.38489" lon="19.63151">
        <ele>80.736826</ele>
        <time>2022-05-06T10:36:56.553Z</time>
      </trkpt>
      <trkpt lat="41.385" lon="19.63161">
        <ele>80.852355</ele>
        <time>2022-05-06T10:36:59.577Z</time>
      </trkpt>
      <trkpt lat="41.38508" lon="19.63168">
        <ele>80.936612</ele>
        <time>2022-05-06T10:37:01.562Z</time>
      </trkpt>
      <trkpt lat="41.38516" lon="19.63176">
        <ele>81.032372</ele>
        <time>2022-05-06T10:37:03.569Z</time>
      </trkpt>
      <trkpt lat="41.38526" lon="19.63184">
        <ele>81.13782</ele>
        <time>2022-05-06T10:37:05.555Z</time>
      </trkpt>
      <trkpt lat="41.38536" lon="19.63193">
        <ele>81.246997</ele>
        <time>2022-05-06T10:37:07.558Z</time>
      </trkpt>
      <trkpt lat="41.38547" lon="19.63202">
        <ele>81.358034</ele>
        <time>2022-05-06T10:37:09.536Z</time>
      </trkpt>
      <trkpt lat="41.38557" lon="19.63211">
        <ele>81.468329</ele>
        <time>2022-05-06T10:37:11.543Z</time>
      </trkpt>
      <trkpt lat="41.38567" lon="19.6322">
        <ele>81.516168</ele>
        <time>2022-05-06T10:37:13.555Z</time>
      </trkpt>
      <trkpt lat="41.38576" lon="19.63228">
        <ele>81.404353</ele>
        <time>2022-05-06T10:37:15.565Z</time>
      </trkpt>
      <trkpt lat="41.38586" lon="19.63236">
        <ele>81.288688</ele>
        <time>2022-05-06T10:37:17.547Z</time>
      </trkpt>
      <trkpt lat="41.38594" lon="19.63243">
        <ele>81.191107</ele>
        <time>2022-05-06T10:37:19.541Z</time>
      </trkpt>
      <trkpt lat="41.38601" lon="19.6325">
        <ele>81.099397</ele>
        <time>2022-05-06T10:37:21.576Z</time>
      </trkpt>
      <trkpt lat="41.38609" lon="19.63258">
        <ele>81.007088</ele>
        <time>2022-05-06T10:37:23.543Z</time>
      </trkpt>
      <trkpt lat="41.38619" lon="19.63266">
        <ele>80.885206</ele>
        <time>2022-05-06T10:37:26.560Z</time>
      </trkpt>
      <trkpt lat="41.38629" lon="19.63274">
        <ele>80.768745</ele>
        <time>2022-05-06T10:37:29.563Z</time>
      </trkpt>
      <trkpt lat="41.38637" lon="19.63281">
        <ele>80.667716</ele>
        <time>2022-05-06T10:37:32.562Z</time>
      </trkpt>
      <trkpt lat="41.38645" lon="19.63288">
        <ele>80.573416</ele>
        <time>2022-05-06T10:37:35.560Z</time>
      </trkpt>
      <trkpt lat="41.38653" lon="19.63295">
        <ele>80.476664</ele>
        <time>2022-05-06T10:37:38.534Z</time>
      </trkpt>
      <trkpt lat="41.38663" lon="19.63302">
        <ele>80.36765</ele>
        <time>2022-05-06T10:37:41.550Z</time>
      </trkpt>
      <trkpt lat="41.38673" lon="19.6331">
        <ele>80.252663</ele>
        <time>2022-05-06T10:37:44.557Z</time>
      </trkpt>
      <trkpt lat="41.38681" lon="19.63318">
        <ele>80.147133</ele>
        <time>2022-05-06T10:37:47.544Z</time>
      </trkpt>
      <trkpt lat="41.3869" lon="19.63326">
        <ele>80.040753</ele>
        <time>2022-05-06T10:37:50.543Z</time>
      </trkpt>
      <trkpt lat="41.38698" lon="19.63332">
        <ele>79.944729</ele>
        <time>2022-05-06T10:37:53.572Z</time>
      </trkpt>
      <trkpt lat="41.38707" lon="19.6334">
        <ele>79.836267</ele>
        <time>2022-05-06T10:37:56.543Z</time>
      </trkpt>
      <trkpt lat="41.38716" lon="19.63348">
        <ele>79.723419</ele>
        <time>2022-05-06T10:37:59.535Z</time>
      </trkpt>
      <trkpt lat="41.38725" lon="19.63357">
        <ele>79.494058</ele>
        <time>2022-05-06T10:38:02.530Z</time>
      </trkpt>
      <trkpt lat="41.38735" lon="19.63365">
        <ele>79.257278</ele>
        <time>2022-05-06T10:38:05.573Z</time>
      </trkpt>
      <trkpt lat="41.38745" lon="19.63374">
        <ele>79.022147</ele>
        <time>2022-05-06T10:38:08.536Z</time>
      </trkpt>
      <trkpt lat="41.38756" lon="19.63382">
        <ele>78.784262</ele>
        <time>2022-05-06T10:38:11.572Z</time>
      </trkpt>
      <trkpt lat="41.38766" lon="19.63391">
        <ele>78.543714</ele>
        <time>2022-05-06T10:38:14.543Z</time>
      </trkpt>
      <trkpt lat="41.38775" lon="19.63398">
        <ele>78.325049</ele>
        <time>2022-05-06T10:38:17.545Z</time>
      </trkpt>
      <trkpt lat="41.38784" lon="19.63407">
        <ele>78.114351</ele>
        <time>2022-05-06T10:38:20.549Z</time>
      </trkpt>
      <trkpt lat="41.38794" lon="19.63415">
        <ele>77.884128</ele>
        <time>2022-05-06T10:38:23.554Z</time>
      </trkpt>
      <trkpt lat="41.38803" lon="19.63424">
        <ele>77.651411</ele>
        <time>2022-05-06T10:38:26.549Z</time>
      </trkpt>
      <trkpt lat="41.38813" lon="19.63433">
        <ele>77.412962</ele>
        <time>2022-05-06T10:38:29.542Z</time>
      </trkpt>
      <trkpt lat="41.38823" lon="19.63442">
        <ele>77.174514</ele>
        <time>2022-05-06T10:38:32.557Z</time>
      </trkpt>
      <trkpt lat="41.38834" lon="19.63452">
        <ele>76.921173</ele>
        <time>2022-05-06T10:38:35.544Z</time>
      </trkpt>
      <trkpt lat="41.38845" lon="19.63461">
        <ele>76.653865</ele>
        <time>2022-05-06T10:38:38.535Z</time>
      </trkpt>
      <trkpt lat="41.38854" lon="19.63468">
        <ele>76.456531</ele>
        <time>2022-05-06T10:38:40.575Z</time>
      </trkpt>
      <trkpt lat="41.38863" lon="19.63476">
        <ele>76.245333</ele>
        <time>2022-05-06T10:38:42.551Z</time>
      </trkpt>
      <trkpt lat="41.38873" lon="19.63483">
        <ele>76.236252</ele>
        <time>2022-05-06T10:38:44.548Z</time>
      </trkpt>
      <trkpt lat="41.38883" lon="19.63491">
        <ele>76.336796</ele>
        <time>2022-05-06T10:38:46.583Z</time>
      </trkpt>
      <trkpt lat="41.38893" lon="19.635">
        <ele>76.436204</ele>
        <time>2022-05-06T10:38:48.552Z</time>
      </trkpt>
      <trkpt lat="41.38902" lon="19.63508">
        <ele>76.535569</ele>
        <time>2022-05-06T10:38:50.592Z</time>
      </trkpt>
      <trkpt lat="41.38912" lon="19.63516">
        <ele>76.634978</ele>
        <time>2022-05-06T10:38:52.548Z</time>
      </trkpt>
      <trkpt lat="41.38921" lon="19.63524">
        <ele>76.732239</ele>
        <time>2022-05-06T10:38:54.554Z</time>
      </trkpt>
      <trkpt lat="41.38931" lon="19.63532">
        <ele>76.82731</ele>
        <time>2022-05-06T10:38:56.542Z</time>
      </trkpt>
      <trkpt lat="41.3894" lon="19.6354">
        <ele>76.921654</ele>
        <time>2022-05-06T10:38:58.547Z</time>
      </trkpt>
      <trkpt lat="41.38948" lon="19.63547">
        <ele>77.007789</ele>
        <time>2022-05-06T10:39:00.550Z</time>
      </trkpt>
      <trkpt lat="41.38957" lon="19.63554">
        <ele>77.092439</ele>
        <time>2022-05-06T10:39:02.551Z</time>
      </trkpt>
      <trkpt lat="41.38967" lon="19.63564">
        <ele>77.199688</ele>
        <time>2022-05-06T10:39:05.553Z</time>
      </trkpt>
      <trkpt lat="41.38977" lon="19.63572">
        <ele>77.301713</ele>
        <time>2022-05-06T10:39:08.544Z</time>
      </trkpt>
      <trkpt lat="41.38988" lon="19.63582">
        <ele>77.415078</ele>
        <time>2022-05-06T10:39:11.539Z</time>
      </trkpt>
      <trkpt lat="41.38999" lon="19.63591">
        <ele>77.525553</ele>
        <time>2022-05-06T10:39:14.563Z</time>
      </trkpt>
      <trkpt lat="41.39008" lon="19.636">
        <ele>77.626343</ele>
        <time>2022-05-06T10:39:17.541Z</time>
      </trkpt>
      <trkpt lat="41.39018" lon="19.63608">
        <ele>77.716883</ele>
        <time>2022-05-06T10:39:20.554Z</time>
      </trkpt>
      <trkpt lat="41.39027" lon="19.63617">
        <ele>77.663635</ele>
        <time>2022-05-06T10:39:23.558Z</time>
      </trkpt>
      <trkpt lat="41.39038" lon="19.63625">
        <ele>77.602219</ele>
        <time>2022-05-06T10:39:26.557Z</time>
      </trkpt>
      <trkpt lat="41.39046" lon="19.63631">
        <ele>77.556123</ele>
        <time>2022-05-06T10:39:28.554Z</time>
      </trkpt>
      <trkpt lat="41.39055" lon="19.63639">
        <ele>77.502794</ele>
        <time>2022-05-06T10:39:30.559Z</time>
      </trkpt>
      <trkpt lat="41.39065" lon="19.63646">
        <ele>77.450567</ele>
        <time>2022-05-06T10:39:32.544Z</time>
      </trkpt>
      <trkpt lat="41.39073" lon="19.63654">
        <ele>77.399575</ele>
        <time>2022-05-06T10:39:34.548Z</time>
      </trkpt>
      <trkpt lat="41.39083" lon="19.63662">
        <ele>77.345917</ele>
        <time>2022-05-06T10:39:36.551Z</time>
      </trkpt>
      <trkpt lat="41.39091" lon="19.6367">
        <ele>77.293277</ele>
        <time>2022-05-06T10:39:38.544Z</time>
      </trkpt>
      <trkpt lat="41.391" lon="19.63678">
        <ele>77.242855</ele>
        <time>2022-05-06T10:39:40.565Z</time>
      </trkpt>
      <trkpt lat="41.39109" lon="19.63686">
        <ele>77.191256</ele>
        <time>2022-05-06T10:39:42.532Z</time>
      </trkpt>
      <trkpt lat="41.39117" lon="19.63694">
        <ele>77.140461</ele>
        <time>2022-05-06T10:39:44.537Z</time>
      </trkpt>
      <trkpt lat="41.39126" lon="19.63702">
        <ele>77.089264</ele>
        <time>2022-05-06T10:39:46.562Z</time>
      </trkpt>
      <trkpt lat="41.39135" lon="19.63709">
        <ele>77.036401</ele>
        <time>2022-05-06T10:39:48.529Z</time>
      </trkpt>
      <trkpt lat="41.39144" lon="19.63717">
        <ele>76.985579</ele>
        <time>2022-05-06T10:39:50.555Z</time>
      </trkpt>
      <trkpt lat="41.39153" lon="19.63724">
        <ele>76.934342</ele>
        <time>2022-05-06T10:39:52.543Z</time>
      </trkpt>
      <trkpt lat="41.39162" lon="19.63731">
        <ele>76.883952</ele>
        <time>2022-05-06T10:39:54.559Z</time>
      </trkpt>
      <trkpt lat="41.39171" lon="19.63739">
        <ele>76.823016</ele>
        <time>2022-05-06T10:39:56.538Z</time>
      </trkpt>
      <trkpt lat="41.39179" lon="19.63746">
        <ele>76.730645</ele>
        <time>2022-05-06T10:39:58.561Z</time>
      </trkpt>
      <trkpt lat="41.39187" lon="19.63754">
        <ele>76.639046</ele>
        <time>2022-05-06T10:40:00.556Z</time>
      </trkpt>
      <trkpt lat="41.39195" lon="19.63761">
        <ele>76.54859</ele>
        <time>2022-05-06T10:40:02.544Z</time>
      </trkpt>
      <trkpt lat="41.39203" lon="19.63767">
        <ele>76.457713</ele>
        <time>2022-05-06T10:40:04.535Z</time>
      </trkpt>
      <trkpt lat="41.39212" lon="19.63774">
        <ele>76.366468</ele>
        <time>2022-05-06T10:40:06.555Z</time>
      </trkpt>
      <trkpt lat="41.3922" lon="19.63781">
        <ele>76.275637</ele>
        <time>2022-05-06T10:40:08.565Z</time>
      </trkpt>
      <trkpt lat="41.39228" lon="19.63788">
        <ele>76.186754</ele>
        <time>2022-05-06T10:40:10.545Z</time>
      </trkpt>
      <trkpt lat="41.39236" lon="19.63795">
        <ele>76.10098</ele>
        <time>2022-05-06T10:40:12.532Z</time>
      </trkpt>
      <trkpt lat="41.39243" lon="19.63802">
        <ele>76.0148</ele>
        <time>2022-05-06T10:40:14.554Z</time>
      </trkpt>
      <trkpt lat="41.39251" lon="19.63808">
        <ele>75.929783</ele>
        <time>2022-05-06T10:40:16.546Z</time>
      </trkpt>
      <trkpt lat="41.39259" lon="19.63815">
        <ele>75.842461</ele>
        <time>2022-05-06T10:40:18.555Z</time>
      </trkpt>
      <trkpt lat="41.3927" lon="19.63825">
        <ele>75.71749</ele>
        <time>2022-05-06T10:40:21.555Z</time>
      </trkpt>
      <trkpt lat="41.39277" lon="19.63832">
        <ele>75.63366</ele>
        <time>2022-05-06T10:40:23.536Z</time>
      </trkpt>
      <trkpt lat="41.39285" lon="19.63838">
        <ele>75.549429</ele>
        <time>2022-05-06T10:40:25.590Z</time>
      </trkpt>
      <trkpt lat="41.39296" lon="19.63848">
        <ele>75.421745</ele>
        <time>2022-05-06T10:40:28.555Z</time>
      </trkpt>
      <trkpt lat="41.39304" lon="19.63854">
        <ele>75.335873</ele>
        <time>2022-05-06T10:40:30.547Z</time>
      </trkpt>
      <trkpt lat="41.39316" lon="19.63862">
        <ele>75.214364</ele>
        <time>2022-05-06T10:40:33.538Z</time>
      </trkpt>
      <trkpt lat="41.39329" lon="19.63868">
        <ele>75.274955</ele>
        <time>2022-05-06T10:40:36.577Z</time>
      </trkpt>
      <trkpt lat="41.39338" lon="19.63871">
        <ele>75.391975</ele>
        <time>2022-05-06T10:40:38.563Z</time>
      </trkpt>
      <trkpt lat="41.39347" lon="19.63875">
        <ele>75.508604</ele>
        <time>2022-05-06T10:40:40.538Z</time>
      </trkpt>
      <trkpt lat="41.39356" lon="19.63879">
        <ele>75.631831</ele>
        <time>2022-05-06T10:40:42.553Z</time>
      </trkpt>
      <trkpt lat="41.39365" lon="19.63883">
        <ele>75.753292</ele>
        <time>2022-05-06T10:40:44.565Z</time>
      </trkpt>
      <trkpt lat="41.39375" lon="19.63886">
        <ele>75.878657</ele>
        <time>2022-05-06T10:40:46.551Z</time>
      </trkpt>
      <trkpt lat="41.39384" lon="19.6389">
        <ele>76.003753</ele>
        <time>2022-05-06T10:40:48.529Z</time>
      </trkpt>
      <trkpt lat="41.39393" lon="19.63893">
        <ele>76.122707</ele>
        <time>2022-05-06T10:40:50.566Z</time>
      </trkpt>
      <trkpt lat="41.39402" lon="19.63896">
        <ele>76.238976</ele>
        <time>2022-05-06T10:40:52.550Z</time>
      </trkpt>
      <trkpt lat="41.39411" lon="19.639">
        <ele>76.359395</ele>
        <time>2022-05-06T10:40:54.550Z</time>
      </trkpt>
      <trkpt lat="41.3942" lon="19.63903">
        <ele>76.475469</ele>
        <time>2022-05-06T10:40:56.549Z</time>
      </trkpt>
      <trkpt lat="41.39433" lon="19.63908">
        <ele>76.640343</ele>
        <time>2022-05-06T10:40:59.559Z</time>
      </trkpt>
      <trkpt lat="41.39446" lon="19.63913">
        <ele>76.81153</ele>
        <time>2022-05-06T10:41:02.539Z</time>
      </trkpt>
      <trkpt lat="41.39454" lon="19.63917">
        <ele>76.927246</ele>
        <time>2022-05-06T10:41:04.542Z</time>
      </trkpt>
      <trkpt lat="41.39463" lon="19.6392">
        <ele>77.044266</ele>
        <time>2022-05-06T10:41:06.554Z</time>
      </trkpt>
      <trkpt lat="41.39476" lon="19.63925">
        <ele>77.20817</ele>
        <time>2022-05-06T10:41:09.588Z</time>
      </trkpt>
      <trkpt lat="41.39489" lon="19.63931">
        <ele>77.381766</ele>
        <time>2022-05-06T10:41:12.547Z</time>
      </trkpt>
      <trkpt lat="41.395" lon="19.63939">
        <ele>77.769399</ele>
        <time>2022-05-06T10:41:15.540Z</time>
      </trkpt>
      <trkpt lat="41.39508" lon="19.63946">
        <ele>78.126429</ele>
        <time>2022-05-06T10:41:17.564Z</time>
      </trkpt>
      <trkpt lat="41.39515" lon="19.63953">
        <ele>78.480394</ele>
        <time>2022-05-06T10:41:19.553Z</time>
      </trkpt>
      <trkpt lat="41.39523" lon="19.6396">
        <ele>78.852319</ele>
        <time>2022-05-06T10:41:21.539Z</time>
      </trkpt>
      <trkpt lat="41.3953" lon="19.63967">
        <ele>79.207697</ele>
        <time>2022-05-06T10:41:23.578Z</time>
      </trkpt>
      <trkpt lat="41.39541" lon="19.63977">
        <ele>79.72852</ele>
        <time>2022-05-06T10:41:26.546Z</time>
      </trkpt>
      <trkpt lat="41.39552" lon="19.63986">
        <ele>80.229838</ele>
        <time>2022-05-06T10:41:29.557Z</time>
      </trkpt>
      <trkpt lat="41.39561" lon="19.63996">
        <ele>80.692831</ele>
        <time>2022-05-06T10:41:32.549Z</time>
      </trkpt>
      <trkpt lat="41.39571" lon="19.64005">
        <ele>81.167861</ele>
        <time>2022-05-06T10:41:35.545Z</time>
      </trkpt>
      <trkpt lat="41.3958" lon="19.64015">
        <ele>81.641908</ele>
        <time>2022-05-06T10:41:38.559Z</time>
      </trkpt>
      <trkpt lat="41.39589" lon="19.64026">
        <ele>82.122495</ele>
        <time>2022-05-06T10:41:41.552Z</time>
      </trkpt>
      <trkpt lat="41.39599" lon="19.64035">
        <ele>82.597441</ele>
        <time>2022-05-06T10:41:44.540Z</time>
      </trkpt>
      <trkpt lat="41.39611" lon="19.64044">
        <ele>83.119386</ele>
        <time>2022-05-06T10:41:47.546Z</time>
      </trkpt>
      <trkpt lat="41.39622" lon="19.64053">
        <ele>83.640905</ele>
        <time>2022-05-06T10:41:50.550Z</time>
      </trkpt>
      <trkpt lat="41.39633" lon="19.64062">
        <ele>84.155666</ele>
        <time>2022-05-06T10:41:53.563Z</time>
      </trkpt>
      <trkpt lat="41.39641" lon="19.64068">
        <ele>84.51465</ele>
        <time>2022-05-06T10:41:55.541Z</time>
      </trkpt>
      <trkpt lat="41.39649" lon="19.64075">
        <ele>84.663289</ele>
        <time>2022-05-06T10:41:57.538Z</time>
      </trkpt>
      <trkpt lat="41.3966" lon="19.64085">
        <ele>84.861916</ele>
        <time>2022-05-06T10:42:00.574Z</time>
      </trkpt>
      <trkpt lat="41.39669" lon="19.64094">
        <ele>85.045414</ele>
        <time>2022-05-06T10:42:03.545Z</time>
      </trkpt>
      <trkpt lat="41.39678" lon="19.64104">
        <ele>85.227507</ele>
        <time>2022-05-06T10:42:06.545Z</time>
      </trkpt>
      <trkpt lat="41.39687" lon="19.64113">
        <ele>85.404489</ele>
        <time>2022-05-06T10:42:09.537Z</time>
      </trkpt>
      <trkpt lat="41.39698" lon="19.64123">
        <ele>85.609691</ele>
        <time>2022-05-06T10:42:12.551Z</time>
      </trkpt>
      <trkpt lat="41.39707" lon="19.64134">
        <ele>85.798494</ele>
        <time>2022-05-06T10:42:15.552Z</time>
      </trkpt>
      <trkpt lat="41.39715" lon="19.64144">
        <ele>85.97229</ele>
        <time>2022-05-06T10:42:18.556Z</time>
      </trkpt>
      <trkpt lat="41.39723" lon="19.64153">
        <ele>86.128301</ele>
        <time>2022-05-06T10:42:21.589Z</time>
      </trkpt>
      <trkpt lat="41.3973" lon="19.64162">
        <ele>86.276959</ele>
        <time>2022-05-06T10:42:24.550Z</time>
      </trkpt>
      <trkpt lat="41.39737" lon="19.64172">
        <ele>86.438082</ele>
        <time>2022-05-06T10:42:27.570Z</time>
      </trkpt>
      <trkpt lat="41.39745" lon="19.6418">
        <ele>86.585262</ele>
        <time>2022-05-06T10:42:30.557Z</time>
      </trkpt>
      <trkpt lat="41.39752" lon="19.6419">
        <ele>86.754038</ele>
        <time>2022-05-06T10:42:33.588Z</time>
      </trkpt>
      <trkpt lat="41.3976" lon="19.64202">
        <ele>86.932054</ele>
        <time>2022-05-06T10:42:36.548Z</time>
      </trkpt>
      <trkpt lat="41.39767" lon="19.64214">
        <ele>87.10689</ele>
        <time>2022-05-06T10:42:39.547Z</time>
      </trkpt>
      <trkpt lat="41.39775" lon="19.64225">
        <ele>87.292641</ele>
        <time>2022-05-06T10:42:42.561Z</time>
      </trkpt>
      <trkpt lat="41.39783" lon="19.64236">
        <ele>87.66239</ele>
        <time>2022-05-06T10:42:45.561Z</time>
      </trkpt>
      <trkpt lat="41.39789" lon="19.64246">
        <ele>88.000915</ele>
        <time>2022-05-06T10:42:48.544Z</time>
      </trkpt>
      <trkpt lat="41.39796" lon="19.64255">
        <ele>88.336744</ele>
        <time>2022-05-06T10:42:51.544Z</time>
      </trkpt>
      <trkpt lat="41.39804" lon="19.64267">
        <ele>88.752555</ele>
        <time>2022-05-06T10:42:55.558Z</time>
      </trkpt>
      <trkpt lat="41.3981" lon="19.64276">
        <ele>89.063192</ele>
        <time>2022-05-06T10:42:58.555Z</time>
      </trkpt>
      <trkpt lat="41.39819" lon="19.64285">
        <ele>89.465917</ele>
        <time>2022-05-06T10:43:02.547Z</time>
      </trkpt>
      <trkpt lat="41.39827" lon="19.64295">
        <ele>89.827749</ele>
        <time>2022-05-06T10:43:05.597Z</time>
      </trkpt>
      <trkpt lat="41.39835" lon="19.64304">
        <ele>90.196529</ele>
        <time>2022-05-06T10:43:08.561Z</time>
      </trkpt>
      <trkpt lat="41.39844" lon="19.64315">
        <ele>90.620682</ele>
        <time>2022-05-06T10:43:11.554Z</time>
      </trkpt>
      <trkpt lat="41.39853" lon="19.64325">
        <ele>91.028797</ele>
        <time>2022-05-06T10:43:14.566Z</time>
      </trkpt>
      <trkpt lat="41.39861" lon="19.64333">
        <ele>91.376395</ele>
        <time>2022-05-06T10:43:17.562Z</time>
      </trkpt>
      <trkpt lat="41.39869" lon="19.64341">
        <ele>91.719562</ele>
        <time>2022-05-06T10:43:20.553Z</time>
      </trkpt>
      <trkpt lat="41.39877" lon="19.64349">
        <ele>92.064953</ele>
        <time>2022-05-06T10:43:23.558Z</time>
      </trkpt>
      <trkpt lat="41.39885" lon="19.64358">
        <ele>92.443361</ele>
        <time>2022-05-06T10:43:26.572Z</time>
      </trkpt>
      <trkpt lat="41.39893" lon="19.64369">
        <ele>92.819792</ele>
        <time>2022-05-06T10:43:29.555Z</time>
      </trkpt>
      <trkpt lat="41.399" lon="19.6438">
        <ele>93.213289</ele>
        <time>2022-05-06T10:43:32.559Z</time>
      </trkpt>
      <trkpt lat="41.39908" lon="19.64391">
        <ele>93.48988</ele>
        <time>2022-05-06T10:43:35.541Z</time>
      </trkpt>
      <trkpt lat="41.39915" lon="19.64403">
        <ele>93.116727</ele>
        <time>2022-05-06T10:43:38.556Z</time>
      </trkpt>
      <trkpt lat="41.39923" lon="19.64415">
        <ele>92.74341</ele>
        <time>2022-05-06T10:43:41.563Z</time>
      </trkpt>
      <trkpt lat="41.3993" lon="19.64427">
        <ele>92.375779</ele>
        <time>2022-05-06T10:43:44.529Z</time>
      </trkpt>
      <trkpt lat="41.39936" lon="19.64439">
        <ele>92.02567</ele>
        <time>2022-05-06T10:43:47.545Z</time>
      </trkpt>
      <trkpt lat="41.39943" lon="19.6445">
        <ele>91.696513</ele>
        <time>2022-05-06T10:43:50.555Z</time>
      </trkpt>
      <trkpt lat="41.39948" lon="19.64463">
        <ele>91.348189</ele>
        <time>2022-05-06T10:43:53.543Z</time>
      </trkpt>
      <trkpt lat="41.39953" lon="19.64476">
        <ele>91.008526</ele>
        <time>2022-05-06T10:43:56.543Z</time>
      </trkpt>
      <trkpt lat="41.39958" lon="19.64489">
        <ele>90.66189</ele>
        <time>2022-05-06T10:43:59.552Z</time>
      </trkpt>
      <trkpt lat="41.39962" lon="19.64503">
        <ele>90.304419</ele>
        <time>2022-05-06T10:44:02.553Z</time>
      </trkpt>
      <trkpt lat="41.39966" lon="19.64517">
        <ele>89.944037</ele>
        <time>2022-05-06T10:44:05.546Z</time>
      </trkpt>
      <trkpt lat="41.39968" lon="19.64533">
        <ele>89.561112</ele>
        <time>2022-05-06T10:44:08.533Z</time>
      </trkpt>
      <trkpt lat="41.39968" lon="19.64549">
        <ele>89.182743</ele>
        <time>2022-05-06T10:44:11.592Z</time>
      </trkpt>
      <trkpt lat="41.39966" lon="19.64565">
        <ele>88.788542</ele>
        <time>2022-05-06T10:44:14.553Z</time>
      </trkpt>
      <trkpt lat="41.39964" lon="19.64577">
        <ele>88.497793</ele>
        <time>2022-05-06T10:44:16.563Z</time>
      </trkpt>
      <trkpt lat="41.39962" lon="19.64589">
        <ele>88.210744</ele>
        <time>2022-05-06T10:44:18.542Z</time>
      </trkpt>
      <trkpt lat="41.39959" lon="19.64601">
        <ele>87.913675</ele>
        <time>2022-05-06T10:44:20.547Z</time>
      </trkpt>
      <trkpt lat="41.39956" lon="19.64613">
        <ele>87.444562</ele>
        <time>2022-05-06T10:44:22.580Z</time>
      </trkpt>
      <trkpt lat="41.39953" lon="19.64626">
        <ele>86.915904</ele>
        <time>2022-05-06T10:44:24.544Z</time>
      </trkpt>
      <trkpt lat="41.39951" lon="19.64639">
        <ele>86.394156</ele>
        <time>2022-05-06T10:44:26.535Z</time>
      </trkpt>
      <trkpt lat="41.39949" lon="19.64653">
        <ele>85.849516</ele>
        <time>2022-05-06T10:44:28.695Z</time>
      </trkpt>
      <trkpt lat="41.39947" lon="19.64667">
        <ele>85.263034</ele>
        <time>2022-05-06T10:44:30.559Z</time>
      </trkpt>
      <trkpt lat="41.39945" lon="19.64682">
        <ele>84.697562</ele>
        <time>2022-05-06T10:44:32.556Z</time>
      </trkpt>
      <trkpt lat="41.39942" lon="19.64695">
        <ele>84.143933</ele>
        <time>2022-05-06T10:44:34.556Z</time>
      </trkpt>
      <trkpt lat="41.39938" lon="19.64707">
        <ele>83.622718</ele>
        <time>2022-05-06T10:44:36.543Z</time>
      </trkpt>
      <trkpt lat="41.39936" lon="19.64721">
        <ele>83.069088</ele>
        <time>2022-05-06T10:44:38.574Z</time>
      </trkpt>
      <trkpt lat="41.39932" lon="19.64736">
        <ele>82.46297</ele>
        <time>2022-05-06T10:44:40.537Z</time>
      </trkpt>
      <trkpt lat="41.3993" lon="19.64749">
        <ele>81.913287</ele>
        <time>2022-05-06T10:44:42.555Z</time>
      </trkpt>
      <trkpt lat="41.39928" lon="19.64763">
        <ele>81.372038</ele>
        <time>2022-05-06T10:44:44.595Z</time>
      </trkpt>
      <trkpt lat="41.39926" lon="19.64775">
        <ele>80.889712</ele>
        <time>2022-05-06T10:44:46.582Z</time>
      </trkpt>
      <trkpt lat="41.39924" lon="19.64792">
        <ele>80.220617</ele>
        <time>2022-05-06T10:44:49.558Z</time>
      </trkpt>
      <trkpt lat="41.3992" lon="19.64807">
        <ele>79.583643</ele>
        <time>2022-05-06T10:44:52.593Z</time>
      </trkpt>
      <trkpt lat="41.39917" lon="19.64819">
        <ele>79.113082</ele>
        <time>2022-05-06T10:44:54.542Z</time>
      </trkpt>
      <trkpt lat="41.39914" lon="19.6483">
        <ele>78.633392</ele>
        <time>2022-05-06T10:44:56.544Z</time>
      </trkpt>
      <trkpt lat="41.39908" lon="19.64846">
        <ele>78.489468</ele>
        <time>2022-05-06T10:44:59.533Z</time>
      </trkpt>
      <trkpt lat="41.39902" lon="19.64855">
        <ele>78.555823</ele>
        <time>2022-05-06T10:45:01.634Z</time>
      </trkpt>
      <trkpt lat="41.39894" lon="19.64868">
        <ele>78.646681</ele>
        <time>2022-05-06T10:45:04.553Z</time>
      </trkpt>
      <trkpt lat="41.39892" lon="19.64885">
        <ele>78.7358</ele>
        <time>2022-05-06T10:45:07.558Z</time>
      </trkpt>
      <trkpt lat="41.39893" lon="19.64901">
        <ele>78.82577</ele>
        <time>2022-05-06T10:45:10.537Z</time>
      </trkpt>
      <trkpt lat="41.39892" lon="19.64914">
        <ele>78.893486</ele>
        <time>2022-05-06T10:45:12.607Z</time>
      </trkpt>
      <trkpt lat="41.39888" lon="19.64926">
        <ele>78.963535</ele>
        <time>2022-05-06T10:45:14.553Z</time>
      </trkpt>
      <trkpt lat="41.39883" lon="19.64938">
        <ele>79.034192</ele>
        <time>2022-05-06T10:45:16.553Z</time>
      </trkpt>
      <trkpt lat="41.3988" lon="19.64949">
        <ele>79.101703</ele>
        <time>2022-05-06T10:45:18.548Z</time>
      </trkpt>
      <trkpt lat="41.39875" lon="19.64961">
        <ele>79.172672</ele>
        <time>2022-05-06T10:45:20.554Z</time>
      </trkpt>
      <trkpt lat="41.39871" lon="19.64973">
        <ele>79.24067</ele>
        <time>2022-05-06T10:45:22.543Z</time>
      </trkpt>
      <trkpt lat="41.39867" lon="19.64984">
        <ele>79.30622</ele>
        <time>2022-05-06T10:45:24.554Z</time>
      </trkpt>
      <trkpt lat="41.39862" lon="19.64994">
        <ele>79.371264</ele>
        <time>2022-05-06T10:45:26.556Z</time>
      </trkpt>
      <trkpt lat="41.39857" lon="19.65009">
        <ele>79.462646</ele>
        <time>2022-05-06T10:45:29.552Z</time>
      </trkpt>
      <trkpt lat="41.39852" lon="19.65023">
        <ele>79.54398</ele>
        <time>2022-05-06T10:45:32.565Z</time>
      </trkpt>
      <trkpt lat="41.39845" lon="19.65037">
        <ele>79.631599</ele>
        <time>2022-05-06T10:45:35.544Z</time>
      </trkpt>
      <trkpt lat="41.39838" lon="19.65051">
        <ele>79.753038</ele>
        <time>2022-05-06T10:45:38.550Z</time>
      </trkpt>
      <trkpt lat="41.39831" lon="19.65066">
        <ele>79.992556</ele>
        <time>2022-05-06T10:45:41.551Z</time>
      </trkpt>
      <trkpt lat="41.39824" lon="19.65079">
        <ele>80.212211</ele>
        <time>2022-05-06T10:45:44.647Z</time>
      </trkpt>
      <trkpt lat="41.39817" lon="19.65093">
        <ele>80.440441</ele>
        <time>2022-05-06T10:45:47.534Z</time>
      </trkpt>
      <trkpt lat="41.39809" lon="19.65106">
        <ele>80.678745</ele>
        <time>2022-05-06T10:45:50.541Z</time>
      </trkpt>
      <trkpt lat="41.39801" lon="19.65119">
        <ele>80.907061</ele>
        <time>2022-05-06T10:45:53.567Z</time>
      </trkpt>
      <trkpt lat="41.39793" lon="19.65132">
        <ele>81.142957</ele>
        <time>2022-05-06T10:45:56.592Z</time>
      </trkpt>
      <trkpt lat="41.39784" lon="19.65146">
        <ele>81.39114</ele>
        <time>2022-05-06T10:45:59.532Z</time>
      </trkpt>
      <trkpt lat="41.39778" lon="19.65156">
        <ele>81.570116</ele>
        <time>2022-05-06T10:46:01.550Z</time>
      </trkpt>
      <trkpt lat="41.39772" lon="19.65165">
        <ele>81.73894</ele>
        <time>2022-05-06T10:46:03.556Z</time>
      </trkpt>
      <trkpt lat="41.39763" lon="19.65179">
        <ele>81.98277</ele>
        <time>2022-05-06T10:46:06.559Z</time>
      </trkpt>
      <trkpt lat="41.39755" lon="19.65192">
        <ele>82.226878</ele>
        <time>2022-05-06T10:46:09.555Z</time>
      </trkpt>
      <trkpt lat="41.39747" lon="19.65202">
        <ele>82.417669</ele>
        <time>2022-05-06T10:46:12.571Z</time>
      </trkpt>
      <trkpt lat="41.39739" lon="19.65213">
        <ele>82.636973</ele>
        <time>2022-05-06T10:46:16.548Z</time>
      </trkpt>
      <trkpt lat="41.39733" lon="19.65224">
        <ele>82.815483</ele>
        <time>2022-05-06T10:46:19.554Z</time>
      </trkpt>
      <trkpt lat="41.39727" lon="19.65234">
        <ele>83.001718</ele>
        <time>2022-05-06T10:46:22.612Z</time>
      </trkpt>
      <trkpt lat="41.3972" lon="19.65243">
        <ele>83.26189</ele>
        <time>2022-05-06T10:46:25.538Z</time>
      </trkpt>
      <trkpt lat="41.39713" lon="19.65256">
        <ele>83.618192</ele>
        <time>2022-05-06T10:46:29.583Z</time>
      </trkpt>
      <trkpt lat="41.39705" lon="19.65267">
        <ele>83.948124</ele>
        <time>2022-05-06T10:46:32.560Z</time>
      </trkpt>
      <trkpt lat="41.39699" lon="19.65277">
        <ele>84.233898</ele>
        <time>2022-05-06T10:46:35.575Z</time>
      </trkpt>
      <trkpt lat="41.39693" lon="19.65289">
        <ele>84.54773</ele>
        <time>2022-05-06T10:46:38.631Z</time>
      </trkpt>
      <trkpt lat="41.39686" lon="19.65299">
        <ele>84.835579</ele>
        <time>2022-05-06T10:46:41.585Z</time>
      </trkpt>
      <trkpt lat="41.39679" lon="19.6531">
        <ele>85.16132</ele>
        <time>2022-05-06T10:46:45.556Z</time>
      </trkpt>
      <trkpt lat="41.39671" lon="19.65322">
        <ele>85.511191</ele>
        <time>2022-05-06T10:46:49.537Z</time>
      </trkpt>
      <trkpt lat="41.39664" lon="19.65331">
        <ele>85.801444</ele>
        <time>2022-05-06T10:46:52.575Z</time>
      </trkpt>
      <trkpt lat="41.39657" lon="19.65342">
        <ele>86.10734</ele>
        <time>2022-05-06T10:46:55.559Z</time>
      </trkpt>
      <trkpt lat="41.39651" lon="19.65351">
        <ele>86.387888</ele>
        <time>2022-05-06T10:46:58.678Z</time>
      </trkpt>
      <trkpt lat="41.39644" lon="19.6536">
        <ele>86.667306</ele>
        <time>2022-05-06T10:47:01.554Z</time>
      </trkpt>
      <trkpt lat="41.39637" lon="19.65368">
        <ele>86.932423</ele>
        <time>2022-05-06T10:47:04.548Z</time>
      </trkpt>
      <trkpt lat="41.3963" lon="19.65376">
        <ele>87.211928</ele>
        <time>2022-05-06T10:47:07.551Z</time>
      </trkpt>
      <trkpt lat="41.39622" lon="19.65387">
        <ele>87.532142</ele>
        <time>2022-05-06T10:47:11.599Z</time>
      </trkpt>
      <trkpt lat="41.39614" lon="19.65396">
        <ele>87.840125</ele>
        <time>2022-05-06T10:47:15.549Z</time>
      </trkpt>
      <trkpt lat="41.39594" lon="19.65396">
        <ele>88.597601</ele>
        <time>2022-05-06T10:47:33.556Z</time>
      </trkpt>
      <trkpt lat="41.39588" lon="19.65388">
        <ele>89.16846</ele>
        <time>2022-05-06T10:47:37.554Z</time>
      </trkpt>
      <trkpt lat="41.39581" lon="19.65379">
        <ele>89.751276</ele>
        <time>2022-05-06T10:47:41.533Z</time>
      </trkpt>
      <trkpt lat="41.39574" lon="19.65371">
        <ele>90.35412</ele>
        <time>2022-05-06T10:47:45.551Z</time>
      </trkpt>
      <trkpt lat="41.39566" lon="19.65364">
        <ele>90.949616</ele>
        <time>2022-05-06T10:47:49.547Z</time>
      </trkpt>
      <trkpt lat="41.39574" lon="19.6537">
        <ele>91.530419</ele>
        <time>2022-05-06T10:48:02.545Z</time>
      </trkpt>
      <trkpt lat="41.39581" lon="19.65378">
        <ele>92.107793</ele>
        <time>2022-05-06T10:48:05.557Z</time>
      </trkpt>
      <trkpt lat="41.39582" lon="19.65392">
        <ele>92.749965</ele>
        <time>2022-05-06T10:48:10.540Z</time>
      </trkpt>
      <trkpt lat="41.39576" lon="19.65401">
        <ele>93.319545</ele>
        <time>2022-05-06T10:48:15.558Z</time>
      </trkpt>
      <trkpt lat="41.39571" lon="19.65412">
        <ele>93.952109</ele>
        <time>2022-05-06T10:48:20.546Z</time>
      </trkpt>
      <trkpt lat="41.39565" lon="19.65423">
        <ele>94.609856</ele>
        <time>2022-05-06T10:48:26.553Z</time>
      </trkpt>
      <trkpt lat="41.39559" lon="19.65434">
        <ele>95.26297</ele>
        <time>2022-05-06T10:48:31.551Z</time>
      </trkpt>
      <trkpt lat="41.39551" lon="19.65445">
        <ele>95.957658</ele>
        <time>2022-05-06T10:48:36.551Z</time>
      </trkpt>
      <trkpt lat="41.39544" lon="19.65453">
        <ele>96.544164</ele>
        <time>2022-05-06T10:48:40.545Z</time>
      </trkpt>
      <trkpt lat="41.39538" lon="19.65462">
        <ele>97.131464</ele>
        <time>2022-05-06T10:48:44.538Z</time>
      </trkpt>
      <trkpt lat="41.39529" lon="19.65466">
        <ele>97.724499</ele>
        <time>2022-05-06T10:48:49.551Z</time>
      </trkpt>
      <trkpt lat="41.39519" lon="19.65459">
        <ele>98.391136</ele>
        <time>2022-05-06T10:48:54.556Z</time>
      </trkpt>
      <trkpt lat="41.3951" lon="19.65454">
        <ele>99.039147</ele>
        <time>2022-05-06T10:48:58.592Z</time>
      </trkpt>
      <trkpt lat="41.39503" lon="19.65445">
        <ele>99.646839</ele>
        <time>2022-05-06T10:49:02.565Z</time>
      </trkpt>
      <trkpt lat="41.39492" lon="19.65444">
        <ele>100.436387</ele>
        <time>2022-05-06T10:49:06.548Z</time>
      </trkpt>
      <trkpt lat="41.39484" lon="19.65451">
        <ele>101.168826</ele>
        <time>2022-05-06T10:49:11.551Z</time>
      </trkpt>
      <trkpt lat="41.39477" lon="19.6546">
        <ele>101.885215</ele>
        <time>2022-05-06T10:49:16.585Z</time>
      </trkpt>
      <trkpt lat="41.39469" lon="19.65469">
        <ele>102.685278</ele>
        <time>2022-05-06T10:49:22.534Z</time>
      </trkpt>
      <trkpt lat="41.39461" lon="19.65476">
        <ele>103.385012</ele>
        <time>2022-05-06T10:49:26.599Z</time>
      </trkpt>
      <trkpt lat="41.39453" lon="19.65485">
        <ele>104.17316</ele>
        <time>2022-05-06T10:49:30.562Z</time>
      </trkpt>
      <trkpt lat="41.39445" lon="19.65495">
        <ele>105.007322</ele>
        <time>2022-05-06T10:49:34.543Z</time>
      </trkpt>
      <trkpt lat="41.39437" lon="19.65505">
        <ele>105.756292</ele>
        <time>2022-05-06T10:49:38.562Z</time>
      </trkpt>
      <trkpt lat="41.39428" lon="19.65513">
        <ele>106.587475</ele>
        <time>2022-05-06T10:49:42.559Z</time>
      </trkpt>
      <trkpt lat="41.39422" lon="19.65523">
        <ele>107.282738</ele>
        <time>2022-05-06T10:49:45.596Z</time>
      </trkpt>
      <trkpt lat="41.39415" lon="19.65534">
        <ele>108.107758</ele>
        <time>2022-05-06T10:49:48.555Z</time>
      </trkpt>
      <trkpt lat="41.39408" lon="19.65544">
        <ele>108.849656</ele>
        <time>2022-05-06T10:49:51.553Z</time>
      </trkpt>
      <trkpt lat="41.39402" lon="19.65555">
        <ele>109.615718</ele>
        <time>2022-05-06T10:49:54.547Z</time>
      </trkpt>
      <trkpt lat="41.39396" lon="19.65564">
        <ele>110.331164</ele>
        <time>2022-05-06T10:49:58.570Z</time>
      </trkpt>
      <trkpt lat="41.39396" lon="19.65577">
        <ele>111.01561</ele>
        <time>2022-05-06T10:50:02.535Z</time>
      </trkpt>
      <trkpt lat="41.39407" lon="19.65583">
        <ele>111.935715</ele>
        <time>2022-05-06T10:50:05.578Z</time>
      </trkpt>
      <trkpt lat="41.39415" lon="19.6559">
        <ele>112.645509</ele>
        <time>2022-05-06T10:50:08.540Z</time>
      </trkpt>
      <trkpt lat="41.39421" lon="19.656">
        <ele>112.559019</ele>
        <time>2022-05-06T10:50:11.539Z</time>
      </trkpt>
      <trkpt lat="41.39425" lon="19.65611">
        <ele>111.771107</ele>
        <time>2022-05-06T10:50:16.556Z</time>
      </trkpt>
      <trkpt lat="41.39421" lon="19.65622">
        <ele>110.953545</ele>
        <time>2022-05-06T10:50:22.541Z</time>
      </trkpt>
      <trkpt lat="41.39415" lon="19.65633">
        <ele>110.099198</ele>
        <time>2022-05-06T10:50:26.553Z</time>
      </trkpt>
      <trkpt lat="41.39406" lon="19.65645">
        <ele>109.08712</ele>
        <time>2022-05-06T10:50:30.574Z</time>
      </trkpt>
      <trkpt lat="41.39399" lon="19.65655">
        <ele>108.174394</ele>
        <time>2022-05-06T10:50:33.571Z</time>
      </trkpt>
      <trkpt lat="41.39394" lon="19.65664">
        <ele>107.407526</ele>
        <time>2022-05-06T10:50:36.575Z</time>
      </trkpt>
      <trkpt lat="41.39387" lon="19.65673">
        <ele>106.600184</ele>
        <time>2022-05-06T10:50:39.559Z</time>
      </trkpt>
      <trkpt lat="41.39378" lon="19.6568">
        <ele>105.74228</ele>
        <time>2022-05-06T10:50:43.562Z</time>
      </trkpt>
      <trkpt lat="41.39373" lon="19.6569">
        <ele>104.978986</ele>
        <time>2022-05-06T10:50:47.544Z</time>
      </trkpt>
      <trkpt lat="41.39366" lon="19.65701">
        <ele>104.065176</ele>
        <time>2022-05-06T10:50:52.553Z</time>
      </trkpt>
      <trkpt lat="41.39359" lon="19.65711">
        <ele>103.170524</ele>
        <time>2022-05-06T10:50:55.549Z</time>
      </trkpt>
      <trkpt lat="41.39351" lon="19.65722">
        <ele>102.207871</ele>
        <time>2022-05-06T10:50:58.552Z</time>
      </trkpt>
      <trkpt lat="41.39343" lon="19.65733">
        <ele>101.197236</ele>
        <time>2022-05-06T10:51:01.599Z</time>
      </trkpt>
      <trkpt lat="41.39334" lon="19.65744">
        <ele>100.171968</ele>
        <time>2022-05-06T10:51:04.578Z</time>
      </trkpt>
      <trkpt lat="41.39323" lon="19.65754">
        <ele>99.063489</ele>
        <time>2022-05-06T10:51:07.534Z</time>
      </trkpt>
      <trkpt lat="41.39314" lon="19.65765">
        <ele>98.053129</ele>
        <time>2022-05-06T10:51:10.590Z</time>
      </trkpt>
      <trkpt lat="41.39306" lon="19.65774">
        <ele>97.609549</ele>
        <time>2022-05-06T10:51:13.557Z</time>
      </trkpt>
      <trkpt lat="41.39299" lon="19.65785">
        <ele>97.518414</ele>
        <time>2022-05-06T10:51:16.555Z</time>
      </trkpt>
      <trkpt lat="41.39291" lon="19.65795">
        <ele>97.422871</ele>
        <time>2022-05-06T10:51:19.541Z</time>
      </trkpt>
      <trkpt lat="41.39282" lon="19.65804">
        <ele>97.32717</ele>
        <time>2022-05-06T10:51:22.572Z</time>
      </trkpt>
      <trkpt lat="41.39273" lon="19.65813">
        <ele>97.230049</ele>
        <time>2022-05-06T10:51:25.640Z</time>
      </trkpt>
      <trkpt lat="41.39265" lon="19.65823">
        <ele>97.13245</ele>
        <time>2022-05-06T10:51:28.550Z</time>
      </trkpt>
      <trkpt lat="41.39256" lon="19.65831">
        <ele>97.042943</ele>
        <time>2022-05-06T10:51:31.580Z</time>
      </trkpt>
      <trkpt lat="41.39246" lon="19.65835">
        <ele>96.950076</ele>
        <time>2022-05-06T10:51:34.553Z</time>
      </trkpt>
      <trkpt lat="41.39236" lon="19.65837">
        <ele>96.866466</ele>
        <time>2022-05-06T10:51:37.573Z</time>
      </trkpt>
      <trkpt lat="41.39228" lon="19.65846">
        <ele>96.779362</ele>
        <time>2022-05-06T10:51:40.570Z</time>
      </trkpt>
      <trkpt lat="41.39224" lon="19.65859">
        <ele>96.689253</ele>
        <time>2022-05-06T10:51:43.547Z</time>
      </trkpt>
      <trkpt lat="41.39218" lon="19.6587">
        <ele>96.602485</ele>
        <time>2022-05-06T10:51:46.548Z</time>
      </trkpt>
      <trkpt lat="41.39212" lon="19.65879">
        <ele>96.516892</ele>
        <time>2022-05-06T10:51:49.549Z</time>
      </trkpt>
      <trkpt lat="41.39204" lon="19.65889">
        <ele>96.426394</ele>
        <time>2022-05-06T10:51:52.558Z</time>
      </trkpt>
      <trkpt lat="41.39196" lon="19.65898">
        <ele>96.335655</ele>
        <time>2022-05-06T10:51:55.542Z</time>
      </trkpt>
      <trkpt lat="41.39188" lon="19.65907">
        <ele>96.246032</ele>
        <time>2022-05-06T10:51:58.543Z</time>
      </trkpt>
      <trkpt lat="41.39179" lon="19.65915">
        <ele>96.152225</ele>
        <time>2022-05-06T10:52:01.602Z</time>
      </trkpt>
      <trkpt lat="41.39169" lon="19.65923">
        <ele>96.124382</ele>
        <time>2022-05-06T10:52:04.559Z</time>
      </trkpt>
      <trkpt lat="41.39159" lon="19.65931">
        <ele>96.136189</ele>
        <time>2022-05-06T10:52:07.536Z</time>
      </trkpt>
      <trkpt lat="41.39148" lon="19.65939">
        <ele>96.148512</ele>
        <time>2022-05-06T10:52:10.577Z</time>
      </trkpt>
      <trkpt lat="41.39138" lon="19.65947">
        <ele>96.160685</ele>
        <time>2022-05-06T10:52:13.543Z</time>
      </trkpt>
      <trkpt lat="41.39127" lon="19.65954">
        <ele>96.173467</ele>
        <time>2022-05-06T10:52:16.540Z</time>
      </trkpt>
      <trkpt lat="41.39116" lon="19.65961">
        <ele>96.185574</ele>
        <time>2022-05-06T10:52:19.547Z</time>
      </trkpt>
      <trkpt lat="41.39105" lon="19.65967">
        <ele>96.197672</ele>
        <time>2022-05-06T10:52:22.550Z</time>
      </trkpt>
      <trkpt lat="41.39093" lon="19.65974">
        <ele>96.210762</ele>
        <time>2022-05-06T10:52:25.538Z</time>
      </trkpt>
      <trkpt lat="41.39081" lon="19.65981">
        <ele>96.223851</ele>
        <time>2022-05-06T10:52:28.546Z</time>
      </trkpt>
      <trkpt lat="41.39069" lon="19.65989">
        <ele>96.237514</ele>
        <time>2022-05-06T10:52:31.561Z</time>
      </trkpt>
      <trkpt lat="41.39061" lon="19.65994">
        <ele>96.246646</ele>
        <time>2022-05-06T10:52:33.546Z</time>
      </trkpt>
      <trkpt lat="41.3905" lon="19.66003">
        <ele>96.26027</ele>
        <time>2022-05-06T10:52:36.527Z</time>
      </trkpt>
      <trkpt lat="41.39039" lon="19.66012">
        <ele>96.273543</ele>
        <time>2022-05-06T10:52:39.542Z</time>
      </trkpt>
      <trkpt lat="41.39032" lon="19.6602">
        <ele>96.282782</ele>
        <time>2022-05-06T10:52:41.534Z</time>
      </trkpt>
      <trkpt lat="41.39026" lon="19.6603">
        <ele>96.292428</ele>
        <time>2022-05-06T10:52:43.551Z</time>
      </trkpt>
      <trkpt lat="41.3902" lon="19.66041">
        <ele>96.293894</ele>
        <time>2022-05-06T10:52:45.544Z</time>
      </trkpt>
      <trkpt lat="41.39015" lon="19.66052">
        <ele>96.275172</ele>
        <time>2022-05-06T10:52:47.533Z</time>
      </trkpt>
      <trkpt lat="41.39013" lon="19.66065">
        <ele>96.255885</ele>
        <time>2022-05-06T10:52:49.549Z</time>
      </trkpt>
      <trkpt lat="41.39017" lon="19.66078">
        <ele>96.235766</ele>
        <time>2022-05-06T10:52:51.555Z</time>
      </trkpt>
      <trkpt lat="41.39025" lon="19.66086">
        <ele>96.215845</ele>
        <time>2022-05-06T10:52:53.517Z</time>
      </trkpt>
      <trkpt lat="41.39036" lon="19.66091">
        <ele>96.194251</ele>
        <time>2022-05-06T10:52:55.543Z</time>
      </trkpt>
      <trkpt lat="41.39046" lon="19.66098">
        <ele>96.172393</ele>
        <time>2022-05-06T10:52:57.565Z</time>
      </trkpt>
      <trkpt lat="41.39059" lon="19.66107">
        <ele>96.144302</ele>
        <time>2022-05-06T10:53:00.555Z</time>
      </trkpt>
      <trkpt lat="41.39069" lon="19.66118">
        <ele>96.119017</ele>
        <time>2022-05-06T10:53:02.557Z</time>
      </trkpt>
      <trkpt lat="41.39073" lon="19.66129">
        <ele>96.100851</ele>
        <time>2022-05-06T10:53:04.551Z</time>
      </trkpt>
      <trkpt lat="41.39072" lon="19.66142">
        <ele>96.08191</ele>
        <time>2022-05-06T10:53:06.568Z</time>
      </trkpt>
      <trkpt lat="41.3907" lon="19.66154">
        <ele>96.063021</ele>
        <time>2022-05-06T10:53:08.551Z</time>
      </trkpt>
      <trkpt lat="41.39067" lon="19.66166">
        <ele>96.045548</ele>
        <time>2022-05-06T10:53:10.572Z</time>
      </trkpt>
      <trkpt lat="41.39063" lon="19.66178">
        <ele>96.026397</ele>
        <time>2022-05-06T10:53:13.550Z</time>
      </trkpt>
      <trkpt lat="41.39055" lon="19.66185">
        <ele>96.007574</ele>
        <time>2022-05-06T10:53:18.529Z</time>
      </trkpt>
      <trkpt lat="41.39048" lon="19.66195">
        <ele>95.988002</ele>
        <time>2022-05-06T10:53:22.542Z</time>
      </trkpt>
      <trkpt lat="41.3904" lon="19.66205">
        <ele>95.966171</ele>
        <time>2022-05-06T10:53:25.539Z</time>
      </trkpt>
      <trkpt lat="41.39033" lon="19.66214">
        <ele>95.972722</ele>
        <time>2022-05-06T10:53:28.559Z</time>
      </trkpt>
      <trkpt lat="41.39024" lon="19.66222">
        <ele>96.096319</ele>
        <time>2022-05-06T10:53:31.529Z</time>
      </trkpt>
      <trkpt lat="41.39015" lon="19.66229">
        <ele>96.225804</ele>
        <time>2022-05-06T10:53:34.553Z</time>
      </trkpt>
      <trkpt lat="41.39006" lon="19.66235">
        <ele>96.352956</ele>
        <time>2022-05-06T10:53:37.545Z</time>
      </trkpt>
      <trkpt lat="41.38997" lon="19.66241">
        <ele>96.472561</ele>
        <time>2022-05-06T10:53:40.538Z</time>
      </trkpt>
      <trkpt lat="41.38988" lon="19.66246">
        <ele>96.588531</ele>
        <time>2022-05-06T10:53:43.548Z</time>
      </trkpt>
      <trkpt lat="41.38978" lon="19.66254">
        <ele>96.730389</ele>
        <time>2022-05-06T10:53:46.542Z</time>
      </trkpt>
      <trkpt lat="41.38967" lon="19.66262">
        <ele>96.877348</ele>
        <time>2022-05-06T10:53:49.549Z</time>
      </trkpt>
      <trkpt lat="41.38957" lon="19.66271">
        <ele>97.029688</ele>
        <time>2022-05-06T10:53:52.551Z</time>
      </trkpt>
      <trkpt lat="41.38946" lon="19.66281">
        <ele>97.184055</ele>
        <time>2022-05-06T10:53:55.572Z</time>
      </trkpt>
      <trkpt lat="41.38938" lon="19.66291">
        <ele>97.328756</ele>
        <time>2022-05-06T10:53:58.546Z</time>
      </trkpt>
      <trkpt lat="41.38929" lon="19.66303">
        <ele>97.478403</ele>
        <time>2022-05-06T10:54:01.542Z</time>
      </trkpt>
      <trkpt lat="41.38919" lon="19.66314">
        <ele>97.636698</ele>
        <time>2022-05-06T10:54:04.541Z</time>
      </trkpt>
      <trkpt lat="41.38909" lon="19.66326">
        <ele>97.793483</ele>
        <time>2022-05-06T10:54:07.539Z</time>
      </trkpt>
      <trkpt lat="41.389" lon="19.66337">
        <ele>97.944541</ele>
        <time>2022-05-06T10:54:10.540Z</time>
      </trkpt>
      <trkpt lat="41.3889" lon="19.66348">
        <ele>98.098304</ele>
        <time>2022-05-06T10:54:13.538Z</time>
      </trkpt>
      <trkpt lat="41.38881" lon="19.6636">
        <ele>98.008665</ele>
        <time>2022-05-06T10:54:16.542Z</time>
      </trkpt>
      <trkpt lat="41.38872" lon="19.66371">
        <ele>97.855099</ele>
        <time>2022-05-06T10:54:19.550Z</time>
      </trkpt>
      <trkpt lat="41.38863" lon="19.66382">
        <ele>97.702757</ele>
        <time>2022-05-06T10:54:22.531Z</time>
      </trkpt>
      <trkpt lat="41.38854" lon="19.66393">
        <ele>97.548568</ele>
        <time>2022-05-06T10:54:25.538Z</time>
      </trkpt>
      <trkpt lat="41.38845" lon="19.66404">
        <ele>97.392122</ele>
        <time>2022-05-06T10:54:28.568Z</time>
      </trkpt>
      <trkpt lat="41.38836" lon="19.66415">
        <ele>97.242884</ele>
        <time>2022-05-06T10:54:31.545Z</time>
      </trkpt>
      <trkpt lat="41.38828" lon="19.66424">
        <ele>97.10413</ele>
        <time>2022-05-06T10:54:34.541Z</time>
      </trkpt>
      <trkpt lat="41.3882" lon="19.66435">
        <ele>96.967368</ele>
        <time>2022-05-06T10:54:37.543Z</time>
      </trkpt>
      <trkpt lat="41.38812" lon="19.66445">
        <ele>96.827726</ele>
        <time>2022-05-06T10:54:40.535Z</time>
      </trkpt>
      <trkpt lat="41.38803" lon="19.66457">
        <ele>96.673538</ele>
        <time>2022-05-06T10:54:43.538Z</time>
      </trkpt>
      <trkpt lat="41.38795" lon="19.66467">
        <ele>96.538933</ele>
        <time>2022-05-06T10:54:46.574Z</time>
      </trkpt>
      <trkpt lat="41.38787" lon="19.66477">
        <ele>96.398087</ele>
        <time>2022-05-06T10:54:49.541Z</time>
      </trkpt>
      <trkpt lat="41.38779" lon="19.66487">
        <ele>96.255966</ele>
        <time>2022-05-06T10:54:52.549Z</time>
      </trkpt>
      <trkpt lat="41.3877" lon="19.66498">
        <ele>96.111096</ele>
        <time>2022-05-06T10:54:55.550Z</time>
      </trkpt>
      <trkpt lat="41.38761" lon="19.66508">
        <ele>95.966852</ele>
        <time>2022-05-06T10:54:58.538Z</time>
      </trkpt>
      <trkpt lat="41.38752" lon="19.66519">
        <ele>95.875513</ele>
        <time>2022-05-06T10:55:01.545Z</time>
      </trkpt>
      <trkpt lat="41.38743" lon="19.66529">
        <ele>95.851886</ele>
        <time>2022-05-06T10:55:04.535Z</time>
      </trkpt>
      <trkpt lat="41.38734" lon="19.6654">
        <ele>95.828452</ele>
        <time>2022-05-06T10:55:07.565Z</time>
      </trkpt>
      <trkpt lat="41.38725" lon="19.66551">
        <ele>95.804772</ele>
        <time>2022-05-06T10:55:10.529Z</time>
      </trkpt>
      <trkpt lat="41.38715" lon="19.66562">
        <ele>95.781194</ele>
        <time>2022-05-06T10:55:13.539Z</time>
      </trkpt>
      <trkpt lat="41.38706" lon="19.66573">
        <ele>95.75824</ele>
        <time>2022-05-06T10:55:16.561Z</time>
      </trkpt>
      <trkpt lat="41.38698" lon="19.66583">
        <ele>95.735572</ele>
        <time>2022-05-06T10:55:19.601Z</time>
      </trkpt>
      <trkpt lat="41.38688" lon="19.66594">
        <ele>95.711944</ele>
        <time>2022-05-06T10:55:22.544Z</time>
      </trkpt>
      <trkpt lat="41.38679" lon="19.66606">
        <ele>95.686573</ele>
        <time>2022-05-06T10:55:25.560Z</time>
      </trkpt>
      <trkpt lat="41.3867" lon="19.66617">
        <ele>95.662456</ele>
        <time>2022-05-06T10:55:28.570Z</time>
      </trkpt>
      <trkpt lat="41.3866" lon="19.66628">
        <ele>95.63859</ele>
        <time>2022-05-06T10:55:31.532Z</time>
      </trkpt>
      <trkpt lat="41.38651" lon="19.66639">
        <ele>95.6153</ele>
        <time>2022-05-06T10:55:34.550Z</time>
      </trkpt>
      <trkpt lat="41.38643" lon="19.66651">
        <ele>95.59166</ele>
        <time>2022-05-06T10:55:37.576Z</time>
      </trkpt>
      <trkpt lat="41.38633" lon="19.66662">
        <ele>95.567459</ele>
        <time>2022-05-06T10:55:40.546Z</time>
      </trkpt>
      <trkpt lat="41.38624" lon="19.66673">
        <ele>95.544017</ele>
        <time>2022-05-06T10:55:43.538Z</time>
      </trkpt>
      <trkpt lat="41.38615" lon="19.66683">
        <ele>95.614558</ele>
        <time>2022-05-06T10:55:46.543Z</time>
      </trkpt>
      <trkpt lat="41.38606" lon="19.66694">
        <ele>95.696523</ele>
        <time>2022-05-06T10:55:49.546Z</time>
      </trkpt>
      <trkpt lat="41.38598" lon="19.66705">
        <ele>95.776922</ele>
        <time>2022-05-06T10:55:52.571Z</time>
      </trkpt>
      <trkpt lat="41.38589" lon="19.66716">
        <ele>95.860098</ele>
        <time>2022-05-06T10:55:55.559Z</time>
      </trkpt>
      <trkpt lat="41.38581" lon="19.66727">
        <ele>95.940498</ele>
        <time>2022-05-06T10:55:58.574Z</time>
      </trkpt>
      <trkpt lat="41.38571" lon="19.66738">
        <ele>96.025659</ele>
        <time>2022-05-06T10:56:01.540Z</time>
      </trkpt>
      <trkpt lat="41.38562" lon="19.66748">
        <ele>96.10757</ele>
        <time>2022-05-06T10:56:04.555Z</time>
      </trkpt>
      <trkpt lat="41.38553" lon="19.66758">
        <ele>96.191782</ele>
        <time>2022-05-06T10:56:07.547Z</time>
      </trkpt>
      <trkpt lat="41.38543" lon="19.66769">
        <ele>96.278658</ele>
        <time>2022-05-06T10:56:10.531Z</time>
      </trkpt>
      <trkpt lat="41.38535" lon="19.66781">
        <ele>96.363406</ele>
        <time>2022-05-06T10:56:13.553Z</time>
      </trkpt>
      <trkpt lat="41.38526" lon="19.66792">
        <ele>96.448289</ele>
        <time>2022-05-06T10:56:16.547Z</time>
      </trkpt>
      <trkpt lat="41.38517" lon="19.66804">
        <ele>96.53246</ele>
        <time>2022-05-06T10:56:19.562Z</time>
      </trkpt>
      <trkpt lat="41.38508" lon="19.66814">
        <ele>96.616594</ele>
        <time>2022-05-06T10:56:22.536Z</time>
      </trkpt>
      <trkpt lat="41.38498" lon="19.66826">
        <ele>96.706396</ele>
        <time>2022-05-06T10:56:25.558Z</time>
      </trkpt>
      <trkpt lat="41.38489" lon="19.66838">
        <ele>96.864883</ele>
        <time>2022-05-06T10:56:28.550Z</time>
      </trkpt>
      <trkpt lat="41.3848" lon="19.66849">
        <ele>97.359361</ele>
        <time>2022-05-06T10:56:31.546Z</time>
      </trkpt>
      <trkpt lat="41.38471" lon="19.6686">
        <ele>97.822559</ele>
        <time>2022-05-06T10:56:34.557Z</time>
      </trkpt>
      <trkpt lat="41.38463" lon="19.6687">
        <ele>98.270783</ele>
        <time>2022-05-06T10:56:37.548Z</time>
      </trkpt>
      <trkpt lat="41.38454" lon="19.66881">
        <ele>98.73855</ele>
        <time>2022-05-06T10:56:40.550Z</time>
      </trkpt>
      <trkpt lat="41.38446" lon="19.66891">
        <ele>99.176148</ele>
        <time>2022-05-06T10:56:43.547Z</time>
      </trkpt>
      <trkpt lat="41.38437" lon="19.66901">
        <ele>99.616478</ele>
        <time>2022-05-06T10:56:46.542Z</time>
      </trkpt>
      <trkpt lat="41.38429" lon="19.66911">
        <ele>100.060734</ele>
        <time>2022-05-06T10:56:49.566Z</time>
      </trkpt>
      <trkpt lat="41.3842" lon="19.66922">
        <ele>100.515747</ele>
        <time>2022-05-06T10:56:52.552Z</time>
      </trkpt>
      <trkpt lat="41.38412" lon="19.66931">
        <ele>100.961992</ele>
        <time>2022-05-06T10:56:55.552Z</time>
      </trkpt>
      <trkpt lat="41.38403" lon="19.66941">
        <ele>101.394607</ele>
        <time>2022-05-06T10:56:58.552Z</time>
      </trkpt>
      <trkpt lat="41.38395" lon="19.6695">
        <ele>101.807621</ele>
        <time>2022-05-06T10:57:01.530Z</time>
      </trkpt>
      <trkpt lat="41.38388" lon="19.66958">
        <ele>102.189325</ele>
        <time>2022-05-06T10:57:04.545Z</time>
      </trkpt>
      <trkpt lat="41.38382" lon="19.66967">
        <ele>102.547152</ele>
        <time>2022-05-06T10:57:07.564Z</time>
      </trkpt>
      <trkpt lat="41.38376" lon="19.66976">
        <ele>102.902319</ele>
        <time>2022-05-06T10:57:10.551Z</time>
      </trkpt>
      <trkpt lat="41.38368" lon="19.66985">
        <ele>103.294831</ele>
        <time>2022-05-06T10:57:13.553Z</time>
      </trkpt>
      <trkpt lat="41.38361" lon="19.66995">
        <ele>103.700355</ele>
        <time>2022-05-06T10:57:16.553Z</time>
      </trkpt>
      <trkpt lat="41.38353" lon="19.67005">
        <ele>103.923624</ele>
        <time>2022-05-06T10:57:19.539Z</time>
      </trkpt>
      <trkpt lat="41.38346" lon="19.67015">
        <ele>104.043062</ele>
        <time>2022-05-06T10:57:22.597Z</time>
      </trkpt>
      <trkpt lat="41.38338" lon="19.67023">
        <ele>104.164768</ele>
        <time>2022-05-06T10:57:25.556Z</time>
      </trkpt>
      <trkpt lat="41.3833" lon="19.67032">
        <ele>104.289384</ele>
        <time>2022-05-06T10:57:28.544Z</time>
      </trkpt>
      <trkpt lat="41.38322" lon="19.67042">
        <ele>104.41712</ele>
        <time>2022-05-06T10:57:31.547Z</time>
      </trkpt>
      <trkpt lat="41.38313" lon="19.67052">
        <ele>104.551374</ele>
        <time>2022-05-06T10:57:34.564Z</time>
      </trkpt>
      <trkpt lat="41.38304" lon="19.67062">
        <ele>104.679938</ele>
        <time>2022-05-06T10:57:37.541Z</time>
      </trkpt>
      <trkpt lat="41.38296" lon="19.6707">
        <ele>104.802003</ele>
        <time>2022-05-06T10:57:40.532Z</time>
      </trkpt>
      <trkpt lat="41.38288" lon="19.67079">
        <ele>104.920466</ele>
        <time>2022-05-06T10:57:43.546Z</time>
      </trkpt>
      <trkpt lat="41.3828" lon="19.67087">
        <ele>105.040386</ele>
        <time>2022-05-06T10:57:46.543Z</time>
      </trkpt>
      <trkpt lat="41.38271" lon="19.67095">
        <ele>105.166018</ele>
        <time>2022-05-06T10:57:49.558Z</time>
      </trkpt>
      <trkpt lat="41.38262" lon="19.67104">
        <ele>105.292592</ele>
        <time>2022-05-06T10:57:52.535Z</time>
      </trkpt>
      <trkpt lat="41.38254" lon="19.67112">
        <ele>105.413042</ele>
        <time>2022-05-06T10:57:55.543Z</time>
      </trkpt>
      <trkpt lat="41.38246" lon="19.6712">
        <ele>105.526089</ele>
        <time>2022-05-06T10:57:58.541Z</time>
      </trkpt>
      <trkpt lat="41.38238" lon="19.67128">
        <ele>105.642411</ele>
        <time>2022-05-06T10:58:01.534Z</time>
      </trkpt>
      <trkpt lat="41.3823" lon="19.67136">
        <ele>105.759308</ele>
        <time>2022-05-06T10:58:04.558Z</time>
      </trkpt>
      <trkpt lat="41.38222" lon="19.67144">
        <ele>105.876847</ele>
        <time>2022-05-06T10:58:07.553Z</time>
      </trkpt>
      <trkpt lat="41.38213" lon="19.67152">
        <ele>106.042125</ele>
        <time>2022-05-06T10:58:10.556Z</time>
      </trkpt>
      <trkpt lat="41.38204" lon="19.67159">
        <ele>106.249871</ele>
        <time>2022-05-06T10:58:13.535Z</time>
      </trkpt>
      <trkpt lat="41.38195" lon="19.67167">
        <ele>106.461539</ele>
        <time>2022-05-06T10:58:16.569Z</time>
      </trkpt>
      <trkpt lat="41.38186" lon="19.67174">
        <ele>106.665893</ele>
        <time>2022-05-06T10:58:19.541Z</time>
      </trkpt>
      <trkpt lat="41.38176" lon="19.67182">
        <ele>106.88402</ele>
        <time>2022-05-06T10:58:22.552Z</time>
      </trkpt>
      <trkpt lat="41.38166" lon="19.67191">
        <ele>107.112485</ele>
        <time>2022-05-06T10:58:25.553Z</time>
      </trkpt>
      <trkpt lat="41.38157" lon="19.67198">
        <ele>107.322513</ele>
        <time>2022-05-06T10:58:28.553Z</time>
      </trkpt>
      <trkpt lat="41.38148" lon="19.67206">
        <ele>107.536589</ele>
        <time>2022-05-06T10:58:31.550Z</time>
      </trkpt>
      <trkpt lat="41.38139" lon="19.67214">
        <ele>107.743591</ele>
        <time>2022-05-06T10:58:34.554Z</time>
      </trkpt>
      <trkpt lat="41.38129" lon="19.67221">
        <ele>107.968335</ele>
        <time>2022-05-06T10:58:37.544Z</time>
      </trkpt>
      <trkpt lat="41.38119" lon="19.6723">
        <ele>108.183919</ele>
        <time>2022-05-06T10:58:40.555Z</time>
      </trkpt>
      <trkpt lat="41.3811" lon="19.67237">
        <ele>108.400536</ele>
        <time>2022-05-06T10:58:43.549Z</time>
      </trkpt>
      <trkpt lat="41.38099" lon="19.67245">
        <ele>108.627109</ele>
        <time>2022-05-06T10:58:46.561Z</time>
      </trkpt>
      <trkpt lat="41.38089" lon="19.67252">
        <ele>108.84515</ele>
        <time>2022-05-06T10:58:49.531Z</time>
      </trkpt>
      <trkpt lat="41.38079" lon="19.67258">
        <ele>109.06311</ele>
        <time>2022-05-06T10:58:52.551Z</time>
      </trkpt>
      <trkpt lat="41.38069" lon="19.67265">
        <ele>109.28282</ele>
        <time>2022-05-06T10:58:55.570Z</time>
      </trkpt>
      <trkpt lat="41.38058" lon="19.67273">
        <ele>109.389134</ele>
        <time>2022-05-06T10:58:58.534Z</time>
      </trkpt>
      <trkpt lat="41.38048" lon="19.67281">
        <ele>109.340769</ele>
        <time>2022-05-06T10:59:01.561Z</time>
      </trkpt>
      <trkpt lat="41.38037" lon="19.67288">
        <ele>109.290699</ele>
        <time>2022-05-06T10:59:04.596Z</time>
      </trkpt>
      <trkpt lat="41.38026" lon="19.67296">
        <ele>109.24222</ele>
        <time>2022-05-06T10:59:07.539Z</time>
      </trkpt>
      <trkpt lat="41.38016" lon="19.67302">
        <ele>109.195128</ele>
        <time>2022-05-06T10:59:10.541Z</time>
      </trkpt>
      <trkpt lat="41.38005" lon="19.67308">
        <ele>109.146853</ele>
        <time>2022-05-06T10:59:13.548Z</time>
      </trkpt>
      <trkpt lat="41.37994" lon="19.67315">
        <ele>109.095874</ele>
        <time>2022-05-06T10:59:16.560Z</time>
      </trkpt>
      <trkpt lat="41.37983" lon="19.67321">
        <ele>109.045914</ele>
        <time>2022-05-06T10:59:19.552Z</time>
      </trkpt>
      <trkpt lat="41.3797" lon="19.67329">
        <ele>108.990573</ele>
        <time>2022-05-06T10:59:22.543Z</time>
      </trkpt>
      <trkpt lat="41.37963" lon="19.67335">
        <ele>108.953295</ele>
        <time>2022-05-06T10:59:24.553Z</time>
      </trkpt>
      <trkpt lat="41.37951" lon="19.67343">
        <ele>108.901706</ele>
        <time>2022-05-06T10:59:27.536Z</time>
      </trkpt>
      <trkpt lat="41.37941" lon="19.6735">
        <ele>108.852737</ele>
        <time>2022-05-06T10:59:30.550Z</time>
      </trkpt>
      <trkpt lat="41.3793" lon="19.67357">
        <ele>108.803961</ele>
        <time>2022-05-06T10:59:33.554Z</time>
      </trkpt>
      <trkpt lat="41.37918" lon="19.67365">
        <ele>108.750601</ele>
        <time>2022-05-06T10:59:36.551Z</time>
      </trkpt>
      <trkpt lat="41.3791" lon="19.67369">
        <ele>108.713251</ele>
        <time>2022-05-06T10:59:38.535Z</time>
      </trkpt>
      <trkpt lat="41.37901" lon="19.67374">
        <ele>108.671525</ele>
        <time>2022-05-06T10:59:40.555Z</time>
      </trkpt>
      <trkpt lat="41.37893" lon="19.6738">
        <ele>108.484155</ele>
        <time>2022-05-06T10:59:42.529Z</time>
      </trkpt>
      <trkpt lat="41.37885" lon="19.67386">
        <ele>108.304268</ele>
        <time>2022-05-06T10:59:44.577Z</time>
      </trkpt>
      <trkpt lat="41.37876" lon="19.67391">
        <ele>108.114223</ele>
        <time>2022-05-06T10:59:46.541Z</time>
      </trkpt>
      <trkpt lat="41.37868" lon="19.67398">
        <ele>107.925786</ele>
        <time>2022-05-06T10:59:48.571Z</time>
      </trkpt>
      <trkpt lat="41.3786" lon="19.67404">
        <ele>107.731535</ele>
        <time>2022-05-06T10:59:50.530Z</time>
      </trkpt>
      <trkpt lat="41.37851" lon="19.6741">
        <ele>107.539043</ele>
        <time>2022-05-06T10:59:52.549Z</time>
      </trkpt>
      <trkpt lat="41.37842" lon="19.67416">
        <ele>107.341986</ele>
        <time>2022-05-06T10:59:54.551Z</time>
      </trkpt>
      <trkpt lat="41.37833" lon="19.67423">
        <ele>107.134799</ele>
        <time>2022-05-06T10:59:56.560Z</time>
      </trkpt>
      <trkpt lat="41.37824" lon="19.6743">
        <ele>106.921994</ele>
        <time>2022-05-06T10:59:58.558Z</time>
      </trkpt>
      <trkpt lat="41.37814" lon="19.67437">
        <ele>106.698694</ele>
        <time>2022-05-06T11:00:00.550Z</time>
      </trkpt>
      <trkpt lat="41.37804" lon="19.67444">
        <ele>106.485167</ele>
        <time>2022-05-06T11:00:02.552Z</time>
      </trkpt>
      <trkpt lat="41.37794" lon="19.67451">
        <ele>106.263626</ele>
        <time>2022-05-06T11:00:04.537Z</time>
      </trkpt>
      <trkpt lat="41.37784" lon="19.67457">
        <ele>106.036996</ele>
        <time>2022-05-06T11:00:06.532Z</time>
      </trkpt>
      <trkpt lat="41.37774" lon="19.67464">
        <ele>105.810835</ele>
        <time>2022-05-06T11:00:08.570Z</time>
      </trkpt>
      <trkpt lat="41.37764" lon="19.67471">
        <ele>105.59174</ele>
        <time>2022-05-06T11:00:10.551Z</time>
      </trkpt>
      <trkpt lat="41.37755" lon="19.67478">
        <ele>105.377903</ele>
        <time>2022-05-06T11:00:12.528Z</time>
      </trkpt>
      <trkpt lat="41.37745" lon="19.67484">
        <ele>105.168264</ele>
        <time>2022-05-06T11:00:14.536Z</time>
      </trkpt>
      <trkpt lat="41.37736" lon="19.67491">
        <ele>104.934324</ele>
        <time>2022-05-06T11:00:16.550Z</time>
      </trkpt>
      <trkpt lat="41.37726" lon="19.67498">
        <ele>104.680671</ele>
        <time>2022-05-06T11:00:18.532Z</time>
      </trkpt>
      <trkpt lat="41.37716" lon="19.67506">
        <ele>104.415961</ele>
        <time>2022-05-06T11:00:20.552Z</time>
      </trkpt>
      <trkpt lat="41.37706" lon="19.67513">
        <ele>104.141996</ele>
        <time>2022-05-06T11:00:22.534Z</time>
      </trkpt>
      <trkpt lat="41.37696" lon="19.6752">
        <ele>103.890349</ele>
        <time>2022-05-06T11:00:24.547Z</time>
      </trkpt>
      <trkpt lat="41.37687" lon="19.67527">
        <ele>103.649753</ele>
        <time>2022-05-06T11:00:26.559Z</time>
      </trkpt>
      <trkpt lat="41.37678" lon="19.67535">
        <ele>103.410222</ele>
        <time>2022-05-06T11:00:28.545Z</time>
      </trkpt>
      <trkpt lat="41.37669" lon="19.67542">
        <ele>103.170817</ele>
        <time>2022-05-06T11:00:30.568Z</time>
      </trkpt>
      <trkpt lat="41.37661" lon="19.67551">
        <ele>102.929074</ele>
        <time>2022-05-06T11:00:32.539Z</time>
      </trkpt>
      <trkpt lat="41.37653" lon="19.6756">
        <ele>102.688102</ele>
        <time>2022-05-06T11:00:34.556Z</time>
      </trkpt>
      <trkpt lat="41.37644" lon="19.67568">
        <ele>102.443927</ele>
        <time>2022-05-06T11:00:36.535Z</time>
      </trkpt>
      <trkpt lat="41.37636" lon="19.67577">
        <ele>102.196889</ele>
        <time>2022-05-06T11:00:38.547Z</time>
      </trkpt>
      <trkpt lat="41.37627" lon="19.67587">
        <ele>101.943397</ele>
        <time>2022-05-06T11:00:40.548Z</time>
      </trkpt>
      <trkpt lat="41.37619" lon="19.67596">
        <ele>101.685975</ele>
        <time>2022-05-06T11:00:42.545Z</time>
      </trkpt>
      <trkpt lat="41.3761" lon="19.67605">
        <ele>101.440921</ele>
        <time>2022-05-06T11:00:44.549Z</time>
      </trkpt>
      <trkpt lat="41.37602" lon="19.67614">
        <ele>101.198887</ele>
        <time>2022-05-06T11:00:46.547Z</time>
      </trkpt>
      <trkpt lat="41.37593" lon="19.67623">
        <ele>100.960111</ele>
        <time>2022-05-06T11:00:48.569Z</time>
      </trkpt>
      <trkpt lat="41.37585" lon="19.67632">
        <ele>100.811548</ele>
        <time>2022-05-06T11:00:50.579Z</time>
      </trkpt>
      <trkpt lat="41.37575" lon="19.67642">
        <ele>100.655098</ele>
        <time>2022-05-06T11:00:52.541Z</time>
      </trkpt>
      <trkpt lat="41.37566" lon="19.67652">
        <ele>100.497622</ele>
        <time>2022-05-06T11:00:54.549Z</time>
      </trkpt>
      <trkpt lat="41.37557" lon="19.67663">
        <ele>100.335174</ele>
        <time>2022-05-06T11:00:56.550Z</time>
      </trkpt>
      <trkpt lat="41.37547" lon="19.67674">
        <ele>100.17155</ele>
        <time>2022-05-06T11:00:58.552Z</time>
      </trkpt>
      <trkpt lat="41.37539" lon="19.67684">
        <ele>100.012866</ele>
        <time>2022-05-06T11:01:00.544Z</time>
      </trkpt>
      <trkpt lat="41.37529" lon="19.67694">
        <ele>99.854724</ele>
        <time>2022-05-06T11:01:02.542Z</time>
      </trkpt>
      <trkpt lat="41.37519" lon="19.67705">
        <ele>99.687699</ele>
        <time>2022-05-06T11:01:04.536Z</time>
      </trkpt>
      <trkpt lat="41.3751" lon="19.67714">
        <ele>99.525776</ele>
        <time>2022-05-06T11:01:06.550Z</time>
      </trkpt>
      <trkpt lat="41.37501" lon="19.67724">
        <ele>99.372241</ele>
        <time>2022-05-06T11:01:08.525Z</time>
      </trkpt>
      <trkpt lat="41.37492" lon="19.67733">
        <ele>99.222836</ele>
        <time>2022-05-06T11:01:10.550Z</time>
      </trkpt>
      <trkpt lat="41.37483" lon="19.67743">
        <ele>99.076054</ele>
        <time>2022-05-06T11:01:12.541Z</time>
      </trkpt>
      <trkpt lat="41.37474" lon="19.67753">
        <ele>98.920861</ele>
        <time>2022-05-06T11:01:14.536Z</time>
      </trkpt>
      <trkpt lat="41.37466" lon="19.67761">
        <ele>98.779747</ele>
        <time>2022-05-06T11:01:16.548Z</time>
      </trkpt>
      <trkpt lat="41.37457" lon="19.6777">
        <ele>98.636656</ele>
        <time>2022-05-06T11:01:18.536Z</time>
      </trkpt>
      <trkpt lat="41.37448" lon="19.67779">
        <ele>98.702098</ele>
        <time>2022-05-06T11:01:20.562Z</time>
      </trkpt>
      <trkpt lat="41.3744" lon="19.67787">
        <ele>98.829901</ele>
        <time>2022-05-06T11:01:22.571Z</time>
      </trkpt>
      <trkpt lat="41.37432" lon="19.67796">
        <ele>98.958868</ele>
        <time>2022-05-06T11:01:24.546Z</time>
      </trkpt>
      <trkpt lat="41.37425" lon="19.67806">
        <ele>99.08653</ele>
        <time>2022-05-06T11:01:26.528Z</time>
      </trkpt>
      <trkpt lat="41.37417" lon="19.67813">
        <ele>99.205232</ele>
        <time>2022-05-06T11:01:28.554Z</time>
      </trkpt>
      <trkpt lat="41.37406" lon="19.67823">
        <ele>99.367848</ele>
        <time>2022-05-06T11:01:31.538Z</time>
      </trkpt>
      <trkpt lat="41.37395" lon="19.67833">
        <ele>99.531419</ele>
        <time>2022-05-06T11:01:34.549Z</time>
      </trkpt>
      <trkpt lat="41.37386" lon="19.67841">
        <ele>99.658201</ele>
        <time>2022-05-06T11:01:36.546Z</time>
      </trkpt>
      <trkpt lat="41.37378" lon="19.67849">
        <ele>99.783046</ele>
        <time>2022-05-06T11:01:38.539Z</time>
      </trkpt>
      <trkpt lat="41.3737" lon="19.67857">
        <ele>99.901865</ele>
        <time>2022-05-06T11:01:40.591Z</time>
      </trkpt>
      <trkpt lat="41.37362" lon="19.67865">
        <ele>100.026709</ele>
        <time>2022-05-06T11:01:42.548Z</time>
      </trkpt>
      <trkpt lat="41.37354" lon="19.67872">
        <ele>100.147941</ele>
        <time>2022-05-06T11:01:44.536Z</time>
      </trkpt>
      <trkpt lat="41.37347" lon="19.67881">
        <ele>100.271957</ele>
        <time>2022-05-06T11:01:46.560Z</time>
      </trkpt>
      <trkpt lat="41.3734" lon="19.67891">
        <ele>100.39303</ele>
        <time>2022-05-06T11:01:48.546Z</time>
      </trkpt>
      <trkpt lat="41.37334" lon="19.67903">
        <ele>100.525793</ele>
        <time>2022-05-06T11:01:50.552Z</time>
      </trkpt>
      <trkpt lat="41.37328" lon="19.67915">
        <ele>100.660261</ele>
        <time>2022-05-06T11:01:52.530Z</time>
      </trkpt>
      <trkpt lat="41.37322" lon="19.67927">
        <ele>100.788317</ele>
        <time>2022-05-06T11:01:54.588Z</time>
      </trkpt>
      <trkpt lat="41.37316" lon="19.67939">
        <ele>100.620021</ele>
        <time>2022-05-06T11:01:56.559Z</time>
      </trkpt>
      <trkpt lat="41.37311" lon="19.67951">
        <ele>100.405693</ele>
        <time>2022-05-06T11:01:58.540Z</time>
      </trkpt>
      <trkpt lat="41.37305" lon="19.67963">
        <ele>100.189376</ele>
        <time>2022-05-06T11:02:00.550Z</time>
      </trkpt>
      <trkpt lat="41.37299" lon="19.67974">
        <ele>99.962339</ele>
        <time>2022-05-06T11:02:02.547Z</time>
      </trkpt>
      <trkpt lat="41.37292" lon="19.67987">
        <ele>99.721697</ele>
        <time>2022-05-06T11:02:04.548Z</time>
      </trkpt>
      <trkpt lat="41.37284" lon="19.67999">
        <ele>99.472355</ele>
        <time>2022-05-06T11:02:06.555Z</time>
      </trkpt>
      <trkpt lat="41.37277" lon="19.68012">
        <ele>99.224275</ele>
        <time>2022-05-06T11:02:08.539Z</time>
      </trkpt>
      <trkpt lat="41.3727" lon="19.68025">
        <ele>98.985886</ele>
        <time>2022-05-06T11:02:10.559Z</time>
      </trkpt>
      <trkpt lat="41.37264" lon="19.68038">
        <ele>98.734726</ele>
        <time>2022-05-06T11:02:12.549Z</time>
      </trkpt>
      <trkpt lat="41.37257" lon="19.68052">
        <ele>98.488409</ele>
        <time>2022-05-06T11:02:14.558Z</time>
      </trkpt>
      <trkpt lat="41.37252" lon="19.68065">
        <ele>98.247176</ele>
        <time>2022-05-06T11:02:16.559Z</time>
      </trkpt>
      <trkpt lat="41.37246" lon="19.68078">
        <ele>98.010726</ele>
        <time>2022-05-06T11:02:18.552Z</time>
      </trkpt>
      <trkpt lat="41.3724" lon="19.6809">
        <ele>97.784526</ele>
        <time>2022-05-06T11:02:20.533Z</time>
      </trkpt>
      <trkpt lat="41.37233" lon="19.68103">
        <ele>97.5525</ele>
        <time>2022-05-06T11:02:22.558Z</time>
      </trkpt>
      <trkpt lat="41.37227" lon="19.68115">
        <ele>97.322934</ele>
        <time>2022-05-06T11:02:24.554Z</time>
      </trkpt>
      <trkpt lat="41.3722" lon="19.68126">
        <ele>97.103392</ele>
        <time>2022-05-06T11:02:26.544Z</time>
      </trkpt>
      <trkpt lat="41.37214" lon="19.68137">
        <ele>97.259673</ele>
        <time>2022-05-06T11:02:28.555Z</time>
      </trkpt>
      <trkpt lat="41.37208" lon="19.68149">
        <ele>97.436393</ele>
        <time>2022-05-06T11:02:30.535Z</time>
      </trkpt>
      <trkpt lat="41.37201" lon="19.6816">
        <ele>97.613099</ele>
        <time>2022-05-06T11:02:32.568Z</time>
      </trkpt>
      <trkpt lat="41.37195" lon="19.68172">
        <ele>97.787961</ele>
        <time>2022-05-06T11:02:34.546Z</time>
      </trkpt>
      <trkpt lat="41.37189" lon="19.68184">
        <ele>97.971637</ele>
        <time>2022-05-06T11:02:36.560Z</time>
      </trkpt>
      <trkpt lat="41.37182" lon="19.68195">
        <ele>98.151328</ele>
        <time>2022-05-06T11:02:38.549Z</time>
      </trkpt>
      <trkpt lat="41.37176" lon="19.68207">
        <ele>98.333042</ele>
        <time>2022-05-06T11:02:40.538Z</time>
      </trkpt>
      <trkpt lat="41.37169" lon="19.68219">
        <ele>98.509763</ele>
        <time>2022-05-06T11:02:42.550Z</time>
      </trkpt>
      <trkpt lat="41.37163" lon="19.6823">
        <ele>98.683538</ele>
        <time>2022-05-06T11:02:44.544Z</time>
      </trkpt>
      <trkpt lat="41.37156" lon="19.68241">
        <ele>98.858341</ele>
        <time>2022-05-06T11:02:46.533Z</time>
      </trkpt>
      <trkpt lat="41.37149" lon="19.68252">
        <ele>99.041038</ele>
        <time>2022-05-06T11:02:48.558Z</time>
      </trkpt>
      <trkpt lat="41.37143" lon="19.68264">
        <ele>99.225872</ele>
        <time>2022-05-06T11:02:50.556Z</time>
      </trkpt>
      <trkpt lat="41.37137" lon="19.68277">
        <ele>99.414962</ele>
        <time>2022-05-06T11:02:52.555Z</time>
      </trkpt>
      <trkpt lat="41.37131" lon="19.6829">
        <ele>99.599901</ele>
        <time>2022-05-06T11:02:54.571Z</time>
      </trkpt>
      <trkpt lat="41.37124" lon="19.68302">
        <ele>99.783589</ele>
        <time>2022-05-06T11:02:56.573Z</time>
      </trkpt>
      <trkpt lat="41.37118" lon="19.68312">
        <ele>99.944448</ele>
        <time>2022-05-06T11:02:58.537Z</time>
      </trkpt>
      <trkpt lat="41.37112" lon="19.68323">
        <ele>100.054548</ele>
        <time>2022-05-06T11:03:00.539Z</time>
      </trkpt>
      <trkpt lat="41.37106" lon="19.68334">
        <ele>100.004246</ele>
        <time>2022-05-06T11:03:02.549Z</time>
      </trkpt>
      <trkpt lat="41.37101" lon="19.68346">
        <ele>99.955099</ele>
        <time>2022-05-06T11:03:04.544Z</time>
      </trkpt>
      <trkpt lat="41.37097" lon="19.68358">
        <ele>99.908311</ele>
        <time>2022-05-06T11:03:06.535Z</time>
      </trkpt>
      <trkpt lat="41.37092" lon="19.68369">
        <ele>99.860872</ele>
        <time>2022-05-06T11:03:08.564Z</time>
      </trkpt>
      <trkpt lat="41.37089" lon="19.68381">
        <ele>99.81393</ele>
        <time>2022-05-06T11:03:10.534Z</time>
      </trkpt>
      <trkpt lat="41.37085" lon="19.68394">
        <ele>99.764758</ele>
        <time>2022-05-06T11:03:12.529Z</time>
      </trkpt>
      <trkpt lat="41.37081" lon="19.68406">
        <ele>99.718489</ele>
        <time>2022-05-06T11:03:14.541Z</time>
      </trkpt>
      <trkpt lat="41.37078" lon="19.68418">
        <ele>99.670859</ele>
        <time>2022-05-06T11:03:16.550Z</time>
      </trkpt>
      <trkpt lat="41.37075" lon="19.6843">
        <ele>99.624258</ele>
        <time>2022-05-06T11:03:18.561Z</time>
      </trkpt>
      <trkpt lat="41.37072" lon="19.68442">
        <ele>99.576971</ele>
        <time>2022-05-06T11:03:20.559Z</time>
      </trkpt>
      <trkpt lat="41.37069" lon="19.68454">
        <ele>99.533055</ele>
        <time>2022-05-06T11:03:22.538Z</time>
      </trkpt>
      <trkpt lat="41.37066" lon="19.68471">
        <ele>99.468095</ele>
        <time>2022-05-06T11:03:25.531Z</time>
      </trkpt>
      <trkpt lat="41.37066" lon="19.68484">
        <ele>99.422598</ele>
        <time>2022-05-06T11:03:27.533Z</time>
      </trkpt>
      <trkpt lat="41.37068" lon="19.68496">
        <ele>99.377253</ele>
        <time>2022-05-06T11:03:29.544Z</time>
      </trkpt>
      <trkpt lat="41.37074" lon="19.68512">
        <ele>99.312811</ele>
        <time>2022-05-06T11:03:32.529Z</time>
      </trkpt>
      <trkpt lat="41.37079" lon="19.68523">
        <ele>99.266768</ele>
        <time>2022-05-06T11:03:34.542Z</time>
      </trkpt>
      <trkpt lat="41.37084" lon="19.68534">
        <ele>99.218884</ele>
        <time>2022-05-06T11:03:36.556Z</time>
      </trkpt>
      <trkpt lat="41.37089" lon="19.68547">
        <ele>99.249438</ele>
        <time>2022-05-06T11:03:38.542Z</time>
      </trkpt>
      <trkpt lat="41.37094" lon="19.6856">
        <ele>99.339141</ele>
        <time>2022-05-06T11:03:40.532Z</time>
      </trkpt>
      <trkpt lat="41.37098" lon="19.68574">
        <ele>99.428553</ele>
        <time>2022-05-06T11:03:42.536Z</time>
      </trkpt>
      <trkpt lat="41.37101" lon="19.68589">
        <ele>99.515607</ele>
        <time>2022-05-06T11:03:44.547Z</time>
      </trkpt>
      <trkpt lat="41.37102" lon="19.68603">
        <ele>99.604745</ele>
        <time>2022-05-06T11:03:46.532Z</time>
      </trkpt>
      <trkpt lat="41.37103" lon="19.68618">
        <ele>99.690035</ele>
        <time>2022-05-06T11:03:48.545Z</time>
      </trkpt>
      <trkpt lat="41.37104" lon="19.68631">
        <ele>99.76974</ele>
        <time>2022-05-06T11:03:50.542Z</time>
      </trkpt>
      <trkpt lat="41.37105" lon="19.68645">
        <ele>99.856318</ele>
        <time>2022-05-06T11:03:52.557Z</time>
      </trkpt>
      <trkpt lat="41.37106" lon="19.68659">
        <ele>99.940335</ele>
        <time>2022-05-06T11:03:54.544Z</time>
      </trkpt>
      <trkpt lat="41.37107" lon="19.68674">
        <ele>100.02896</ele>
        <time>2022-05-06T11:03:56.554Z</time>
      </trkpt>
      <trkpt lat="41.37108" lon="19.6869">
        <ele>100.126797</ele>
        <time>2022-05-06T11:03:58.542Z</time>
      </trkpt>
      <trkpt lat="41.3711" lon="19.68707">
        <ele>100.226098</ele>
        <time>2022-05-06T11:04:00.554Z</time>
      </trkpt>
      <trkpt lat="41.37111" lon="19.68723">
        <ele>100.320892</ele>
        <time>2022-05-06T11:04:02.561Z</time>
      </trkpt>
      <trkpt lat="41.37113" lon="19.68738">
        <ele>100.412553</ele>
        <time>2022-05-06T11:04:04.534Z</time>
      </trkpt>
      <trkpt lat="41.37116" lon="19.68754">
        <ele>100.510227</ele>
        <time>2022-05-06T11:04:06.540Z</time>
      </trkpt>
      <trkpt lat="41.37117" lon="19.68771">
        <ele>100.615189</ele>
        <time>2022-05-06T11:04:08.558Z</time>
      </trkpt>
      <trkpt lat="41.37119" lon="19.68789">
        <ele>100.717863</ele>
        <time>2022-05-06T11:04:10.550Z</time>
      </trkpt>
      <trkpt lat="41.37121" lon="19.68807">
        <ele>100.817726</ele>
        <time>2022-05-06T11:04:12.574Z</time>
      </trkpt>
      <trkpt lat="41.37124" lon="19.68823">
        <ele>100.910246</ele>
        <time>2022-05-06T11:04:14.553Z</time>
      </trkpt>
      <trkpt lat="41.37126" lon="19.68839">
        <ele>101.002912</ele>
        <time>2022-05-06T11:04:16.595Z</time>
      </trkpt>
      <trkpt lat="41.37128" lon="19.68855">
        <ele>101.097142</ele>
        <time>2022-05-06T11:04:18.543Z</time>
      </trkpt>
      <trkpt lat="41.3713" lon="19.68871">
        <ele>101.187575</ele>
        <time>2022-05-06T11:04:20.560Z</time>
      </trkpt>
      <trkpt lat="41.37131" lon="19.68887">
        <ele>101.27606</ele>
        <time>2022-05-06T11:04:22.559Z</time>
      </trkpt>
      <trkpt lat="41.37131" lon="19.68901">
        <ele>101.359705</ele>
        <time>2022-05-06T11:04:24.564Z</time>
      </trkpt>
      <trkpt lat="41.37131" lon="19.68915">
        <ele>101.438261</ele>
        <time>2022-05-06T11:04:26.566Z</time>
      </trkpt>
      <trkpt lat="41.3713" lon="19.68929">
        <ele>101.515303</ele>
        <time>2022-05-06T11:04:28.558Z</time>
      </trkpt>
      <trkpt lat="41.3713" lon="19.68943">
        <ele>101.595568</ele>
        <time>2022-05-06T11:04:30.526Z</time>
      </trkpt>
      <trkpt lat="41.37129" lon="19.68957">
        <ele>101.674301</ele>
        <time>2022-05-06T11:04:32.540Z</time>
      </trkpt>
      <trkpt lat="41.37127" lon="19.68972">
        <ele>101.75776</ele>
        <time>2022-05-06T11:04:34.537Z</time>
      </trkpt>
      <trkpt lat="41.37124" lon="19.68986">
        <ele>101.84</ele>
        <time>2022-05-06T11:04:36.551Z</time>
      </trkpt>
      <trkpt lat="41.37121" lon="19.68999">
        <ele>101.916979</ele>
        <time>2022-05-06T11:04:38.537Z</time>
      </trkpt>
      <trkpt lat="41.3712" lon="19.69011">
        <ele>101.983064</ele>
        <time>2022-05-06T11:04:40.540Z</time>
      </trkpt>
      <trkpt lat="41.37117" lon="19.69023">
        <ele>101.985177</ele>
        <time>2022-05-06T11:04:42.552Z</time>
      </trkpt>
      <trkpt lat="41.37115" lon="19.69035">
        <ele>101.987305</ele>
        <time>2022-05-06T11:04:44.578Z</time>
      </trkpt>
      <trkpt lat="41.37112" lon="19.69047">
        <ele>101.989424</ele>
        <time>2022-05-06T11:04:46.541Z</time>
      </trkpt>
      <trkpt lat="41.37109" lon="19.69062">
        <ele>101.992097</ele>
        <time>2022-05-06T11:04:49.560Z</time>
      </trkpt>
      <trkpt lat="41.37106" lon="19.69076">
        <ele>101.99448</ele>
        <time>2022-05-06T11:04:52.555Z</time>
      </trkpt>
      <trkpt lat="41.37102" lon="19.69088">
        <ele>101.996697</ele>
        <time>2022-05-06T11:04:56.558Z</time>
      </trkpt>
      <trkpt lat="41.37102" lon="19.691">
        <ele>101.998739</ele>
        <time>2022-05-06T11:05:02.591Z</time>
      </trkpt>
      <trkpt lat="41.371" lon="19.69115">
        <ele>102.00131</ele>
        <time>2022-05-06T11:05:08.542Z</time>
      </trkpt>
      <trkpt lat="41.37098" lon="19.69129">
        <ele>102.003727</ele>
        <time>2022-05-06T11:05:11.536Z</time>
      </trkpt>
      <trkpt lat="41.37095" lon="19.69146">
        <ele>102.006672</ele>
        <time>2022-05-06T11:05:14.548Z</time>
      </trkpt>
      <trkpt lat="41.37093" lon="19.69158">
        <ele>102.008757</ele>
        <time>2022-05-06T11:05:16.540Z</time>
      </trkpt>
      <trkpt lat="41.3709" lon="19.69171">
        <ele>102.010967</ele>
        <time>2022-05-06T11:05:18.549Z</time>
      </trkpt>
      <trkpt lat="41.37087" lon="19.69184">
        <ele>102.013232</ele>
        <time>2022-05-06T11:05:20.541Z</time>
      </trkpt>
      <trkpt lat="41.37084" lon="19.69196">
        <ele>102.015434</ele>
        <time>2022-05-06T11:05:22.554Z</time>
      </trkpt>
      <trkpt lat="41.37082" lon="19.69209">
        <ele>102.017606</ele>
        <time>2022-05-06T11:05:24.547Z</time>
      </trkpt>
      <trkpt lat="41.37079" lon="19.69222">
        <ele>102.019909</ele>
        <time>2022-05-06T11:05:26.531Z</time>
      </trkpt>
      <trkpt lat="41.37076" lon="19.69235">
        <ele>102.02216</ele>
        <time>2022-05-06T11:05:28.539Z</time>
      </trkpt>
      <trkpt lat="41.37074" lon="19.69248">
        <ele>101.903933</ele>
        <time>2022-05-06T11:05:30.530Z</time>
      </trkpt>
      <trkpt lat="41.37072" lon="19.6926">
        <ele>101.648164</ele>
        <time>2022-05-06T11:05:32.539Z</time>
      </trkpt>
      <trkpt lat="41.3707" lon="19.69273">
        <ele>101.395668</ele>
        <time>2022-05-06T11:05:34.561Z</time>
      </trkpt>
      <trkpt lat="41.37067" lon="19.69285">
        <ele>101.14816</ele>
        <time>2022-05-06T11:05:36.551Z</time>
      </trkpt>
      <trkpt lat="41.37065" lon="19.69297">
        <ele>100.902269</ele>
        <time>2022-05-06T11:05:38.535Z</time>
      </trkpt>
      <trkpt lat="41.37064" lon="19.6931">
        <ele>100.642727</ele>
        <time>2022-05-06T11:05:40.536Z</time>
      </trkpt>
      <trkpt lat="41.37061" lon="19.69324">
        <ele>100.35346</ele>
        <time>2022-05-06T11:05:42.567Z</time>
      </trkpt>
      <trkpt lat="41.37059" lon="19.69338">
        <ele>100.067017</ele>
        <time>2022-05-06T11:05:44.542Z</time>
      </trkpt>
      <trkpt lat="41.37056" lon="19.69351">
        <ele>99.795899</ele>
        <time>2022-05-06T11:05:46.548Z</time>
      </trkpt>
      <trkpt lat="41.37053" lon="19.69364">
        <ele>99.52738</ele>
        <time>2022-05-06T11:05:48.545Z</time>
      </trkpt>
      <trkpt lat="41.3705" lon="19.69378">
        <ele>99.247209</ele>
        <time>2022-05-06T11:05:50.563Z</time>
      </trkpt>
      <trkpt lat="41.37048" lon="19.69391">
        <ele>98.973587</ele>
        <time>2022-05-06T11:05:52.527Z</time>
      </trkpt>
      <trkpt lat="41.37045" lon="19.69405">
        <ele>98.695717</ele>
        <time>2022-05-06T11:05:54.553Z</time>
      </trkpt>
      <trkpt lat="41.37042" lon="19.69418">
        <ele>98.417452</ele>
        <time>2022-05-06T11:05:56.554Z</time>
      </trkpt>
      <trkpt lat="41.37039" lon="19.69432">
        <ele>98.141091</ele>
        <time>2022-05-06T11:05:58.552Z</time>
      </trkpt>
      <trkpt lat="41.37037" lon="19.69445">
        <ele>97.857843</ele>
        <time>2022-05-06T11:06:00.561Z</time>
      </trkpt>
      <trkpt lat="41.37034" lon="19.69459">
        <ele>97.571398</ele>
        <time>2022-05-06T11:06:02.556Z</time>
      </trkpt>
      <trkpt lat="41.37031" lon="19.69473">
        <ele>97.28288</ele>
        <time>2022-05-06T11:06:04.536Z</time>
      </trkpt>
      <trkpt lat="41.37028" lon="19.69488">
        <ele>97.038661</ele>
        <time>2022-05-06T11:06:06.553Z</time>
      </trkpt>
      <trkpt lat="41.37025" lon="19.69501">
        <ele>96.803878</ele>
        <time>2022-05-06T11:06:08.526Z</time>
      </trkpt>
      <trkpt lat="41.37022" lon="19.69515">
        <ele>96.572477</ele>
        <time>2022-05-06T11:06:10.543Z</time>
      </trkpt>
      <trkpt lat="41.3702" lon="19.69528">
        <ele>96.343238</ele>
        <time>2022-05-06T11:06:12.546Z</time>
      </trkpt>
      <trkpt lat="41.37017" lon="19.69541">
        <ele>96.119829</ele>
        <time>2022-05-06T11:06:14.543Z</time>
      </trkpt>
      <trkpt lat="41.37015" lon="19.69554">
        <ele>95.893771</ele>
        <time>2022-05-06T11:06:16.580Z</time>
      </trkpt>
      <trkpt lat="41.37012" lon="19.69568">
        <ele>95.668818</ele>
        <time>2022-05-06T11:06:18.542Z</time>
      </trkpt>
      <trkpt lat="41.37009" lon="19.6958">
        <ele>95.445778</ele>
        <time>2022-05-06T11:06:20.575Z</time>
      </trkpt>
      <trkpt lat="41.37006" lon="19.69594">
        <ele>95.218583</ele>
        <time>2022-05-06T11:06:22.556Z</time>
      </trkpt>
      <trkpt lat="41.37004" lon="19.69607">
        <ele>94.996847</ele>
        <time>2022-05-06T11:06:24.554Z</time>
      </trkpt>
      <trkpt lat="41.37002" lon="19.69619">
        <ele>94.793252</ele>
        <time>2022-05-06T11:06:26.561Z</time>
      </trkpt>
      <trkpt lat="41.37" lon="19.69631">
        <ele>94.57714</ele>
        <time>2022-05-06T11:06:28.558Z</time>
      </trkpt>
      <trkpt lat="41.36998" lon="19.69645">
        <ele>94.351672</ele>
        <time>2022-05-06T11:06:30.528Z</time>
      </trkpt>
      <trkpt lat="41.36996" lon="19.69658">
        <ele>94.127227</ele>
        <time>2022-05-06T11:06:32.536Z</time>
      </trkpt>
      <trkpt lat="41.36994" lon="19.69671">
        <ele>93.900663</ele>
        <time>2022-05-06T11:06:34.540Z</time>
      </trkpt>
      <trkpt lat="41.36991" lon="19.69685">
        <ele>93.668415</ele>
        <time>2022-05-06T11:06:36.543Z</time>
      </trkpt>
      <trkpt lat="41.36987" lon="19.69698">
        <ele>93.43268</ele>
        <time>2022-05-06T11:06:38.565Z</time>
      </trkpt>
      <trkpt lat="41.36984" lon="19.69711">
        <ele>93.395945</ele>
        <time>2022-05-06T11:06:40.544Z</time>
      </trkpt>
      <trkpt lat="41.36981" lon="19.69724">
        <ele>93.605778</ele>
        <time>2022-05-06T11:06:42.540Z</time>
      </trkpt>
      <trkpt lat="41.36978" lon="19.69737">
        <ele>93.808042</ele>
        <time>2022-05-06T11:06:44.545Z</time>
      </trkpt>
      <trkpt lat="41.36976" lon="19.69749">
        <ele>94.00653</ele>
        <time>2022-05-06T11:06:46.544Z</time>
      </trkpt>
      <trkpt lat="41.36975" lon="19.69763">
        <ele>94.21411</ele>
        <time>2022-05-06T11:06:48.546Z</time>
      </trkpt>
      <trkpt lat="41.36972" lon="19.69776">
        <ele>94.432888</ele>
        <time>2022-05-06T11:06:50.533Z</time>
      </trkpt>
      <trkpt lat="41.3697" lon="19.6979">
        <ele>94.649705</ele>
        <time>2022-05-06T11:06:52.559Z</time>
      </trkpt>
      <trkpt lat="41.36967" lon="19.69803">
        <ele>94.857966</ele>
        <time>2022-05-06T11:06:54.546Z</time>
      </trkpt>
      <trkpt lat="41.36965" lon="19.69816">
        <ele>95.057237</ele>
        <time>2022-05-06T11:06:56.534Z</time>
      </trkpt>
      <trkpt lat="41.36963" lon="19.69828">
        <ele>95.255537</ele>
        <time>2022-05-06T11:06:58.567Z</time>
      </trkpt>
      <trkpt lat="41.3696" lon="19.69841">
        <ele>95.461304</ele>
        <time>2022-05-06T11:07:00.563Z</time>
      </trkpt>
      <trkpt lat="41.36958" lon="19.69854">
        <ele>95.671067</ele>
        <time>2022-05-06T11:07:02.543Z</time>
      </trkpt>
      <trkpt lat="41.36955" lon="19.69867">
        <ele>95.873845</ele>
        <time>2022-05-06T11:07:04.570Z</time>
      </trkpt>
      <trkpt lat="41.36953" lon="19.6988">
        <ele>96.08224</ele>
        <time>2022-05-06T11:07:06.558Z</time>
      </trkpt>
      <trkpt lat="41.36951" lon="19.69893">
        <ele>96.290999</ele>
        <time>2022-05-06T11:07:08.614Z</time>
      </trkpt>
      <trkpt lat="41.36948" lon="19.69907">
        <ele>96.511754</ele>
        <time>2022-05-06T11:07:10.545Z</time>
      </trkpt>
      <trkpt lat="41.36946" lon="19.69921">
        <ele>96.73505</ele>
        <time>2022-05-06T11:07:12.559Z</time>
      </trkpt>
      <trkpt lat="41.36943" lon="19.69935">
        <ele>96.958346</ele>
        <time>2022-05-06T11:07:14.554Z</time>
      </trkpt>
      <trkpt lat="41.36941" lon="19.69949">
        <ele>97.242048</ele>
        <time>2022-05-06T11:07:16.570Z</time>
      </trkpt>
      <trkpt lat="41.36938" lon="19.69963">
        <ele>97.537471</ele>
        <time>2022-05-06T11:07:18.566Z</time>
      </trkpt>
      <trkpt lat="41.36935" lon="19.69976">
        <ele>97.824822</ele>
        <time>2022-05-06T11:07:20.562Z</time>
      </trkpt>
      <trkpt lat="41.36932" lon="19.69989">
        <ele>98.11419</ele>
        <time>2022-05-06T11:07:22.547Z</time>
      </trkpt>
      <trkpt lat="41.3693" lon="19.70002">
        <ele>98.398048</ele>
        <time>2022-05-06T11:07:24.555Z</time>
      </trkpt>
      <trkpt lat="41.36927" lon="19.70016">
        <ele>98.687985</ele>
        <time>2022-05-06T11:07:26.635Z</time>
      </trkpt>
      <trkpt lat="41.36924" lon="19.70029">
        <ele>98.970896</ele>
        <time>2022-05-06T11:07:28.562Z</time>
      </trkpt>
      <trkpt lat="41.36921" lon="19.70041">
        <ele>99.233802</ele>
        <time>2022-05-06T11:07:30.552Z</time>
      </trkpt>
      <trkpt lat="41.3692" lon="19.70053">
        <ele>99.489622</ele>
        <time>2022-05-06T11:07:32.556Z</time>
      </trkpt>
      <trkpt lat="41.36917" lon="19.7007">
        <ele>99.866917</ele>
        <time>2022-05-06T11:07:35.551Z</time>
      </trkpt>
      <trkpt lat="41.36918" lon="19.70083">
        <ele>100.133196</ele>
        <time>2022-05-06T11:07:37.611Z</time>
      </trkpt>
      <trkpt lat="41.36925" lon="19.70097">
        <ele>100.490076</ele>
        <time>2022-05-06T11:07:40.550Z</time>
      </trkpt>
      <trkpt lat="41.36936" lon="19.70101">
        <ele>100.800616</ele>
        <time>2022-05-06T11:07:42.551Z</time>
      </trkpt>
      <trkpt lat="41.36945" lon="19.70103">
        <ele>101.062645</ele>
        <time>2022-05-06T11:07:44.538Z</time>
      </trkpt>
      <trkpt lat="41.36957" lon="19.70103">
        <ele>101.380869</ele>
        <time>2022-05-06T11:07:46.557Z</time>
      </trkpt>
      <trkpt lat="41.36968" lon="19.70104">
        <ele>101.708004</ele>
        <time>2022-05-06T11:07:48.579Z</time>
      </trkpt>
      <trkpt lat="41.36981" lon="19.70107">
        <ele>102.053312</ele>
        <time>2022-05-06T11:07:50.562Z</time>
      </trkpt>
      <trkpt lat="41.36994" lon="19.70111">
        <ele>102.277071</ele>
        <time>2022-05-06T11:07:52.553Z</time>
      </trkpt>
      <trkpt lat="41.37007" lon="19.70115">
        <ele>102.485816</ele>
        <time>2022-05-06T11:07:54.617Z</time>
      </trkpt>
      <trkpt lat="41.37018" lon="19.70121">
        <ele>102.689294</ele>
        <time>2022-05-06T11:07:56.574Z</time>
      </trkpt>
      <trkpt lat="41.37027" lon="19.70128">
        <ele>102.856217</ele>
        <time>2022-05-06T11:07:58.539Z</time>
      </trkpt>
      <trkpt lat="41.37033" lon="19.70138">
        <ele>103.012803</ele>
        <time>2022-05-06T11:08:00.538Z</time>
      </trkpt>
      <trkpt lat="41.37038" lon="19.7015">
        <ele>103.183711</ele>
        <time>2022-05-06T11:08:02.559Z</time>
      </trkpt>
      <trkpt lat="41.3704" lon="19.70162">
        <ele>103.34138</ele>
        <time>2022-05-06T11:08:04.633Z</time>
      </trkpt>
      <trkpt lat="41.37044" lon="19.70174">
        <ele>103.49603</ele>
        <time>2022-05-06T11:08:06.535Z</time>
      </trkpt>
      <trkpt lat="41.37048" lon="19.70187">
        <ele>103.670677</ele>
        <time>2022-05-06T11:08:08.546Z</time>
      </trkpt>
      <trkpt lat="41.37053" lon="19.702">
        <ele>103.85473</ele>
        <time>2022-05-06T11:08:10.548Z</time>
      </trkpt>
      <trkpt lat="41.37057" lon="19.70212">
        <ele>104.016394</ele>
        <time>2022-05-06T11:08:12.526Z</time>
      </trkpt>
      <trkpt lat="41.37059" lon="19.70225">
        <ele>104.18732</ele>
        <time>2022-05-06T11:08:15.543Z</time>
      </trkpt>
      <trkpt lat="41.37057" lon="19.70239">
        <ele>104.362436</ele>
        <time>2022-05-06T11:08:19.536Z</time>
      </trkpt>
      <trkpt lat="41.37049" lon="19.7025">
        <ele>104.541445</ele>
        <time>2022-05-06T11:08:23.550Z</time>
      </trkpt>
      <trkpt lat="41.37041" lon="19.70256">
        <ele>104.703491</ele>
        <time>2022-05-06T11:08:29.541Z</time>
      </trkpt>
      <trkpt lat="41.37034" lon="19.70264">
        <ele>104.855703</ele>
        <time>2022-05-06T11:08:35.560Z</time>
      </trkpt>
      <trkpt lat="41.37026" lon="19.70271">
        <ele>104.988147</ele>
        <time>2022-05-06T11:08:40.557Z</time>
      </trkpt>
      <trkpt lat="41.37019" lon="19.70279">
        <ele>104.951236</ele>
        <time>2022-05-06T11:08:46.534Z</time>
      </trkpt>
      <trkpt lat="41.37013" lon="19.7029">
        <ele>104.910446</ele>
        <time>2022-05-06T11:08:53.543Z</time>
      </trkpt>
      <trkpt lat="41.37009" lon="19.70301">
        <ele>104.87334</ele>
        <time>2022-05-06T11:08:58.555Z</time>
      </trkpt>
      <trkpt lat="41.37003" lon="19.7031">
        <ele>104.835713</ele>
        <time>2022-05-06T11:09:03.581Z</time>
      </trkpt>
      <trkpt lat="41.36996" lon="19.7032">
        <ele>104.793518</ele>
        <time>2022-05-06T11:09:09.541Z</time>
      </trkpt>
      <trkpt lat="41.36988" lon="19.70328">
        <ele>104.754945</ele>
        <time>2022-05-06T11:09:14.535Z</time>
      </trkpt>
      <trkpt lat="41.3698" lon="19.70335">
        <ele>104.714047</ele>
        <time>2022-05-06T11:09:18.539Z</time>
      </trkpt>
      <trkpt lat="41.3697" lon="19.70339">
        <ele>104.675293</ele>
        <time>2022-05-06T11:09:22.557Z</time>
      </trkpt>
      <trkpt lat="41.3696" lon="19.7034">
        <ele>104.634712</ele>
        <time>2022-05-06T11:09:28.567Z</time>
      </trkpt>
      <trkpt lat="41.36952" lon="19.70345">
        <ele>104.596482</ele>
        <time>2022-05-06T11:09:32.545Z</time>
      </trkpt>
      <trkpt lat="41.36941" lon="19.70349">
        <ele>104.551537</ele>
        <time>2022-05-06T11:09:36.555Z</time>
      </trkpt>
      <trkpt lat="41.36929" lon="19.7035">
        <ele>104.503536</ele>
        <time>2022-05-06T11:09:40.555Z</time>
      </trkpt>
      <trkpt lat="41.36919" lon="19.70353">
        <ele>104.463343</ele>
        <time>2022-05-06T11:09:43.601Z</time>
      </trkpt>
      <trkpt lat="41.36909" lon="19.70354">
        <ele>104.421598</ele>
        <time>2022-05-06T11:09:46.564Z</time>
      </trkpt>
      <trkpt lat="41.36899" lon="19.70355">
        <ele>104.378889</ele>
        <time>2022-05-06T11:09:50.577Z</time>
      </trkpt>
      <trkpt lat="41.36874" lon="19.70364">
        <ele>104.276639</ele>
        <time>2022-05-06T11:11:13.570Z</time>
      </trkpt>
      <trkpt lat="41.36864" lon="19.70367">
        <ele>104.16951</ele>
        <time>2022-05-06T11:11:16.550Z</time>
      </trkpt>
      <trkpt lat="41.36853" lon="19.7037">
        <ele>104.039866</ele>
        <time>2022-05-06T11:11:19.557Z</time>
      </trkpt>
      <trkpt lat="41.36842" lon="19.70373">
        <ele>103.893171</ele>
        <time>2022-05-06T11:11:23.544Z</time>
      </trkpt>
      <trkpt lat="41.36831" lon="19.70377">
        <ele>103.756488</ele>
        <time>2022-05-06T11:11:26.552Z</time>
      </trkpt>
      <trkpt lat="41.3682" lon="19.70381">
        <ele>103.61404</ele>
        <time>2022-05-06T11:11:29.582Z</time>
      </trkpt>
      <trkpt lat="41.36809" lon="19.70385">
        <ele>103.470679</ele>
        <time>2022-05-06T11:11:32.575Z</time>
      </trkpt>
      <trkpt lat="41.36798" lon="19.70389">
        <ele>103.33541</ele>
        <time>2022-05-06T11:11:35.548Z</time>
      </trkpt>
      <trkpt lat="41.36787" lon="19.70393">
        <ele>103.20015</ele>
        <time>2022-05-06T11:11:38.573Z</time>
      </trkpt>
      <trkpt lat="41.36777" lon="19.70396">
        <ele>103.068109</ele>
        <time>2022-05-06T11:11:41.539Z</time>
      </trkpt>
      <trkpt lat="41.36766" lon="19.704">
        <ele>102.935862</ele>
        <time>2022-05-06T11:11:44.609Z</time>
      </trkpt>
      <trkpt lat="41.36757" lon="19.70404">
        <ele>102.818395</ele>
        <time>2022-05-06T11:11:47.548Z</time>
      </trkpt>
      <trkpt lat="41.36748" lon="19.70407">
        <ele>102.702757</ele>
        <time>2022-05-06T11:11:50.537Z</time>
      </trkpt>
      <trkpt lat="41.36738" lon="19.7041">
        <ele>102.577108</ele>
        <time>2022-05-06T11:11:53.537Z</time>
      </trkpt>
      <trkpt lat="41.36729" lon="19.70413">
        <ele>102.464166</ele>
        <time>2022-05-06T11:11:56.553Z</time>
      </trkpt>
      <trkpt lat="41.3672" lon="19.70416">
        <ele>102.351454</ele>
        <time>2022-05-06T11:11:59.536Z</time>
      </trkpt>
      <trkpt lat="41.36711" lon="19.7042">
        <ele>102.229011</ele>
        <time>2022-05-06T11:12:02.555Z</time>
      </trkpt>
      <trkpt lat="41.36701" lon="19.70424">
        <ele>102.104879</ele>
        <time>2022-05-06T11:12:05.552Z</time>
      </trkpt>
      <trkpt lat="41.36691" lon="19.70429">
        <ele>102.017769</ele>
        <time>2022-05-06T11:12:08.549Z</time>
      </trkpt>
      <trkpt lat="41.3668" lon="19.70433">
        <ele>101.956469</ele>
        <time>2022-05-06T11:12:11.561Z</time>
      </trkpt>
      <trkpt lat="41.36669" lon="19.70436">
        <ele>101.896423</ele>
        <time>2022-05-06T11:12:14.568Z</time>
      </trkpt>
      <trkpt lat="41.36658" lon="19.7044">
        <ele>101.831845</ele>
        <time>2022-05-06T11:12:17.539Z</time>
      </trkpt>
      <trkpt lat="41.36647" lon="19.70444">
        <ele>101.767988</ele>
        <time>2022-05-06T11:12:20.627Z</time>
      </trkpt>
      <trkpt lat="41.36634" lon="19.70449">
        <ele>101.695198</ele>
        <time>2022-05-06T11:12:23.570Z</time>
      </trkpt>
      <trkpt lat="41.36625" lon="19.70452">
        <ele>101.644351</ele>
        <time>2022-05-06T11:12:25.565Z</time>
      </trkpt>
      <trkpt lat="41.36615" lon="19.70455">
        <ele>101.591288</ele>
        <time>2022-05-06T11:12:27.566Z</time>
      </trkpt>
      <trkpt lat="41.36606" lon="19.70458">
        <ele>101.539587</ele>
        <time>2022-05-06T11:12:29.547Z</time>
      </trkpt>
      <trkpt lat="41.36597" lon="19.70462">
        <ele>101.485077</ele>
        <time>2022-05-06T11:12:31.566Z</time>
      </trkpt>
      <trkpt lat="41.36587" lon="19.70467">
        <ele>101.430414</ele>
        <time>2022-05-06T11:12:33.556Z</time>
      </trkpt>
      <trkpt lat="41.36578" lon="19.70475">
        <ele>101.370137</ele>
        <time>2022-05-06T11:12:35.556Z</time>
      </trkpt>
      <trkpt lat="41.36569" lon="19.70485">
        <ele>101.303616</ele>
        <time>2022-05-06T11:12:37.548Z</time>
      </trkpt>
      <trkpt lat="41.36561" lon="19.705">
        <ele>101.23076</ele>
        <time>2022-05-06T11:12:39.544Z</time>
      </trkpt>
      <trkpt lat="41.36556" lon="19.70519">
        <ele>101.148096</ele>
        <time>2022-05-06T11:12:41.558Z</time>
      </trkpt>
      <trkpt lat="41.36553" lon="19.7054">
        <ele>100.943493</ele>
        <time>2022-05-06T11:12:43.540Z</time>
      </trkpt>
      <trkpt lat="41.36553" lon="19.70564">
        <ele>100.137689</ele>
        <time>2022-05-06T11:12:45.646Z</time>
      </trkpt>
      <trkpt lat="41.36555" lon="19.70588">
        <ele>99.308467</ele>
        <time>2022-05-06T11:12:47.612Z</time>
      </trkpt>
      <trkpt lat="41.36556" lon="19.70611">
        <ele>98.498355</ele>
        <time>2022-05-06T11:12:49.551Z</time>
      </trkpt>
      <trkpt lat="41.36556" lon="19.70633">
        <ele>97.751028</ele>
        <time>2022-05-06T11:12:51.542Z</time>
      </trkpt>
      <trkpt lat="41.36556" lon="19.70654">
        <ele>97.021441</ele>
        <time>2022-05-06T11:12:53.574Z</time>
      </trkpt>
      <trkpt lat="41.36555" lon="19.70675">
        <ele>96.284759</ele>
        <time>2022-05-06T11:12:55.614Z</time>
      </trkpt>
      <trkpt lat="41.3655" lon="19.70694">
        <ele>95.60718</ele>
        <time>2022-05-06T11:12:57.609Z</time>
      </trkpt>
      <trkpt lat="41.36545" lon="19.7071">
        <ele>94.976019</ele>
        <time>2022-05-06T11:12:59.546Z</time>
      </trkpt>
      <trkpt lat="41.36539" lon="19.70726">
        <ele>94.361672</ele>
        <time>2022-05-06T11:13:01.577Z</time>
      </trkpt>
      <trkpt lat="41.36533" lon="19.7074">
        <ele>93.820079</ele>
        <time>2022-05-06T11:13:03.530Z</time>
      </trkpt>
      <trkpt lat="41.36528" lon="19.7075">
        <ele>93.387647</ele>
        <time>2022-05-06T11:13:05.552Z</time>
      </trkpt>
      <trkpt lat="41.36519" lon="19.70761">
        <ele>92.828529</ele>
        <time>2022-05-06T11:13:08.547Z</time>
      </trkpt>
      <trkpt lat="41.36511" lon="19.70775">
        <ele>92.426875</ele>
        <time>2022-05-06T11:13:11.538Z</time>
      </trkpt>
      <trkpt lat="41.36507" lon="19.70788">
        <ele>92.116508</ele>
        <time>2022-05-06T11:13:13.598Z</time>
      </trkpt>
      <trkpt lat="41.36503" lon="19.70802">
        <ele>91.787196</ele>
        <time>2022-05-06T11:13:15.539Z</time>
      </trkpt>
      <trkpt lat="41.36498" lon="19.70816">
        <ele>91.457074</ele>
        <time>2022-05-06T11:13:17.538Z</time>
      </trkpt>
      <trkpt lat="41.36493" lon="19.70828">
        <ele>91.139536</ele>
        <time>2022-05-06T11:13:19.556Z</time>
      </trkpt>
      <trkpt lat="41.36488" lon="19.70842">
        <ele>90.797566</ele>
        <time>2022-05-06T11:13:21.556Z</time>
      </trkpt>
      <trkpt lat="41.36483" lon="19.70856">
        <ele>90.447097</ele>
        <time>2022-05-06T11:13:23.541Z</time>
      </trkpt>
      <trkpt lat="41.36477" lon="19.70871">
        <ele>90.096627</ele>
        <time>2022-05-06T11:13:25.542Z</time>
      </trkpt>
      <trkpt lat="41.36472" lon="19.70885">
        <ele>89.740209</ele>
        <time>2022-05-06T11:13:27.547Z</time>
      </trkpt>
      <trkpt lat="41.36466" lon="19.70899">
        <ele>89.385718</ele>
        <time>2022-05-06T11:13:29.556Z</time>
      </trkpt>
      <trkpt lat="41.36461" lon="19.70914">
        <ele>89.025824</ele>
        <time>2022-05-06T11:13:31.551Z</time>
      </trkpt>
      <trkpt lat="41.36456" lon="19.70928">
        <ele>88.679928</ele>
        <time>2022-05-06T11:13:33.551Z</time>
      </trkpt>
      <trkpt lat="41.36452" lon="19.70941">
        <ele>88.362761</ele>
        <time>2022-05-06T11:13:35.536Z</time>
      </trkpt>
      <trkpt lat="41.36447" lon="19.70956">
        <ele>87.997179</ele>
        <time>2022-05-06T11:13:38.531Z</time>
      </trkpt>
      <trkpt lat="41.36441" lon="19.70971">
        <ele>87.637967</ele>
        <time>2022-05-06T11:13:42.522Z</time>
      </trkpt>
      <trkpt lat="41.36436" lon="19.70985">
        <ele>87.558604</ele>
        <time>2022-05-06T11:13:45.539Z</time>
      </trkpt>
      <trkpt lat="41.3643" lon="19.71">
        <ele>87.689104</ele>
        <time>2022-05-06T11:13:48.546Z</time>
      </trkpt>
      <trkpt lat="41.36424" lon="19.71015">
        <ele>87.818596</ele>
        <time>2022-05-06T11:13:51.575Z</time>
      </trkpt>
      <trkpt lat="41.36418" lon="19.71031">
        <ele>87.950678</ele>
        <time>2022-05-06T11:13:54.553Z</time>
      </trkpt>
      <trkpt lat="41.36413" lon="19.71048">
        <ele>88.086287</ele>
        <time>2022-05-06T11:13:57.595Z</time>
      </trkpt>
      <trkpt lat="41.36409" lon="19.71059">
        <ele>88.178115</ele>
        <time>2022-05-06T11:13:59.543Z</time>
      </trkpt>
      <trkpt lat="41.36405" lon="19.71071">
        <ele>88.272906</ele>
        <time>2022-05-06T11:14:01.553Z</time>
      </trkpt>
      <trkpt lat="41.36401" lon="19.71082">
        <ele>88.365778</ele>
        <time>2022-05-06T11:14:03.553Z</time>
      </trkpt>
      <trkpt lat="41.36398" lon="19.71094">
        <ele>88.457262</ele>
        <time>2022-05-06T11:14:05.548Z</time>
      </trkpt>
      <trkpt lat="41.36395" lon="19.71106">
        <ele>88.55083</ele>
        <time>2022-05-06T11:14:07.559Z</time>
      </trkpt>
      <trkpt lat="41.36391" lon="19.71117">
        <ele>88.645823</ele>
        <time>2022-05-06T11:14:09.545Z</time>
      </trkpt>
      <trkpt lat="41.36386" lon="19.71134">
        <ele>88.779591</ele>
        <time>2022-05-06T11:14:12.552Z</time>
      </trkpt>
      <trkpt lat="41.36383" lon="19.71145">
        <ele>88.869691</ele>
        <time>2022-05-06T11:14:14.557Z</time>
      </trkpt>
      <trkpt lat="41.36379" lon="19.71157">
        <ele>88.960117</ele>
        <time>2022-05-06T11:14:16.544Z</time>
      </trkpt>
      <trkpt lat="41.36376" lon="19.71168">
        <ele>89.050209</ele>
        <time>2022-05-06T11:14:18.539Z</time>
      </trkpt>
      <trkpt lat="41.36373" lon="19.7118">
        <ele>89.14448</ele>
        <time>2022-05-06T11:14:20.550Z</time>
      </trkpt>
      <trkpt lat="41.3637" lon="19.71192">
        <ele>89.23637</ele>
        <time>2022-05-06T11:14:22.544Z</time>
      </trkpt>
      <trkpt lat="41.36366" lon="19.71208">
        <ele>89.443819</ele>
        <time>2022-05-06T11:14:25.566Z</time>
      </trkpt>
      <trkpt lat="41.36363" lon="19.71223">
        <ele>89.661299</ele>
        <time>2022-05-06T11:14:28.537Z</time>
      </trkpt>
      <trkpt lat="41.36359" lon="19.71238">
        <ele>89.892518</ele>
        <time>2022-05-06T11:14:31.543Z</time>
      </trkpt>
      <trkpt lat="41.36355" lon="19.71254">
        <ele>90.131593</ele>
        <time>2022-05-06T11:14:34.545Z</time>
      </trkpt>
      <trkpt lat="41.3635" lon="19.71271">
        <ele>90.392029</ele>
        <time>2022-05-06T11:14:37.550Z</time>
      </trkpt>
      <trkpt lat="41.36347" lon="19.71288">
        <ele>90.645028</ele>
        <time>2022-05-06T11:14:40.557Z</time>
      </trkpt>
      <trkpt lat="41.36343" lon="19.71305">
        <ele>90.893208</ele>
        <time>2022-05-06T11:14:43.558Z</time>
      </trkpt>
      <trkpt lat="41.36341" lon="19.71317">
        <ele>91.071718</ele>
        <time>2022-05-06T11:14:45.559Z</time>
      </trkpt>
      <trkpt lat="41.36338" lon="19.71329">
        <ele>91.248235</ele>
        <time>2022-05-06T11:14:47.565Z</time>
      </trkpt>
      <trkpt lat="41.36335" lon="19.7134">
        <ele>91.423392</ele>
        <time>2022-05-06T11:14:49.559Z</time>
      </trkpt>
      <trkpt lat="41.36332" lon="19.71353">
        <ele>91.60481</ele>
        <time>2022-05-06T11:14:51.533Z</time>
      </trkpt>
      <trkpt lat="41.36329" lon="19.71364">
        <ele>91.78175</ele>
        <time>2022-05-06T11:14:53.528Z</time>
      </trkpt>
      <trkpt lat="41.36326" lon="19.71376">
        <ele>91.953354</ele>
        <time>2022-05-06T11:14:55.553Z</time>
      </trkpt>
      <trkpt lat="41.36322" lon="19.71392">
        <ele>92.204455</ele>
        <time>2022-05-06T11:14:58.594Z</time>
      </trkpt>
      <trkpt lat="41.36317" lon="19.71408">
        <ele>92.446401</ele>
        <time>2022-05-06T11:15:01.552Z</time>
      </trkpt>
      <trkpt lat="41.36312" lon="19.71424">
        <ele>92.689515</ele>
        <time>2022-05-06T11:15:04.548Z</time>
      </trkpt>
      <trkpt lat="41.36308" lon="19.71441">
        <ele>93.146539</ele>
        <time>2022-05-06T11:15:07.554Z</time>
      </trkpt>
      <trkpt lat="41.36304" lon="19.71456">
        <ele>93.589305</ele>
        <time>2022-05-06T11:15:10.552Z</time>
      </trkpt>
      <trkpt lat="41.363" lon="19.71472">
        <ele>94.033168</ele>
        <time>2022-05-06T11:15:13.554Z</time>
      </trkpt>
      <trkpt lat="41.36295" lon="19.71486">
        <ele>94.428945</ele>
        <time>2022-05-06T11:15:16.561Z</time>
      </trkpt>
      <trkpt lat="41.36292" lon="19.71501">
        <ele>94.851222</ele>
        <time>2022-05-06T11:15:19.523Z</time>
      </trkpt>
      <trkpt lat="41.36287" lon="19.71519">
        <ele>95.342036</ele>
        <time>2022-05-06T11:15:22.549Z</time>
      </trkpt>
      <trkpt lat="41.36284" lon="19.71531">
        <ele>95.684089</ele>
        <time>2022-05-06T11:15:24.562Z</time>
      </trkpt>
      <trkpt lat="41.36282" lon="19.71543">
        <ele>96.013026</ele>
        <time>2022-05-06T11:15:26.556Z</time>
      </trkpt>
      <trkpt lat="41.36278" lon="19.7156">
        <ele>96.479371</ele>
        <time>2022-05-06T11:15:29.553Z</time>
      </trkpt>
      <trkpt lat="41.36275" lon="19.71572">
        <ele>96.796378</ele>
        <time>2022-05-06T11:15:31.529Z</time>
      </trkpt>
      <trkpt lat="41.36271" lon="19.71587">
        <ele>97.222661</ele>
        <time>2022-05-06T11:15:34.554Z</time>
      </trkpt>
      <trkpt lat="41.36267" lon="19.71603">
        <ele>97.66649</ele>
        <time>2022-05-06T11:15:37.544Z</time>
      </trkpt>
      <trkpt lat="41.36263" lon="19.71619">
        <ele>98.104526</ele>
        <time>2022-05-06T11:15:40.534Z</time>
      </trkpt>
      <trkpt lat="41.36259" lon="19.71635">
        <ele>98.551026</ele>
        <time>2022-05-06T11:15:43.540Z</time>
      </trkpt>
      <trkpt lat="41.36255" lon="19.71651">
        <ele>98.989922</ele>
        <time>2022-05-06T11:15:46.562Z</time>
      </trkpt>
      <trkpt lat="41.36251" lon="19.71668">
        <ele>98.513837</ele>
        <time>2022-05-06T11:15:49.547Z</time>
      </trkpt>
      <trkpt lat="41.36247" lon="19.71684">
        <ele>97.995895</ele>
        <time>2022-05-06T11:15:52.559Z</time>
      </trkpt>
      <trkpt lat="41.36244" lon="19.71701">
        <ele>97.480266</ele>
        <time>2022-05-06T11:15:55.563Z</time>
      </trkpt>
      <trkpt lat="41.3624" lon="19.71713">
        <ele>97.097523</ele>
        <time>2022-05-06T11:15:57.542Z</time>
      </trkpt>
      <trkpt lat="41.36236" lon="19.71725">
        <ele>96.706643</ele>
        <time>2022-05-06T11:15:59.540Z</time>
      </trkpt>
      <trkpt lat="41.36232" lon="19.71738">
        <ele>96.314255</ele>
        <time>2022-05-06T11:16:01.555Z</time>
      </trkpt>
      <trkpt lat="41.36228" lon="19.7175">
        <ele>95.923547</ele>
        <time>2022-05-06T11:16:03.579Z</time>
      </trkpt>
      <trkpt lat="41.36225" lon="19.71762">
        <ele>95.54798</ele>
        <time>2022-05-06T11:16:05.555Z</time>
      </trkpt>
      <trkpt lat="41.36222" lon="19.71774">
        <ele>95.177926</ele>
        <time>2022-05-06T11:16:07.571Z</time>
      </trkpt>
      <trkpt lat="41.36219" lon="19.71786">
        <ele>94.809221</ele>
        <time>2022-05-06T11:16:09.544Z</time>
      </trkpt>
      <trkpt lat="41.36214" lon="19.71803">
        <ele>94.283552</ele>
        <time>2022-05-06T11:16:12.549Z</time>
      </trkpt>
      <trkpt lat="41.3621" lon="19.71819">
        <ele>93.777996</ele>
        <time>2022-05-06T11:16:15.593Z</time>
      </trkpt>
      <trkpt lat="41.36207" lon="19.7183">
        <ele>93.424266</ele>
        <time>2022-05-06T11:16:17.552Z</time>
      </trkpt>
      <trkpt lat="41.36204" lon="19.71842">
        <ele>93.059645</ele>
        <time>2022-05-06T11:16:19.552Z</time>
      </trkpt>
      <trkpt lat="41.36201" lon="19.71854">
        <ele>92.691969</ele>
        <time>2022-05-06T11:16:21.581Z</time>
      </trkpt>
      <trkpt lat="41.36199" lon="19.71865">
        <ele>92.339476</ele>
        <time>2022-05-06T11:16:23.560Z</time>
      </trkpt>
      <trkpt lat="41.36196" lon="19.71877">
        <ele>91.973357</ele>
        <time>2022-05-06T11:16:25.558Z</time>
      </trkpt>
      <trkpt lat="41.36191" lon="19.71894">
        <ele>92.233159</ele>
        <time>2022-05-06T11:16:28.563Z</time>
      </trkpt>
      <trkpt lat="41.36188" lon="19.71906">
        <ele>92.419325</ele>
        <time>2022-05-06T11:16:30.543Z</time>
      </trkpt>
      <trkpt lat="41.36184" lon="19.71922">
        <ele>92.683173</ele>
        <time>2022-05-06T11:16:33.553Z</time>
      </trkpt>
      <trkpt lat="41.3618" lon="19.71938">
        <ele>92.947021</ele>
        <time>2022-05-06T11:16:36.570Z</time>
      </trkpt>
      <trkpt lat="41.36175" lon="19.71954">
        <ele>93.1965</ele>
        <time>2022-05-06T11:16:39.585Z</time>
      </trkpt>
      <trkpt lat="41.36172" lon="19.71969">
        <ele>93.438892</ele>
        <time>2022-05-06T11:16:42.559Z</time>
      </trkpt>
      <trkpt lat="41.36168" lon="19.71984">
        <ele>93.687172</ele>
        <time>2022-05-06T11:16:45.562Z</time>
      </trkpt>
      <trkpt lat="41.36165" lon="19.72">
        <ele>93.929032</ele>
        <time>2022-05-06T11:16:48.565Z</time>
      </trkpt>
      <trkpt lat="41.3616" lon="19.72015">
        <ele>94.181384</ele>
        <time>2022-05-06T11:16:51.554Z</time>
      </trkpt>
      <trkpt lat="41.36156" lon="19.7203">
        <ele>94.418775</ele>
        <time>2022-05-06T11:16:54.583Z</time>
      </trkpt>
      <trkpt lat="41.36151" lon="19.72045">
        <ele>94.678313</ele>
        <time>2022-05-06T11:16:57.553Z</time>
      </trkpt>
      <trkpt lat="41.36147" lon="19.7206">
        <ele>94.915669</ele>
        <time>2022-05-06T11:17:00.549Z</time>
      </trkpt>
      <trkpt lat="41.36143" lon="19.72077">
        <ele>95.179922</ele>
        <time>2022-05-06T11:17:03.570Z</time>
      </trkpt>
      <trkpt lat="41.3614" lon="19.72094">
        <ele>95.453507</ele>
        <time>2022-05-06T11:17:06.556Z</time>
      </trkpt>
      <trkpt lat="41.36136" lon="19.7211">
        <ele>95.731607</ele>
        <time>2022-05-06T11:17:09.556Z</time>
      </trkpt>
      <trkpt lat="41.36133" lon="19.72126">
        <ele>96.037553</ele>
        <time>2022-05-06T11:17:12.555Z</time>
      </trkpt>
      <trkpt lat="41.36129" lon="19.72141">
        <ele>96.332134</ele>
        <time>2022-05-06T11:17:15.556Z</time>
      </trkpt>
      <trkpt lat="41.36124" lon="19.72157">
        <ele>96.648498</ele>
        <time>2022-05-06T11:17:18.550Z</time>
      </trkpt>
      <trkpt lat="41.36119" lon="19.72173">
        <ele>96.975088</ele>
        <time>2022-05-06T11:17:21.544Z</time>
      </trkpt>
      <trkpt lat="41.36116" lon="19.72184">
        <ele>97.196469</ele>
        <time>2022-05-06T11:17:23.554Z</time>
      </trkpt>
      <trkpt lat="41.36113" lon="19.72201">
        <ele>97.517217</ele>
        <time>2022-05-06T11:17:26.547Z</time>
      </trkpt>
      <trkpt lat="41.36109" lon="19.72217">
        <ele>97.82278</ele>
        <time>2022-05-06T11:17:29.579Z</time>
      </trkpt>
      <trkpt lat="41.36105" lon="19.72231">
        <ele>98.092342</ele>
        <time>2022-05-06T11:17:32.575Z</time>
      </trkpt>
      <trkpt lat="41.36102" lon="19.72244">
        <ele>98.356095</ele>
        <time>2022-05-06T11:17:35.570Z</time>
      </trkpt>
      <trkpt lat="41.361" lon="19.72256">
        <ele>98.582993</ele>
        <time>2022-05-06T11:17:38.583Z</time>
      </trkpt>
      <trkpt lat="41.36097" lon="19.72269">
        <ele>98.835055</ele>
        <time>2022-05-06T11:17:42.539Z</time>
      </trkpt>
      <trkpt lat="41.36093" lon="19.72283">
        <ele>99.114874</ele>
        <time>2022-05-06T11:17:47.549Z</time>
      </trkpt>
      <trkpt lat="41.3609" lon="19.72294">
        <ele>99.335972</ele>
        <time>2022-05-06T11:17:52.560Z</time>
      </trkpt>
      <trkpt lat="41.36086" lon="19.72305">
        <ele>99.562166</ele>
        <time>2022-05-06T11:17:57.547Z</time>
      </trkpt>
      <trkpt lat="41.36082" lon="19.72319">
        <ele>99.832451</ele>
        <time>2022-05-06T11:18:03.531Z</time>
      </trkpt>
      <trkpt lat="41.36078" lon="19.72332">
        <ele>100.075239</ele>
        <time>2022-05-06T11:18:08.545Z</time>
      </trkpt>
      <trkpt lat="41.36076" lon="19.72345">
        <ele>100.314904</ele>
        <time>2022-05-06T11:18:14.541Z</time>
      </trkpt>
      <trkpt lat="41.36073" lon="19.72359">
        <ele>100.547058</ele>
        <time>2022-05-06T11:18:20.539Z</time>
      </trkpt>
      <trkpt lat="41.36069" lon="19.72371">
        <ele>100.775417</ele>
        <time>2022-05-06T11:18:25.545Z</time>
      </trkpt>
      <trkpt lat="41.36067" lon="19.72385">
        <ele>101.004825</ele>
        <time>2022-05-06T11:18:30.557Z</time>
      </trkpt>
      <trkpt lat="41.36065" lon="19.72397">
        <ele>101.223702</ele>
        <time>2022-05-06T11:18:35.567Z</time>
      </trkpt>
      <trkpt lat="41.36061" lon="19.72408">
        <ele>101.432104</ele>
        <time>2022-05-06T11:18:39.559Z</time>
      </trkpt>
      <trkpt lat="41.36057" lon="19.7242">
        <ele>101.642987</ele>
        <time>2022-05-06T11:18:43.539Z</time>
      </trkpt>
      <trkpt lat="41.36054" lon="19.72431">
        <ele>101.855539</ele>
        <time>2022-05-06T11:18:47.550Z</time>
      </trkpt>
      <trkpt lat="41.36051" lon="19.72443">
        <ele>102.058714</ele>
        <time>2022-05-06T11:18:51.535Z</time>
      </trkpt>
      <trkpt lat="41.36047" lon="19.72454">
        <ele>102.264952</ele>
        <time>2022-05-06T11:18:54.550Z</time>
      </trkpt>
      <trkpt lat="41.36044" lon="19.72469">
        <ele>102.518147</ele>
        <time>2022-05-06T11:18:57.530Z</time>
      </trkpt>
      <trkpt lat="41.3604" lon="19.72483">
        <ele>102.786017</ele>
        <time>2022-05-06T11:19:00.556Z</time>
      </trkpt>
      <trkpt lat="41.36036" lon="19.725">
        <ele>103.074433</ele>
        <time>2022-05-06T11:19:03.542Z</time>
      </trkpt>
      <trkpt lat="41.36033" lon="19.72512">
        <ele>103.288832</ele>
        <time>2022-05-06T11:19:05.541Z</time>
      </trkpt>
      <trkpt lat="41.3603" lon="19.72525">
        <ele>103.521933</ele>
        <time>2022-05-06T11:19:07.558Z</time>
      </trkpt>
      <trkpt lat="41.36026" lon="19.72538">
        <ele>103.766099</ele>
        <time>2022-05-06T11:19:09.546Z</time>
      </trkpt>
      <trkpt lat="41.36022" lon="19.72552">
        <ele>104.010266</ele>
        <time>2022-05-06T11:19:11.549Z</time>
      </trkpt>
      <trkpt lat="41.36018" lon="19.72566">
        <ele>103.95536</ele>
        <time>2022-05-06T11:19:13.553Z</time>
      </trkpt>
      <trkpt lat="41.36013" lon="19.7258">
        <ele>103.733913</ele>
        <time>2022-05-06T11:19:15.562Z</time>
      </trkpt>
      <trkpt lat="41.36008" lon="19.72594">
        <ele>103.507081</ele>
        <time>2022-05-06T11:19:17.585Z</time>
      </trkpt>
      <trkpt lat="41.36002" lon="19.72608">
        <ele>103.280015</ele>
        <time>2022-05-06T11:19:19.545Z</time>
      </trkpt>
      <trkpt lat="41.35996" lon="19.72622">
        <ele>103.053754</ele>
        <time>2022-05-06T11:19:21.532Z</time>
      </trkpt>
      <trkpt lat="41.35989" lon="19.72635">
        <ele>102.826707</ele>
        <time>2022-05-06T11:19:23.534Z</time>
      </trkpt>
      <trkpt lat="41.35982" lon="19.72648">
        <ele>102.600226</ele>
        <time>2022-05-06T11:19:25.550Z</time>
      </trkpt>
      <trkpt lat="41.35976" lon="19.7266">
        <ele>102.387536</ele>
        <time>2022-05-06T11:19:27.561Z</time>
      </trkpt>
      <trkpt lat="41.3597" lon="19.72672">
        <ele>102.187816</ele>
        <time>2022-05-06T11:19:29.562Z</time>
      </trkpt>
      <trkpt lat="41.35966" lon="19.72684">
        <ele>102.004272</ele>
        <time>2022-05-06T11:19:31.550Z</time>
      </trkpt>
      <trkpt lat="41.35962" lon="19.72695">
        <ele>101.830448</ele>
        <time>2022-05-06T11:19:33.553Z</time>
      </trkpt>
      <trkpt lat="41.35958" lon="19.72711">
        <ele>101.586112</ele>
        <time>2022-05-06T11:19:36.554Z</time>
      </trkpt>
      <trkpt lat="41.35954" lon="19.72727">
        <ele>101.34911</ele>
        <time>2022-05-06T11:19:39.544Z</time>
      </trkpt>
      <trkpt lat="41.3595" lon="19.72738">
        <ele>101.175999</ele>
        <time>2022-05-06T11:19:41.537Z</time>
      </trkpt>
      <trkpt lat="41.35947" lon="19.72749">
        <ele>101.006257</ele>
        <time>2022-05-06T11:19:43.636Z</time>
      </trkpt>
      <trkpt lat="41.35943" lon="19.72766">
        <ele>100.760631</ele>
        <time>2022-05-06T11:19:46.542Z</time>
      </trkpt>
      <trkpt lat="41.35938" lon="19.72782">
        <ele>100.872855</ele>
        <time>2022-05-06T11:19:49.556Z</time>
      </trkpt>
      <trkpt lat="41.35935" lon="19.72794">
        <ele>101.049161</ele>
        <time>2022-05-06T11:19:51.528Z</time>
      </trkpt>
      <trkpt lat="41.35932" lon="19.72805">
        <ele>101.230503</ele>
        <time>2022-05-06T11:19:53.529Z</time>
      </trkpt>
      <trkpt lat="41.35926" lon="19.72821">
        <ele>101.487752</ele>
        <time>2022-05-06T11:19:56.572Z</time>
      </trkpt>
      <trkpt lat="41.35921" lon="19.72837">
        <ele>101.744458</ele>
        <time>2022-05-06T11:19:59.544Z</time>
      </trkpt>
      <trkpt lat="41.35915" lon="19.72853">
        <ele>102.008675</ele>
        <time>2022-05-06T11:20:02.553Z</time>
      </trkpt>
      <trkpt lat="41.35912" lon="19.72864">
        <ele>102.187325</ele>
        <time>2022-05-06T11:20:04.554Z</time>
      </trkpt>
      <trkpt lat="41.35907" lon="19.7288">
        <ele>102.437975</ele>
        <time>2022-05-06T11:20:07.541Z</time>
      </trkpt>
      <trkpt lat="41.35902" lon="19.72895">
        <ele>102.676709</ele>
        <time>2022-05-06T11:20:10.545Z</time>
      </trkpt>
      <trkpt lat="41.35896" lon="19.72909">
        <ele>102.915812</ele>
        <time>2022-05-06T11:20:13.547Z</time>
      </trkpt>
      <trkpt lat="41.35889" lon="19.72923">
        <ele>103.163995</ele>
        <time>2022-05-06T11:20:16.561Z</time>
      </trkpt>
      <trkpt lat="41.35884" lon="19.7294">
        <ele>103.430358</ele>
        <time>2022-05-06T11:20:19.543Z</time>
      </trkpt>
      <trkpt lat="41.3588" lon="19.72953">
        <ele>103.637655</ele>
        <time>2022-05-06T11:20:21.551Z</time>
      </trkpt>
      <trkpt lat="41.35876" lon="19.72965">
        <ele>103.82788</ele>
        <time>2022-05-06T11:20:23.595Z</time>
      </trkpt>
      <trkpt lat="41.35872" lon="19.72977">
        <ele>104.026135</ele>
        <time>2022-05-06T11:20:25.554Z</time>
      </trkpt>
      <trkpt lat="41.35868" lon="19.72989">
        <ele>104.21025</ele>
        <time>2022-05-06T11:20:27.548Z</time>
      </trkpt>
      <trkpt lat="41.35865" lon="19.73">
        <ele>104.136436</ele>
        <time>2022-05-06T11:20:29.594Z</time>
      </trkpt>
      <trkpt lat="41.35861" lon="19.73012">
        <ele>104.062093</ele>
        <time>2022-05-06T11:20:31.563Z</time>
      </trkpt>
      <trkpt lat="41.35856" lon="19.73028">
        <ele>103.955207</ele>
        <time>2022-05-06T11:20:34.571Z</time>
      </trkpt>
      <trkpt lat="41.35851" lon="19.73043">
        <ele>103.852234</ele>
        <time>2022-05-06T11:20:37.548Z</time>
      </trkpt>
      <trkpt lat="41.35846" lon="19.73059">
        <ele>103.749819</ele>
        <time>2022-05-06T11:20:40.530Z</time>
      </trkpt>
      <trkpt lat="41.35841" lon="19.73075">
        <ele>103.641082</ele>
        <time>2022-05-06T11:20:43.549Z</time>
      </trkpt>
      <trkpt lat="41.35835" lon="19.73091">
        <ele>103.533887</ele>
        <time>2022-05-06T11:20:46.541Z</time>
      </trkpt>
      <trkpt lat="41.3583" lon="19.73102">
        <ele>103.460791</ele>
        <time>2022-05-06T11:20:48.543Z</time>
      </trkpt>
      <trkpt lat="41.35827" lon="19.73113">
        <ele>103.386006</ele>
        <time>2022-05-06T11:20:50.541Z</time>
      </trkpt>
      <trkpt lat="41.35823" lon="19.73124">
        <ele>103.311221</ele>
        <time>2022-05-06T11:20:52.527Z</time>
      </trkpt>
      <trkpt lat="41.35818" lon="19.73136">
        <ele>103.231015</ele>
        <time>2022-05-06T11:20:54.570Z</time>
      </trkpt>
      <trkpt lat="41.35814" lon="19.73148">
        <ele>103.14866</ele>
        <time>2022-05-06T11:20:56.533Z</time>
      </trkpt>
      <trkpt lat="41.3581" lon="19.7316">
        <ele>103.068214</ele>
        <time>2022-05-06T11:20:58.544Z</time>
      </trkpt>
      <trkpt lat="41.35806" lon="19.73171">
        <ele>102.991205</ele>
        <time>2022-05-06T11:21:00.579Z</time>
      </trkpt>
      <trkpt lat="41.35802" lon="19.73183">
        <ele>102.910846</ele>
        <time>2022-05-06T11:21:02.599Z</time>
      </trkpt>
      <trkpt lat="41.35797" lon="19.73195">
        <ele>102.828682</ele>
        <time>2022-05-06T11:21:04.542Z</time>
      </trkpt>
      <trkpt lat="41.35792" lon="19.73208">
        <ele>102.778662</ele>
        <time>2022-05-06T11:21:06.575Z</time>
      </trkpt>
      <trkpt lat="41.35787" lon="19.7322">
        <ele>102.969902</ele>
        <time>2022-05-06T11:21:08.531Z</time>
      </trkpt>
      <trkpt lat="41.35782" lon="19.73234">
        <ele>103.159401</ele>
        <time>2022-05-06T11:21:10.552Z</time>
      </trkpt>
      <trkpt lat="41.35778" lon="19.73247">
        <ele>103.345622</ele>
        <time>2022-05-06T11:21:12.539Z</time>
      </trkpt>
      <trkpt lat="41.35773" lon="19.7326">
        <ele>103.532582</ele>
        <time>2022-05-06T11:21:14.559Z</time>
      </trkpt>
      <trkpt lat="41.35769" lon="19.73272">
        <ele>103.717188</ele>
        <time>2022-05-06T11:21:16.541Z</time>
      </trkpt>
      <trkpt lat="41.35765" lon="19.73285">
        <ele>103.896169</ele>
        <time>2022-05-06T11:21:18.539Z</time>
      </trkpt>
      <trkpt lat="41.3576" lon="19.73297">
        <ele>104.076579</ele>
        <time>2022-05-06T11:21:20.546Z</time>
      </trkpt>
      <trkpt lat="41.35755" lon="19.7331">
        <ele>104.269402</ele>
        <time>2022-05-06T11:21:22.535Z</time>
      </trkpt>
      <trkpt lat="41.35751" lon="19.73323">
        <ele>104.458425</ele>
        <time>2022-05-06T11:21:24.580Z</time>
      </trkpt>
      <trkpt lat="41.35746" lon="19.73337">
        <ele>104.65534</ele>
        <time>2022-05-06T11:21:26.556Z</time>
      </trkpt>
      <trkpt lat="41.35742" lon="19.73351">
        <ele>104.850593</ele>
        <time>2022-05-06T11:21:28.553Z</time>
      </trkpt>
      <trkpt lat="41.35737" lon="19.73363">
        <ele>105.036503</ele>
        <time>2022-05-06T11:21:30.562Z</time>
      </trkpt>
      <trkpt lat="41.35733" lon="19.73376">
        <ele>105.214114</ele>
        <time>2022-05-06T11:21:32.544Z</time>
      </trkpt>
      <trkpt lat="41.35729" lon="19.73388">
        <ele>105.394072</ele>
        <time>2022-05-06T11:21:34.563Z</time>
      </trkpt>
      <trkpt lat="41.35725" lon="19.73401">
        <ele>105.570472</ele>
        <time>2022-05-06T11:21:36.543Z</time>
      </trkpt>
      <trkpt lat="41.35721" lon="19.73413">
        <ele>105.748761</ele>
        <time>2022-05-06T11:21:38.541Z</time>
      </trkpt>
      <trkpt lat="41.35717" lon="19.73427">
        <ele>105.939077</ele>
        <time>2022-05-06T11:21:40.546Z</time>
      </trkpt>
      <trkpt lat="41.35713" lon="19.73439">
        <ele>106.134743</ele>
        <time>2022-05-06T11:21:42.553Z</time>
      </trkpt>
      <trkpt lat="41.35708" lon="19.73452">
        <ele>106.322293</ele>
        <time>2022-05-06T11:21:44.553Z</time>
      </trkpt>
      <trkpt lat="41.35704" lon="19.73467">
        <ele>106.549198</ele>
        <time>2022-05-06T11:21:46.573Z</time>
      </trkpt>
      <trkpt lat="41.35699" lon="19.73481">
        <ele>106.760288</ele>
        <time>2022-05-06T11:21:48.571Z</time>
      </trkpt>
      <trkpt lat="41.35696" lon="19.73494">
        <ele>106.953104</ele>
        <time>2022-05-06T11:21:50.553Z</time>
      </trkpt>
      <trkpt lat="41.35693" lon="19.73507">
        <ele>107.139156</ele>
        <time>2022-05-06T11:21:52.542Z</time>
      </trkpt>
      <trkpt lat="41.3569" lon="19.73519">
        <ele>107.321551</ele>
        <time>2022-05-06T11:21:54.553Z</time>
      </trkpt>
      <trkpt lat="41.35685" lon="19.73531">
        <ele>107.503754</ele>
        <time>2022-05-06T11:21:56.532Z</time>
      </trkpt>
      <trkpt lat="41.35681" lon="19.73543">
        <ele>107.690847</ele>
        <time>2022-05-06T11:21:58.536Z</time>
      </trkpt>
      <trkpt lat="41.35676" lon="19.73559">
        <ele>107.93931</ele>
        <time>2022-05-06T11:22:01.562Z</time>
      </trkpt>
      <trkpt lat="41.35671" lon="19.7357">
        <ele>108.106089</ele>
        <time>2022-05-06T11:22:03.557Z</time>
      </trkpt>
      <trkpt lat="41.35667" lon="19.73581">
        <ele>108.28131</ele>
        <time>2022-05-06T11:22:05.545Z</time>
      </trkpt>
      <trkpt lat="41.35662" lon="19.73593">
        <ele>108.467973</ele>
        <time>2022-05-06T11:22:07.553Z</time>
      </trkpt>
      <trkpt lat="41.35658" lon="19.73605">
        <ele>108.655249</ele>
        <time>2022-05-06T11:22:09.559Z</time>
      </trkpt>
      <trkpt lat="41.35654" lon="19.73617">
        <ele>108.840756</ele>
        <time>2022-05-06T11:22:11.555Z</time>
      </trkpt>
      <trkpt lat="41.35649" lon="19.73629">
        <ele>109.020785</ele>
        <time>2022-05-06T11:22:13.542Z</time>
      </trkpt>
      <trkpt lat="41.35646" lon="19.73641">
        <ele>109.20275</ele>
        <time>2022-05-06T11:22:15.556Z</time>
      </trkpt>
      <trkpt lat="41.35642" lon="19.73653">
        <ele>109.003524</ele>
        <time>2022-05-06T11:22:17.555Z</time>
      </trkpt>
      <trkpt lat="41.35637" lon="19.73665">
        <ele>108.712415</ele>
        <time>2022-05-06T11:22:19.583Z</time>
      </trkpt>
      <trkpt lat="41.35632" lon="19.73677">
        <ele>108.430047</ele>
        <time>2022-05-06T11:22:21.547Z</time>
      </trkpt>
      <trkpt lat="41.35628" lon="19.73689">
        <ele>108.158163</ele>
        <time>2022-05-06T11:22:23.547Z</time>
      </trkpt>
      <trkpt lat="41.35624" lon="19.737">
        <ele>107.896993</ele>
        <time>2022-05-06T11:22:25.541Z</time>
      </trkpt>
      <trkpt lat="41.35621" lon="19.73711">
        <ele>107.643078</ele>
        <time>2022-05-06T11:22:27.552Z</time>
      </trkpt>
      <trkpt lat="41.35616" lon="19.73722">
        <ele>107.380172</ele>
        <time>2022-05-06T11:22:29.529Z</time>
      </trkpt>
      <trkpt lat="41.35613" lon="19.73733">
        <ele>107.122812</ele>
        <time>2022-05-06T11:22:31.549Z</time>
      </trkpt>
      <trkpt lat="41.35608" lon="19.73746">
        <ele>106.831703</ele>
        <time>2022-05-06T11:22:33.554Z</time>
      </trkpt>
      <trkpt lat="41.35602" lon="19.73761">
        <ele>106.459875</ele>
        <time>2022-05-06T11:22:36.536Z</time>
      </trkpt>
      <trkpt lat="41.35596" lon="19.73777">
        <ele>106.090505</ele>
        <time>2022-05-06T11:22:39.560Z</time>
      </trkpt>
      <trkpt lat="41.35592" lon="19.73788">
        <ele>105.831622</ele>
        <time>2022-05-06T11:22:41.570Z</time>
      </trkpt>
      <trkpt lat="41.35588" lon="19.73799">
        <ele>105.572466</ele>
        <time>2022-05-06T11:22:43.542Z</time>
      </trkpt>
      <trkpt lat="41.35583" lon="19.7381">
        <ele>105.319943</ele>
        <time>2022-05-06T11:22:45.564Z</time>
      </trkpt>
      <trkpt lat="41.35578" lon="19.73821">
        <ele>105.048442</ele>
        <time>2022-05-06T11:22:47.572Z</time>
      </trkpt>
      <trkpt lat="41.35572" lon="19.73836">
        <ele>104.679746</ele>
        <time>2022-05-06T11:22:50.563Z</time>
      </trkpt>
      <trkpt lat="41.35567" lon="19.73852">
        <ele>104.323989</ele>
        <time>2022-05-06T11:22:53.555Z</time>
      </trkpt>
      <trkpt lat="41.35563" lon="19.73868">
        <ele>104.068615</ele>
        <time>2022-05-06T11:22:56.569Z</time>
      </trkpt>
      <trkpt lat="41.35557" lon="19.73884">
        <ele>103.862936</ele>
        <time>2022-05-06T11:22:59.566Z</time>
      </trkpt>
      <trkpt lat="41.35554" lon="19.73895">
        <ele>103.71794</ele>
        <time>2022-05-06T11:23:01.552Z</time>
      </trkpt>
      <trkpt lat="41.3555" lon="19.73906">
        <ele>103.573356</ele>
        <time>2022-05-06T11:23:03.582Z</time>
      </trkpt>
      <trkpt lat="41.35546" lon="19.73917">
        <ele>103.426619</ele>
        <time>2022-05-06T11:23:05.541Z</time>
      </trkpt>
      <trkpt lat="41.35542" lon="19.73929">
        <ele>103.276929</ele>
        <time>2022-05-06T11:23:07.545Z</time>
      </trkpt>
      <trkpt lat="41.35539" lon="19.7394">
        <ele>103.125546</ele>
        <time>2022-05-06T11:23:09.552Z</time>
      </trkpt>
      <trkpt lat="41.35535" lon="19.73953">
        <ele>102.969659</ele>
        <time>2022-05-06T11:23:11.563Z</time>
      </trkpt>
      <trkpt lat="41.35531" lon="19.73964">
        <ele>102.817173</ele>
        <time>2022-05-06T11:23:13.555Z</time>
      </trkpt>
      <trkpt lat="41.35526" lon="19.73981">
        <ele>102.606941</ele>
        <time>2022-05-06T11:23:16.548Z</time>
      </trkpt>
      <trkpt lat="41.35522" lon="19.73992">
        <ele>102.458485</ele>
        <time>2022-05-06T11:23:18.552Z</time>
      </trkpt>
      <trkpt lat="41.35517" lon="19.74003">
        <ele>102.306488</ele>
        <time>2022-05-06T11:23:20.551Z</time>
      </trkpt>
      <trkpt lat="41.35513" lon="19.74014">
        <ele>102.15839</ele>
        <time>2022-05-06T11:23:22.538Z</time>
      </trkpt>
      <trkpt lat="41.35509" lon="19.74025">
        <ele>102.013093</ele>
        <time>2022-05-06T11:23:24.555Z</time>
      </trkpt>
      <trkpt lat="41.35505" lon="19.74037">
        <ele>101.854367</ele>
        <time>2022-05-06T11:23:26.547Z</time>
      </trkpt>
      <trkpt lat="41.35501" lon="19.74049">
        <ele>101.701925</ele>
        <time>2022-05-06T11:23:28.566Z</time>
      </trkpt>
      <trkpt lat="41.35496" lon="19.74062">
        <ele>101.536828</ele>
        <time>2022-05-06T11:23:30.596Z</time>
      </trkpt>
      <trkpt lat="41.35492" lon="19.74074">
        <ele>101.375962</ele>
        <time>2022-05-06T11:23:32.543Z</time>
      </trkpt>
      <trkpt lat="41.35488" lon="19.74086">
        <ele>101.436298</ele>
        <time>2022-05-06T11:23:34.548Z</time>
      </trkpt>
      <trkpt lat="41.35484" lon="19.74098">
        <ele>101.537963</ele>
        <time>2022-05-06T11:23:36.574Z</time>
      </trkpt>
      <trkpt lat="41.3548" lon="19.74111">
        <ele>101.642641</ele>
        <time>2022-05-06T11:23:38.550Z</time>
      </trkpt>
      <trkpt lat="41.35475" lon="19.74124">
        <ele>101.746425</ele>
        <time>2022-05-06T11:23:40.551Z</time>
      </trkpt>
      <trkpt lat="41.35471" lon="19.74136">
        <ele>101.844468</ele>
        <time>2022-05-06T11:23:42.550Z</time>
      </trkpt>
      <trkpt lat="41.35467" lon="19.74147">
        <ele>101.93735</ele>
        <time>2022-05-06T11:23:44.534Z</time>
      </trkpt>
      <trkpt lat="41.35463" lon="19.74158">
        <ele>102.030535</ele>
        <time>2022-05-06T11:23:46.546Z</time>
      </trkpt>
      <trkpt lat="41.35458" lon="19.7417">
        <ele>102.126151</ele>
        <time>2022-05-06T11:23:48.551Z</time>
      </trkpt>
      <trkpt lat="41.35454" lon="19.74181">
        <ele>102.217106</ele>
        <time>2022-05-06T11:23:50.539Z</time>
      </trkpt>
      <trkpt lat="41.3545" lon="19.74196">
        <ele>102.336353</ele>
        <time>2022-05-06T11:23:53.545Z</time>
      </trkpt>
      <trkpt lat="41.35445" lon="19.74211">
        <ele>102.459394</ele>
        <time>2022-05-06T11:23:56.560Z</time>
      </trkpt>
      <trkpt lat="41.3544" lon="19.74226">
        <ele>102.584232</ele>
        <time>2022-05-06T11:23:59.560Z</time>
      </trkpt>
      <trkpt lat="41.35436" lon="19.74238">
        <ele>102.677911</ele>
        <time>2022-05-06T11:24:01.538Z</time>
      </trkpt>
      <trkpt lat="41.35432" lon="19.7425">
        <ele>102.77216</ele>
        <time>2022-05-06T11:24:03.530Z</time>
      </trkpt>
      <trkpt lat="41.35429" lon="19.74261">
        <ele>102.861643</ele>
        <time>2022-05-06T11:24:05.543Z</time>
      </trkpt>
      <trkpt lat="41.35422" lon="19.74276">
        <ele>102.996059</ele>
        <time>2022-05-06T11:24:08.556Z</time>
      </trkpt>
      <trkpt lat="41.35415" lon="19.74285">
        <ele>103.086845</ele>
        <time>2022-05-06T11:24:10.555Z</time>
      </trkpt>
      <trkpt lat="41.35407" lon="19.74291">
        <ele>103.19023</ele>
        <time>2022-05-06T11:24:12.549Z</time>
      </trkpt>
      <trkpt lat="41.35395" lon="19.74296">
        <ele>103.34228</ele>
        <time>2022-05-06T11:24:15.578Z</time>
      </trkpt>
      <trkpt lat="41.35382" lon="19.74302">
        <ele>103.498519</ele>
        <time>2022-05-06T11:24:18.640Z</time>
      </trkpt>
      <trkpt lat="41.35373" lon="19.74306">
        <ele>103.617387</ele>
        <time>2022-05-06T11:24:20.553Z</time>
      </trkpt>
      <trkpt lat="41.35363" lon="19.74311">
        <ele>103.737377</ele>
        <time>2022-05-06T11:24:22.544Z</time>
      </trkpt>
      <trkpt lat="41.35354" lon="19.74315">
        <ele>103.854599</ele>
        <time>2022-05-06T11:24:24.573Z</time>
      </trkpt>
      <trkpt lat="41.35345" lon="19.74319">
        <ele>103.967286</ele>
        <time>2022-05-06T11:24:26.562Z</time>
      </trkpt>
      <trkpt lat="41.35336" lon="19.74323">
        <ele>104.07803</ele>
        <time>2022-05-06T11:24:28.537Z</time>
      </trkpt>
      <trkpt lat="41.35327" lon="19.74328">
        <ele>104.188478</ele>
        <time>2022-05-06T11:24:30.608Z</time>
      </trkpt>
      <trkpt lat="41.35319" lon="19.74332">
        <ele>104.298727</ele>
        <time>2022-05-06T11:24:32.580Z</time>
      </trkpt>
      <trkpt lat="41.35306" lon="19.74338">
        <ele>104.459192</ele>
        <time>2022-05-06T11:24:35.552Z</time>
      </trkpt>
      <trkpt lat="41.35294" lon="19.74345">
        <ele>104.616624</ele>
        <time>2022-05-06T11:24:38.558Z</time>
      </trkpt>
      <trkpt lat="41.35281" lon="19.74351">
        <ele>104.771639</ele>
        <time>2022-05-06T11:24:41.532Z</time>
      </trkpt>
      <trkpt lat="41.35273" lon="19.74356">
        <ele>104.87848</ele>
        <time>2022-05-06T11:24:43.544Z</time>
      </trkpt>
      <trkpt lat="41.35261" lon="19.74361">
        <ele>105.032227</ele>
        <time>2022-05-06T11:24:46.554Z</time>
      </trkpt>
      <trkpt lat="41.35249" lon="19.74361">
        <ele>105.167298</ele>
        <time>2022-05-06T11:24:49.543Z</time>
      </trkpt>
      <trkpt lat="41.35239" lon="19.74368">
        <ele>105.282737</ele>
        <time>2022-05-06T11:24:52.537Z</time>
      </trkpt>
      <trkpt lat="41.35229" lon="19.74378">
        <ele>105.354328</ele>
        <time>2022-05-06T11:24:55.622Z</time>
      </trkpt>
      <trkpt lat="41.35218" lon="19.74387">
        <ele>105.423871</ele>
        <time>2022-05-06T11:24:58.543Z</time>
      </trkpt>
      <trkpt lat="41.35207" lon="19.7439">
        <ele>105.489745</ele>
        <time>2022-05-06T11:25:01.580Z</time>
      </trkpt>
      <trkpt lat="41.35196" lon="19.74387">
        <ele>105.547362</ele>
        <time>2022-05-06T11:25:04.550Z</time>
      </trkpt>
      <trkpt lat="41.35187" lon="19.74391">
        <ele>105.602964</ele>
        <time>2022-05-06T11:25:08.583Z</time>
      </trkpt>
      <trkpt lat="41.35181" lon="19.74404">
        <ele>105.66561</ele>
        <time>2022-05-06T11:25:11.556Z</time>
      </trkpt>
      <trkpt lat="41.35174" lon="19.74415">
        <ele>105.728096</ele>
        <time>2022-05-06T11:25:14.550Z</time>
      </trkpt>
      <trkpt lat="41.35166" lon="19.74427">
        <ele>105.792714</ele>
        <time>2022-05-06T11:25:17.553Z</time>
      </trkpt>
      <trkpt lat="41.35158" lon="19.74438">
        <ele>105.858705</ele>
        <time>2022-05-06T11:25:20.537Z</time>
      </trkpt>
      <trkpt lat="41.35148" lon="19.74448">
        <ele>105.926045</ele>
        <time>2022-05-06T11:25:23.592Z</time>
      </trkpt>
      <trkpt lat="41.35139" lon="19.74459">
        <ele>105.991688</ele>
        <time>2022-05-06T11:25:26.551Z</time>
      </trkpt>
      <trkpt lat="41.35131" lon="19.74469">
        <ele>106.055669</ele>
        <time>2022-05-06T11:25:29.574Z</time>
      </trkpt>
      <trkpt lat="41.35122" lon="19.74478">
        <ele>106.117565</ele>
        <time>2022-05-06T11:25:32.554Z</time>
      </trkpt>
      <trkpt lat="41.35113" lon="19.74489">
        <ele>106.183483</ele>
        <time>2022-05-06T11:25:35.556Z</time>
      </trkpt>
      <trkpt lat="41.35105" lon="19.74502">
        <ele>106.256649</ele>
        <time>2022-05-06T11:25:38.547Z</time>
      </trkpt>
      <trkpt lat="41.35098" lon="19.74511">
        <ele>106.346463</ele>
        <time>2022-05-06T11:25:40.544Z</time>
      </trkpt>
      <trkpt lat="41.3509" lon="19.74525">
        <ele>106.484197</ele>
        <time>2022-05-06T11:25:43.543Z</time>
      </trkpt>
      <trkpt lat="41.35082" lon="19.74538">
        <ele>106.619766</ele>
        <time>2022-05-06T11:25:46.536Z</time>
      </trkpt>
      <trkpt lat="41.35073" lon="19.74551">
        <ele>106.755551</ele>
        <time>2022-05-06T11:25:49.540Z</time>
      </trkpt>
      <trkpt lat="41.35065" lon="19.74564">
        <ele>106.89211</ele>
        <time>2022-05-06T11:25:52.581Z</time>
      </trkpt>
      <trkpt lat="41.35056" lon="19.74577">
        <ele>107.030936</ele>
        <time>2022-05-06T11:25:55.546Z</time>
      </trkpt>
      <trkpt lat="41.35048" lon="19.74591">
        <ele>107.167455</ele>
        <time>2022-05-06T11:25:58.540Z</time>
      </trkpt>
      <trkpt lat="41.3504" lon="19.74605">
        <ele>107.30971</ele>
        <time>2022-05-06T11:26:01.552Z</time>
      </trkpt>
      <trkpt lat="41.35031" lon="19.74618">
        <ele>107.449234</ele>
        <time>2022-05-06T11:26:04.554Z</time>
      </trkpt>
      <trkpt lat="41.35025" lon="19.74628">
        <ele>107.54487</ele>
        <time>2022-05-06T11:26:06.568Z</time>
      </trkpt>
      <trkpt lat="41.35017" lon="19.74641">
        <ele>107.678856</ele>
        <time>2022-05-06T11:26:09.557Z</time>
      </trkpt>
      <trkpt lat="41.3501" lon="19.74654">
        <ele>107.807785</ele>
        <time>2022-05-06T11:26:12.549Z</time>
      </trkpt>
      <trkpt lat="41.35002" lon="19.74666">
        <ele>107.926818</ele>
        <time>2022-05-06T11:26:15.551Z</time>
      </trkpt>
      <trkpt lat="41.34997" lon="19.74679">
        <ele>108.047774</ele>
        <time>2022-05-06T11:26:18.566Z</time>
      </trkpt>
      <trkpt lat="41.34991" lon="19.74694">
        <ele>108.141165</ele>
        <time>2022-05-06T11:26:21.552Z</time>
      </trkpt>
      <trkpt lat="41.34987" lon="19.74706">
        <ele>108.120498</ele>
        <time>2022-05-06T11:26:23.610Z</time>
      </trkpt>
      <trkpt lat="41.34982" lon="19.74721">
        <ele>108.092113</ele>
        <time>2022-05-06T11:26:26.560Z</time>
      </trkpt>
      <trkpt lat="41.34977" lon="19.74735">
        <ele>108.06626</ele>
        <time>2022-05-06T11:26:29.573Z</time>
      </trkpt>
      <trkpt lat="41.34971" lon="19.74747">
        <ele>108.040935</ele>
        <time>2022-05-06T11:26:32.552Z</time>
      </trkpt>
      <trkpt lat="41.34961" lon="19.7476">
        <ele>108.010354</ele>
        <time>2022-05-06T11:26:35.550Z</time>
      </trkpt>
      <trkpt lat="41.34955" lon="19.74771">
        <ele>107.988675</ele>
        <time>2022-05-06T11:26:37.554Z</time>
      </trkpt>
      <trkpt lat="41.34951" lon="19.74781">
        <ele>107.968287</ele>
        <time>2022-05-06T11:26:39.534Z</time>
      </trkpt>
      <trkpt lat="41.34945" lon="19.74792">
        <ele>107.945793</ele>
        <time>2022-05-06T11:26:41.559Z</time>
      </trkpt>
      <trkpt lat="41.34939" lon="19.74802">
        <ele>107.923169</ele>
        <time>2022-05-06T11:26:43.566Z</time>
      </trkpt>
      <trkpt lat="41.34933" lon="19.74812">
        <ele>107.902291</ele>
        <time>2022-05-06T11:26:45.536Z</time>
      </trkpt>
      <trkpt lat="41.34925" lon="19.74825">
        <ele>107.874393</ele>
        <time>2022-05-06T11:26:48.547Z</time>
      </trkpt>
      <trkpt lat="41.34917" lon="19.74837">
        <ele>107.847168</ele>
        <time>2022-05-06T11:26:51.553Z</time>
      </trkpt>
      <trkpt lat="41.34909" lon="19.74848">
        <ele>107.821394</ele>
        <time>2022-05-06T11:26:54.553Z</time>
      </trkpt>
      <trkpt lat="41.34901" lon="19.7486">
        <ele>107.794703</ele>
        <time>2022-05-06T11:26:57.556Z</time>
      </trkpt>
      <trkpt lat="41.34894" lon="19.74873">
        <ele>107.766962</ele>
        <time>2022-05-06T11:27:00.551Z</time>
      </trkpt>
      <trkpt lat="41.34887" lon="19.74886">
        <ele>107.744534</ele>
        <time>2022-05-06T11:27:03.524Z</time>
      </trkpt>
      <trkpt lat="41.34879" lon="19.749">
        <ele>107.741812</ele>
        <time>2022-05-06T11:27:06.546Z</time>
      </trkpt>
      <trkpt lat="41.34872" lon="19.74913">
        <ele>107.739092</ele>
        <time>2022-05-06T11:27:09.554Z</time>
      </trkpt>
      <trkpt lat="41.34866" lon="19.74926">
        <ele>107.736524</ele>
        <time>2022-05-06T11:27:12.619Z</time>
      </trkpt>
      <trkpt lat="41.34859" lon="19.74938">
        <ele>107.734016</ele>
        <time>2022-05-06T11:27:15.551Z</time>
      </trkpt>
      <trkpt lat="41.34852" lon="19.7495">
        <ele>107.731441</ele>
        <time>2022-05-06T11:27:18.543Z</time>
      </trkpt>
      <trkpt lat="41.34845" lon="19.74962">
        <ele>107.728933</ele>
        <time>2022-05-06T11:27:21.587Z</time>
      </trkpt>
      <trkpt lat="41.34838" lon="19.74974">
        <ele>107.726368</ele>
        <time>2022-05-06T11:27:24.543Z</time>
      </trkpt>
      <trkpt lat="41.34831" lon="19.74985">
        <ele>107.723952</ele>
        <time>2022-05-06T11:27:27.545Z</time>
      </trkpt>
      <trkpt lat="41.34823" lon="19.74997">
        <ele>107.721438</ele>
        <time>2022-05-06T11:27:30.554Z</time>
      </trkpt>
      <trkpt lat="41.34816" lon="19.75009">
        <ele>107.718842</ele>
        <time>2022-05-06T11:27:33.549Z</time>
      </trkpt>
      <trkpt lat="41.34808" lon="19.7502">
        <ele>107.716315</ele>
        <time>2022-05-06T11:27:36.542Z</time>
      </trkpt>
      <trkpt lat="41.34802" lon="19.75032">
        <ele>107.713899</ele>
        <time>2022-05-06T11:27:39.562Z</time>
      </trkpt>
      <trkpt lat="41.34795" lon="19.75042">
        <ele>107.71166</ele>
        <time>2022-05-06T11:27:42.560Z</time>
      </trkpt>
      <trkpt lat="41.34789" lon="19.75053">
        <ele>107.709349</ele>
        <time>2022-05-06T11:27:45.579Z</time>
      </trkpt>
      <trkpt lat="41.34782" lon="19.75064">
        <ele>107.706973</ele>
        <time>2022-05-06T11:27:48.572Z</time>
      </trkpt>
      <trkpt lat="41.34776" lon="19.75076">
        <ele>107.769195</ele>
        <time>2022-05-06T11:27:51.548Z</time>
      </trkpt>
      <trkpt lat="41.3477" lon="19.75089">
        <ele>107.993762</ele>
        <time>2022-05-06T11:27:54.554Z</time>
      </trkpt>
      <trkpt lat="41.34763" lon="19.75101">
        <ele>108.226522</ele>
        <time>2022-05-06T11:27:57.552Z</time>
      </trkpt>
      <trkpt lat="41.34756" lon="19.75112">
        <ele>108.444735</ele>
        <time>2022-05-06T11:28:00.543Z</time>
      </trkpt>
      <trkpt lat="41.3475" lon="19.75125">
        <ele>108.672734</ele>
        <time>2022-05-06T11:28:03.546Z</time>
      </trkpt>
      <trkpt lat="41.34744" lon="19.75136">
        <ele>108.882615</ele>
        <time>2022-05-06T11:28:06.566Z</time>
      </trkpt>
      <trkpt lat="41.34738" lon="19.75147">
        <ele>109.088734</ele>
        <time>2022-05-06T11:28:09.556Z</time>
      </trkpt>
      <trkpt lat="41.34732" lon="19.75157">
        <ele>109.280415</ele>
        <time>2022-05-06T11:28:12.582Z</time>
      </trkpt>
      <trkpt lat="41.34725" lon="19.75167">
        <ele>109.489463</ele>
        <time>2022-05-06T11:28:15.553Z</time>
      </trkpt>
      <trkpt lat="41.34719" lon="19.75178">
        <ele>109.689794</ele>
        <time>2022-05-06T11:28:18.565Z</time>
      </trkpt>
      <trkpt lat="41.34714" lon="19.75189">
        <ele>109.894114</ele>
        <time>2022-05-06T11:28:21.548Z</time>
      </trkpt>
      <trkpt lat="41.34708" lon="19.75202">
        <ele>110.123585</ele>
        <time>2022-05-06T11:28:24.546Z</time>
      </trkpt>
      <trkpt lat="41.34701" lon="19.75214">
        <ele>110.352708</ele>
        <time>2022-05-06T11:28:27.570Z</time>
      </trkpt>
      <trkpt lat="41.34694" lon="19.75228">
        <ele>110.602556</ele>
        <time>2022-05-06T11:28:30.555Z</time>
      </trkpt>
      <trkpt lat="41.34687" lon="19.75239">
        <ele>110.828038</ele>
        <time>2022-05-06T11:28:33.552Z</time>
      </trkpt>
      <trkpt lat="41.3468" lon="19.75251">
        <ele>111.052296</ele>
        <time>2022-05-06T11:28:36.564Z</time>
      </trkpt>
      <trkpt lat="41.34673" lon="19.75263">
        <ele>111.282618</ele>
        <time>2022-05-06T11:28:39.582Z</time>
      </trkpt>
      <trkpt lat="41.34666" lon="19.75275">
        <ele>111.222294</ele>
        <time>2022-05-06T11:28:42.553Z</time>
      </trkpt>
      <trkpt lat="41.34659" lon="19.75287">
        <ele>111.078475</ele>
        <time>2022-05-06T11:28:45.620Z</time>
      </trkpt>
      <trkpt lat="41.3465" lon="19.75297">
        <ele>110.93104</ele>
        <time>2022-05-06T11:28:48.559Z</time>
      </trkpt>
      <trkpt lat="41.34641" lon="19.75308">
        <ele>110.77397</ele>
        <time>2022-05-06T11:28:51.572Z</time>
      </trkpt>
      <trkpt lat="41.34632" lon="19.75318">
        <ele>110.619485</ele>
        <time>2022-05-06T11:28:54.563Z</time>
      </trkpt>
      <trkpt lat="41.34624" lon="19.75329">
        <ele>110.470691</ele>
        <time>2022-05-06T11:28:57.551Z</time>
      </trkpt>
      <trkpt lat="41.34616" lon="19.7534">
        <ele>110.322159</ele>
        <time>2022-05-06T11:29:00.552Z</time>
      </trkpt>
      <trkpt lat="41.34608" lon="19.7535">
        <ele>110.178178</ele>
        <time>2022-05-06T11:29:03.540Z</time>
      </trkpt>
      <trkpt lat="41.346" lon="19.75362">
        <ele>110.028259</ele>
        <time>2022-05-06T11:29:06.573Z</time>
      </trkpt>
      <trkpt lat="41.34594" lon="19.75375">
        <ele>109.880729</ele>
        <time>2022-05-06T11:29:09.531Z</time>
      </trkpt>
      <trkpt lat="41.34588" lon="19.75387">
        <ele>109.740664</ele>
        <time>2022-05-06T11:29:12.549Z</time>
      </trkpt>
      <trkpt lat="41.34581" lon="19.75401">
        <ele>109.580747</ele>
        <time>2022-05-06T11:29:15.562Z</time>
      </trkpt>
      <trkpt lat="41.34574" lon="19.75415">
        <ele>109.420131</ele>
        <time>2022-05-06T11:29:18.552Z</time>
      </trkpt>
      <trkpt lat="41.34565" lon="19.75428">
        <ele>109.252004</ele>
        <time>2022-05-06T11:29:21.548Z</time>
      </trkpt>
      <trkpt lat="41.34558" lon="19.75436">
        <ele>109.132746</ele>
        <time>2022-05-06T11:29:23.546Z</time>
      </trkpt>
      <trkpt lat="41.34552" lon="19.75444">
        <ele>109.033381</ele>
        <time>2022-05-06T11:29:25.551Z</time>
      </trkpt>
      <trkpt lat="41.34545" lon="19.75453">
        <ele>109.151126</ele>
        <time>2022-05-06T11:29:27.573Z</time>
      </trkpt>
      <trkpt lat="41.34539" lon="19.75462">
        <ele>109.266783</ele>
        <time>2022-05-06T11:29:29.559Z</time>
      </trkpt>
      <trkpt lat="41.3453" lon="19.75474">
        <ele>109.427233</ele>
        <time>2022-05-06T11:29:32.569Z</time>
      </trkpt>
      <trkpt lat="41.34521" lon="19.75486">
        <ele>109.590232</ele>
        <time>2022-05-06T11:29:35.557Z</time>
      </trkpt>
      <trkpt lat="41.34512" lon="19.75499">
        <ele>109.756518</ele>
        <time>2022-05-06T11:29:38.563Z</time>
      </trkpt>
      <trkpt lat="41.34503" lon="19.7551">
        <ele>109.918998</ele>
        <time>2022-05-06T11:29:41.556Z</time>
      </trkpt>
      <trkpt lat="41.34494" lon="19.75523">
        <ele>110.081693</ele>
        <time>2022-05-06T11:29:44.604Z</time>
      </trkpt>
      <trkpt lat="41.34484" lon="19.75534">
        <ele>110.247801</ele>
        <time>2022-05-06T11:29:47.557Z</time>
      </trkpt>
      <trkpt lat="41.34477" lon="19.75543">
        <ele>110.364155</ele>
        <time>2022-05-06T11:29:49.567Z</time>
      </trkpt>
      <trkpt lat="41.34468" lon="19.75555">
        <ele>110.531351</ele>
        <time>2022-05-06T11:29:52.573Z</time>
      </trkpt>
      <trkpt lat="41.34459" lon="19.75568">
        <ele>110.692281</ele>
        <time>2022-05-06T11:29:55.602Z</time>
      </trkpt>
      <trkpt lat="41.34451" lon="19.75581">
        <ele>110.856877</ele>
        <time>2022-05-06T11:29:58.565Z</time>
      </trkpt>
      <trkpt lat="41.34444" lon="19.75589">
        <ele>110.971881</ele>
        <time>2022-05-06T11:30:00.557Z</time>
      </trkpt>
      <trkpt lat="41.34435" lon="19.75601">
        <ele>111.132128</ele>
        <time>2022-05-06T11:30:03.549Z</time>
      </trkpt>
      <trkpt lat="41.34427" lon="19.75612">
        <ele>111.27958</ele>
        <time>2022-05-06T11:30:06.591Z</time>
      </trkpt>
      <trkpt lat="41.34419" lon="19.75623">
        <ele>111.426852</ele>
        <time>2022-05-06T11:30:09.545Z</time>
      </trkpt>
      <trkpt lat="41.34411" lon="19.75633">
        <ele>111.555067</ele>
        <time>2022-05-06T11:30:12.565Z</time>
      </trkpt>
      <trkpt lat="41.34404" lon="19.75644">
        <ele>111.686105</ele>
        <time>2022-05-06T11:30:15.557Z</time>
      </trkpt>
      <trkpt lat="41.34397" lon="19.75653">
        <ele>111.805304</ele>
        <time>2022-05-06T11:30:18.551Z</time>
      </trkpt>
      <trkpt lat="41.3439" lon="19.75663">
        <ele>111.926004</ele>
        <time>2022-05-06T11:30:21.553Z</time>
      </trkpt>
      <trkpt lat="41.34382" lon="19.75673">
        <ele>112.059644</ele>
        <time>2022-05-06T11:30:24.556Z</time>
      </trkpt>
      <trkpt lat="41.34375" lon="19.75683">
        <ele>112.190368</ele>
        <time>2022-05-06T11:30:27.551Z</time>
      </trkpt>
      <trkpt lat="41.34367" lon="19.75694">
        <ele>112.328687</ele>
        <time>2022-05-06T11:30:30.549Z</time>
      </trkpt>
      <trkpt lat="41.34359" lon="19.75704">
        <ele>112.457952</ele>
        <time>2022-05-06T11:30:33.559Z</time>
      </trkpt>
      <trkpt lat="41.34352" lon="19.75714">
        <ele>112.589591</ele>
        <time>2022-05-06T11:30:36.543Z</time>
      </trkpt>
      <trkpt lat="41.34344" lon="19.75725">
        <ele>112.724132</ele>
        <time>2022-05-06T11:30:39.552Z</time>
      </trkpt>
      <trkpt lat="41.34336" lon="19.75736">
        <ele>112.86317</ele>
        <time>2022-05-06T11:30:42.552Z</time>
      </trkpt>
      <trkpt lat="41.34329" lon="19.75747">
        <ele>113.003407</ele>
        <time>2022-05-06T11:30:45.604Z</time>
      </trkpt>
      <trkpt lat="41.3432" lon="19.75758">
        <ele>113.142843</ele>
        <time>2022-05-06T11:30:48.553Z</time>
      </trkpt>
      <trkpt lat="41.34311" lon="19.75768">
        <ele>113.292869</ele>
        <time>2022-05-06T11:30:51.567Z</time>
      </trkpt>
      <trkpt lat="41.34301" lon="19.75779">
        <ele>113.448643</ele>
        <time>2022-05-06T11:30:54.556Z</time>
      </trkpt>
      <trkpt lat="41.34292" lon="19.7579">
        <ele>113.483928</ele>
        <time>2022-05-06T11:30:57.539Z</time>
      </trkpt>
      <trkpt lat="41.34283" lon="19.75803">
        <ele>113.469079</ele>
        <time>2022-05-06T11:31:00.562Z</time>
      </trkpt>
      <trkpt lat="41.34275" lon="19.75814">
        <ele>113.455722</ele>
        <time>2022-05-06T11:31:03.552Z</time>
      </trkpt>
      <trkpt lat="41.34269" lon="19.75825">
        <ele>113.443622</ele>
        <time>2022-05-06T11:31:06.531Z</time>
      </trkpt>
      <trkpt lat="41.34262" lon="19.75836">
        <ele>113.430815</ele>
        <time>2022-05-06T11:31:09.553Z</time>
      </trkpt>
      <trkpt lat="41.34253" lon="19.75847">
        <ele>113.417011</ele>
        <time>2022-05-06T11:31:12.535Z</time>
      </trkpt>
      <trkpt lat="41.34244" lon="19.75858">
        <ele>113.402942</ele>
        <time>2022-05-06T11:31:15.538Z</time>
      </trkpt>
      <trkpt lat="41.34236" lon="19.75869">
        <ele>113.389545</ele>
        <time>2022-05-06T11:31:18.543Z</time>
      </trkpt>
      <trkpt lat="41.34228" lon="19.75878">
        <ele>113.377597</ele>
        <time>2022-05-06T11:31:21.558Z</time>
      </trkpt>
      <trkpt lat="41.34221" lon="19.75888">
        <ele>113.365659</ele>
        <time>2022-05-06T11:31:24.536Z</time>
      </trkpt>
      <trkpt lat="41.34213" lon="19.75899">
        <ele>113.351953</ele>
        <time>2022-05-06T11:31:27.550Z</time>
      </trkpt>
      <trkpt lat="41.34205" lon="19.75911">
        <ele>113.338006</ele>
        <time>2022-05-06T11:31:30.555Z</time>
      </trkpt>
      <trkpt lat="41.34197" lon="19.75921">
        <ele>113.325003</ele>
        <time>2022-05-06T11:31:33.558Z</time>
      </trkpt>
      <trkpt lat="41.34188" lon="19.75933">
        <ele>113.311386</ele>
        <time>2022-05-06T11:31:36.544Z</time>
      </trkpt>
      <trkpt lat="41.34181" lon="19.75944">
        <ele>113.298371</ele>
        <time>2022-05-06T11:31:39.614Z</time>
      </trkpt>
      <trkpt lat="41.34174" lon="19.75956">
        <ele>113.290849</ele>
        <time>2022-05-06T11:31:42.547Z</time>
      </trkpt>
      <trkpt lat="41.34166" lon="19.75965">
        <ele>113.612548</ele>
        <time>2022-05-06T11:31:45.542Z</time>
      </trkpt>
      <trkpt lat="41.34158" lon="19.75975">
        <ele>113.938558</ele>
        <time>2022-05-06T11:31:48.547Z</time>
      </trkpt>
      <trkpt lat="41.3415" lon="19.75985">
        <ele>114.263887</ele>
        <time>2022-05-06T11:31:51.543Z</time>
      </trkpt>
      <trkpt lat="41.34141" lon="19.75995">
        <ele>114.608016</ele>
        <time>2022-05-06T11:31:54.556Z</time>
      </trkpt>
      <trkpt lat="41.34133" lon="19.76007">
        <ele>114.96161</ele>
        <time>2022-05-06T11:31:57.551Z</time>
      </trkpt>
      <trkpt lat="41.34124" lon="19.76017">
        <ele>115.316801</ele>
        <time>2022-05-06T11:32:00.551Z</time>
      </trkpt>
      <trkpt lat="41.34116" lon="19.76025">
        <ele>115.613902</ele>
        <time>2022-05-06T11:32:03.552Z</time>
      </trkpt>
      <trkpt lat="41.34108" lon="19.76036">
        <ele>115.963285</ele>
        <time>2022-05-06T11:32:07.555Z</time>
      </trkpt>
      <trkpt lat="41.341" lon="19.76048">
        <ele>116.308278</ele>
        <time>2022-05-06T11:32:11.546Z</time>
      </trkpt>
      <trkpt lat="41.34093" lon="19.76057">
        <ele>116.609219</ele>
        <time>2022-05-06T11:32:14.557Z</time>
      </trkpt>
      <trkpt lat="41.34085" lon="19.76068">
        <ele>116.933842</ele>
        <time>2022-05-06T11:32:17.544Z</time>
      </trkpt>
      <trkpt lat="41.34077" lon="19.76078">
        <ele>117.274276</ele>
        <time>2022-05-06T11:32:20.568Z</time>
      </trkpt>
      <trkpt lat="41.34069" lon="19.76092">
        <ele>117.66082</ele>
        <time>2022-05-06T11:32:23.592Z</time>
      </trkpt>
      <trkpt lat="41.34063" lon="19.76101">
        <ele>117.933399</ele>
        <time>2022-05-06T11:32:25.560Z</time>
      </trkpt>
      <trkpt lat="41.34054" lon="19.76114">
        <ele>118.328616</ele>
        <time>2022-05-06T11:32:28.553Z</time>
      </trkpt>
      <trkpt lat="41.34044" lon="19.76125">
        <ele>118.62079</ele>
        <time>2022-05-06T11:32:31.543Z</time>
      </trkpt>
      <trkpt lat="41.34035" lon="19.76137">
        <ele>118.498605</ele>
        <time>2022-05-06T11:32:34.540Z</time>
      </trkpt>
      <trkpt lat="41.34027" lon="19.76148">
        <ele>118.381446</ele>
        <time>2022-05-06T11:32:37.559Z</time>
      </trkpt>
      <trkpt lat="41.34019" lon="19.76159">
        <ele>118.268449</ele>
        <time>2022-05-06T11:32:40.560Z</time>
      </trkpt>
      <trkpt lat="41.34012" lon="19.76169">
        <ele>118.166145</ele>
        <time>2022-05-06T11:32:43.544Z</time>
      </trkpt>
      <trkpt lat="41.34005" lon="19.76179">
        <ele>118.068233</ele>
        <time>2022-05-06T11:32:46.561Z</time>
      </trkpt>
      <trkpt lat="41.33997" lon="19.76189">
        <ele>117.958253</ele>
        <time>2022-05-06T11:32:49.544Z</time>
      </trkpt>
      <trkpt lat="41.33987" lon="19.762">
        <ele>117.83279</ele>
        <time>2022-05-06T11:32:52.543Z</time>
      </trkpt>
      <trkpt lat="41.3398" lon="19.76207">
        <ele>117.74297</ele>
        <time>2022-05-06T11:32:54.562Z</time>
      </trkpt>
      <trkpt lat="41.3397" lon="19.76218">
        <ele>117.614464</ele>
        <time>2022-05-06T11:32:57.619Z</time>
      </trkpt>
      <trkpt lat="41.33959" lon="19.76228">
        <ele>117.485636</ele>
        <time>2022-05-06T11:33:00.576Z</time>
      </trkpt>
      <trkpt lat="41.33948" lon="19.76238">
        <ele>117.354242</ele>
        <time>2022-05-06T11:33:03.558Z</time>
      </trkpt>
      <trkpt lat="41.3394" lon="19.76245">
        <ele>117.264272</ele>
        <time>2022-05-06T11:33:05.559Z</time>
      </trkpt>
      <trkpt lat="41.33932" lon="19.76251">
        <ele>117.17469</ele>
        <time>2022-05-06T11:33:07.544Z</time>
      </trkpt>
      <trkpt lat="41.33923" lon="19.76262">
        <ele>117.052217</ele>
        <time>2022-05-06T11:33:10.554Z</time>
      </trkpt>
      <trkpt lat="41.33915" lon="19.76273">
        <ele>116.940949</ele>
        <time>2022-05-06T11:33:13.556Z</time>
      </trkpt>
      <trkpt lat="41.33906" lon="19.76284">
        <ele>116.869568</ele>
        <time>2022-05-06T11:33:16.547Z</time>
      </trkpt>
      <trkpt lat="41.33898" lon="19.76295">
        <ele>116.855679</ele>
        <time>2022-05-06T11:33:19.688Z</time>
      </trkpt>
      <trkpt lat="41.33891" lon="19.76305">
        <ele>116.8432</ele>
        <time>2022-05-06T11:33:22.546Z</time>
      </trkpt>
      <trkpt lat="41.33883" lon="19.76316">
        <ele>116.829245</ele>
        <time>2022-05-06T11:33:25.556Z</time>
      </trkpt>
      <trkpt lat="41.33877" lon="19.76327">
        <ele>116.816501</ele>
        <time>2022-05-06T11:33:28.554Z</time>
      </trkpt>
      <trkpt lat="41.33874" lon="19.76339">
        <ele>116.804514</ele>
        <time>2022-05-06T11:33:31.571Z</time>
      </trkpt>
      <trkpt lat="41.3388" lon="19.76348">
        <ele>116.792641</ele>
        <time>2022-05-06T11:33:35.542Z</time>
      </trkpt>
      <trkpt lat="41.33889" lon="19.76357">
        <ele>116.779349</ele>
        <time>2022-05-06T11:33:38.579Z</time>
      </trkpt>
      <trkpt lat="41.33899" lon="19.76368">
        <ele>116.762845</ele>
        <time>2022-05-06T11:33:41.548Z</time>
      </trkpt>
      <trkpt lat="41.33907" lon="19.76377">
        <ele>116.750368</ele>
        <time>2022-05-06T11:33:43.538Z</time>
      </trkpt>
      <trkpt lat="41.33916" lon="19.76387">
        <ele>116.736055</ele>
        <time>2022-05-06T11:33:45.611Z</time>
      </trkpt>
      <trkpt lat="41.33926" lon="19.76398">
        <ele>116.720586</ele>
        <time>2022-05-06T11:33:47.553Z</time>
      </trkpt>
      <trkpt lat="41.33935" lon="19.76409">
        <ele>116.705169</ele>
        <time>2022-05-06T11:33:49.553Z</time>
      </trkpt>
      <trkpt lat="41.33944" lon="19.76419">
        <ele>116.690092</ele>
        <time>2022-05-06T11:33:51.610Z</time>
      </trkpt>
      <trkpt lat="41.33954" lon="19.7643">
        <ele>116.675193</ele>
        <time>2022-05-06T11:33:53.562Z</time>
      </trkpt>
      <trkpt lat="41.33963" lon="19.7644">
        <ele>116.660908</ele>
        <time>2022-05-06T11:33:55.562Z</time>
      </trkpt>
      <trkpt lat="41.33971" lon="19.76449">
        <ele>116.625986</ele>
        <time>2022-05-06T11:33:57.556Z</time>
      </trkpt>
      <trkpt lat="41.33979" lon="19.76458">
        <ele>116.583132</ele>
        <time>2022-05-06T11:33:59.538Z</time>
      </trkpt>
      <trkpt lat="41.33987" lon="19.76465">
        <ele>116.543948</ele>
        <time>2022-05-06T11:34:01.552Z</time>
      </trkpt>
      <trkpt lat="41.33997" lon="19.76476">
        <ele>116.487343</ele>
        <time>2022-05-06T11:34:04.565Z</time>
      </trkpt>
      <trkpt lat="41.34008" lon="19.76487">
        <ele>116.431949</ele>
        <time>2022-05-06T11:34:07.562Z</time>
      </trkpt>
      <trkpt lat="41.34019" lon="19.76498">
        <ele>116.374493</ele>
        <time>2022-05-06T11:34:10.540Z</time>
      </trkpt>
      <trkpt lat="41.34026" lon="19.76506">
        <ele>116.333805</ele>
        <time>2022-05-06T11:34:12.550Z</time>
      </trkpt>
      <trkpt lat="41.34036" lon="19.76518">
        <ele>116.27893</ele>
        <time>2022-05-06T11:34:15.555Z</time>
      </trkpt>
      <trkpt lat="41.34046" lon="19.76529">
        <ele>116.224222</ele>
        <time>2022-05-06T11:34:18.561Z</time>
      </trkpt>
      <trkpt lat="41.34054" lon="19.76538">
        <ele>116.179345</ele>
        <time>2022-05-06T11:34:21.547Z</time>
      </trkpt>
      <trkpt lat="41.34063" lon="19.76548">
        <ele>116.131911</ele>
        <time>2022-05-06T11:34:24.551Z</time>
      </trkpt>
      <trkpt lat="41.34073" lon="19.76558">
        <ele>116.078844</ele>
        <time>2022-05-06T11:34:27.575Z</time>
      </trkpt>
      <trkpt lat="41.34081" lon="19.76569">
        <ele>116.030658</ele>
        <time>2022-05-06T11:34:30.562Z</time>
      </trkpt>
      <trkpt lat="41.34081" lon="19.76582">
        <ele>115.98784</ele>
        <time>2022-05-06T11:34:34.556Z</time>
      </trkpt>
      <trkpt lat="41.34075" lon="19.76595">
        <ele>115.941396</ele>
        <time>2022-05-06T11:34:39.554Z</time>
      </trkpt>
      <trkpt lat="41.34069" lon="19.76606">
        <ele>115.902685</ele>
        <time>2022-05-06T11:34:42.573Z</time>
      </trkpt>
      <trkpt lat="41.34062" lon="19.76616">
        <ele>115.91265</ele>
        <time>2022-05-06T11:34:45.545Z</time>
      </trkpt>
      <trkpt lat="41.34054" lon="19.76628">
        <ele>115.923455</ele>
        <time>2022-05-06T11:34:48.550Z</time>
      </trkpt>
      <trkpt lat="41.34046" lon="19.76639">
        <ele>115.934078</ele>
        <time>2022-05-06T11:34:51.545Z</time>
      </trkpt>
      <trkpt lat="41.34038" lon="19.76651">
        <ele>115.945111</ele>
        <time>2022-05-06T11:34:54.552Z</time>
      </trkpt>
      <trkpt lat="41.34031" lon="19.76662">
        <ele>115.955287</ele>
        <time>2022-05-06T11:34:57.551Z</time>
      </trkpt>
      <trkpt lat="41.34024" lon="19.76672">
        <ele>115.965096</ele>
        <time>2022-05-06T11:35:00.557Z</time>
      </trkpt>
      <trkpt lat="41.34017" lon="19.76683">
        <ele>115.975643</ele>
        <time>2022-05-06T11:35:03.568Z</time>
      </trkpt>
      <trkpt lat="41.34009" lon="19.76695">
        <ele>115.986485</ele>
        <time>2022-05-06T11:35:06.542Z</time>
      </trkpt>
      <trkpt lat="41.34001" lon="19.76707">
        <ele>115.99757</ele>
        <time>2022-05-06T11:35:09.553Z</time>
      </trkpt>
      <trkpt lat="41.33994" lon="19.76718">
        <ele>116.007888</ele>
        <time>2022-05-06T11:35:12.548Z</time>
      </trkpt>
      <trkpt lat="41.33986" lon="19.76729">
        <ele>116.018167</ele>
        <time>2022-05-06T11:35:15.593Z</time>
      </trkpt>
      <trkpt lat="41.33979" lon="19.76739">
        <ele>116.027822</ele>
        <time>2022-05-06T11:35:18.558Z</time>
      </trkpt>
      <trkpt lat="41.33972" lon="19.7675">
        <ele>116.037954</ele>
        <time>2022-05-06T11:35:21.560Z</time>
      </trkpt>
      <trkpt lat="41.33965" lon="19.7676">
        <ele>116.047723</ele>
        <time>2022-05-06T11:35:24.550Z</time>
      </trkpt>
      <trkpt lat="41.33956" lon="19.76771">
        <ele>116.058393</ele>
        <time>2022-05-06T11:35:27.555Z</time>
      </trkpt>
      <trkpt lat="41.33948" lon="19.76782">
        <ele>116.066777</ele>
        <time>2022-05-06T11:35:30.552Z</time>
      </trkpt>
      <trkpt lat="41.33939" lon="19.76794">
        <ele>116.038888</ele>
        <time>2022-05-06T11:35:33.547Z</time>
      </trkpt>
      <trkpt lat="41.33932" lon="19.76804">
        <ele>116.013607</ele>
        <time>2022-05-06T11:35:36.541Z</time>
      </trkpt>
      <trkpt lat="41.33924" lon="19.76814">
        <ele>115.988647</ele>
        <time>2022-05-06T11:35:39.564Z</time>
      </trkpt>
      <trkpt lat="41.33915" lon="19.76824">
        <ele>115.962182</ele>
        <time>2022-05-06T11:35:42.545Z</time>
      </trkpt>
      <trkpt lat="41.33908" lon="19.76835">
        <ele>115.93582</ele>
        <time>2022-05-06T11:35:45.618Z</time>
      </trkpt>
      <trkpt lat="41.339" lon="19.76847">
        <ele>115.908657</ele>
        <time>2022-05-06T11:35:48.542Z</time>
      </trkpt>
      <trkpt lat="41.33892" lon="19.76858">
        <ele>115.881908</ele>
        <time>2022-05-06T11:35:51.557Z</time>
      </trkpt>
      <trkpt lat="41.33884" lon="19.7687">
        <ele>115.854745</ele>
        <time>2022-05-06T11:35:54.557Z</time>
      </trkpt>
      <trkpt lat="41.33876" lon="19.76881">
        <ele>115.827683</ele>
        <time>2022-05-06T11:35:57.553Z</time>
      </trkpt>
      <trkpt lat="41.33869" lon="19.76892">
        <ele>115.801812</ele>
        <time>2022-05-06T11:36:00.553Z</time>
      </trkpt>
      <trkpt lat="41.33862" lon="19.76903">
        <ele>115.776618</ele>
        <time>2022-05-06T11:36:03.555Z</time>
      </trkpt>
      <trkpt lat="41.33855" lon="19.76914">
        <ele>115.752013</ele>
        <time>2022-05-06T11:36:06.542Z</time>
      </trkpt>
      <trkpt lat="41.33848" lon="19.76925">
        <ele>115.726444</ele>
        <time>2022-05-06T11:36:09.532Z</time>
      </trkpt>
      <trkpt lat="41.33841" lon="19.76935">
        <ele>115.702467</ele>
        <time>2022-05-06T11:36:12.563Z</time>
      </trkpt>
      <trkpt lat="41.33834" lon="19.76945">
        <ele>115.677599</ele>
        <time>2022-05-06T11:36:15.554Z</time>
      </trkpt>
      <trkpt lat="41.33826" lon="19.76956">
        <ele>115.651117</ele>
        <time>2022-05-06T11:36:18.538Z</time>
      </trkpt>
      <trkpt lat="41.33818" lon="19.76968">
        <ele>115.791849</ele>
        <time>2022-05-06T11:36:21.582Z</time>
      </trkpt>
      <trkpt lat="41.3381" lon="19.7698">
        <ele>115.936056</ele>
        <time>2022-05-06T11:36:24.560Z</time>
      </trkpt>
      <trkpt lat="41.33802" lon="19.76991">
        <ele>116.073184</ele>
        <time>2022-05-06T11:36:27.548Z</time>
      </trkpt>
      <trkpt lat="41.33794" lon="19.77003">
        <ele>116.211647</ele>
        <time>2022-05-06T11:36:30.534Z</time>
      </trkpt>
      <trkpt lat="41.33786" lon="19.77014">
        <ele>116.353716</ele>
        <time>2022-05-06T11:36:33.537Z</time>
      </trkpt>
      <trkpt lat="41.33779" lon="19.77026">
        <ele>116.490333</ele>
        <time>2022-05-06T11:36:36.543Z</time>
      </trkpt>
      <trkpt lat="41.33771" lon="19.77037">
        <ele>116.633074</ele>
        <time>2022-05-06T11:36:39.530Z</time>
      </trkpt>
      <trkpt lat="41.33763" lon="19.77049">
        <ele>116.773677</ele>
        <time>2022-05-06T11:36:42.546Z</time>
      </trkpt>
      <trkpt lat="41.33756" lon="19.77061">
        <ele>116.909002</ele>
        <time>2022-05-06T11:36:45.538Z</time>
      </trkpt>
      <trkpt lat="41.33748" lon="19.77072">
        <ele>117.043743</ele>
        <time>2022-05-06T11:36:48.575Z</time>
      </trkpt>
      <trkpt lat="41.3374" lon="19.77083">
        <ele>117.183309</ele>
        <time>2022-05-06T11:36:51.564Z</time>
      </trkpt>
      <trkpt lat="41.33731" lon="19.77094">
        <ele>117.327752</ele>
        <time>2022-05-06T11:36:54.539Z</time>
      </trkpt>
      <trkpt lat="41.33723" lon="19.77106">
        <ele>117.474053</ele>
        <time>2022-05-06T11:36:57.535Z</time>
      </trkpt>
      <trkpt lat="41.33714" lon="19.77117">
        <ele>117.619067</ele>
        <time>2022-05-06T11:37:00.533Z</time>
      </trkpt>
      <trkpt lat="41.33706" lon="19.77129">
        <ele>117.76408</ele>
        <time>2022-05-06T11:37:03.528Z</time>
      </trkpt>
      <trkpt lat="41.33681" lon="19.77158">
        <ele>118.458857</ele>
        <time>2022-05-06T11:37:27.566Z</time>
      </trkpt>
      <trkpt lat="41.33673" lon="19.77168">
        <ele>118.704912</ele>
        <time>2022-05-06T11:37:30.532Z</time>
      </trkpt>
      <trkpt lat="41.33665" lon="19.7718">
        <ele>118.97319</ele>
        <time>2022-05-06T11:37:33.534Z</time>
      </trkpt>
      <trkpt lat="41.33657" lon="19.77192">
        <ele>119.234884</ele>
        <time>2022-05-06T11:37:36.551Z</time>
      </trkpt>
      <trkpt lat="41.33649" lon="19.77205">
        <ele>119.501419</ele>
        <time>2022-05-06T11:37:39.533Z</time>
      </trkpt>
      <trkpt lat="41.33645" lon="19.77217">
        <ele>119.719321</ele>
        <time>2022-05-06T11:37:41.543Z</time>
      </trkpt>
      <trkpt lat="41.33639" lon="19.77227">
        <ele>119.92384</ele>
        <time>2022-05-06T11:37:43.553Z</time>
      </trkpt>
      <trkpt lat="41.33632" lon="19.7724">
        <ele>120.203553</ele>
        <time>2022-05-06T11:37:46.559Z</time>
      </trkpt>
      <trkpt lat="41.33624" lon="19.77253">
        <ele>120.467442</ele>
        <time>2022-05-06T11:37:49.550Z</time>
      </trkpt>
      <trkpt lat="41.33617" lon="19.77265">
        <ele>120.726122</ele>
        <time>2022-05-06T11:37:52.544Z</time>
      </trkpt>
      <trkpt lat="41.33609" lon="19.77277">
        <ele>120.991693</ele>
        <time>2022-05-06T11:37:55.550Z</time>
      </trkpt>
      <trkpt lat="41.33601" lon="19.77287">
        <ele>121.235054</ele>
        <time>2022-05-06T11:37:58.547Z</time>
      </trkpt>
      <trkpt lat="41.33592" lon="19.77296">
        <ele>121.477123</ele>
        <time>2022-05-06T11:38:01.545Z</time>
      </trkpt>
      <trkpt lat="41.33584" lon="19.77307">
        <ele>121.723933</ele>
        <time>2022-05-06T11:38:04.551Z</time>
      </trkpt>
      <trkpt lat="41.33576" lon="19.77318">
        <ele>122.294678</ele>
        <time>2022-05-06T11:38:07.550Z</time>
      </trkpt>
      <trkpt lat="41.33569" lon="19.77327">
        <ele>122.858981</ele>
        <time>2022-05-06T11:38:10.543Z</time>
      </trkpt>
      <trkpt lat="41.33561" lon="19.7734">
        <ele>123.524145</ele>
        <time>2022-05-06T11:38:13.564Z</time>
      </trkpt>
      <trkpt lat="41.33551" lon="19.77347">
        <ele>124.149486</ele>
        <time>2022-05-06T11:38:16.527Z</time>
      </trkpt>
      <trkpt lat="41.33543" lon="19.77359">
        <ele>124.774066</ele>
        <time>2022-05-06T11:38:20.546Z</time>
      </trkpt>
      <trkpt lat="41.33528" lon="19.77387">
        <ele>126.189171</ele>
        <time>2022-05-06T11:39:28.558Z</time>
      </trkpt>
      <trkpt lat="41.33522" lon="19.77396">
        <ele>126.681602</ele>
        <time>2022-05-06T11:39:31.561Z</time>
      </trkpt>
      <trkpt lat="41.33515" lon="19.77404">
        <ele>127.176508</ele>
        <time>2022-05-06T11:39:34.548Z</time>
      </trkpt>
      <trkpt lat="41.33508" lon="19.77412">
        <ele>127.706641</ele>
        <time>2022-05-06T11:39:37.563Z</time>
      </trkpt>
      <trkpt lat="41.33501" lon="19.77421">
        <ele>128.230023</ele>
        <time>2022-05-06T11:39:40.582Z</time>
      </trkpt>
      <trkpt lat="41.33494" lon="19.77431">
        <ele>128.781574</ele>
        <time>2022-05-06T11:39:43.560Z</time>
      </trkpt>
      <trkpt lat="41.33488" lon="19.77444">
        <ele>129.375619</ele>
        <time>2022-05-06T11:39:46.539Z</time>
      </trkpt>
      <trkpt lat="41.33482" lon="19.77455">
        <ele>129.942406</ele>
        <time>2022-05-06T11:39:49.551Z</time>
      </trkpt>
      <trkpt lat="41.33476" lon="19.77465">
        <ele>130.493063</ele>
        <time>2022-05-06T11:39:52.552Z</time>
      </trkpt>
      <trkpt lat="41.33467" lon="19.77476">
        <ele>131.111963</ele>
        <time>2022-05-06T11:39:55.549Z</time>
      </trkpt>
      <trkpt lat="41.33459" lon="19.77487">
        <ele>131.482066</ele>
        <time>2022-05-06T11:39:58.550Z</time>
      </trkpt>
      <trkpt lat="41.3345" lon="19.775">
        <ele>131.389835</ele>
        <time>2022-05-06T11:40:01.557Z</time>
      </trkpt>
      <trkpt lat="41.33442" lon="19.77511">
        <ele>131.307234</ele>
        <time>2022-05-06T11:40:04.559Z</time>
      </trkpt>
      <trkpt lat="41.33437" lon="19.77524">
        <ele>131.231704</ele>
        <time>2022-05-06T11:40:07.558Z</time>
      </trkpt>
      <trkpt lat="41.33429" lon="19.77534">
        <ele>131.154272</ele>
        <time>2022-05-06T11:40:10.598Z</time>
      </trkpt>
      <trkpt lat="41.3342" lon="19.77544">
        <ele>131.07002</ele>
        <time>2022-05-06T11:40:13.543Z</time>
      </trkpt>
      <trkpt lat="41.33415" lon="19.77554">
        <ele>131.005909</ele>
        <time>2022-05-06T11:40:15.541Z</time>
      </trkpt>
      <trkpt lat="41.33409" lon="19.77564">
        <ele>130.937129</ele>
        <time>2022-05-06T11:40:17.544Z</time>
      </trkpt>
      <trkpt lat="41.33403" lon="19.77575">
        <ele>130.870042</ele>
        <time>2022-05-06T11:40:19.574Z</time>
      </trkpt>
      <trkpt lat="41.33397" lon="19.77584">
        <ele>130.804996</ele>
        <time>2022-05-06T11:40:21.593Z</time>
      </trkpt>
      <trkpt lat="41.33392" lon="19.77593">
        <ele>130.740847</ele>
        <time>2022-05-06T11:40:23.581Z</time>
      </trkpt>
      <trkpt lat="41.33386" lon="19.77603">
        <ele>130.67584</ele>
        <time>2022-05-06T11:40:25.549Z</time>
      </trkpt>
      <trkpt lat="41.33377" lon="19.77616">
        <ele>130.582707</ele>
        <time>2022-05-06T11:40:28.560Z</time>
      </trkpt>
      <trkpt lat="41.33369" lon="19.77628">
        <ele>130.495159</ele>
        <time>2022-05-06T11:40:31.543Z</time>
      </trkpt>
      <trkpt lat="41.3336" lon="19.77639">
        <ele>130.408111</ele>
        <time>2022-05-06T11:40:34.554Z</time>
      </trkpt>
      <trkpt lat="41.33351" lon="19.77651">
        <ele>130.318937</ele>
        <time>2022-05-06T11:40:37.579Z</time>
      </trkpt>
      <trkpt lat="41.33343" lon="19.77663">
        <ele>130.302488</ele>
        <time>2022-05-06T11:40:40.555Z</time>
      </trkpt>
      <trkpt lat="41.33335" lon="19.77674">
        <ele>131.146512</ele>
        <time>2022-05-06T11:40:43.544Z</time>
      </trkpt>
      <trkpt lat="41.33327" lon="19.77685">
        <ele>131.989392</ele>
        <time>2022-05-06T11:40:46.549Z</time>
      </trkpt>
      <trkpt lat="41.3332" lon="19.77695">
        <ele>132.772049</ele>
        <time>2022-05-06T11:40:49.578Z</time>
      </trkpt>
      <trkpt lat="41.33312" lon="19.77707">
        <ele>133.636614</ele>
        <time>2022-05-06T11:40:52.547Z</time>
      </trkpt>
      <trkpt lat="41.33305" lon="19.77718">
        <ele>134.4615</ele>
        <time>2022-05-06T11:40:55.559Z</time>
      </trkpt>
      <trkpt lat="41.33298" lon="19.7773">
        <ele>135.325123</ele>
        <time>2022-05-06T11:40:58.552Z</time>
      </trkpt>
      <trkpt lat="41.33291" lon="19.77743">
        <ele>136.16227</ele>
        <time>2022-05-06T11:41:01.551Z</time>
      </trkpt>
      <trkpt lat="41.33283" lon="19.77753">
        <ele>136.98437</ele>
        <time>2022-05-06T11:41:04.552Z</time>
      </trkpt>
      <trkpt lat="41.33275" lon="19.77764">
        <ele>137.843396</ele>
        <time>2022-05-06T11:41:07.546Z</time>
      </trkpt>
      <trkpt lat="41.33268" lon="19.77777">
        <ele>138.693671</ele>
        <time>2022-05-06T11:41:10.554Z</time>
      </trkpt>
      <trkpt lat="41.33261" lon="19.77788">
        <ele>139.518561</ele>
        <time>2022-05-06T11:41:13.554Z</time>
      </trkpt>
      <trkpt lat="41.33254" lon="19.778">
        <ele>140.347278</ele>
        <time>2022-05-06T11:41:16.568Z</time>
      </trkpt>
      <trkpt lat="41.33247" lon="19.77811">
        <ele>141.171711</ele>
        <time>2022-05-06T11:41:19.539Z</time>
      </trkpt>
      <trkpt lat="41.3324" lon="19.77822">
        <ele>141.960349</ele>
        <time>2022-05-06T11:41:22.539Z</time>
      </trkpt>
      <trkpt lat="41.33233" lon="19.77833">
        <ele>142.742034</ele>
        <time>2022-05-06T11:41:25.557Z</time>
      </trkpt>
      <trkpt lat="41.33227" lon="19.77846">
        <ele>143.533395</ele>
        <time>2022-05-06T11:41:28.581Z</time>
      </trkpt>
      <trkpt lat="41.33219" lon="19.77856">
        <ele>143.804347</ele>
        <time>2022-05-06T11:41:31.550Z</time>
      </trkpt>
      <trkpt lat="41.33209" lon="19.77862">
        <ele>144.073064</ele>
        <time>2022-05-06T11:41:34.591Z</time>
      </trkpt>
      <trkpt lat="41.332" lon="19.77873">
        <ele>144.36903</ele>
        <time>2022-05-06T11:41:37.565Z</time>
      </trkpt>
      <trkpt lat="41.33195" lon="19.77883">
        <ele>144.587498</ele>
        <time>2022-05-06T11:41:39.535Z</time>
      </trkpt>
      <trkpt lat="41.3319" lon="19.77894">
        <ele>144.813966</ele>
        <time>2022-05-06T11:41:41.550Z</time>
      </trkpt>
      <trkpt lat="41.33184" lon="19.77903">
        <ele>145.053715</ele>
        <time>2022-05-06T11:41:43.549Z</time>
      </trkpt>
      <trkpt lat="41.33177" lon="19.77912">
        <ele>145.29084</ele>
        <time>2022-05-06T11:41:45.593Z</time>
      </trkpt>
      <trkpt lat="41.3317" lon="19.77922">
        <ele>145.523495</ele>
        <time>2022-05-06T11:41:47.544Z</time>
      </trkpt>
      <trkpt lat="41.33162" lon="19.77936">
        <ele>145.846065</ele>
        <time>2022-05-06T11:41:50.544Z</time>
      </trkpt>
      <trkpt lat="41.33155" lon="19.77948">
        <ele>146.137924</ele>
        <time>2022-05-06T11:41:53.545Z</time>
      </trkpt>
      <trkpt lat="41.33147" lon="19.7796">
        <ele>146.421809</ele>
        <time>2022-05-06T11:41:56.567Z</time>
      </trkpt>
      <trkpt lat="41.33141" lon="19.77972">
        <ele>146.691625</ele>
        <time>2022-05-06T11:41:59.535Z</time>
      </trkpt>
      <trkpt lat="41.33134" lon="19.77983">
        <ele>146.956202</ele>
        <time>2022-05-06T11:42:02.552Z</time>
      </trkpt>
      <trkpt lat="41.33126" lon="19.77993">
        <ele>147.221085</ele>
        <time>2022-05-06T11:42:05.554Z</time>
      </trkpt>
      <trkpt lat="41.33119" lon="19.78003">
        <ele>147.473792</ele>
        <time>2022-05-06T11:42:08.552Z</time>
      </trkpt>
      <trkpt lat="41.33111" lon="19.78013">
        <ele>147.73857</ele>
        <time>2022-05-06T11:42:11.567Z</time>
      </trkpt>
      <trkpt lat="41.33104" lon="19.78023">
        <ele>147.984589</ele>
        <time>2022-05-06T11:42:14.541Z</time>
      </trkpt>
      <trkpt lat="41.33098" lon="19.78035">
        <ele>148.199096</ele>
        <time>2022-05-06T11:42:20.550Z</time>
      </trkpt>
      <trkpt lat="41.3309" lon="19.78043">
        <ele>148.411405</ele>
        <time>2022-05-06T11:42:24.574Z</time>
      </trkpt>
      <trkpt lat="41.33081" lon="19.7805">
        <ele>148.620498</ele>
        <time>2022-05-06T11:42:27.545Z</time>
      </trkpt>
      <trkpt lat="41.33073" lon="19.78061">
        <ele>148.859046</ele>
        <time>2022-05-06T11:42:30.592Z</time>
      </trkpt>
      <trkpt lat="41.33067" lon="19.78073">
        <ele>149.087017</ele>
        <time>2022-05-06T11:42:33.549Z</time>
      </trkpt>
      <trkpt lat="41.33059" lon="19.78085">
        <ele>149.336064</ele>
        <time>2022-05-06T11:42:36.552Z</time>
      </trkpt>
      <trkpt lat="41.33049" lon="19.78095">
        <ele>149.594092</ele>
        <time>2022-05-06T11:42:39.558Z</time>
      </trkpt>
      <trkpt lat="41.3304" lon="19.78108">
        <ele>149.86398</ele>
        <time>2022-05-06T11:42:42.563Z</time>
      </trkpt>
      <trkpt lat="41.33034" lon="19.78117">
        <ele>150.054059</ele>
        <time>2022-05-06T11:42:44.555Z</time>
      </trkpt>
      <trkpt lat="41.3303" lon="19.78128">
        <ele>150.249491</ele>
        <time>2022-05-06T11:42:46.550Z</time>
      </trkpt>
      <trkpt lat="41.33024" lon="19.78138">
        <ele>150.450108</ele>
        <time>2022-05-06T11:42:48.550Z</time>
      </trkpt>
      <trkpt lat="41.33017" lon="19.78148">
        <ele>150.659278</ele>
        <time>2022-05-06T11:42:50.561Z</time>
      </trkpt>
      <trkpt lat="41.33011" lon="19.78158">
        <ele>150.864851</ele>
        <time>2022-05-06T11:42:52.536Z</time>
      </trkpt>
      <trkpt lat="41.33004" lon="19.78172">
        <ele>151.128961</ele>
        <time>2022-05-06T11:42:55.544Z</time>
      </trkpt>
      <trkpt lat="41.32996" lon="19.78187">
        <ele>151.405811</ele>
        <time>2022-05-06T11:42:58.538Z</time>
      </trkpt>
      <trkpt lat="41.3299" lon="19.78197">
        <ele>151.603921</ele>
        <time>2022-05-06T11:43:00.560Z</time>
      </trkpt>
      <trkpt lat="41.32985" lon="19.78211">
        <ele>151.520402</ele>
        <time>2022-05-06T11:43:03.558Z</time>
      </trkpt>
      <trkpt lat="41.32979" lon="19.78222">
        <ele>151.418325</ele>
        <time>2022-05-06T11:43:06.539Z</time>
      </trkpt>
      <trkpt lat="41.32972" lon="19.78232">
        <ele>151.317724</ele>
        <time>2022-05-06T11:43:09.589Z</time>
      </trkpt>
      <trkpt lat="41.32965" lon="19.78242">
        <ele>151.211313</ele>
        <time>2022-05-06T11:43:12.564Z</time>
      </trkpt>
      <trkpt lat="41.32959" lon="19.78253">
        <ele>151.112818</ele>
        <time>2022-05-06T11:43:15.551Z</time>
      </trkpt>
      <trkpt lat="41.32952" lon="19.78262">
        <ele>151.019792</ele>
        <time>2022-05-06T11:43:18.559Z</time>
      </trkpt>
      <trkpt lat="41.32944" lon="19.78273">
        <ele>150.902635</ele>
        <time>2022-05-06T11:43:22.544Z</time>
      </trkpt>
      <trkpt lat="41.32935" lon="19.78282">
        <ele>150.79295</ele>
        <time>2022-05-06T11:43:26.539Z</time>
      </trkpt>
      <trkpt lat="41.32924" lon="19.78284">
        <ele>150.686626</ele>
        <time>2022-05-06T11:43:29.529Z</time>
      </trkpt>
      <trkpt lat="41.32914" lon="19.7829">
        <ele>150.575165</ele>
        <time>2022-05-06T11:43:32.570Z</time>
      </trkpt>
      <trkpt lat="41.32909" lon="19.78307">
        <ele>150.43993</ele>
        <time>2022-05-06T11:43:35.555Z</time>
      </trkpt>
      <trkpt lat="41.32907" lon="19.78319">
        <ele>150.343858</ele>
        <time>2022-05-06T11:43:37.523Z</time>
      </trkpt>
      <trkpt lat="41.32901" lon="19.78333">
        <ele>150.224452</ele>
        <time>2022-05-06T11:43:40.530Z</time>
      </trkpt>
      <trkpt lat="41.32892" lon="19.7834">
        <ele>150.119751</ele>
        <time>2022-05-06T11:43:43.542Z</time>
      </trkpt>
      <trkpt lat="41.32883" lon="19.78345">
        <ele>150.027757</ele>
        <time>2022-05-06T11:43:46.541Z</time>
      </trkpt>
      <trkpt lat="41.32873" lon="19.78347">
        <ele>149.927001</ele>
        <time>2022-05-06T11:43:49.551Z</time>
      </trkpt>
      <trkpt lat="41.32864" lon="19.7835">
        <ele>149.819783</ele>
        <time>2022-05-06T11:43:53.547Z</time>
      </trkpt>
      <trkpt lat="41.32853" lon="19.78354">
        <ele>149.622445</ele>
        <time>2022-05-06T11:43:57.551Z</time>
      </trkpt>
      <trkpt lat="41.32842" lon="19.78352">
        <ele>149.41692</ele>
        <time>2022-05-06T11:44:02.541Z</time>
      </trkpt>
      <trkpt lat="41.32831" lon="19.78351">
        <ele>149.205907</ele>
        <time>2022-05-06T11:44:05.551Z</time>
      </trkpt>
      <trkpt lat="41.32818" lon="19.78355">
        <ele>148.961397</ele>
        <time>2022-05-06T11:44:08.529Z</time>
      </trkpt>
      <trkpt lat="41.32807" lon="19.78354">
        <ele>148.775458</ele>
        <time>2022-05-06T11:44:14.546Z</time>
      </trkpt>
      <trkpt lat="41.32818" lon="19.78354">
        <ele>148.579123</ele>
        <time>2022-05-06T11:44:22.538Z</time>
      </trkpt>
      <trkpt lat="41.32827" lon="19.78358">
        <ele>148.411123</ele>
        <time>2022-05-06T11:44:26.569Z</time>
      </trkpt>
      <trkpt lat="41.32836" lon="19.78365">
        <ele>148.22444</ele>
        <time>2022-05-06T11:44:30.537Z</time>
      </trkpt>
      <trkpt lat="41.32845" lon="19.78375">
        <ele>148.01025</ele>
        <time>2022-05-06T11:44:34.556Z</time>
      </trkpt>
      <trkpt lat="41.32846" lon="19.78387">
        <ele>147.837982</ele>
        <time>2022-05-06T11:44:41.539Z</time>
      </trkpt>
      <trkpt lat="41.32838" lon="19.78396">
        <ele>147.645862</ele>
        <time>2022-05-06T11:44:47.522Z</time>
      </trkpt>
      <trkpt lat="41.32831" lon="19.78407">
        <ele>147.445186</ele>
        <time>2022-05-06T11:44:52.538Z</time>
      </trkpt>
      <trkpt lat="41.32825" lon="19.78417">
        <ele>147.279917</ele>
        <time>2022-05-06T11:44:56.574Z</time>
      </trkpt>
      <trkpt lat="41.32822" lon="19.78429">
        <ele>147.096474</ele>
        <time>2022-05-06T11:45:01.587Z</time>
      </trkpt>
      <trkpt lat="41.32799" lon="19.78466">
        <ele>146.213561</ele>
        <time>2022-05-06T11:45:24.557Z</time>
      </trkpt>
      <trkpt lat="41.32794" lon="19.78477">
        <ele>145.701016</ele>
        <time>2022-05-06T11:45:28.551Z</time>
      </trkpt>
      <trkpt lat="41.32786" lon="19.78486">
        <ele>145.124357</ele>
        <time>2022-05-06T11:45:33.546Z</time>
      </trkpt>
      <trkpt lat="41.32778" lon="19.78496">
        <ele>144.487049</ele>
        <time>2022-05-06T11:45:37.571Z</time>
      </trkpt>
      <trkpt lat="41.3277" lon="19.78506">
        <ele>143.898666</ele>
        <time>2022-05-06T11:45:41.545Z</time>
      </trkpt>
      <trkpt lat="41.32764" lon="19.78517">
        <ele>143.347183</ele>
        <time>2022-05-06T11:45:45.556Z</time>
      </trkpt>
      <trkpt lat="41.32749" lon="19.78545">
        <ele>141.925052</ele>
        <time>2022-05-06T11:46:10.539Z</time>
      </trkpt>
      <trkpt lat="41.32741" lon="19.78552">
        <ele>141.37464</ele>
        <time>2022-05-06T11:46:13.546Z</time>
      </trkpt>
      <trkpt lat="41.32732" lon="19.78558">
        <ele>140.835587</ele>
        <time>2022-05-06T11:46:18.549Z</time>
      </trkpt>
      <trkpt lat="41.32725" lon="19.78565">
        <ele>140.321993</ele>
        <time>2022-05-06T11:46:21.529Z</time>
      </trkpt>
      <trkpt lat="41.32718" lon="19.78578">
        <ele>139.67273</ele>
        <time>2022-05-06T11:46:25.540Z</time>
      </trkpt>
      <trkpt lat="41.32712" lon="19.78588">
        <ele>139.157033</ele>
        <time>2022-05-06T11:46:29.546Z</time>
      </trkpt>
      <trkpt lat="41.32706" lon="19.78598">
        <ele>138.613835</ele>
        <time>2022-05-06T11:46:33.530Z</time>
      </trkpt>
      <trkpt lat="41.32699" lon="19.78606">
        <ele>138.097873</ele>
        <time>2022-05-06T11:46:37.575Z</time>
      </trkpt>
      <trkpt lat="41.32694" lon="19.78618">
        <ele>137.520465</ele>
        <time>2022-05-06T11:46:44.590Z</time>
      </trkpt>
      <trkpt lat="41.32687" lon="19.78629">
        <ele>136.935526</ele>
        <time>2022-05-06T11:46:51.579Z</time>
      </trkpt>
      <trkpt lat="41.32678" lon="19.78637">
        <ele>136.553036</ele>
        <time>2022-05-06T11:46:54.545Z</time>
      </trkpt>
      <trkpt lat="41.32668" lon="19.78644">
        <ele>136.454049</ele>
        <time>2022-05-06T11:46:57.546Z</time>
      </trkpt>
      <trkpt lat="41.32657" lon="19.7865">
        <ele>136.352632</ele>
        <time>2022-05-06T11:47:00.558Z</time>
      </trkpt>
      <trkpt lat="41.32646" lon="19.78656">
        <ele>136.25063</ele>
        <time>2022-05-06T11:47:03.540Z</time>
      </trkpt>
      <trkpt lat="41.32635" lon="19.78661">
        <ele>136.153042</ele>
        <time>2022-05-06T11:47:06.552Z</time>
      </trkpt>
      <trkpt lat="41.32624" lon="19.78666">
        <ele>136.052195</ele>
        <time>2022-05-06T11:47:09.560Z</time>
      </trkpt>
      <trkpt lat="41.32614" lon="19.7867">
        <ele>135.962706</ele>
        <time>2022-05-06T11:47:12.546Z</time>
      </trkpt>
      <trkpt lat="41.32603" lon="19.78675">
        <ele>135.866744</ele>
        <time>2022-05-06T11:47:15.543Z</time>
      </trkpt>
      <trkpt lat="41.32594" lon="19.78679">
        <ele>135.778865</ele>
        <time>2022-05-06T11:47:18.590Z</time>
      </trkpt>
      <trkpt lat="41.32585" lon="19.78685">
        <ele>135.691151</ele>
        <time>2022-05-06T11:47:21.554Z</time>
      </trkpt>
      <trkpt lat="41.32575" lon="19.78692">
        <ele>135.598045</ele>
        <time>2022-05-06T11:47:24.561Z</time>
      </trkpt>
      <trkpt lat="41.32564" lon="19.78698">
        <ele>135.495363</ele>
        <time>2022-05-06T11:47:27.559Z</time>
      </trkpt>
      <trkpt lat="41.32552" lon="19.78703">
        <ele>135.38968</ele>
        <time>2022-05-06T11:47:30.564Z</time>
      </trkpt>
      <trkpt lat="41.32541" lon="19.78709">
        <ele>135.285525</ele>
        <time>2022-05-06T11:47:33.551Z</time>
      </trkpt>
      <trkpt lat="41.3253" lon="19.78716">
        <ele>135.188051</ele>
        <time>2022-05-06T11:47:36.552Z</time>
      </trkpt>
      <trkpt lat="41.32522" lon="19.78725">
        <ele>135.098967</ele>
        <time>2022-05-06T11:47:39.565Z</time>
      </trkpt>
      <trkpt lat="41.32515" lon="19.78733">
        <ele>135.254104</ele>
        <time>2022-05-06T11:47:42.566Z</time>
      </trkpt>
      <trkpt lat="41.32506" lon="19.7874">
        <ele>135.680433</ele>
        <time>2022-05-06T11:47:45.547Z</time>
      </trkpt>
      <trkpt lat="41.32496" lon="19.78744">
        <ele>136.126462</ele>
        <time>2022-05-06T11:47:48.560Z</time>
      </trkpt>
      <trkpt lat="41.32487" lon="19.78747">
        <ele>136.525674</ele>
        <time>2022-05-06T11:47:51.556Z</time>
      </trkpt>
      <trkpt lat="41.32478" lon="19.78752">
        <ele>136.952862</ele>
        <time>2022-05-06T11:47:55.537Z</time>
      </trkpt>
      <trkpt lat="41.32468" lon="19.78761">
        <ele>137.480654</ele>
        <time>2022-05-06T11:47:59.533Z</time>
      </trkpt>
      <trkpt lat="41.3246" lon="19.78766">
        <ele>137.877504</ele>
        <time>2022-05-06T11:48:02.561Z</time>
      </trkpt>
      <trkpt lat="41.3245" lon="19.78774">
        <ele>138.362347</ele>
        <time>2022-05-06T11:48:08.552Z</time>
      </trkpt>
      <trkpt lat="41.32441" lon="19.78779">
        <ele>138.777552</ele>
        <time>2022-05-06T11:48:12.537Z</time>
      </trkpt>
      <trkpt lat="41.32431" lon="19.78779">
        <ele>139.238959</ele>
        <time>2022-05-06T11:48:17.559Z</time>
      </trkpt>
      <trkpt lat="41.32421" lon="19.78778">
        <ele>139.658951</ele>
        <time>2022-05-06T11:48:21.532Z</time>
      </trkpt>
      <trkpt lat="41.3241" lon="19.78778">
        <ele>140.120437</ele>
        <time>2022-05-06T11:48:26.556Z</time>
      </trkpt>
      <trkpt lat="41.32401" lon="19.78783">
        <ele>140.563682</ele>
        <time>2022-05-06T11:48:31.554Z</time>
      </trkpt>
      <trkpt lat="41.32391" lon="19.78791">
        <ele>141.033796</ele>
        <time>2022-05-06T11:48:36.553Z</time>
      </trkpt>
      <trkpt lat="41.32382" lon="19.78798">
        <ele>141.513653</ele>
        <time>2022-05-06T11:48:40.535Z</time>
      </trkpt>
      <trkpt lat="41.32374" lon="19.78806">
        <ele>141.951908</ele>
        <time>2022-05-06T11:48:43.594Z</time>
      </trkpt>
      <trkpt lat="41.32365" lon="19.78814">
        <ele>142.409467</ele>
        <time>2022-05-06T11:48:46.547Z</time>
      </trkpt>
      <trkpt lat="41.32355" lon="19.78822">
        <ele>142.838655</ele>
        <time>2022-05-06T11:48:50.560Z</time>
      </trkpt>
      <trkpt lat="41.32347" lon="19.78831">
        <ele>142.980888</ele>
        <time>2022-05-06T11:48:54.551Z</time>
      </trkpt>
      <trkpt lat="41.32338" lon="19.78837">
        <ele>143.119965</ele>
        <time>2022-05-06T11:48:57.540Z</time>
      </trkpt>
      <trkpt lat="41.32328" lon="19.78843">
        <ele>143.271366</ele>
        <time>2022-05-06T11:49:00.541Z</time>
      </trkpt>
      <trkpt lat="41.32318" lon="19.78849">
        <ele>143.417803</ele>
        <time>2022-05-06T11:49:03.540Z</time>
      </trkpt>
      <trkpt lat="41.32308" lon="19.78853">
        <ele>143.563681</ele>
        <time>2022-05-06T11:49:06.542Z</time>
      </trkpt>
      <trkpt lat="41.32298" lon="19.78857">
        <ele>143.701164</ele>
        <time>2022-05-06T11:49:09.547Z</time>
      </trkpt>
      <trkpt lat="41.3229" lon="19.78863">
        <ele>143.828975</ele>
        <time>2022-05-06T11:49:12.557Z</time>
      </trkpt>
      <trkpt lat="41.3228" lon="19.78867">
        <ele>143.96454</ele>
        <time>2022-05-06T11:49:15.531Z</time>
      </trkpt>
      <trkpt lat="41.3227" lon="19.78873">
        <ele>144.119998</ele>
        <time>2022-05-06T11:49:19.548Z</time>
      </trkpt>
      <trkpt lat="41.3226" lon="19.78878">
        <ele>144.260709</ele>
        <time>2022-05-06T11:49:23.576Z</time>
      </trkpt>
      <trkpt lat="41.32251" lon="19.78881">
        <ele>144.385619</ele>
        <time>2022-05-06T11:49:28.556Z</time>
      </trkpt>
      <trkpt lat="41.32242" lon="19.78886">
        <ele>144.51917</ele>
        <time>2022-05-06T11:49:32.538Z</time>
      </trkpt>
      <trkpt lat="41.32233" lon="19.7889">
        <ele>144.654427</ele>
        <time>2022-05-06T11:49:35.551Z</time>
      </trkpt>
      <trkpt lat="41.32222" lon="19.78893">
        <ele>144.805187</ele>
        <time>2022-05-06T11:49:38.551Z</time>
      </trkpt>
      <trkpt lat="41.3221" lon="19.78895">
        <ele>144.971078</ele>
        <time>2022-05-06T11:49:41.547Z</time>
      </trkpt>
      <trkpt lat="41.32198" lon="19.78896">
        <ele>145.134805</ele>
        <time>2022-05-06T11:49:44.557Z</time>
      </trkpt>
      <trkpt lat="41.32187" lon="19.789">
        <ele>145.164939</ele>
        <time>2022-05-06T11:49:47.554Z</time>
      </trkpt>
      <trkpt lat="41.32175" lon="19.78904">
        <ele>144.661771</ele>
        <time>2022-05-06T11:49:50.544Z</time>
      </trkpt>
      <trkpt lat="41.32162" lon="19.78908">
        <ele>144.156642</ele>
        <time>2022-05-06T11:49:53.540Z</time>
      </trkpt>
      <trkpt lat="41.32151" lon="19.78916">
        <ele>143.66018</ele>
        <time>2022-05-06T11:49:56.558Z</time>
      </trkpt>
      <trkpt lat="41.32143" lon="19.78929">
        <ele>143.137429</ele>
        <time>2022-05-06T11:49:59.549Z</time>
      </trkpt>
      <trkpt lat="41.32138" lon="19.78939">
        <ele>142.77618</ele>
        <time>2022-05-06T11:50:01.601Z</time>
      </trkpt>
      <trkpt lat="41.32143" lon="19.78954">
        <ele>142.309106</ele>
        <time>2022-05-06T11:50:05.552Z</time>
      </trkpt>
      <trkpt lat="41.32143" lon="19.7897">
        <ele>141.807304</ele>
        <time>2022-05-06T11:50:08.537Z</time>
      </trkpt>
      <trkpt lat="41.3215" lon="19.78981">
        <ele>141.377106</ele>
        <time>2022-05-06T11:50:11.548Z</time>
      </trkpt>
      <trkpt lat="41.32158" lon="19.78988">
        <ele>140.984979</ele>
        <time>2022-05-06T11:50:14.533Z</time>
      </trkpt>
      <trkpt lat="41.32165" lon="19.78997">
        <ele>140.61694</ele>
        <time>2022-05-06T11:50:16.541Z</time>
      </trkpt>
      <trkpt lat="41.32172" lon="19.7901">
        <ele>140.129179</ele>
        <time>2022-05-06T11:50:19.546Z</time>
      </trkpt>
      <trkpt lat="41.3218" lon="19.79024">
        <ele>139.60304</ele>
        <time>2022-05-06T11:50:22.573Z</time>
      </trkpt>
      <trkpt lat="41.32185" lon="19.7904">
        <ele>139.072522</ele>
        <time>2022-05-06T11:50:25.565Z</time>
      </trkpt>
      <trkpt lat="41.32188" lon="19.79052">
        <ele>138.699503</ele>
        <time>2022-05-06T11:50:27.544Z</time>
      </trkpt>
      <trkpt lat="41.32191" lon="19.79063">
        <ele>138.339482</ele>
        <time>2022-05-06T11:50:29.582Z</time>
      </trkpt>
      <trkpt lat="41.32195" lon="19.79079">
        <ele>138.251429</ele>
        <time>2022-05-06T11:50:32.570Z</time>
      </trkpt>
      <trkpt lat="41.32199" lon="19.79095">
        <ele>138.634222</ele>
        <time>2022-05-06T11:50:35.543Z</time>
      </trkpt>
      <trkpt lat="41.32203" lon="19.79109">
        <ele>139.009913</ele>
        <time>2022-05-06T11:50:38.545Z</time>
      </trkpt>
      <trkpt lat="41.32207" lon="19.79125">
        <ele>139.395928</ele>
        <time>2022-05-06T11:50:41.586Z</time>
      </trkpt>
      <trkpt lat="41.3221" lon="19.7914">
        <ele>139.765097</ele>
        <time>2022-05-06T11:50:44.547Z</time>
      </trkpt>
      <trkpt lat="41.32214" lon="19.79155">
        <ele>140.141103</ele>
        <time>2022-05-06T11:50:47.563Z</time>
      </trkpt>
      <trkpt lat="41.32218" lon="19.79166">
        <ele>140.438898</ele>
        <time>2022-05-06T11:50:49.550Z</time>
      </trkpt>
      <trkpt lat="41.32222" lon="19.7918">
        <ele>140.782658</ele>
        <time>2022-05-06T11:50:51.563Z</time>
      </trkpt>
      <trkpt lat="41.32227" lon="19.79195">
        <ele>141.174335</ele>
        <time>2022-05-06T11:50:53.578Z</time>
      </trkpt>
      <trkpt lat="41.32234" lon="19.79211">
        <ele>141.610443</ele>
        <time>2022-05-06T11:50:55.532Z</time>
      </trkpt>
      <trkpt lat="41.32238" lon="19.79226">
        <ele>141.987222</ele>
        <time>2022-05-06T11:50:57.534Z</time>
      </trkpt>
      <trkpt lat="41.32242" lon="19.79241">
        <ele>142.349777</ele>
        <time>2022-05-06T11:50:59.583Z</time>
      </trkpt>
      <trkpt lat="41.32245" lon="19.79254">
        <ele>142.691165</ele>
        <time>2022-05-06T11:51:01.539Z</time>
      </trkpt>
      <trkpt lat="41.3225" lon="19.79267">
        <ele>143.034842</ele>
        <time>2022-05-06T11:51:03.554Z</time>
      </trkpt>
      <trkpt lat="41.32254" lon="19.7928">
        <ele>143.372057</ele>
        <time>2022-05-06T11:51:05.547Z</time>
      </trkpt>
      <trkpt lat="41.32258" lon="19.79293">
        <ele>143.699174</ele>
        <time>2022-05-06T11:51:07.540Z</time>
      </trkpt>
      <trkpt lat="41.32261" lon="19.79306">
        <ele>144.336708</ele>
        <time>2022-05-06T11:51:09.547Z</time>
      </trkpt>
      <trkpt lat="41.32265" lon="19.79319">
        <ele>145.012366</ele>
        <time>2022-05-06T11:51:11.538Z</time>
      </trkpt>
      <trkpt lat="41.3227" lon="19.79331">
        <ele>145.655982</ele>
        <time>2022-05-06T11:51:13.569Z</time>
      </trkpt>
      <trkpt lat="41.32276" lon="19.79344">
        <ele>146.431198</ele>
        <time>2022-05-06T11:51:16.564Z</time>
      </trkpt>
      <trkpt lat="41.32283" lon="19.79354">
        <ele>147.073616</ele>
        <time>2022-05-06T11:51:20.541Z</time>
      </trkpt>
      <trkpt lat="41.32287" lon="19.7937">
        <ele>147.931163</ele>
        <time>2022-05-06T11:51:24.545Z</time>
      </trkpt>
      <trkpt lat="41.32291" lon="19.79382">
        <ele>148.557485</ele>
        <time>2022-05-06T11:51:26.551Z</time>
      </trkpt>
      <trkpt lat="41.32296" lon="19.79396">
        <ele>149.287044</ele>
        <time>2022-05-06T11:51:28.544Z</time>
      </trkpt>
      <trkpt lat="41.32301" lon="19.79408">
        <ele>150.000019</ele>
        <time>2022-05-06T11:51:30.543Z</time>
      </trkpt>
      <trkpt lat="41.32306" lon="19.79422">
        <ele>150.722528</ele>
        <time>2022-05-06T11:51:32.554Z</time>
      </trkpt>
      <trkpt lat="41.32308" lon="19.79438">
        <ele>151.535281</ele>
        <time>2022-05-06T11:51:35.537Z</time>
      </trkpt>
      <trkpt lat="41.32313" lon="19.79451">
        <ele>152.244469</ele>
        <time>2022-05-06T11:51:39.532Z</time>
      </trkpt>
      <trkpt lat="41.32314" lon="19.79463">
        <ele>152.852224</ele>
        <time>2022-05-06T11:51:42.557Z</time>
      </trkpt>
      <trkpt lat="41.32317" lon="19.79475">
        <ele>153.449494</ele>
        <time>2022-05-06T11:51:45.536Z</time>
      </trkpt>
      <trkpt lat="41.32321" lon="19.79491">
        <ele>154.242101</ele>
        <time>2022-05-06T11:51:48.547Z</time>
      </trkpt>
      <trkpt lat="41.32326" lon="19.79505">
        <ele>155.056076</ele>
        <time>2022-05-06T11:51:51.545Z</time>
      </trkpt>
      <trkpt lat="41.3233" lon="19.79518">
        <ele>155.480066</ele>
        <time>2022-05-06T11:51:54.551Z</time>
      </trkpt>
      <trkpt lat="41.32332" lon="19.79532">
        <ele>155.606935</ele>
        <time>2022-05-06T11:51:57.559Z</time>
      </trkpt>
      <trkpt lat="41.3233" lon="19.79546">
        <ele>155.732634</ele>
        <time>2022-05-06T11:51:59.553Z</time>
      </trkpt>
      <trkpt lat="41.32331" lon="19.7956">
        <ele>155.860772</ele>
        <time>2022-05-06T11:52:01.564Z</time>
      </trkpt>
      <trkpt lat="41.32334" lon="19.79573">
        <ele>155.984507</ele>
        <time>2022-05-06T11:52:03.541Z</time>
      </trkpt>
      <trkpt lat="41.32337" lon="19.79585">
        <ele>156.091235</ele>
        <time>2022-05-06T11:52:05.546Z</time>
      </trkpt>
      <trkpt lat="41.32339" lon="19.79599">
        <ele>156.222794</ele>
        <time>2022-05-06T11:52:07.563Z</time>
      </trkpt>
      <trkpt lat="41.32341" lon="19.79617">
        <ele>156.380598</ele>
        <time>2022-05-06T11:52:09.556Z</time>
      </trkpt>
      <trkpt lat="41.32341" lon="19.79631">
        <ele>156.505191</ele>
        <time>2022-05-06T11:52:11.550Z</time>
      </trkpt>
      <trkpt lat="41.32344" lon="19.79645">
        <ele>156.632449</ele>
        <time>2022-05-06T11:52:14.535Z</time>
      </trkpt>
      <trkpt lat="41.32348" lon="19.79656">
        <ele>156.743115</ele>
        <time>2022-05-06T11:52:17.547Z</time>
      </trkpt>
      <trkpt lat="41.32354" lon="19.79667">
        <ele>156.859132</ele>
        <time>2022-05-06T11:52:20.531Z</time>
      </trkpt>
      <trkpt lat="41.32359" lon="19.7968">
        <ele>156.99028</ele>
        <time>2022-05-06T11:52:23.558Z</time>
      </trkpt>
      <trkpt lat="41.32364" lon="19.79693">
        <ele>157.124081</ele>
        <time>2022-05-06T11:52:26.542Z</time>
      </trkpt>
      <trkpt lat="41.32369" lon="19.79705">
        <ele>157.240895</ele>
        <time>2022-05-06T11:52:28.554Z</time>
      </trkpt>
      <trkpt lat="41.32374" lon="19.79717">
        <ele>157.363685</ele>
        <time>2022-05-06T11:52:30.562Z</time>
      </trkpt>
      <trkpt lat="41.32379" lon="19.7973">
        <ele>157.492461</ele>
        <time>2022-05-06T11:52:32.584Z</time>
      </trkpt>
      <trkpt lat="41.32385" lon="19.79743">
        <ele>157.408302</ele>
        <time>2022-05-06T11:52:34.533Z</time>
      </trkpt>
      <trkpt lat="41.32389" lon="19.79755">
        <ele>157.191597</ele>
        <time>2022-05-06T11:52:36.531Z</time>
      </trkpt>
      <trkpt lat="41.32393" lon="19.79768">
        <ele>156.955282</ele>
        <time>2022-05-06T11:52:39.551Z</time>
      </trkpt>
      <trkpt lat="41.32395" lon="19.79782">
        <ele>156.731186</ele>
        <time>2022-05-06T11:52:42.551Z</time>
      </trkpt>
      <trkpt lat="41.32398" lon="19.79796">
        <ele>156.49131</ele>
        <time>2022-05-06T11:52:45.536Z</time>
      </trkpt>
      <trkpt lat="41.32399" lon="19.7981">
        <ele>156.257034</ele>
        <time>2022-05-06T11:52:48.544Z</time>
      </trkpt>
      <trkpt lat="41.32397" lon="19.79828">
        <ele>155.961799</ele>
        <time>2022-05-06T11:52:51.541Z</time>
      </trkpt>
      <trkpt lat="41.32399" lon="19.79845">
        <ele>155.683227</ele>
        <time>2022-05-06T11:52:54.552Z</time>
      </trkpt>
      <trkpt lat="41.32402" lon="19.79856">
        <ele>155.485922</ele>
        <time>2022-05-06T11:52:56.544Z</time>
      </trkpt>
      <trkpt lat="41.32407" lon="19.79869">
        <ele>155.260905</ele>
        <time>2022-05-06T11:52:58.518Z</time>
      </trkpt>
      <trkpt lat="41.32413" lon="19.79883">
        <ele>155.003197</ele>
        <time>2022-05-06T11:53:01.571Z</time>
      </trkpt>
      <trkpt lat="41.32417" lon="19.79894">
        <ele>154.783531</ele>
        <time>2022-05-06T11:53:03.600Z</time>
      </trkpt>
      <trkpt lat="41.32421" lon="19.79905">
        <ele>154.585327</ele>
        <time>2022-05-06T11:53:05.542Z</time>
      </trkpt>
      <trkpt lat="41.32425" lon="19.79916">
        <ele>154.388589</ele>
        <time>2022-05-06T11:53:07.542Z</time>
      </trkpt>
      <trkpt lat="41.3243" lon="19.79931">
        <ele>154.133086</ele>
        <time>2022-05-06T11:53:09.563Z</time>
      </trkpt>
      <trkpt lat="41.32433" lon="19.79945">
        <ele>153.893568</ele>
        <time>2022-05-06T11:53:11.557Z</time>
      </trkpt>
      <trkpt lat="41.32437" lon="19.79956">
        <ele>153.684655</ele>
        <time>2022-05-06T11:53:13.543Z</time>
      </trkpt>
      <trkpt lat="41.32441" lon="19.79971">
        <ele>153.424715</ele>
        <time>2022-05-06T11:53:16.544Z</time>
      </trkpt>
      <trkpt lat="41.32445" lon="19.79983">
        <ele>153.233144</ele>
        <time>2022-05-06T11:53:18.553Z</time>
      </trkpt>
      <trkpt lat="41.3245" lon="19.79999">
        <ele>152.948856</ele>
        <time>2022-05-06T11:53:21.549Z</time>
      </trkpt>
      <trkpt lat="41.32455" lon="19.80014">
        <ele>152.685793</ele>
        <time>2022-05-06T11:53:24.535Z</time>
      </trkpt>
      <trkpt lat="41.32459" lon="19.80025">
        <ele>152.492421</ele>
        <time>2022-05-06T11:53:26.550Z</time>
      </trkpt>
      <trkpt lat="41.32464" lon="19.80038">
        <ele>152.267901</ele>
        <time>2022-05-06T11:53:28.573Z</time>
      </trkpt>
      <trkpt lat="41.32468" lon="19.80049">
        <ele>152.058592</ele>
        <time>2022-05-06T11:53:30.532Z</time>
      </trkpt>
      <trkpt lat="41.32473" lon="19.80061">
        <ele>151.853523</ele>
        <time>2022-05-06T11:53:32.532Z</time>
      </trkpt>
      <trkpt lat="41.32478" lon="19.80075">
        <ele>151.604975</ele>
        <time>2022-05-06T11:53:35.539Z</time>
      </trkpt>
      <trkpt lat="41.32481" lon="19.80089">
        <ele>151.373174</ele>
        <time>2022-05-06T11:53:39.523Z</time>
      </trkpt>
      <trkpt lat="41.32486" lon="19.80104">
        <ele>151.115185</ele>
        <time>2022-05-06T11:53:43.551Z</time>
      </trkpt>
      <trkpt lat="41.32491" lon="19.80116">
        <ele>150.895897</ele>
        <time>2022-05-06T11:53:46.552Z</time>
      </trkpt>
      <trkpt lat="41.32496" lon="19.80132">
        <ele>150.621218</ele>
        <time>2022-05-06T11:53:49.541Z</time>
      </trkpt>
      <trkpt lat="41.32502" lon="19.80148">
        <ele>150.32932</ele>
        <time>2022-05-06T11:53:52.540Z</time>
      </trkpt>
      <trkpt lat="41.32508" lon="19.80162">
        <ele>150.076793</ele>
        <time>2022-05-06T11:53:55.536Z</time>
      </trkpt>
      <trkpt lat="41.32513" lon="19.80172">
        <ele>149.877851</ele>
        <time>2022-05-06T11:53:57.547Z</time>
      </trkpt>
      <trkpt lat="41.3252" lon="19.80188">
        <ele>150.059325</ele>
        <time>2022-05-06T11:54:00.540Z</time>
      </trkpt>
      <trkpt lat="41.32523" lon="19.80201">
        <ele>150.282259</ele>
        <time>2022-05-06T11:54:03.554Z</time>
      </trkpt>
      <trkpt lat="41.32527" lon="19.80212">
        <ele>150.481989</ele>
        <time>2022-05-06T11:54:06.532Z</time>
      </trkpt>
      <trkpt lat="41.32531" lon="19.80225">
        <ele>150.712614</ele>
        <time>2022-05-06T11:54:09.551Z</time>
      </trkpt>
      <trkpt lat="41.32536" lon="19.80239">
        <ele>150.963554</ele>
        <time>2022-05-06T11:54:12.566Z</time>
      </trkpt>
      <trkpt lat="41.32541" lon="19.80254">
        <ele>151.229546</ele>
        <time>2022-05-06T11:54:15.549Z</time>
      </trkpt>
      <trkpt lat="41.32545" lon="19.80271">
        <ele>151.515312</ele>
        <time>2022-05-06T11:54:18.557Z</time>
      </trkpt>
      <trkpt lat="41.32549" lon="19.80286">
        <ele>151.784831</ele>
        <time>2022-05-06T11:54:21.542Z</time>
      </trkpt>
      <trkpt lat="41.32552" lon="19.803">
        <ele>152.022794</ele>
        <time>2022-05-06T11:54:24.550Z</time>
      </trkpt>
      <trkpt lat="41.32557" lon="19.80312">
        <ele>152.242806</ele>
        <time>2022-05-06T11:54:28.542Z</time>
      </trkpt>
      <trkpt lat="41.32559" lon="19.80324">
        <ele>152.44535</ele>
        <time>2022-05-06T11:54:33.536Z</time>
      </trkpt>
      <trkpt lat="41.32557" lon="19.80342">
        <ele>152.743382</ele>
        <time>2022-05-06T11:55:15.543Z</time>
      </trkpt>
      <trkpt lat="41.32561" lon="19.80354">
        <ele>152.955321</ele>
        <time>2022-05-06T11:55:20.540Z</time>
      </trkpt>
      <trkpt lat="41.32568" lon="19.80365">
        <ele>153.190675</ele>
        <time>2022-05-06T11:55:23.545Z</time>
      </trkpt>
      <trkpt lat="41.32573" lon="19.80376">
        <ele>153.403671</ele>
        <time>2022-05-06T11:55:26.550Z</time>
      </trkpt>
      <trkpt lat="41.32578" lon="19.8039">
        <ele>153.643894</ele>
        <time>2022-05-06T11:55:29.529Z</time>
      </trkpt>
      <trkpt lat="41.32581" lon="19.80401">
        <ele>153.730801</ele>
        <time>2022-05-06T11:55:32.526Z</time>
      </trkpt>
      <trkpt lat="41.32585" lon="19.80413">
        <ele>153.730801</ele>
        <time>2022-05-06T11:55:35.542Z</time>
      </trkpt>
      <trkpt lat="41.32589" lon="19.80425">
        <ele>153.730801</ele>
        <time>2022-05-06T11:55:38.549Z</time>
      </trkpt>
      <trkpt lat="41.32591" lon="19.80436">
        <ele>153.730801</ele>
        <time>2022-05-06T11:55:41.557Z</time>
      </trkpt>
      <trkpt lat="41.32596" lon="19.80449">
        <ele>153.730801</ele>
        <time>2022-05-06T11:55:44.535Z</time>
      </trkpt>
      <trkpt lat="41.326" lon="19.80461">
        <ele>153.730801</ele>
        <time>2022-05-06T11:55:47.543Z</time>
      </trkpt>
      <trkpt lat="41.32606" lon="19.80475">
        <ele>153.730801</ele>
        <time>2022-05-06T11:55:50.551Z</time>
      </trkpt>
      <trkpt lat="41.3261" lon="19.80486">
        <ele>153.730801</ele>
        <time>2022-05-06T11:55:53.532Z</time>
      </trkpt>
      <trkpt lat="41.32615" lon="19.80497">
        <ele>153.730801</ele>
        <time>2022-05-06T11:55:56.542Z</time>
      </trkpt>
      <trkpt lat="41.32619" lon="19.80507">
        <ele>153.730801</ele>
        <time>2022-05-06T11:55:59.561Z</time>
      </trkpt>
      <trkpt lat="41.32623" lon="19.80518">
        <ele>153.730801</ele>
        <time>2022-05-06T11:56:02.545Z</time>
      </trkpt>
      <trkpt lat="41.32623" lon="19.8053">
        <ele>153.730801</ele>
        <time>2022-05-06T11:56:05.554Z</time>
      </trkpt>
      <trkpt lat="41.32617" lon="19.8054">
        <ele>153.730801</ele>
        <time>2022-05-06T11:56:10.519Z</time>
      </trkpt>
      <trkpt lat="41.3262" lon="19.80554">
        <ele>153.730801</ele>
        <time>2022-05-06T11:56:15.558Z</time>
      </trkpt>
      <trkpt lat="41.32619" lon="19.80568">
        <ele>153.730801</ele>
        <time>2022-05-06T11:56:18.536Z</time>
      </trkpt>
      <trkpt lat="41.3262" lon="19.8058">
        <ele>153.730801</ele>
        <time>2022-05-06T11:56:22.544Z</time>
      </trkpt>
      <trkpt lat="41.32617" lon="19.80594">
        <ele>153.730801</ele>
        <time>2022-05-06T11:56:28.534Z</time>
      </trkpt>
      <trkpt lat="41.3262" lon="19.80594">
        <ele>153.730801</ele>
        <time>2022-05-06T11:57:38.908Z</time>
      </trkpt>
    </trkseg>
  </trk>
</gpx>